<?xml version="1.0" encoding="UTF-8" standalone="no" ?>
<gpx xmlns="http://www.topografix.com/GPX/1/1" xmlns:xsi="http://www.w3.org/2001/XMLSchema-instance" xsi:schemaLocation="http://www.topografix.com/GPX/1/1 http://www.topografix.com/GPX/1/1/gpx.xsd" version="1.1" creator="VisuGPX - https://www.visugpx.com">
  <metadata>
    <name>Le Piton des Neiges par la Plaine des Cafres ar</name>
    <desc><![CDATA[un parcours humide dans la partie plaine des cafres coteau kerveguen]]></desc>
  </metadata>
  <trk>
    <name><![CDATA[piton des neiges par pdc]]></name>
    <trkseg>
      <trkpt lat="-21.16116" lon="55.5709">
        <ele>1578.5</ele>
        <time>2013-05-04T22:59:16Z</time>
      </trkpt>
      <trkpt lat="-21.16108" lon="55.57087">
        <ele>1580.1</ele>
        <time>2013-05-04T22:59:33Z</time>
      </trkpt>
      <trkpt lat="-21.16106" lon="55.57078">
        <ele>1580.9</ele>
        <time>2013-05-04T22:59:57Z</time>
      </trkpt>
      <trkpt lat="-21.16107" lon="55.57077">
        <ele>1580.7</ele>
        <time>2013-05-04T22:59:58Z</time>
      </trkpt>
      <trkpt lat="-21.16104" lon="55.5706">
        <ele>1580.3</ele>
        <time>2013-05-04T23:00:11Z</time>
      </trkpt>
      <trkpt lat="-21.161" lon="55.57052">
        <ele>1580.9</ele>
        <time>2013-05-04T23:00:19Z</time>
      </trkpt>
      <trkpt lat="-21.16096" lon="55.57045">
        <ele>1581.9</ele>
        <time>2013-05-04T23:00:27Z</time>
      </trkpt>
      <trkpt lat="-21.16092" lon="55.57036">
        <ele>1583.1</ele>
        <time>2013-05-04T23:00:33Z</time>
      </trkpt>
      <trkpt lat="-21.16088" lon="55.57029">
        <ele>1582.9</ele>
        <time>2013-05-04T23:00:39Z</time>
      </trkpt>
      <trkpt lat="-21.16084" lon="55.57022">
        <ele>1582.5</ele>
        <time>2013-05-04T23:00:45Z</time>
      </trkpt>
      <trkpt lat="-21.1608" lon="55.57013">
        <ele>1582.2</ele>
        <time>2013-05-04T23:00:51Z</time>
      </trkpt>
      <trkpt lat="-21.16076" lon="55.57006">
        <ele>1583.6</ele>
        <time>2013-05-04T23:00:57Z</time>
      </trkpt>
      <trkpt lat="-21.16073" lon="55.56998">
        <ele>1584.8</ele>
        <time>2013-05-04T23:01:03Z</time>
      </trkpt>
      <trkpt lat="-21.16073" lon="55.56997">
        <ele>1584.7</ele>
        <time>2013-05-04T23:01:04Z</time>
      </trkpt>
      <trkpt lat="-21.1607" lon="55.5698">
        <ele>1584.9</ele>
        <time>2013-05-04T23:01:15Z</time>
      </trkpt>
      <trkpt lat="-21.1607" lon="55.56971">
        <ele>1585.8</ele>
        <time>2013-05-04T23:01:21Z</time>
      </trkpt>
      <trkpt lat="-21.1607" lon="55.56962">
        <ele>1585.4</ele>
        <time>2013-05-04T23:01:27Z</time>
      </trkpt>
      <trkpt lat="-21.1607" lon="55.56953">
        <ele>1585.4</ele>
        <time>2013-05-04T23:01:32Z</time>
      </trkpt>
      <trkpt lat="-21.16069" lon="55.56945">
        <ele>1586.2</ele>
        <time>2013-05-04T23:01:38Z</time>
      </trkpt>
      <trkpt lat="-21.16068" lon="55.56937">
        <ele>1585.3</ele>
        <time>2013-05-04T23:01:43Z</time>
      </trkpt>
      <trkpt lat="-21.16066" lon="55.56928">
        <ele>1587.3</ele>
        <time>2013-05-04T23:01:49Z</time>
      </trkpt>
      <trkpt lat="-21.16065" lon="55.5692">
        <ele>1587.5</ele>
        <time>2013-05-04T23:01:55Z</time>
      </trkpt>
      <trkpt lat="-21.16064" lon="55.56912">
        <ele>1587.2</ele>
        <time>2013-05-04T23:02:00Z</time>
      </trkpt>
      <trkpt lat="-21.16064" lon="55.56903">
        <ele>1588.1</ele>
        <time>2013-05-04T23:02:05Z</time>
      </trkpt>
      <trkpt lat="-21.16064" lon="55.56902">
        <ele>1588.5</ele>
        <time>2013-05-04T23:02:06Z</time>
      </trkpt>
      <trkpt lat="-21.16064" lon="55.56886">
        <ele>1589.8</ele>
        <time>2013-05-04T23:02:16Z</time>
      </trkpt>
      <trkpt lat="-21.16063" lon="55.56877">
        <ele>1589.8</ele>
        <time>2013-05-04T23:02:22Z</time>
      </trkpt>
      <trkpt lat="-21.16063" lon="55.56868">
        <ele>1588.4</ele>
        <time>2013-05-04T23:02:27Z</time>
      </trkpt>
      <trkpt lat="-21.16059" lon="55.56861">
        <ele>1589.2</ele>
        <time>2013-05-04T23:02:33Z</time>
      </trkpt>
      <trkpt lat="-21.16054" lon="55.56854">
        <ele>1590</ele>
        <time>2013-05-04T23:02:39Z</time>
      </trkpt>
      <trkpt lat="-21.16048" lon="55.56847">
        <ele>1590.6</ele>
        <time>2013-05-04T23:02:45Z</time>
      </trkpt>
      <trkpt lat="-21.16043" lon="55.5684">
        <ele>1590.5</ele>
        <time>2013-05-04T23:02:51Z</time>
      </trkpt>
      <trkpt lat="-21.16037" lon="55.56834">
        <ele>1590.4</ele>
        <time>2013-05-04T23:02:57Z</time>
      </trkpt>
      <trkpt lat="-21.16033" lon="55.56826">
        <ele>1591.7</ele>
        <time>2013-05-04T23:03:03Z</time>
      </trkpt>
      <trkpt lat="-21.16031" lon="55.56817">
        <ele>1591.8</ele>
        <time>2013-05-04T23:03:09Z</time>
      </trkpt>
      <trkpt lat="-21.16031" lon="55.56815">
        <ele>1591.8</ele>
        <time>2013-05-04T23:03:10Z</time>
      </trkpt>
      <trkpt lat="-21.16027" lon="55.56799">
        <ele>1592.2</ele>
        <time>2013-05-04T23:03:21Z</time>
      </trkpt>
      <trkpt lat="-21.16027" lon="55.56791">
        <ele>1593.7</ele>
        <time>2013-05-04T23:03:27Z</time>
      </trkpt>
      <trkpt lat="-21.16025" lon="55.56781">
        <ele>1595</ele>
        <time>2013-05-04T23:03:34Z</time>
      </trkpt>
      <trkpt lat="-21.1602" lon="55.56774">
        <ele>1596.9</ele>
        <time>2013-05-04T23:03:42Z</time>
      </trkpt>
      <trkpt lat="-21.16016" lon="55.56766">
        <ele>1596.5</ele>
        <time>2013-05-04T23:03:49Z</time>
      </trkpt>
      <trkpt lat="-21.16013" lon="55.56757">
        <ele>1596.7</ele>
        <time>2013-05-04T23:03:57Z</time>
      </trkpt>
      <trkpt lat="-21.1601" lon="55.56748">
        <ele>1597</ele>
        <time>2013-05-04T23:04:05Z</time>
      </trkpt>
      <trkpt lat="-21.16004" lon="55.56741">
        <ele>1597.6</ele>
        <time>2013-05-04T23:04:12Z</time>
      </trkpt>
      <trkpt lat="-21.16003" lon="55.5674">
        <ele>1597.5</ele>
        <time>2013-05-04T23:04:13Z</time>
      </trkpt>
      <trkpt lat="-21.15996" lon="55.56725">
        <ele>1599.1</ele>
        <time>2013-05-04T23:04:23Z</time>
      </trkpt>
      <trkpt lat="-21.1599" lon="55.5672">
        <ele>1600.2</ele>
        <time>2013-05-04T23:04:28Z</time>
      </trkpt>
      <trkpt lat="-21.15985" lon="55.56712">
        <ele>1600.6</ele>
        <time>2013-05-04T23:04:35Z</time>
      </trkpt>
      <trkpt lat="-21.15982" lon="55.56703">
        <ele>1600.9</ele>
        <time>2013-05-04T23:04:41Z</time>
      </trkpt>
      <trkpt lat="-21.15978" lon="55.56695">
        <ele>1602.8</ele>
        <time>2013-05-04T23:04:47Z</time>
      </trkpt>
      <trkpt lat="-21.15973" lon="55.56688">
        <ele>1603.3</ele>
        <time>2013-05-04T23:04:53Z</time>
      </trkpt>
      <trkpt lat="-21.15968" lon="55.56681">
        <ele>1603.8</ele>
        <time>2013-05-04T23:04:58Z</time>
      </trkpt>
      <trkpt lat="-21.15961" lon="55.56675">
        <ele>1606</ele>
        <time>2013-05-04T23:05:04Z</time>
      </trkpt>
      <trkpt lat="-21.15957" lon="55.56667">
        <ele>1606.5</ele>
        <time>2013-05-04T23:05:11Z</time>
      </trkpt>
      <trkpt lat="-21.15953" lon="55.56659">
        <ele>1608</ele>
        <time>2013-05-04T23:05:17Z</time>
      </trkpt>
      <trkpt lat="-21.15953" lon="55.56657">
        <ele>1608.2</ele>
        <time>2013-05-04T23:05:18Z</time>
      </trkpt>
      <trkpt lat="-21.15944" lon="55.56645">
        <ele>1608.6</ele>
        <time>2013-05-04T23:05:29Z</time>
      </trkpt>
      <trkpt lat="-21.15937" lon="55.5664">
        <ele>1608.9</ele>
        <time>2013-05-04T23:05:35Z</time>
      </trkpt>
      <trkpt lat="-21.15934" lon="55.56632">
        <ele>1610</ele>
        <time>2013-05-04T23:05:41Z</time>
      </trkpt>
      <trkpt lat="-21.1593" lon="55.56624">
        <ele>1610</ele>
        <time>2013-05-04T23:05:47Z</time>
      </trkpt>
      <trkpt lat="-21.15924" lon="55.56618">
        <ele>1612</ele>
        <time>2013-05-04T23:05:53Z</time>
      </trkpt>
      <trkpt lat="-21.15915" lon="55.56615">
        <ele>1611.5</ele>
        <time>2013-05-04T23:05:59Z</time>
      </trkpt>
      <trkpt lat="-21.15907" lon="55.56613">
        <ele>1611.6</ele>
        <time>2013-05-04T23:06:05Z</time>
      </trkpt>
      <trkpt lat="-21.15899" lon="55.56611">
        <ele>1612.4</ele>
        <time>2013-05-04T23:06:11Z</time>
      </trkpt>
      <trkpt lat="-21.15891" lon="55.56607">
        <ele>1612.8</ele>
        <time>2013-05-04T23:06:23Z</time>
      </trkpt>
      <trkpt lat="-21.15891" lon="55.56606">
        <ele>1613.2</ele>
        <time>2013-05-04T23:06:24Z</time>
      </trkpt>
      <trkpt lat="-21.15885" lon="55.56592">
        <ele>1614.5</ele>
        <time>2013-05-04T23:06:34Z</time>
      </trkpt>
      <trkpt lat="-21.15881" lon="55.56585">
        <ele>1615.1</ele>
        <time>2013-05-04T23:06:40Z</time>
      </trkpt>
      <trkpt lat="-21.15878" lon="55.56577">
        <ele>1614.7</ele>
        <time>2013-05-04T23:06:45Z</time>
      </trkpt>
      <trkpt lat="-21.15877" lon="55.56569">
        <ele>1615.3</ele>
        <time>2013-05-04T23:06:51Z</time>
      </trkpt>
      <trkpt lat="-21.15875" lon="55.56561">
        <ele>1615.2</ele>
        <time>2013-05-04T23:06:57Z</time>
      </trkpt>
      <trkpt lat="-21.15867" lon="55.56557">
        <ele>1615.9</ele>
        <time>2013-05-04T23:07:03Z</time>
      </trkpt>
      <trkpt lat="-21.1586" lon="55.56553">
        <ele>1615.7</ele>
        <time>2013-05-04T23:07:09Z</time>
      </trkpt>
      <trkpt lat="-21.15852" lon="55.56553">
        <ele>1615.5</ele>
        <time>2013-05-04T23:07:14Z</time>
      </trkpt>
      <trkpt lat="-21.15845" lon="55.5655">
        <ele>1615.6</ele>
        <time>2013-05-04T23:07:19Z</time>
      </trkpt>
      <trkpt lat="-21.15837" lon="55.56548">
        <ele>1616.8</ele>
        <time>2013-05-04T23:07:24Z</time>
      </trkpt>
      <trkpt lat="-21.15836" lon="55.56547">
        <ele>1616.5</ele>
        <time>2013-05-04T23:07:25Z</time>
      </trkpt>
      <trkpt lat="-21.15823" lon="55.5654">
        <ele>1616.7</ele>
        <time>2013-05-04T23:07:36Z</time>
      </trkpt>
      <trkpt lat="-21.15818" lon="55.56533">
        <ele>1617.1</ele>
        <time>2013-05-04T23:07:42Z</time>
      </trkpt>
      <trkpt lat="-21.1581" lon="55.5653">
        <ele>1616.6</ele>
        <time>2013-05-04T23:07:47Z</time>
      </trkpt>
      <trkpt lat="-21.15803" lon="55.56525">
        <ele>1617.5</ele>
        <time>2013-05-04T23:07:53Z</time>
      </trkpt>
      <trkpt lat="-21.15797" lon="55.5652">
        <ele>1616.5</ele>
        <time>2013-05-04T23:07:58Z</time>
      </trkpt>
      <trkpt lat="-21.15791" lon="55.56515">
        <ele>1617.7</ele>
        <time>2013-05-04T23:08:04Z</time>
      </trkpt>
      <trkpt lat="-21.15787" lon="55.56507">
        <ele>1618.2</ele>
        <time>2013-05-04T23:08:10Z</time>
      </trkpt>
      <trkpt lat="-21.1578" lon="55.56502">
        <ele>1618.9</ele>
        <time>2013-05-04T23:08:16Z</time>
      </trkpt>
      <trkpt lat="-21.15772" lon="55.56499">
        <ele>1619.8</ele>
        <time>2013-05-04T23:08:29Z</time>
      </trkpt>
      <trkpt lat="-21.15771" lon="55.56498">
        <ele>1619.8</ele>
        <time>2013-05-04T23:08:30Z</time>
      </trkpt>
      <trkpt lat="-21.15763" lon="55.56484">
        <ele>1619.7</ele>
        <time>2013-05-04T23:08:40Z</time>
      </trkpt>
      <trkpt lat="-21.15758" lon="55.56476">
        <ele>1620.6</ele>
        <time>2013-05-04T23:08:46Z</time>
      </trkpt>
      <trkpt lat="-21.15757" lon="55.56467">
        <ele>1620.9</ele>
        <time>2013-05-04T23:08:52Z</time>
      </trkpt>
      <trkpt lat="-21.15755" lon="55.56459">
        <ele>1621.4</ele>
        <time>2013-05-04T23:08:57Z</time>
      </trkpt>
      <trkpt lat="-21.15753" lon="55.5645">
        <ele>1622.5</ele>
        <time>2013-05-04T23:09:03Z</time>
      </trkpt>
      <trkpt lat="-21.15751" lon="55.56442">
        <ele>1622.7</ele>
        <time>2013-05-04T23:09:09Z</time>
      </trkpt>
      <trkpt lat="-21.1575" lon="55.56433">
        <ele>1622.1</ele>
        <time>2013-05-04T23:09:15Z</time>
      </trkpt>
      <trkpt lat="-21.15749" lon="55.56424">
        <ele>1623.4</ele>
        <time>2013-05-04T23:09:21Z</time>
      </trkpt>
      <trkpt lat="-21.15747" lon="55.56415">
        <ele>1624.1</ele>
        <time>2013-05-04T23:09:27Z</time>
      </trkpt>
      <trkpt lat="-21.15745" lon="55.56407">
        <ele>1623.5</ele>
        <time>2013-05-04T23:09:33Z</time>
      </trkpt>
      <trkpt lat="-21.15745" lon="55.56405">
        <ele>1623.4</ele>
        <time>2013-05-04T23:09:34Z</time>
      </trkpt>
      <trkpt lat="-21.15735" lon="55.56393">
        <ele>1623.1</ele>
        <time>2013-05-04T23:09:45Z</time>
      </trkpt>
      <trkpt lat="-21.15729" lon="55.56387">
        <ele>1623.9</ele>
        <time>2013-05-04T23:09:50Z</time>
      </trkpt>
      <trkpt lat="-21.15724" lon="55.5638">
        <ele>1624.2</ele>
        <time>2013-05-04T23:09:55Z</time>
      </trkpt>
      <trkpt lat="-21.15719" lon="55.56374">
        <ele>1624.1</ele>
        <time>2013-05-04T23:10:00Z</time>
      </trkpt>
      <trkpt lat="-21.15714" lon="55.56367">
        <ele>1624.6</ele>
        <time>2013-05-04T23:10:06Z</time>
      </trkpt>
      <trkpt lat="-21.15708" lon="55.56361">
        <ele>1625.4</ele>
        <time>2013-05-04T23:10:12Z</time>
      </trkpt>
      <trkpt lat="-21.15701" lon="55.56356">
        <ele>1627.2</ele>
        <time>2013-05-04T23:10:19Z</time>
      </trkpt>
      <trkpt lat="-21.15695" lon="55.56351">
        <ele>1626.8</ele>
        <time>2013-05-04T23:10:24Z</time>
      </trkpt>
      <trkpt lat="-21.15689" lon="55.56344">
        <ele>1626.5</ele>
        <time>2013-05-04T23:10:29Z</time>
      </trkpt>
      <trkpt lat="-21.15686" lon="55.56337">
        <ele>1627.4</ele>
        <time>2013-05-04T23:10:35Z</time>
      </trkpt>
      <trkpt lat="-21.15685" lon="55.56336">
        <ele>1627.5</ele>
        <time>2013-05-04T23:10:36Z</time>
      </trkpt>
      <trkpt lat="-21.15678" lon="55.56322">
        <ele>1630.4</ele>
        <time>2013-05-04T23:10:47Z</time>
      </trkpt>
      <trkpt lat="-21.15674" lon="55.56315">
        <ele>1631.6</ele>
        <time>2013-05-04T23:10:53Z</time>
      </trkpt>
      <trkpt lat="-21.1567" lon="55.56308">
        <ele>1631.6</ele>
        <time>2013-05-04T23:10:58Z</time>
      </trkpt>
      <trkpt lat="-21.15666" lon="55.563">
        <ele>1632</ele>
        <time>2013-05-04T23:11:06Z</time>
      </trkpt>
      <trkpt lat="-21.15661" lon="55.56293">
        <ele>1634.5</ele>
        <time>2013-05-04T23:11:12Z</time>
      </trkpt>
      <trkpt lat="-21.15656" lon="55.56287">
        <ele>1635</ele>
        <time>2013-05-04T23:11:17Z</time>
      </trkpt>
      <trkpt lat="-21.1565" lon="55.5628">
        <ele>1635.1</ele>
        <time>2013-05-04T23:11:23Z</time>
      </trkpt>
      <trkpt lat="-21.15645" lon="55.56274">
        <ele>1636.4</ele>
        <time>2013-05-04T23:11:29Z</time>
      </trkpt>
      <trkpt lat="-21.15641" lon="55.56265">
        <ele>1637</ele>
        <time>2013-05-04T23:11:36Z</time>
      </trkpt>
      <trkpt lat="-21.15637" lon="55.56258">
        <ele>1637.1</ele>
        <time>2013-05-04T23:11:42Z</time>
      </trkpt>
      <trkpt lat="-21.15636" lon="55.56256">
        <ele>1637</ele>
        <time>2013-05-04T23:11:43Z</time>
      </trkpt>
      <trkpt lat="-21.15627" lon="55.56243">
        <ele>1640.1</ele>
        <time>2013-05-04T23:11:56Z</time>
      </trkpt>
      <trkpt lat="-21.15625" lon="55.56235">
        <ele>1640.2</ele>
        <time>2013-05-04T23:12:01Z</time>
      </trkpt>
      <trkpt lat="-21.15623" lon="55.56226">
        <ele>1640.6</ele>
        <time>2013-05-04T23:12:07Z</time>
      </trkpt>
      <trkpt lat="-21.1562" lon="55.56217">
        <ele>1641.2</ele>
        <time>2013-05-04T23:12:13Z</time>
      </trkpt>
      <trkpt lat="-21.15618" lon="55.56209">
        <ele>1641.9</ele>
        <time>2013-05-04T23:12:19Z</time>
      </trkpt>
      <trkpt lat="-21.15614" lon="55.562">
        <ele>1643.7</ele>
        <time>2013-05-04T23:12:27Z</time>
      </trkpt>
      <trkpt lat="-21.15611" lon="55.56193">
        <ele>1644</ele>
        <time>2013-05-04T23:12:33Z</time>
      </trkpt>
      <trkpt lat="-21.15608" lon="55.56184">
        <ele>1644.2</ele>
        <time>2013-05-04T23:12:40Z</time>
      </trkpt>
      <trkpt lat="-21.15604" lon="55.56176">
        <ele>1645.5</ele>
        <time>2013-05-04T23:12:51Z</time>
      </trkpt>
      <trkpt lat="-21.15603" lon="55.56175">
        <ele>1645.7</ele>
        <time>2013-05-04T23:12:52Z</time>
      </trkpt>
      <trkpt lat="-21.15598" lon="55.56161">
        <ele>1648.5</ele>
        <time>2013-05-04T23:13:06Z</time>
      </trkpt>
      <trkpt lat="-21.15595" lon="55.56152">
        <ele>1648.8</ele>
        <time>2013-05-04T23:13:17Z</time>
      </trkpt>
      <trkpt lat="-21.1559" lon="55.56144">
        <ele>1648.5</ele>
        <time>2013-05-04T23:13:26Z</time>
      </trkpt>
      <trkpt lat="-21.15586" lon="55.56137">
        <ele>1650.2</ele>
        <time>2013-05-04T23:13:33Z</time>
      </trkpt>
      <trkpt lat="-21.15582" lon="55.5613">
        <ele>1651</ele>
        <time>2013-05-04T23:13:38Z</time>
      </trkpt>
      <trkpt lat="-21.1558" lon="55.56122">
        <ele>1652.1</ele>
        <time>2013-05-04T23:13:43Z</time>
      </trkpt>
      <trkpt lat="-21.15576" lon="55.56113">
        <ele>1652.1</ele>
        <time>2013-05-04T23:13:49Z</time>
      </trkpt>
      <trkpt lat="-21.15573" lon="55.56106">
        <ele>1652.8</ele>
        <time>2013-05-04T23:13:54Z</time>
      </trkpt>
      <trkpt lat="-21.15572" lon="55.56105">
        <ele>1652.8</ele>
        <time>2013-05-04T23:13:55Z</time>
      </trkpt>
      <trkpt lat="-21.15562" lon="55.56091">
        <ele>1651.9</ele>
        <time>2013-05-04T23:14:08Z</time>
      </trkpt>
      <trkpt lat="-21.15556" lon="55.56085">
        <ele>1650.7</ele>
        <time>2013-05-04T23:14:15Z</time>
      </trkpt>
      <trkpt lat="-21.15549" lon="55.56079">
        <ele>1649.8</ele>
        <time>2013-05-04T23:14:21Z</time>
      </trkpt>
      <trkpt lat="-21.15543" lon="55.56074">
        <ele>1649.6</ele>
        <time>2013-05-04T23:14:26Z</time>
      </trkpt>
      <trkpt lat="-21.15537" lon="55.56068">
        <ele>1649.6</ele>
        <time>2013-05-04T23:14:32Z</time>
      </trkpt>
      <trkpt lat="-21.1553" lon="55.56062">
        <ele>1649.8</ele>
        <time>2013-05-04T23:14:39Z</time>
      </trkpt>
      <trkpt lat="-21.15525" lon="55.56055">
        <ele>1650.4</ele>
        <time>2013-05-04T23:14:45Z</time>
      </trkpt>
      <trkpt lat="-21.15519" lon="55.56048">
        <ele>1650.5</ele>
        <time>2013-05-04T23:14:51Z</time>
      </trkpt>
      <trkpt lat="-21.15514" lon="55.56042">
        <ele>1650.2</ele>
        <time>2013-05-04T23:14:56Z</time>
      </trkpt>
      <trkpt lat="-21.15513" lon="55.5604">
        <ele>1650.3</ele>
        <time>2013-05-04T23:14:57Z</time>
      </trkpt>
      <trkpt lat="-21.15507" lon="55.56025">
        <ele>1651.1</ele>
        <time>2013-05-04T23:15:09Z</time>
      </trkpt>
      <trkpt lat="-21.15507" lon="55.56016">
        <ele>1651.4</ele>
        <time>2013-05-04T23:15:17Z</time>
      </trkpt>
      <trkpt lat="-21.15501" lon="55.5601">
        <ele>1654.1</ele>
        <time>2013-05-04T23:15:26Z</time>
      </trkpt>
      <trkpt lat="-21.15493" lon="55.56008">
        <ele>1653.4</ele>
        <time>2013-05-04T23:15:32Z</time>
      </trkpt>
      <trkpt lat="-21.15486" lon="55.56005">
        <ele>1651.8</ele>
        <time>2013-05-04T23:15:38Z</time>
      </trkpt>
      <trkpt lat="-21.15479" lon="55.56003">
        <ele>1650.5</ele>
        <time>2013-05-04T23:15:43Z</time>
      </trkpt>
      <trkpt lat="-21.15471" lon="55.56002">
        <ele>1650.6</ele>
        <time>2013-05-04T23:15:48Z</time>
      </trkpt>
      <trkpt lat="-21.15463" lon="55.56">
        <ele>1652.2</ele>
        <time>2013-05-04T23:15:54Z</time>
      </trkpt>
      <trkpt lat="-21.15455" lon="55.55999">
        <ele>1651.4</ele>
        <time>2013-05-04T23:15:59Z</time>
      </trkpt>
      <trkpt lat="-21.15453" lon="55.55998">
        <ele>1651.3</ele>
        <time>2013-05-04T23:16:00Z</time>
      </trkpt>
      <trkpt lat="-21.15439" lon="55.55996">
        <ele>1649.7</ele>
        <time>2013-05-04T23:16:10Z</time>
      </trkpt>
      <trkpt lat="-21.15431" lon="55.55995">
        <ele>1649.9</ele>
        <time>2013-05-04T23:16:16Z</time>
      </trkpt>
      <trkpt lat="-21.15423" lon="55.55993">
        <ele>1649.7</ele>
        <time>2013-05-04T23:16:22Z</time>
      </trkpt>
      <trkpt lat="-21.15414" lon="55.55992">
        <ele>1650.8</ele>
        <time>2013-05-04T23:16:29Z</time>
      </trkpt>
      <trkpt lat="-21.15406" lon="55.55992">
        <ele>1650.5</ele>
        <time>2013-05-04T23:16:36Z</time>
      </trkpt>
      <trkpt lat="-21.15398" lon="55.55991">
        <ele>1650.6</ele>
        <time>2013-05-04T23:16:42Z</time>
      </trkpt>
      <trkpt lat="-21.15389" lon="55.55991">
        <ele>1651.5</ele>
        <time>2013-05-04T23:16:49Z</time>
      </trkpt>
      <trkpt lat="-21.15385" lon="55.55983">
        <ele>1651.5</ele>
        <time>2013-05-04T23:17:05Z</time>
      </trkpt>
      <trkpt lat="-21.15385" lon="55.55982">
        <ele>1651.7</ele>
        <time>2013-05-04T23:17:06Z</time>
      </trkpt>
      <trkpt lat="-21.15375" lon="55.55969">
        <ele>1654.6</ele>
        <time>2013-05-04T23:17:26Z</time>
      </trkpt>
      <trkpt lat="-21.15369" lon="55.55963">
        <ele>1654.3</ele>
        <time>2013-05-04T23:17:33Z</time>
      </trkpt>
      <trkpt lat="-21.15365" lon="55.55955">
        <ele>1654.4</ele>
        <time>2013-05-04T23:17:40Z</time>
      </trkpt>
      <trkpt lat="-21.15361" lon="55.55947">
        <ele>1654.2</ele>
        <time>2013-05-04T23:17:48Z</time>
      </trkpt>
      <trkpt lat="-21.15358" lon="55.55938">
        <ele>1654.2</ele>
        <time>2013-05-04T23:17:56Z</time>
      </trkpt>
      <trkpt lat="-21.15358" lon="55.55928">
        <ele>1654.2</ele>
        <time>2013-05-04T23:18:05Z</time>
      </trkpt>
      <trkpt lat="-21.15356" lon="55.55919">
        <ele>1654.8</ele>
        <time>2013-05-04T23:18:12Z</time>
      </trkpt>
      <trkpt lat="-21.15355" lon="55.55918">
        <ele>1655.2</ele>
        <time>2013-05-04T23:18:13Z</time>
      </trkpt>
      <trkpt lat="-21.15346" lon="55.55904">
        <ele>1654.6</ele>
        <time>2013-05-04T23:18:27Z</time>
      </trkpt>
      <trkpt lat="-21.15341" lon="55.55896">
        <ele>1656</ele>
        <time>2013-05-04T23:18:35Z</time>
      </trkpt>
      <trkpt lat="-21.15335" lon="55.5589">
        <ele>1656.9</ele>
        <time>2013-05-04T23:18:42Z</time>
      </trkpt>
      <trkpt lat="-21.1533" lon="55.55883">
        <ele>1658.5</ele>
        <time>2013-05-04T23:18:49Z</time>
      </trkpt>
      <trkpt lat="-21.15324" lon="55.55877">
        <ele>1658.3</ele>
        <time>2013-05-04T23:18:56Z</time>
      </trkpt>
      <trkpt lat="-21.15318" lon="55.55871">
        <ele>1659.9</ele>
        <time>2013-05-04T23:19:03Z</time>
      </trkpt>
      <trkpt lat="-21.15312" lon="55.55865">
        <ele>1659.3</ele>
        <time>2013-05-04T23:19:11Z</time>
      </trkpt>
      <trkpt lat="-21.15306" lon="55.55858">
        <ele>1659.2</ele>
        <time>2013-05-04T23:19:19Z</time>
      </trkpt>
      <trkpt lat="-21.15305" lon="55.55857">
        <ele>1659.6</ele>
        <time>2013-05-04T23:19:20Z</time>
      </trkpt>
      <trkpt lat="-21.15291" lon="55.55852">
        <ele>1660.9</ele>
        <time>2013-05-04T23:19:34Z</time>
      </trkpt>
      <trkpt lat="-21.15283" lon="55.55849">
        <ele>1662.1</ele>
        <time>2013-05-04T23:19:41Z</time>
      </trkpt>
      <trkpt lat="-21.15275" lon="55.55848">
        <ele>1662.2</ele>
        <time>2013-05-04T23:19:47Z</time>
      </trkpt>
      <trkpt lat="-21.15266" lon="55.55847">
        <ele>1661.2</ele>
        <time>2013-05-04T23:19:54Z</time>
      </trkpt>
      <trkpt lat="-21.15258" lon="55.55844">
        <ele>1661.8</ele>
        <time>2013-05-04T23:20:01Z</time>
      </trkpt>
      <trkpt lat="-21.15251" lon="55.55841">
        <ele>1662.7</ele>
        <time>2013-05-04T23:20:09Z</time>
      </trkpt>
      <trkpt lat="-21.15242" lon="55.55838">
        <ele>1662.2</ele>
        <time>2013-05-04T23:20:17Z</time>
      </trkpt>
      <trkpt lat="-21.15234" lon="55.55837">
        <ele>1662.1</ele>
        <time>2013-05-04T23:20:25Z</time>
      </trkpt>
      <trkpt lat="-21.15233" lon="55.55836">
        <ele>1661.9</ele>
        <time>2013-05-04T23:20:26Z</time>
      </trkpt>
      <trkpt lat="-21.15217" lon="55.55832">
        <ele>1664.3</ele>
        <time>2013-05-04T23:20:44Z</time>
      </trkpt>
      <trkpt lat="-21.15209" lon="55.5583">
        <ele>1665.4</ele>
        <time>2013-05-04T23:20:51Z</time>
      </trkpt>
      <trkpt lat="-21.15201" lon="55.55829">
        <ele>1666.6</ele>
        <time>2013-05-04T23:20:58Z</time>
      </trkpt>
      <trkpt lat="-21.15192" lon="55.55827">
        <ele>1666.3</ele>
        <time>2013-05-04T23:21:06Z</time>
      </trkpt>
      <trkpt lat="-21.15184" lon="55.55825">
        <ele>1666.4</ele>
        <time>2013-05-04T23:21:14Z</time>
      </trkpt>
      <trkpt lat="-21.15176" lon="55.55823">
        <ele>1665</ele>
        <time>2013-05-04T23:21:22Z</time>
      </trkpt>
      <trkpt lat="-21.15168" lon="55.55822">
        <ele>1665.3</ele>
        <time>2013-05-04T23:21:30Z</time>
      </trkpt>
      <trkpt lat="-21.15167" lon="55.55821">
        <ele>1665.2</ele>
        <time>2013-05-04T23:21:31Z</time>
      </trkpt>
      <trkpt lat="-21.15157" lon="55.55809">
        <ele>1667.8</ele>
        <time>2013-05-04T23:21:49Z</time>
      </trkpt>
      <trkpt lat="-21.15159" lon="55.558">
        <ele>1670.8</ele>
        <time>2013-05-04T23:22:01Z</time>
      </trkpt>
      <trkpt lat="-21.15163" lon="55.55791">
        <ele>1673</ele>
        <time>2013-05-04T23:22:10Z</time>
      </trkpt>
      <trkpt lat="-21.15166" lon="55.55783">
        <ele>1674.4</ele>
        <time>2013-05-04T23:22:18Z</time>
      </trkpt>
      <trkpt lat="-21.1517" lon="55.55775">
        <ele>1675.2</ele>
        <time>2013-05-04T23:22:25Z</time>
      </trkpt>
      <trkpt lat="-21.15175" lon="55.55768">
        <ele>1676.1</ele>
        <time>2013-05-04T23:22:32Z</time>
      </trkpt>
      <trkpt lat="-21.15176" lon="55.55767">
        <ele>1676.2</ele>
        <time>2013-05-04T23:22:33Z</time>
      </trkpt>
      <trkpt lat="-21.15182" lon="55.55752">
        <ele>1676.6</ele>
        <time>2013-05-04T23:22:45Z</time>
      </trkpt>
      <trkpt lat="-21.15183" lon="55.55743">
        <ele>1677.2</ele>
        <time>2013-05-04T23:22:52Z</time>
      </trkpt>
      <trkpt lat="-21.15184" lon="55.55733">
        <ele>1677.4</ele>
        <time>2013-05-04T23:23:40Z</time>
      </trkpt>
      <trkpt lat="-21.15184" lon="55.55733">
        <ele>1677.8</ele>
        <time>2013-05-04T23:23:41Z</time>
      </trkpt>
      <trkpt lat="-21.15197" lon="55.55724">
        <ele>1677.6</ele>
        <time>2013-05-04T23:23:56Z</time>
      </trkpt>
      <trkpt lat="-21.15202" lon="55.55717">
        <ele>1676.9</ele>
        <time>2013-05-04T23:24:03Z</time>
      </trkpt>
      <trkpt lat="-21.15207" lon="55.5571">
        <ele>1677.6</ele>
        <time>2013-05-04T23:24:11Z</time>
      </trkpt>
      <trkpt lat="-21.15213" lon="55.55704">
        <ele>1677.8</ele>
        <time>2013-05-04T23:24:18Z</time>
      </trkpt>
      <trkpt lat="-21.15217" lon="55.55696">
        <ele>1678.2</ele>
        <time>2013-05-04T23:24:25Z</time>
      </trkpt>
      <trkpt lat="-21.15221" lon="55.55689">
        <ele>1678.9</ele>
        <time>2013-05-04T23:24:32Z</time>
      </trkpt>
      <trkpt lat="-21.15226" lon="55.55681">
        <ele>1680.2</ele>
        <time>2013-05-04T23:24:40Z</time>
      </trkpt>
      <trkpt lat="-21.15232" lon="55.55674">
        <ele>1680.3</ele>
        <time>2013-05-04T23:24:49Z</time>
      </trkpt>
      <trkpt lat="-21.15233" lon="55.55674">
        <ele>1680.3</ele>
        <time>2013-05-04T23:24:50Z</time>
      </trkpt>
      <trkpt lat="-21.1524" lon="55.55659">
        <ele>1683</ele>
        <time>2013-05-04T23:25:03Z</time>
      </trkpt>
      <trkpt lat="-21.15243" lon="55.5565">
        <ele>1684</ele>
        <time>2013-05-04T23:25:12Z</time>
      </trkpt>
      <trkpt lat="-21.15249" lon="55.55643">
        <ele>1685.1</ele>
        <time>2013-05-04T23:25:20Z</time>
      </trkpt>
      <trkpt lat="-21.15255" lon="55.55638">
        <ele>1686.8</ele>
        <time>2013-05-04T23:25:28Z</time>
      </trkpt>
      <trkpt lat="-21.1526" lon="55.5563">
        <ele>1687.4</ele>
        <time>2013-05-04T23:25:35Z</time>
      </trkpt>
      <trkpt lat="-21.15263" lon="55.55621">
        <ele>1688.5</ele>
        <time>2013-05-04T23:25:43Z</time>
      </trkpt>
      <trkpt lat="-21.15263" lon="55.55612">
        <ele>1690.1</ele>
        <time>2013-05-04T23:25:52Z</time>
      </trkpt>
      <trkpt lat="-21.15263" lon="55.55611">
        <ele>1690</ele>
        <time>2013-05-04T23:25:53Z</time>
      </trkpt>
      <trkpt lat="-21.15266" lon="55.55595">
        <ele>1693.8</ele>
        <time>2013-05-04T23:26:14Z</time>
      </trkpt>
      <trkpt lat="-21.15269" lon="55.55586">
        <ele>1695.3</ele>
        <time>2013-05-04T23:26:21Z</time>
      </trkpt>
      <trkpt lat="-21.15271" lon="55.55577">
        <ele>1695.3</ele>
        <time>2013-05-04T23:26:31Z</time>
      </trkpt>
      <trkpt lat="-21.15272" lon="55.55568">
        <ele>1696.1</ele>
        <time>2013-05-04T23:26:38Z</time>
      </trkpt>
      <trkpt lat="-21.15273" lon="55.55559">
        <ele>1696</ele>
        <time>2013-05-04T23:26:48Z</time>
      </trkpt>
      <trkpt lat="-21.15277" lon="55.5555">
        <ele>1696.8</ele>
        <time>2013-05-04T23:26:59Z</time>
      </trkpt>
      <trkpt lat="-21.15278" lon="55.5555">
        <ele>1696.9</ele>
        <time>2013-05-04T23:27:00Z</time>
      </trkpt>
      <trkpt lat="-21.15285" lon="55.55534">
        <ele>1700.7</ele>
        <time>2013-05-04T23:27:23Z</time>
      </trkpt>
      <trkpt lat="-21.15289" lon="55.55525">
        <ele>1701.8</ele>
        <time>2013-05-04T23:27:35Z</time>
      </trkpt>
      <trkpt lat="-21.15292" lon="55.55517">
        <ele>1702.5</ele>
        <time>2013-05-04T23:27:42Z</time>
      </trkpt>
      <trkpt lat="-21.15296" lon="55.55509">
        <ele>1702.6</ele>
        <time>2013-05-04T23:27:50Z</time>
      </trkpt>
      <trkpt lat="-21.15297" lon="55.555">
        <ele>1703.6</ele>
        <time>2013-05-04T23:28:06Z</time>
      </trkpt>
      <trkpt lat="-21.15297" lon="55.55499">
        <ele>1703.6</ele>
        <time>2013-05-04T23:28:07Z</time>
      </trkpt>
      <trkpt lat="-21.15294" lon="55.55482">
        <ele>1705.8</ele>
        <time>2013-05-04T23:28:24Z</time>
      </trkpt>
      <trkpt lat="-21.15294" lon="55.55472">
        <ele>1706.3</ele>
        <time>2013-05-04T23:28:33Z</time>
      </trkpt>
      <trkpt lat="-21.15296" lon="55.55463">
        <ele>1707.8</ele>
        <time>2013-05-04T23:28:39Z</time>
      </trkpt>
      <trkpt lat="-21.15301" lon="55.55455">
        <ele>1707.5</ele>
        <time>2013-05-04T23:28:46Z</time>
      </trkpt>
      <trkpt lat="-21.15304" lon="55.55446">
        <ele>1708</ele>
        <time>2013-05-04T23:28:53Z</time>
      </trkpt>
      <trkpt lat="-21.15309" lon="55.55439">
        <ele>1708.6</ele>
        <time>2013-05-04T23:29:02Z</time>
      </trkpt>
      <trkpt lat="-21.15313" lon="55.55431">
        <ele>1710.7</ele>
        <time>2013-05-04T23:29:11Z</time>
      </trkpt>
      <trkpt lat="-21.15313" lon="55.5543">
        <ele>1711</ele>
        <time>2013-05-04T23:29:12Z</time>
      </trkpt>
      <trkpt lat="-21.15318" lon="55.55413">
        <ele>1712.1</ele>
        <time>2013-05-04T23:29:27Z</time>
      </trkpt>
      <trkpt lat="-21.15319" lon="55.55405">
        <ele>1712.6</ele>
        <time>2013-05-04T23:29:34Z</time>
      </trkpt>
      <trkpt lat="-21.15316" lon="55.55395">
        <ele>1712.7</ele>
        <time>2013-05-04T23:29:43Z</time>
      </trkpt>
      <trkpt lat="-21.15315" lon="55.55387">
        <ele>1713.6</ele>
        <time>2013-05-04T23:29:50Z</time>
      </trkpt>
      <trkpt lat="-21.1531" lon="55.55379">
        <ele>1716</ele>
        <time>2013-05-04T23:29:58Z</time>
      </trkpt>
      <trkpt lat="-21.1531" lon="55.5537">
        <ele>1715.7</ele>
        <time>2013-05-04T23:30:05Z</time>
      </trkpt>
      <trkpt lat="-21.15311" lon="55.5536">
        <ele>1716.5</ele>
        <time>2013-05-04T23:30:13Z</time>
      </trkpt>
      <trkpt lat="-21.15311" lon="55.55359">
        <ele>1716.7</ele>
        <time>2013-05-04T23:30:14Z</time>
      </trkpt>
      <trkpt lat="-21.15314" lon="55.55343">
        <ele>1716.7</ele>
        <time>2013-05-04T23:30:28Z</time>
      </trkpt>
      <trkpt lat="-21.15316" lon="55.55334">
        <ele>1716.5</ele>
        <time>2013-05-04T23:30:36Z</time>
      </trkpt>
      <trkpt lat="-21.15318" lon="55.55326">
        <ele>1717.4</ele>
        <time>2013-05-04T23:30:45Z</time>
      </trkpt>
      <trkpt lat="-21.15322" lon="55.55317">
        <ele>1718.1</ele>
        <time>2013-05-04T23:30:53Z</time>
      </trkpt>
      <trkpt lat="-21.15326" lon="55.55309">
        <ele>1718.6</ele>
        <time>2013-05-04T23:31:01Z</time>
      </trkpt>
      <trkpt lat="-21.15328" lon="55.553">
        <ele>1719.2</ele>
        <time>2013-05-04T23:31:09Z</time>
      </trkpt>
      <trkpt lat="-21.15327" lon="55.55291">
        <ele>1718.6</ele>
        <time>2013-05-04T23:31:17Z</time>
      </trkpt>
      <trkpt lat="-21.15327" lon="55.55289">
        <ele>1718.6</ele>
        <time>2013-05-04T23:31:18Z</time>
      </trkpt>
      <trkpt lat="-21.15327" lon="55.55273">
        <ele>1718.2</ele>
        <time>2013-05-04T23:31:30Z</time>
      </trkpt>
      <trkpt lat="-21.15324" lon="55.55265">
        <ele>1718.6</ele>
        <time>2013-05-04T23:31:36Z</time>
      </trkpt>
      <trkpt lat="-21.15323" lon="55.55256">
        <ele>1719.4</ele>
        <time>2013-05-04T23:31:45Z</time>
      </trkpt>
      <trkpt lat="-21.15321" lon="55.55248">
        <ele>1720.5</ele>
        <time>2013-05-04T23:31:53Z</time>
      </trkpt>
      <trkpt lat="-21.15321" lon="55.55239">
        <ele>1719.5</ele>
        <time>2013-05-04T23:32:00Z</time>
      </trkpt>
      <trkpt lat="-21.15323" lon="55.5523">
        <ele>1719.5</ele>
        <time>2013-05-04T23:32:09Z</time>
      </trkpt>
      <trkpt lat="-21.15324" lon="55.55221">
        <ele>1720</ele>
        <time>2013-05-04T23:32:16Z</time>
      </trkpt>
      <trkpt lat="-21.15323" lon="55.55212">
        <ele>1719.4</ele>
        <time>2013-05-04T23:32:21Z</time>
      </trkpt>
      <trkpt lat="-21.15322" lon="55.55211">
        <ele>1719.5</ele>
        <time>2013-05-04T23:32:22Z</time>
      </trkpt>
      <trkpt lat="-21.1532" lon="55.55195">
        <ele>1720.1</ele>
        <time>2013-05-04T23:32:33Z</time>
      </trkpt>
      <trkpt lat="-21.15316" lon="55.55187">
        <ele>1721.7</ele>
        <time>2013-05-04T23:32:42Z</time>
      </trkpt>
      <trkpt lat="-21.15316" lon="55.55177">
        <ele>1720.9</ele>
        <time>2013-05-04T23:32:50Z</time>
      </trkpt>
      <trkpt lat="-21.15317" lon="55.55169">
        <ele>1721</ele>
        <time>2013-05-04T23:33:00Z</time>
      </trkpt>
      <trkpt lat="-21.15319" lon="55.55158">
        <ele>1722.3</ele>
        <time>2013-05-04T23:33:09Z</time>
      </trkpt>
      <trkpt lat="-21.15319" lon="55.55149">
        <ele>1722.8</ele>
        <time>2013-05-04T23:33:18Z</time>
      </trkpt>
      <trkpt lat="-21.15319" lon="55.5514">
        <ele>1722.9</ele>
        <time>2013-05-04T23:33:25Z</time>
      </trkpt>
      <trkpt lat="-21.15319" lon="55.55138">
        <ele>1722.7</ele>
        <time>2013-05-04T23:33:26Z</time>
      </trkpt>
      <trkpt lat="-21.15318" lon="55.55123">
        <ele>1723.3</ele>
        <time>2013-05-04T23:33:38Z</time>
      </trkpt>
      <trkpt lat="-21.15316" lon="55.55114">
        <ele>1723</ele>
        <time>2013-05-04T23:33:44Z</time>
      </trkpt>
      <trkpt lat="-21.15318" lon="55.55105">
        <ele>1723.7</ele>
        <time>2013-05-04T23:33:52Z</time>
      </trkpt>
      <trkpt lat="-21.15319" lon="55.55095">
        <ele>1722.8</ele>
        <time>2013-05-04T23:33:59Z</time>
      </trkpt>
      <trkpt lat="-21.1532" lon="55.55087">
        <ele>1723.7</ele>
        <time>2013-05-04T23:34:06Z</time>
      </trkpt>
      <trkpt lat="-21.15322" lon="55.55078">
        <ele>1724</ele>
        <time>2013-05-04T23:34:13Z</time>
      </trkpt>
      <trkpt lat="-21.1532" lon="55.55069">
        <ele>1723.4</ele>
        <time>2013-05-04T23:34:20Z</time>
      </trkpt>
      <trkpt lat="-21.1532" lon="55.5506">
        <ele>1723.2</ele>
        <time>2013-05-04T23:34:30Z</time>
      </trkpt>
      <trkpt lat="-21.1532" lon="55.55059">
        <ele>1723.2</ele>
        <time>2013-05-04T23:34:31Z</time>
      </trkpt>
      <trkpt lat="-21.15319" lon="55.55041">
        <ele>1722.7</ele>
        <time>2013-05-04T23:34:47Z</time>
      </trkpt>
      <trkpt lat="-21.15322" lon="55.55033">
        <ele>1722.4</ele>
        <time>2013-05-04T23:34:53Z</time>
      </trkpt>
      <trkpt lat="-21.15326" lon="55.55025">
        <ele>1722.7</ele>
        <time>2013-05-04T23:35:00Z</time>
      </trkpt>
      <trkpt lat="-21.15325" lon="55.55016">
        <ele>1721.7</ele>
        <time>2013-05-04T23:35:06Z</time>
      </trkpt>
      <trkpt lat="-21.15322" lon="55.55008">
        <ele>1722.5</ele>
        <time>2013-05-04T23:35:13Z</time>
      </trkpt>
      <trkpt lat="-21.15317" lon="55.55001">
        <ele>1722.6</ele>
        <time>2013-05-04T23:35:20Z</time>
      </trkpt>
      <trkpt lat="-21.15312" lon="55.54993">
        <ele>1723.2</ele>
        <time>2013-05-04T23:35:27Z</time>
      </trkpt>
      <trkpt lat="-21.15308" lon="55.54985">
        <ele>1723.2</ele>
        <time>2013-05-04T23:35:34Z</time>
      </trkpt>
      <trkpt lat="-21.15308" lon="55.54984">
        <ele>1723.3</ele>
        <time>2013-05-04T23:35:35Z</time>
      </trkpt>
      <trkpt lat="-21.15296" lon="55.54971">
        <ele>1723</ele>
        <time>2013-05-04T23:35:49Z</time>
      </trkpt>
      <trkpt lat="-21.15291" lon="55.54963">
        <ele>1723</ele>
        <time>2013-05-04T23:35:56Z</time>
      </trkpt>
      <trkpt lat="-21.15287" lon="55.54955">
        <ele>1723.2</ele>
        <time>2013-05-04T23:36:03Z</time>
      </trkpt>
      <trkpt lat="-21.15282" lon="55.54946">
        <ele>1724</ele>
        <time>2013-05-04T23:36:10Z</time>
      </trkpt>
      <trkpt lat="-21.15278" lon="55.54939">
        <ele>1725</ele>
        <time>2013-05-04T23:36:16Z</time>
      </trkpt>
      <trkpt lat="-21.15272" lon="55.54932">
        <ele>1725.4</ele>
        <time>2013-05-04T23:36:23Z</time>
      </trkpt>
      <trkpt lat="-21.15266" lon="55.54926">
        <ele>1725.5</ele>
        <time>2013-05-04T23:36:29Z</time>
      </trkpt>
      <trkpt lat="-21.15259" lon="55.5492">
        <ele>1725.4</ele>
        <time>2013-05-04T23:36:36Z</time>
      </trkpt>
      <trkpt lat="-21.15258" lon="55.5492">
        <ele>1726</ele>
        <time>2013-05-04T23:36:37Z</time>
      </trkpt>
      <trkpt lat="-21.15252" lon="55.54904">
        <ele>1726.3</ele>
        <time>2013-05-04T23:36:51Z</time>
      </trkpt>
      <trkpt lat="-21.15253" lon="55.54895">
        <ele>1727.4</ele>
        <time>2013-05-04T23:36:59Z</time>
      </trkpt>
      <trkpt lat="-21.15251" lon="55.54886">
        <ele>1727.7</ele>
        <time>2013-05-04T23:37:06Z</time>
      </trkpt>
      <trkpt lat="-21.1525" lon="55.54877">
        <ele>1728.4</ele>
        <time>2013-05-04T23:37:14Z</time>
      </trkpt>
      <trkpt lat="-21.15249" lon="55.54868">
        <ele>1731.4</ele>
        <time>2013-05-04T23:41:37Z</time>
      </trkpt>
      <trkpt lat="-21.15248" lon="55.54867">
        <ele>1731.2</ele>
        <time>2013-05-04T23:41:38Z</time>
      </trkpt>
      <trkpt lat="-21.15253" lon="55.54858">
        <ele>1731.9</ele>
        <time>2013-05-04T23:43:12Z</time>
      </trkpt>
      <trkpt lat="-21.1525" lon="55.54842">
        <ele>1732.3</ele>
        <time>2013-05-04T23:43:26Z</time>
      </trkpt>
      <trkpt lat="-21.15248" lon="55.54833">
        <ele>1732.9</ele>
        <time>2013-05-04T23:43:33Z</time>
      </trkpt>
      <trkpt lat="-21.15245" lon="55.54825">
        <ele>1734.1</ele>
        <time>2013-05-04T23:43:39Z</time>
      </trkpt>
      <trkpt lat="-21.15243" lon="55.54817">
        <ele>1733.3</ele>
        <time>2013-05-04T23:43:46Z</time>
      </trkpt>
      <trkpt lat="-21.1524" lon="55.54808">
        <ele>1733.2</ele>
        <time>2013-05-04T23:43:53Z</time>
      </trkpt>
      <trkpt lat="-21.15241" lon="55.54799">
        <ele>1734.5</ele>
        <time>2013-05-04T23:44:01Z</time>
      </trkpt>
      <trkpt lat="-21.15242" lon="55.5479">
        <ele>1735</ele>
        <time>2013-05-04T23:44:08Z</time>
      </trkpt>
      <trkpt lat="-21.1524" lon="55.54782">
        <ele>1734.9</ele>
        <time>2013-05-04T23:44:14Z</time>
      </trkpt>
      <trkpt lat="-21.1524" lon="55.54781">
        <ele>1734.8</ele>
        <time>2013-05-04T23:44:15Z</time>
      </trkpt>
      <trkpt lat="-21.15232" lon="55.54766">
        <ele>1736.5</ele>
        <time>2013-05-04T23:44:29Z</time>
      </trkpt>
      <trkpt lat="-21.15227" lon="55.54759">
        <ele>1736.6</ele>
        <time>2013-05-04T23:44:35Z</time>
      </trkpt>
      <trkpt lat="-21.15222" lon="55.54752">
        <ele>1737.5</ele>
        <time>2013-05-04T23:44:41Z</time>
      </trkpt>
      <trkpt lat="-21.15215" lon="55.54746">
        <ele>1736.6</ele>
        <time>2013-05-04T23:44:47Z</time>
      </trkpt>
      <trkpt lat="-21.15209" lon="55.5474">
        <ele>1736.2</ele>
        <time>2013-05-04T23:44:53Z</time>
      </trkpt>
      <trkpt lat="-21.15203" lon="55.54734">
        <ele>1737.3</ele>
        <time>2013-05-04T23:44:59Z</time>
      </trkpt>
      <trkpt lat="-21.15198" lon="55.54727">
        <ele>1736.5</ele>
        <time>2013-05-04T23:45:05Z</time>
      </trkpt>
      <trkpt lat="-21.15195" lon="55.54718">
        <ele>1736.5</ele>
        <time>2013-05-04T23:45:11Z</time>
      </trkpt>
      <trkpt lat="-21.1519" lon="55.54712">
        <ele>1736.1</ele>
        <time>2013-05-04T23:45:17Z</time>
      </trkpt>
      <trkpt lat="-21.15189" lon="55.5471">
        <ele>1736.1</ele>
        <time>2013-05-04T23:45:18Z</time>
      </trkpt>
      <trkpt lat="-21.1519" lon="55.54695">
        <ele>1737</ele>
        <time>2013-05-04T23:45:28Z</time>
      </trkpt>
      <trkpt lat="-21.15188" lon="55.54686">
        <ele>1737</ele>
        <time>2013-05-04T23:45:36Z</time>
      </trkpt>
      <trkpt lat="-21.15186" lon="55.54677">
        <ele>1737.7</ele>
        <time>2013-05-04T23:45:43Z</time>
      </trkpt>
      <trkpt lat="-21.15185" lon="55.54668">
        <ele>1738.7</ele>
        <time>2013-05-04T23:45:51Z</time>
      </trkpt>
      <trkpt lat="-21.15182" lon="55.54659">
        <ele>1739.4</ele>
        <time>2013-05-04T23:45:58Z</time>
      </trkpt>
      <trkpt lat="-21.1518" lon="55.5465">
        <ele>1740.3</ele>
        <time>2013-05-04T23:46:07Z</time>
      </trkpt>
      <trkpt lat="-21.15178" lon="55.54641">
        <ele>1740.7</ele>
        <time>2013-05-04T23:46:16Z</time>
      </trkpt>
      <trkpt lat="-21.15179" lon="55.54632">
        <ele>1740.6</ele>
        <time>2013-05-04T23:46:24Z</time>
      </trkpt>
      <trkpt lat="-21.15179" lon="55.5463">
        <ele>1740.7</ele>
        <time>2013-05-04T23:46:25Z</time>
      </trkpt>
      <trkpt lat="-21.15179" lon="55.54613">
        <ele>1741</ele>
        <time>2013-05-04T23:46:38Z</time>
      </trkpt>
      <trkpt lat="-21.15176" lon="55.54606">
        <ele>1740.8</ele>
        <time>2013-05-04T23:46:46Z</time>
      </trkpt>
      <trkpt lat="-21.1517" lon="55.54599">
        <ele>1739.7</ele>
        <time>2013-05-04T23:46:54Z</time>
      </trkpt>
      <trkpt lat="-21.15163" lon="55.54593">
        <ele>1738.9</ele>
        <time>2013-05-04T23:47:34Z</time>
      </trkpt>
      <trkpt lat="-21.15163" lon="55.54592">
        <ele>1738.9</ele>
        <time>2013-05-04T23:47:35Z</time>
      </trkpt>
      <trkpt lat="-21.1515" lon="55.54576">
        <ele>1740</ele>
        <time>2013-05-04T23:47:53Z</time>
      </trkpt>
      <trkpt lat="-21.15145" lon="55.54566">
        <ele>1741</ele>
        <time>2013-05-04T23:48:05Z</time>
      </trkpt>
      <trkpt lat="-21.15136" lon="55.54557">
        <ele>1743</ele>
        <time>2013-05-04T23:48:17Z</time>
      </trkpt>
      <trkpt lat="-21.15129" lon="55.54551">
        <ele>1745.5</ele>
        <time>2013-05-04T23:48:24Z</time>
      </trkpt>
      <trkpt lat="-21.15121" lon="55.54552">
        <ele>1748.6</ele>
        <time>2013-05-04T23:48:33Z</time>
      </trkpt>
      <trkpt lat="-21.15113" lon="55.54553">
        <ele>1748.9</ele>
        <time>2013-05-04T23:48:44Z</time>
      </trkpt>
      <trkpt lat="-21.15112" lon="55.54552">
        <ele>1748.9</ele>
        <time>2013-05-04T23:48:45Z</time>
      </trkpt>
      <trkpt lat="-21.15101" lon="55.54539">
        <ele>1749.6</ele>
        <time>2013-05-04T23:49:01Z</time>
      </trkpt>
      <trkpt lat="-21.15101" lon="55.5453">
        <ele>1750.6</ele>
        <time>2013-05-04T23:49:12Z</time>
      </trkpt>
      <trkpt lat="-21.15102" lon="55.54522">
        <ele>1752.1</ele>
        <time>2013-05-04T23:49:23Z</time>
      </trkpt>
      <trkpt lat="-21.151" lon="55.54513">
        <ele>1753</ele>
        <time>2013-05-04T23:49:32Z</time>
      </trkpt>
      <trkpt lat="-21.15093" lon="55.54509">
        <ele>1752.4</ele>
        <time>2013-05-04T23:49:39Z</time>
      </trkpt>
      <trkpt lat="-21.15085" lon="55.54506">
        <ele>1752.5</ele>
        <time>2013-05-04T23:49:45Z</time>
      </trkpt>
      <trkpt lat="-21.15077" lon="55.54501">
        <ele>1752.2</ele>
        <time>2013-05-04T23:49:52Z</time>
      </trkpt>
      <trkpt lat="-21.15077" lon="55.54501">
        <ele>1752.2</ele>
        <time>2013-05-04T23:49:53Z</time>
      </trkpt>
      <trkpt lat="-21.15061" lon="55.54496">
        <ele>1753.3</ele>
        <time>2013-05-04T23:50:10Z</time>
      </trkpt>
      <trkpt lat="-21.15053" lon="55.54493">
        <ele>1753.6</ele>
        <time>2013-05-04T23:50:16Z</time>
      </trkpt>
      <trkpt lat="-21.15045" lon="55.54488">
        <ele>1753.6</ele>
        <time>2013-05-04T23:50:26Z</time>
      </trkpt>
      <trkpt lat="-21.15038" lon="55.54487">
        <ele>1754.6</ele>
        <time>2013-05-04T23:50:34Z</time>
      </trkpt>
      <trkpt lat="-21.1503" lon="55.54483">
        <ele>1754.8</ele>
        <time>2013-05-04T23:50:41Z</time>
      </trkpt>
      <trkpt lat="-21.15022" lon="55.54479">
        <ele>1755.5</ele>
        <time>2013-05-04T23:50:47Z</time>
      </trkpt>
      <trkpt lat="-21.15014" lon="55.54476">
        <ele>1756.6</ele>
        <time>2013-05-04T23:50:56Z</time>
      </trkpt>
      <trkpt lat="-21.15013" lon="55.54476">
        <ele>1756.8</ele>
        <time>2013-05-04T23:50:57Z</time>
      </trkpt>
      <trkpt lat="-21.15002" lon="55.54466">
        <ele>1757.3</ele>
        <time>2013-05-04T23:51:11Z</time>
      </trkpt>
      <trkpt lat="-21.15001" lon="55.54457">
        <ele>1759.9</ele>
        <time>2013-05-04T23:51:22Z</time>
      </trkpt>
      <trkpt lat="-21.14999" lon="55.54448">
        <ele>1761.3</ele>
        <time>2013-05-04T23:51:33Z</time>
      </trkpt>
      <trkpt lat="-21.14997" lon="55.54439">
        <ele>1763.4</ele>
        <time>2013-05-04T23:51:42Z</time>
      </trkpt>
      <trkpt lat="-21.14993" lon="55.5443">
        <ele>1763.8</ele>
        <time>2013-05-04T23:51:51Z</time>
      </trkpt>
      <trkpt lat="-21.14989" lon="55.54423">
        <ele>1763.7</ele>
        <time>2013-05-04T23:51:59Z</time>
      </trkpt>
      <trkpt lat="-21.14988" lon="55.54421">
        <ele>1764</ele>
        <time>2013-05-04T23:52:00Z</time>
      </trkpt>
      <trkpt lat="-21.1499" lon="55.54404">
        <ele>1766.6</ele>
        <time>2013-05-04T23:52:16Z</time>
      </trkpt>
      <trkpt lat="-21.14992" lon="55.54395">
        <ele>1766.7</ele>
        <time>2013-05-04T23:52:24Z</time>
      </trkpt>
      <trkpt lat="-21.1499" lon="55.54387">
        <ele>1768.7</ele>
        <time>2013-05-04T23:52:31Z</time>
      </trkpt>
      <trkpt lat="-21.14988" lon="55.54378">
        <ele>1769</ele>
        <time>2013-05-04T23:52:40Z</time>
      </trkpt>
      <trkpt lat="-21.14983" lon="55.5437">
        <ele>1769.5</ele>
        <time>2013-05-04T23:52:49Z</time>
      </trkpt>
      <trkpt lat="-21.14976" lon="55.54376">
        <ele>1765</ele>
        <time>2013-05-04T23:53:07Z</time>
      </trkpt>
      <trkpt lat="-21.14975" lon="55.54378">
        <ele>1765.8</ele>
        <time>2013-05-04T23:53:09Z</time>
      </trkpt>
      <trkpt lat="-21.1496" lon="55.54389">
        <ele>1766</ele>
        <time>2013-05-04T23:53:27Z</time>
      </trkpt>
      <trkpt lat="-21.14952" lon="55.54393">
        <ele>1766.8</ele>
        <time>2013-05-04T23:53:34Z</time>
      </trkpt>
      <trkpt lat="-21.14944" lon="55.54389">
        <ele>1767.7</ele>
        <time>2013-05-04T23:53:44Z</time>
      </trkpt>
      <trkpt lat="-21.14938" lon="55.54383">
        <ele>1768.8</ele>
        <time>2013-05-04T23:53:53Z</time>
      </trkpt>
      <trkpt lat="-21.14931" lon="55.54379">
        <ele>1769.9</ele>
        <time>2013-05-04T23:53:59Z</time>
      </trkpt>
      <trkpt lat="-21.14922" lon="55.54378">
        <ele>1771</ele>
        <time>2013-05-04T23:54:07Z</time>
      </trkpt>
      <trkpt lat="-21.14914" lon="55.54375">
        <ele>1773.2</ele>
        <time>2013-05-04T23:54:16Z</time>
      </trkpt>
      <trkpt lat="-21.14913" lon="55.54374">
        <ele>1773.3</ele>
        <time>2013-05-04T23:54:17Z</time>
      </trkpt>
      <trkpt lat="-21.14895" lon="55.54369">
        <ele>1776</ele>
        <time>2013-05-04T23:54:38Z</time>
      </trkpt>
      <trkpt lat="-21.14885" lon="55.54359">
        <ele>1779</ele>
        <time>2013-05-04T23:54:50Z</time>
      </trkpt>
      <trkpt lat="-21.1488" lon="55.5435">
        <ele>1781</ele>
        <time>2013-05-04T23:55:02Z</time>
      </trkpt>
      <trkpt lat="-21.14875" lon="55.5434">
        <ele>1783</ele>
        <time>2013-05-04T23:55:14Z</time>
      </trkpt>
      <trkpt lat="-21.14868" lon="55.54332">
        <ele>1787</ele>
        <time>2013-05-04T23:55:26Z</time>
      </trkpt>
      <trkpt lat="-21.14867" lon="55.54333">
        <ele>1787.8</ele>
        <time>2013-05-04T23:55:28Z</time>
      </trkpt>
      <trkpt lat="-21.14851" lon="55.54334">
        <ele>1791.2</ele>
        <time>2013-05-04T23:55:48Z</time>
      </trkpt>
      <trkpt lat="-21.14844" lon="55.54331">
        <ele>1790.6</ele>
        <time>2013-05-04T23:55:54Z</time>
      </trkpt>
      <trkpt lat="-21.14837" lon="55.54325">
        <ele>1792.5</ele>
        <time>2013-05-04T23:56:03Z</time>
      </trkpt>
      <trkpt lat="-21.14832" lon="55.54317">
        <ele>1793</ele>
        <time>2013-05-04T23:56:13Z</time>
      </trkpt>
      <trkpt lat="-21.14826" lon="55.54311">
        <ele>1795</ele>
        <time>2013-05-04T23:56:24Z</time>
      </trkpt>
      <trkpt lat="-21.1482" lon="55.54304">
        <ele>1795.5</ele>
        <time>2013-05-04T23:56:33Z</time>
      </trkpt>
      <trkpt lat="-21.1482" lon="55.54304">
        <ele>1795.8</ele>
        <time>2013-05-04T23:56:34Z</time>
      </trkpt>
      <trkpt lat="-21.14808" lon="55.54292">
        <ele>1798.1</ele>
        <time>2013-05-04T23:56:51Z</time>
      </trkpt>
      <trkpt lat="-21.14804" lon="55.54284">
        <ele>1799.8</ele>
        <time>2013-05-04T23:57:00Z</time>
      </trkpt>
      <trkpt lat="-21.14798" lon="55.54276">
        <ele>1801.6</ele>
        <time>2013-05-04T23:57:07Z</time>
      </trkpt>
      <trkpt lat="-21.14791" lon="55.54274">
        <ele>1802.1</ele>
        <time>2013-05-04T23:57:13Z</time>
      </trkpt>
      <trkpt lat="-21.14783" lon="55.5427">
        <ele>1804.1</ele>
        <time>2013-05-04T23:57:21Z</time>
      </trkpt>
      <trkpt lat="-21.14776" lon="55.54265">
        <ele>1804.4</ele>
        <time>2013-05-04T23:57:28Z</time>
      </trkpt>
      <trkpt lat="-21.14776" lon="55.54256">
        <ele>1806.7</ele>
        <time>2013-05-04T23:57:39Z</time>
      </trkpt>
      <trkpt lat="-21.14775" lon="55.54255">
        <ele>1806.7</ele>
        <time>2013-05-04T23:57:40Z</time>
      </trkpt>
      <trkpt lat="-21.14756" lon="55.54254">
        <ele>1809</ele>
        <time>2013-05-04T23:57:59Z</time>
      </trkpt>
      <trkpt lat="-21.14747" lon="55.54253">
        <ele>1810.7</ele>
        <time>2013-05-04T23:58:06Z</time>
      </trkpt>
      <trkpt lat="-21.14739" lon="55.54254">
        <ele>1811.7</ele>
        <time>2013-05-04T23:58:13Z</time>
      </trkpt>
      <trkpt lat="-21.14732" lon="55.5425">
        <ele>1812.9</ele>
        <time>2013-05-04T23:58:22Z</time>
      </trkpt>
      <trkpt lat="-21.14728" lon="55.54241">
        <ele>1814.3</ele>
        <time>2013-05-04T23:58:30Z</time>
      </trkpt>
      <trkpt lat="-21.14726" lon="55.54233">
        <ele>1814.4</ele>
        <time>2013-05-04T23:58:38Z</time>
      </trkpt>
      <trkpt lat="-21.14723" lon="55.54224">
        <ele>1813.7</ele>
        <time>2013-05-04T23:58:45Z</time>
      </trkpt>
      <trkpt lat="-21.14722" lon="55.54223">
        <ele>1813.9</ele>
        <time>2013-05-04T23:58:46Z</time>
      </trkpt>
      <trkpt lat="-21.14709" lon="55.54215">
        <ele>1815.5</ele>
        <time>2013-05-04T23:59:01Z</time>
      </trkpt>
      <trkpt lat="-21.14701" lon="55.54212">
        <ele>1816.9</ele>
        <time>2013-05-04T23:59:10Z</time>
      </trkpt>
      <trkpt lat="-21.14694" lon="55.54208">
        <ele>1817.9</ele>
        <time>2013-05-04T23:59:19Z</time>
      </trkpt>
      <trkpt lat="-21.14685" lon="55.54206">
        <ele>1819.4</ele>
        <time>2013-05-04T23:59:30Z</time>
      </trkpt>
      <trkpt lat="-21.14678" lon="55.54202">
        <ele>1821.1</ele>
        <time>2013-05-04T23:59:37Z</time>
      </trkpt>
      <trkpt lat="-21.14669" lon="55.542">
        <ele>1821.9</ele>
        <time>2013-05-04T23:59:43Z</time>
      </trkpt>
      <trkpt lat="-21.14662" lon="55.54196">
        <ele>1822.4</ele>
        <time>2013-05-04T23:59:50Z</time>
      </trkpt>
      <trkpt lat="-21.14661" lon="55.54195">
        <ele>1822.6</ele>
        <time>2013-05-04T23:59:51Z</time>
      </trkpt>
      <trkpt lat="-21.14647" lon="55.54188">
        <ele>1823.8</ele>
        <time>2013-05-05T00:00:05Z</time>
      </trkpt>
      <trkpt lat="-21.1464" lon="55.54183">
        <ele>1826.1</ele>
        <time>2013-05-05T00:00:18Z</time>
      </trkpt>
      <trkpt lat="-21.14635" lon="55.54175">
        <ele>1828.8</ele>
        <time>2013-05-05T00:00:28Z</time>
      </trkpt>
      <trkpt lat="-21.14628" lon="55.5417">
        <ele>1829.6</ele>
        <time>2013-05-05T00:00:35Z</time>
      </trkpt>
      <trkpt lat="-21.14621" lon="55.54166">
        <ele>1830.4</ele>
        <time>2013-05-05T00:00:41Z</time>
      </trkpt>
      <trkpt lat="-21.14614" lon="55.54162">
        <ele>1831.6</ele>
        <time>2013-05-05T00:00:49Z</time>
      </trkpt>
      <trkpt lat="-21.14606" lon="55.54158">
        <ele>1831.6</ele>
        <time>2013-05-05T00:00:57Z</time>
      </trkpt>
      <trkpt lat="-21.14605" lon="55.54157">
        <ele>1831.9</ele>
        <time>2013-05-05T00:00:58Z</time>
      </trkpt>
      <trkpt lat="-21.14591" lon="55.54149">
        <ele>1832.4</ele>
        <time>2013-05-05T00:01:12Z</time>
      </trkpt>
      <trkpt lat="-21.14584" lon="55.54147">
        <ele>1833</ele>
        <time>2013-05-05T00:01:20Z</time>
      </trkpt>
      <trkpt lat="-21.14575" lon="55.54145">
        <ele>1833.2</ele>
        <time>2013-05-05T00:01:28Z</time>
      </trkpt>
      <trkpt lat="-21.14566" lon="55.54144">
        <ele>1834.8</ele>
        <time>2013-05-05T00:01:37Z</time>
      </trkpt>
      <trkpt lat="-21.14559" lon="55.54141">
        <ele>1836.4</ele>
        <time>2013-05-05T00:01:45Z</time>
      </trkpt>
      <trkpt lat="-21.14551" lon="55.54136">
        <ele>1837.4</ele>
        <time>2013-05-05T00:01:53Z</time>
      </trkpt>
      <trkpt lat="-21.14542" lon="55.54136">
        <ele>1837.8</ele>
        <time>2013-05-05T00:02:01Z</time>
      </trkpt>
      <trkpt lat="-21.14541" lon="55.54136">
        <ele>1837.9</ele>
        <time>2013-05-05T00:02:02Z</time>
      </trkpt>
      <trkpt lat="-21.14532" lon="55.54121">
        <ele>1842.7</ele>
        <time>2013-05-05T00:02:26Z</time>
      </trkpt>
      <trkpt lat="-21.14524" lon="55.54118">
        <ele>1843.7</ele>
        <time>2013-05-05T00:02:33Z</time>
      </trkpt>
      <trkpt lat="-21.14515" lon="55.54113">
        <ele>1845</ele>
        <time>2013-05-05T00:02:42Z</time>
      </trkpt>
      <trkpt lat="-21.14505" lon="55.54109">
        <ele>1846</ele>
        <time>2013-05-05T00:02:52Z</time>
      </trkpt>
      <trkpt lat="-21.14499" lon="55.54099">
        <ele>1848</ele>
        <time>2013-05-05T00:03:04Z</time>
      </trkpt>
      <trkpt lat="-21.14498" lon="55.54097">
        <ele>1849.3</ele>
        <time>2013-05-05T00:03:06Z</time>
      </trkpt>
      <trkpt lat="-21.1449" lon="55.5408">
        <ele>1852</ele>
        <time>2013-05-05T00:03:28Z</time>
      </trkpt>
      <trkpt lat="-21.14484" lon="55.54071">
        <ele>1854</ele>
        <time>2013-05-05T00:03:45Z</time>
      </trkpt>
      <trkpt lat="-21.14476" lon="55.54064">
        <ele>1857</ele>
        <time>2013-05-05T00:04:01Z</time>
      </trkpt>
      <trkpt lat="-21.14468" lon="55.54053">
        <ele>1860</ele>
        <time>2013-05-05T00:04:13Z</time>
      </trkpt>
      <trkpt lat="-21.14467" lon="55.54052">
        <ele>1860.6</ele>
        <time>2013-05-05T00:04:15Z</time>
      </trkpt>
      <trkpt lat="-21.14455" lon="55.54039">
        <ele>1864</ele>
        <time>2013-05-05T00:04:30Z</time>
      </trkpt>
      <trkpt lat="-21.14448" lon="55.54034">
        <ele>1865.2</ele>
        <time>2013-05-05T00:04:37Z</time>
      </trkpt>
      <trkpt lat="-21.1444" lon="55.54031">
        <ele>1865</ele>
        <time>2013-05-05T00:04:43Z</time>
      </trkpt>
      <trkpt lat="-21.14432" lon="55.54031">
        <ele>1865.8</ele>
        <time>2013-05-05T00:04:49Z</time>
      </trkpt>
      <trkpt lat="-21.14421" lon="55.54029">
        <ele>1866</ele>
        <time>2013-05-05T00:04:58Z</time>
      </trkpt>
      <trkpt lat="-21.14412" lon="55.54035">
        <ele>1868</ele>
        <time>2013-05-05T00:05:10Z</time>
      </trkpt>
      <trkpt lat="-21.14399" lon="55.5404">
        <ele>1870</ele>
        <time>2013-05-05T00:05:22Z</time>
      </trkpt>
      <trkpt lat="-21.14397" lon="55.5404">
        <ele>1870.9</ele>
        <time>2013-05-05T00:05:24Z</time>
      </trkpt>
      <trkpt lat="-21.1438" lon="55.54045">
        <ele>1874</ele>
        <time>2013-05-05T00:05:40Z</time>
      </trkpt>
      <trkpt lat="-21.14372" lon="55.54045">
        <ele>1875.4</ele>
        <time>2013-05-05T00:05:52Z</time>
      </trkpt>
      <trkpt lat="-21.14364" lon="55.54042">
        <ele>1876.6</ele>
        <time>2013-05-05T00:06:02Z</time>
      </trkpt>
      <trkpt lat="-21.14355" lon="55.54042">
        <ele>1877.9</ele>
        <time>2013-05-05T00:06:12Z</time>
      </trkpt>
      <trkpt lat="-21.14348" lon="55.54041">
        <ele>1878.7</ele>
        <time>2013-05-05T00:06:21Z</time>
      </trkpt>
      <trkpt lat="-21.1434" lon="55.54039">
        <ele>1878.8</ele>
        <time>2013-05-05T00:06:29Z</time>
      </trkpt>
      <trkpt lat="-21.14339" lon="55.54038">
        <ele>1878.9</ele>
        <time>2013-05-05T00:06:30Z</time>
      </trkpt>
      <trkpt lat="-21.14325" lon="55.54032">
        <ele>1880.5</ele>
        <time>2013-05-05T00:06:45Z</time>
      </trkpt>
      <trkpt lat="-21.14316" lon="55.5403">
        <ele>1881.4</ele>
        <time>2013-05-05T00:06:55Z</time>
      </trkpt>
      <trkpt lat="-21.14305" lon="55.54028">
        <ele>1882</ele>
        <time>2013-05-05T00:07:09Z</time>
      </trkpt>
      <trkpt lat="-21.14295" lon="55.54031">
        <ele>1882</ele>
        <time>2013-05-05T00:07:17Z</time>
      </trkpt>
      <trkpt lat="-21.14284" lon="55.54028">
        <ele>1883</ele>
        <time>2013-05-05T00:07:25Z</time>
      </trkpt>
      <trkpt lat="-21.14274" lon="55.54026">
        <ele>1884</ele>
        <time>2013-05-05T00:07:33Z</time>
      </trkpt>
      <trkpt lat="-21.14272" lon="55.54026">
        <ele>1884.9</ele>
        <time>2013-05-05T00:07:35Z</time>
      </trkpt>
      <trkpt lat="-21.14252" lon="55.54029">
        <ele>1885</ele>
        <time>2013-05-05T00:07:49Z</time>
      </trkpt>
      <trkpt lat="-21.14243" lon="55.54032">
        <ele>1886</ele>
        <time>2013-05-05T00:07:57Z</time>
      </trkpt>
      <trkpt lat="-21.14234" lon="55.54037">
        <ele>1887</ele>
        <time>2013-05-05T00:08:09Z</time>
      </trkpt>
      <trkpt lat="-21.14222" lon="55.54036">
        <ele>1889</ele>
        <time>2013-05-05T00:08:25Z</time>
      </trkpt>
      <trkpt lat="-21.14212" lon="55.5404">
        <ele>1890</ele>
        <time>2013-05-05T00:08:39Z</time>
      </trkpt>
      <trkpt lat="-21.14211" lon="55.54041">
        <ele>1890.3</ele>
        <time>2013-05-05T00:08:41Z</time>
      </trkpt>
      <trkpt lat="-21.14195" lon="55.54028">
        <ele>1894</ele>
        <time>2013-05-05T00:09:08Z</time>
      </trkpt>
      <trkpt lat="-21.14183" lon="55.54027">
        <ele>1897</ele>
        <time>2013-05-05T00:09:26Z</time>
      </trkpt>
      <trkpt lat="-21.14174" lon="55.5403">
        <ele>1898.2</ele>
        <time>2013-05-05T00:09:34Z</time>
      </trkpt>
      <trkpt lat="-21.14166" lon="55.54028">
        <ele>1900</ele>
        <time>2013-05-05T00:09:47Z</time>
      </trkpt>
      <trkpt lat="-21.14166" lon="55.54028">
        <ele>1899.9</ele>
        <time>2013-05-05T00:09:48Z</time>
      </trkpt>
      <trkpt lat="-21.14154" lon="55.54015">
        <ele>1902.9</ele>
        <time>2013-05-05T00:10:08Z</time>
      </trkpt>
      <trkpt lat="-21.14149" lon="55.54008">
        <ele>1903.4</ele>
        <time>2013-05-05T00:10:18Z</time>
      </trkpt>
      <trkpt lat="-21.14141" lon="55.54003">
        <ele>1904</ele>
        <time>2013-05-05T00:10:31Z</time>
      </trkpt>
      <trkpt lat="-21.14128" lon="55.54002">
        <ele>1906</ele>
        <time>2013-05-05T00:10:43Z</time>
      </trkpt>
      <trkpt lat="-21.14121" lon="55.53998">
        <ele>1907.9</ele>
        <time>2013-05-05T00:10:51Z</time>
      </trkpt>
      <trkpt lat="-21.1412" lon="55.53997">
        <ele>1908.2</ele>
        <time>2013-05-05T00:10:52Z</time>
      </trkpt>
      <trkpt lat="-21.14107" lon="55.53987">
        <ele>1909.2</ele>
        <time>2013-05-05T00:11:04Z</time>
      </trkpt>
      <trkpt lat="-21.14102" lon="55.53979">
        <ele>1909.7</ele>
        <time>2013-05-05T00:11:11Z</time>
      </trkpt>
      <trkpt lat="-21.14096" lon="55.53973">
        <ele>1910.2</ele>
        <time>2013-05-05T00:11:20Z</time>
      </trkpt>
      <trkpt lat="-21.14088" lon="55.5397">
        <ele>1909.3</ele>
        <time>2013-05-05T00:11:27Z</time>
      </trkpt>
      <trkpt lat="-21.1408" lon="55.53967">
        <ele>1910.2</ele>
        <time>2013-05-05T00:11:34Z</time>
      </trkpt>
      <trkpt lat="-21.14071" lon="55.53967">
        <ele>1910.3</ele>
        <time>2013-05-05T00:11:42Z</time>
      </trkpt>
      <trkpt lat="-21.14062" lon="55.53967">
        <ele>1911</ele>
        <time>2013-05-05T00:11:53Z</time>
      </trkpt>
      <trkpt lat="-21.14061" lon="55.53967">
        <ele>1911.7</ele>
        <time>2013-05-05T00:11:55Z</time>
      </trkpt>
      <trkpt lat="-21.14046" lon="55.53964">
        <ele>1915</ele>
        <time>2013-05-05T00:12:09Z</time>
      </trkpt>
      <trkpt lat="-21.14036" lon="55.53961">
        <ele>1916</ele>
        <time>2013-05-05T00:12:20Z</time>
      </trkpt>
      <trkpt lat="-21.14024" lon="55.53952">
        <ele>1917</ele>
        <time>2013-05-05T00:12:34Z</time>
      </trkpt>
      <trkpt lat="-21.14013" lon="55.53949">
        <ele>1916</ele>
        <time>2013-05-05T00:12:40Z</time>
      </trkpt>
      <trkpt lat="-21.14015" lon="55.53963">
        <ele>1917</ele>
        <time>2013-05-05T00:12:56Z</time>
      </trkpt>
      <trkpt lat="-21.14015" lon="55.53964">
        <ele>1917.9</ele>
        <time>2013-05-05T00:12:57Z</time>
      </trkpt>
      <trkpt lat="-21.14013" lon="55.53982">
        <ele>1919</ele>
        <time>2013-05-05T00:13:20Z</time>
      </trkpt>
      <trkpt lat="-21.14005" lon="55.53991">
        <ele>1920</ele>
        <time>2013-05-05T00:13:32Z</time>
      </trkpt>
      <trkpt lat="-21.14001" lon="55.53983">
        <ele>1921.7</ele>
        <time>2013-05-05T00:13:41Z</time>
      </trkpt>
      <trkpt lat="-21.13995" lon="55.53977">
        <ele>1922.9</ele>
        <time>2013-05-05T00:13:51Z</time>
      </trkpt>
      <trkpt lat="-21.13989" lon="55.53971">
        <ele>1923.6</ele>
        <time>2013-05-05T00:13:59Z</time>
      </trkpt>
      <trkpt lat="-21.13988" lon="55.5397">
        <ele>1924</ele>
        <time>2013-05-05T00:14:00Z</time>
      </trkpt>
      <trkpt lat="-21.13972" lon="55.53959">
        <ele>1926</ele>
        <time>2013-05-05T00:14:23Z</time>
      </trkpt>
      <trkpt lat="-21.13965" lon="55.53955">
        <ele>1928.3</ele>
        <time>2013-05-05T00:14:32Z</time>
      </trkpt>
      <trkpt lat="-21.13957" lon="55.53952">
        <ele>1929.4</ele>
        <time>2013-05-05T00:14:41Z</time>
      </trkpt>
      <trkpt lat="-21.13945" lon="55.53951">
        <ele>1930</ele>
        <time>2013-05-05T00:14:56Z</time>
      </trkpt>
      <trkpt lat="-21.13934" lon="55.5395">
        <ele>1931</ele>
        <time>2013-05-05T00:15:08Z</time>
      </trkpt>
      <trkpt lat="-21.13933" lon="55.5395">
        <ele>1932.3</ele>
        <time>2013-05-05T00:15:10Z</time>
      </trkpt>
      <trkpt lat="-21.13915" lon="55.53959">
        <ele>1934</ele>
        <time>2013-05-05T00:15:32Z</time>
      </trkpt>
      <trkpt lat="-21.13907" lon="55.53969">
        <ele>1935</ele>
        <time>2013-05-05T00:15:44Z</time>
      </trkpt>
      <trkpt lat="-21.139" lon="55.53978">
        <ele>1937</ele>
        <time>2013-05-05T00:15:56Z</time>
      </trkpt>
      <trkpt lat="-21.13892" lon="55.53977">
        <ele>1939.4</ele>
        <time>2013-05-05T00:16:21Z</time>
      </trkpt>
      <trkpt lat="-21.13891" lon="55.53976">
        <ele>1939.5</ele>
        <time>2013-05-05T00:16:22Z</time>
      </trkpt>
      <trkpt lat="-21.13875" lon="55.5397">
        <ele>1943.6</ele>
        <time>2013-05-05T00:16:46Z</time>
      </trkpt>
      <trkpt lat="-21.13866" lon="55.53969">
        <ele>1943.6</ele>
        <time>2013-05-05T00:16:55Z</time>
      </trkpt>
      <trkpt lat="-21.13858" lon="55.53969">
        <ele>1944</ele>
        <time>2013-05-05T00:17:05Z</time>
      </trkpt>
      <trkpt lat="-21.13852" lon="55.53962">
        <ele>1945.2</ele>
        <time>2013-05-05T00:17:19Z</time>
      </trkpt>
      <trkpt lat="-21.13851" lon="55.53953">
        <ele>1948.4</ele>
        <time>2013-05-05T00:17:33Z</time>
      </trkpt>
      <trkpt lat="-21.13851" lon="55.53952">
        <ele>1948.5</ele>
        <time>2013-05-05T00:17:34Z</time>
      </trkpt>
      <trkpt lat="-21.13846" lon="55.53937">
        <ele>1949.1</ele>
        <time>2013-05-05T00:18:00Z</time>
      </trkpt>
      <trkpt lat="-21.13838" lon="55.53937">
        <ele>1950.1</ele>
        <time>2013-05-05T00:18:09Z</time>
      </trkpt>
      <trkpt lat="-21.13831" lon="55.53929">
        <ele>1950</ele>
        <time>2013-05-05T00:18:20Z</time>
      </trkpt>
      <trkpt lat="-21.13823" lon="55.53927">
        <ele>1952.7</ele>
        <time>2013-05-05T00:18:32Z</time>
      </trkpt>
      <trkpt lat="-21.13816" lon="55.53922">
        <ele>1954.2</ele>
        <time>2013-05-05T00:18:41Z</time>
      </trkpt>
      <trkpt lat="-21.13816" lon="55.53922">
        <ele>1954.2</ele>
        <time>2013-05-05T00:18:42Z</time>
      </trkpt>
      <trkpt lat="-21.13801" lon="55.53915">
        <ele>1955.8</ele>
        <time>2013-05-05T00:19:00Z</time>
      </trkpt>
      <trkpt lat="-21.13793" lon="55.53914">
        <ele>1956.9</ele>
        <time>2013-05-05T00:19:14Z</time>
      </trkpt>
      <trkpt lat="-21.13786" lon="55.53909">
        <ele>1958.1</ele>
        <time>2013-05-05T00:19:21Z</time>
      </trkpt>
      <trkpt lat="-21.13781" lon="55.53899">
        <ele>1958</ele>
        <time>2013-05-05T00:19:31Z</time>
      </trkpt>
      <trkpt lat="-21.13776" lon="55.5389">
        <ele>1960</ele>
        <time>2013-05-05T00:19:43Z</time>
      </trkpt>
      <trkpt lat="-21.13774" lon="55.53889">
        <ele>1961</ele>
        <time>2013-05-05T00:19:45Z</time>
      </trkpt>
      <trkpt lat="-21.13756" lon="55.53881">
        <ele>1962</ele>
        <time>2013-05-05T00:20:07Z</time>
      </trkpt>
      <trkpt lat="-21.13746" lon="55.53878">
        <ele>1963</ele>
        <time>2013-05-05T00:20:19Z</time>
      </trkpt>
      <trkpt lat="-21.1374" lon="55.53869">
        <ele>1964</ele>
        <time>2013-05-05T00:20:31Z</time>
      </trkpt>
      <trkpt lat="-21.13738" lon="55.53859">
        <ele>1966</ele>
        <time>2013-05-05T00:20:43Z</time>
      </trkpt>
      <trkpt lat="-21.13747" lon="55.53863">
        <ele>1966</ele>
        <time>2013-05-05T00:20:59Z</time>
      </trkpt>
      <trkpt lat="-21.13748" lon="55.53863">
        <ele>1967</ele>
        <time>2013-05-05T00:21:01Z</time>
      </trkpt>
      <trkpt lat="-21.13754" lon="55.53852">
        <ele>1969.7</ele>
        <time>2013-05-05T00:21:23Z</time>
      </trkpt>
      <trkpt lat="-21.13749" lon="55.53845">
        <ele>1970</ele>
        <time>2013-05-05T00:21:30Z</time>
      </trkpt>
      <trkpt lat="-21.13746" lon="55.53837">
        <ele>1970.5</ele>
        <time>2013-05-05T00:21:38Z</time>
      </trkpt>
      <trkpt lat="-21.1374" lon="55.53829">
        <ele>1971.2</ele>
        <time>2013-05-05T00:21:48Z</time>
      </trkpt>
      <trkpt lat="-21.13738" lon="55.53821">
        <ele>1971</ele>
        <time>2013-05-05T00:21:57Z</time>
      </trkpt>
      <trkpt lat="-21.13731" lon="55.53815">
        <ele>1972.4</ele>
        <time>2013-05-05T00:22:05Z</time>
      </trkpt>
      <trkpt lat="-21.1373" lon="55.53815">
        <ele>1971.9</ele>
        <time>2013-05-05T00:22:06Z</time>
      </trkpt>
      <trkpt lat="-21.13715" lon="55.53818">
        <ele>1971.7</ele>
        <time>2013-05-05T00:22:18Z</time>
      </trkpt>
      <trkpt lat="-21.13714" lon="55.53809">
        <ele>1972.7</ele>
        <time>2013-05-05T00:22:31Z</time>
      </trkpt>
      <trkpt lat="-21.13717" lon="55.538">
        <ele>1971.2</ele>
        <time>2013-05-05T00:22:43Z</time>
      </trkpt>
      <trkpt lat="-21.13719" lon="55.53787">
        <ele>1971</ele>
        <time>2013-05-05T00:23:01Z</time>
      </trkpt>
      <trkpt lat="-21.1372" lon="55.53774">
        <ele>1970</ele>
        <time>2013-05-05T00:23:09Z</time>
      </trkpt>
      <trkpt lat="-21.1372" lon="55.53772">
        <ele>1970.4</ele>
        <time>2013-05-05T00:23:11Z</time>
      </trkpt>
      <trkpt lat="-21.13728" lon="55.5375">
        <ele>1972</ele>
        <time>2013-05-05T00:23:33Z</time>
      </trkpt>
      <trkpt lat="-21.13737" lon="55.53745">
        <ele>1972</ele>
        <time>2013-05-05T00:23:45Z</time>
      </trkpt>
      <trkpt lat="-21.13745" lon="55.5374">
        <ele>1971</ele>
        <time>2013-05-05T00:23:57Z</time>
      </trkpt>
      <trkpt lat="-21.13757" lon="55.53735">
        <ele>1972</ele>
        <time>2013-05-05T00:24:09Z</time>
      </trkpt>
      <trkpt lat="-21.13766" lon="55.53725">
        <ele>1973</ele>
        <time>2013-05-05T00:24:25Z</time>
      </trkpt>
      <trkpt lat="-21.13767" lon="55.53724">
        <ele>1973.6</ele>
        <time>2013-05-05T00:24:27Z</time>
      </trkpt>
      <trkpt lat="-21.13772" lon="55.53699">
        <ele>1974</ele>
        <time>2013-05-05T00:24:49Z</time>
      </trkpt>
      <trkpt lat="-21.13778" lon="55.53688">
        <ele>1975</ele>
        <time>2013-05-05T00:25:01Z</time>
      </trkpt>
      <trkpt lat="-21.13782" lon="55.53675">
        <ele>1976</ele>
        <time>2013-05-05T00:25:13Z</time>
      </trkpt>
      <trkpt lat="-21.13786" lon="55.53666">
        <ele>1976</ele>
        <time>2013-05-05T00:25:25Z</time>
      </trkpt>
      <trkpt lat="-21.13786" lon="55.53656">
        <ele>1976</ele>
        <time>2013-05-05T00:25:37Z</time>
      </trkpt>
      <trkpt lat="-21.13786" lon="55.53654">
        <ele>1976.2</ele>
        <time>2013-05-05T00:25:39Z</time>
      </trkpt>
      <trkpt lat="-21.1379" lon="55.53629">
        <ele>1976</ele>
        <time>2013-05-05T00:26:01Z</time>
      </trkpt>
      <trkpt lat="-21.13793" lon="55.53617">
        <ele>1977</ele>
        <time>2013-05-05T00:26:09Z</time>
      </trkpt>
      <trkpt lat="-21.13789" lon="55.53608">
        <ele>1978</ele>
        <time>2013-05-05T00:26:17Z</time>
      </trkpt>
      <trkpt lat="-21.13779" lon="55.53601">
        <ele>1980</ele>
        <time>2013-05-05T00:26:29Z</time>
      </trkpt>
      <trkpt lat="-21.13769" lon="55.53598">
        <ele>1982</ele>
        <time>2013-05-05T00:26:45Z</time>
      </trkpt>
      <trkpt lat="-21.13768" lon="55.53598">
        <ele>1982.8</ele>
        <time>2013-05-05T00:26:47Z</time>
      </trkpt>
      <trkpt lat="-21.13747" lon="55.53602">
        <ele>1987</ele>
        <time>2013-05-05T00:27:17Z</time>
      </trkpt>
      <trkpt lat="-21.13741" lon="55.53593">
        <ele>1990</ele>
        <time>2013-05-05T00:27:37Z</time>
      </trkpt>
      <trkpt lat="-21.13739" lon="55.53584">
        <ele>1992.3</ele>
        <time>2013-05-05T00:27:49Z</time>
      </trkpt>
      <trkpt lat="-21.13739" lon="55.53583">
        <ele>1992.2</ele>
        <time>2013-05-05T00:27:50Z</time>
      </trkpt>
      <trkpt lat="-21.13737" lon="55.53565">
        <ele>1997</ele>
        <time>2013-05-05T00:28:22Z</time>
      </trkpt>
      <trkpt lat="-21.13737" lon="55.53556">
        <ele>1999.1</ele>
        <time>2013-05-05T00:28:32Z</time>
      </trkpt>
      <trkpt lat="-21.13737" lon="55.53546">
        <ele>1997.3</ele>
        <time>2013-05-05T00:28:45Z</time>
      </trkpt>
      <trkpt lat="-21.13736" lon="55.53535">
        <ele>1997</ele>
        <time>2013-05-05T00:28:58Z</time>
      </trkpt>
      <trkpt lat="-21.13735" lon="55.53533">
        <ele>1997.5</ele>
        <time>2013-05-05T00:29:00Z</time>
      </trkpt>
      <trkpt lat="-21.13728" lon="55.53515">
        <ele>1994</ele>
        <time>2013-05-05T00:29:19Z</time>
      </trkpt>
      <trkpt lat="-21.13724" lon="55.53506">
        <ele>1992</ele>
        <time>2013-05-05T00:29:31Z</time>
      </trkpt>
      <trkpt lat="-21.13721" lon="55.53494">
        <ele>1990</ele>
        <time>2013-05-05T00:29:43Z</time>
      </trkpt>
      <trkpt lat="-21.13716" lon="55.53485">
        <ele>1987</ele>
        <time>2013-05-05T00:29:59Z</time>
      </trkpt>
      <trkpt lat="-21.13716" lon="55.53484">
        <ele>1987.9</ele>
        <time>2013-05-05T00:30:01Z</time>
      </trkpt>
      <trkpt lat="-21.13708" lon="55.53465">
        <ele>1982.8</ele>
        <time>2013-05-05T00:30:37Z</time>
      </trkpt>
      <trkpt lat="-21.13704" lon="55.53458">
        <ele>1983.4</ele>
        <time>2013-05-05T00:30:46Z</time>
      </trkpt>
      <trkpt lat="-21.13701" lon="55.5345">
        <ele>1982.7</ele>
        <time>2013-05-05T00:30:55Z</time>
      </trkpt>
      <trkpt lat="-21.13691" lon="55.53443">
        <ele>1976</ele>
        <time>2013-05-05T00:31:17Z</time>
      </trkpt>
      <trkpt lat="-21.13691" lon="55.53441">
        <ele>1976.6</ele>
        <time>2013-05-05T00:31:19Z</time>
      </trkpt>
      <trkpt lat="-21.13679" lon="55.53422">
        <ele>1966</ele>
        <time>2013-05-05T00:32:03Z</time>
      </trkpt>
      <trkpt lat="-21.13671" lon="55.53415">
        <ele>1962</ele>
        <time>2013-05-05T00:32:17Z</time>
      </trkpt>
      <trkpt lat="-21.13661" lon="55.53415">
        <ele>1961</ele>
        <time>2013-05-05T00:32:33Z</time>
      </trkpt>
      <trkpt lat="-21.1366" lon="55.53415">
        <ele>1961</ele>
        <time>2013-05-05T00:32:35Z</time>
      </trkpt>
      <trkpt lat="-21.13648" lon="55.53396">
        <ele>1949</ele>
        <time>2013-05-05T00:33:29Z</time>
      </trkpt>
      <trkpt lat="-21.13642" lon="55.53384">
        <ele>1949</ele>
        <time>2013-05-05T00:33:41Z</time>
      </trkpt>
      <trkpt lat="-21.13641" lon="55.53383">
        <ele>1949.5</ele>
        <time>2013-05-05T00:33:43Z</time>
      </trkpt>
      <trkpt lat="-21.13628" lon="55.53339">
        <ele>1943</ele>
        <time>2013-05-05T00:34:15Z</time>
      </trkpt>
      <trkpt lat="-21.13626" lon="55.5335">
        <ele>1941</ele>
        <time>2013-05-05T00:34:25Z</time>
      </trkpt>
      <trkpt lat="-21.13628" lon="55.5334">
        <ele>1936</ele>
        <time>2013-05-05T00:35:11Z</time>
      </trkpt>
      <trkpt lat="-21.13628" lon="55.53338">
        <ele>1938</ele>
        <time>2013-05-05T00:35:15Z</time>
      </trkpt>
      <trkpt lat="-21.13617" lon="55.53322">
        <ele>1934</ele>
        <time>2013-05-05T00:35:36Z</time>
      </trkpt>
      <trkpt lat="-21.13614" lon="55.53312">
        <ele>1934</ele>
        <time>2013-05-05T00:35:44Z</time>
      </trkpt>
      <trkpt lat="-21.13608" lon="55.53318">
        <ele>1934</ele>
        <time>2013-05-05T00:35:52Z</time>
      </trkpt>
      <trkpt lat="-21.13597" lon="55.53322">
        <ele>1932</ele>
        <time>2013-05-05T00:36:03Z</time>
      </trkpt>
      <trkpt lat="-21.13587" lon="55.53314">
        <ele>1929</ele>
        <time>2013-05-05T00:36:19Z</time>
      </trkpt>
      <trkpt lat="-21.13585" lon="55.53316">
        <ele>1929.1</ele>
        <time>2013-05-05T00:36:21Z</time>
      </trkpt>
      <trkpt lat="-21.13579" lon="55.53304">
        <ele>1928</ele>
        <time>2013-05-05T00:36:46Z</time>
      </trkpt>
      <trkpt lat="-21.13582" lon="55.53295">
        <ele>1929</ele>
        <time>2013-05-05T00:36:52Z</time>
      </trkpt>
      <trkpt lat="-21.13572" lon="55.53289">
        <ele>1930</ele>
        <time>2013-05-05T00:37:17Z</time>
      </trkpt>
      <trkpt lat="-21.13567" lon="55.5328">
        <ele>1929</ele>
        <time>2013-05-05T00:37:29Z</time>
      </trkpt>
      <trkpt lat="-21.13566" lon="55.5328">
        <ele>1929.8</ele>
        <time>2013-05-05T00:37:31Z</time>
      </trkpt>
      <trkpt lat="-21.13568" lon="55.53252">
        <ele>1927</ele>
        <time>2013-05-05T00:37:46Z</time>
      </trkpt>
      <trkpt lat="-21.13558" lon="55.53217">
        <ele>1927</ele>
        <time>2013-05-05T00:38:27Z</time>
      </trkpt>
      <trkpt lat="-21.13551" lon="55.53211">
        <ele>1928.5</ele>
        <time>2013-05-05T00:38:44Z</time>
      </trkpt>
      <trkpt lat="-21.13549" lon="55.53191">
        <ele>1923</ele>
        <time>2013-05-05T00:39:08Z</time>
      </trkpt>
      <trkpt lat="-21.13545" lon="55.53154">
        <ele>1922</ele>
        <time>2013-05-05T00:39:58Z</time>
      </trkpt>
      <trkpt lat="-21.1355" lon="55.53064">
        <ele>1923.1</ele>
        <time>2013-05-05T00:41:46Z</time>
      </trkpt>
      <trkpt lat="-21.13549" lon="55.53053">
        <ele>1920</ele>
        <time>2013-05-05T00:42:00Z</time>
      </trkpt>
      <trkpt lat="-21.13543" lon="55.53044">
        <ele>1920</ele>
        <time>2013-05-05T00:42:12Z</time>
      </trkpt>
      <trkpt lat="-21.13534" lon="55.53039">
        <ele>1919</ele>
        <time>2013-05-05T00:42:28Z</time>
      </trkpt>
      <trkpt lat="-21.13525" lon="55.53031">
        <ele>1919</ele>
        <time>2013-05-05T00:42:44Z</time>
      </trkpt>
      <trkpt lat="-21.13516" lon="55.53027">
        <ele>1921</ele>
        <time>2013-05-05T00:43:00Z</time>
      </trkpt>
      <trkpt lat="-21.13515" lon="55.53026">
        <ele>1921.7</ele>
        <time>2013-05-05T00:43:02Z</time>
      </trkpt>
      <trkpt lat="-21.13496" lon="55.53023">
        <ele>1921</ele>
        <time>2013-05-05T00:43:33Z</time>
      </trkpt>
      <trkpt lat="-21.13484" lon="55.53031">
        <ele>1917</ele>
        <time>2013-05-05T00:44:05Z</time>
      </trkpt>
      <trkpt lat="-21.13483" lon="55.53033">
        <ele>1917.7</ele>
        <time>2013-05-05T00:44:09Z</time>
      </trkpt>
      <trkpt lat="-21.13473" lon="55.53053">
        <ele>1903</ele>
        <time>2013-05-05T00:45:11Z</time>
      </trkpt>
      <trkpt lat="-21.13474" lon="55.53055">
        <ele>1902.9</ele>
        <time>2013-05-05T00:45:15Z</time>
      </trkpt>
      <trkpt lat="-21.13462" lon="55.53065">
        <ele>1898</ele>
        <time>2013-05-05T00:45:45Z</time>
      </trkpt>
      <trkpt lat="-21.13459" lon="55.5305">
        <ele>1897</ele>
        <time>2013-05-05T00:45:53Z</time>
      </trkpt>
      <trkpt lat="-21.13453" lon="55.53041">
        <ele>1896</ele>
        <time>2013-05-05T00:46:01Z</time>
      </trkpt>
      <trkpt lat="-21.13436" lon="55.53046">
        <ele>1897</ele>
        <time>2013-05-05T00:46:21Z</time>
      </trkpt>
      <trkpt lat="-21.1343" lon="55.53045">
        <ele>1899.1</ele>
        <time>2013-05-05T00:46:27Z</time>
      </trkpt>
      <trkpt lat="-21.13423" lon="55.53051">
        <ele>1900</ele>
        <time>2013-05-05T00:46:37Z</time>
      </trkpt>
      <trkpt lat="-21.13422" lon="55.53042">
        <ele>1900.2</ele>
        <time>2013-05-05T00:46:42Z</time>
      </trkpt>
      <trkpt lat="-21.13416" lon="55.53036">
        <ele>1903.2</ele>
        <time>2013-05-05T00:47:03Z</time>
      </trkpt>
      <trkpt lat="-21.13412" lon="55.52975">
        <ele>1901</ele>
        <time>2013-05-05T00:48:03Z</time>
      </trkpt>
      <trkpt lat="-21.13407" lon="55.52937">
        <ele>1904.4</ele>
        <time>2013-05-05T00:48:52Z</time>
      </trkpt>
      <trkpt lat="-21.13394" lon="55.52911">
        <ele>1905</ele>
        <time>2013-05-05T00:49:17Z</time>
      </trkpt>
      <trkpt lat="-21.13387" lon="55.52901">
        <ele>1908</ele>
        <time>2013-05-05T00:49:33Z</time>
      </trkpt>
      <trkpt lat="-21.13385" lon="55.52874">
        <ele>1911</ele>
        <time>2013-05-05T00:50:05Z</time>
      </trkpt>
      <trkpt lat="-21.13381" lon="55.52862">
        <ele>1913.3</ele>
        <time>2013-05-05T00:50:12Z</time>
      </trkpt>
      <trkpt lat="-21.13379" lon="55.52846">
        <ele>1916</ele>
        <time>2013-05-05T00:50:37Z</time>
      </trkpt>
      <trkpt lat="-21.13376" lon="55.52808">
        <ele>1916</ele>
        <time>2013-05-05T00:51:09Z</time>
      </trkpt>
      <trkpt lat="-21.13383" lon="55.52798">
        <ele>1917.9</ele>
        <time>2013-05-05T00:51:16Z</time>
      </trkpt>
      <trkpt lat="-21.13372" lon="55.52805">
        <ele>1920</ele>
        <time>2013-05-05T00:51:41Z</time>
      </trkpt>
      <trkpt lat="-21.13373" lon="55.52788">
        <ele>1921</ele>
        <time>2013-05-05T00:51:57Z</time>
      </trkpt>
      <trkpt lat="-21.13368" lon="55.52779">
        <ele>1924</ele>
        <time>2013-05-05T00:52:29Z</time>
      </trkpt>
      <trkpt lat="-21.1337" lon="55.52801">
        <ele>1925.5</ele>
        <time>2013-05-05T00:52:36Z</time>
      </trkpt>
      <trkpt lat="-21.13374" lon="55.52741">
        <ele>1928</ele>
        <time>2013-05-05T00:53:01Z</time>
      </trkpt>
      <trkpt lat="-21.13377" lon="55.52722">
        <ele>1930</ele>
        <time>2013-05-05T00:53:17Z</time>
      </trkpt>
      <trkpt lat="-21.13383" lon="55.52691">
        <ele>1931</ele>
        <time>2013-05-05T00:53:49Z</time>
      </trkpt>
      <trkpt lat="-21.13384" lon="55.52687">
        <ele>1932.2</ele>
        <time>2013-05-05T00:53:56Z</time>
      </trkpt>
      <trkpt lat="-21.13392" lon="55.52648">
        <ele>1937</ele>
        <time>2013-05-05T00:54:54Z</time>
      </trkpt>
      <trkpt lat="-21.13401" lon="55.52619">
        <ele>1938.3</ele>
        <time>2013-05-05T00:55:02Z</time>
      </trkpt>
      <trkpt lat="-21.13398" lon="55.52612">
        <ele>1942</ele>
        <time>2013-05-05T00:55:43Z</time>
      </trkpt>
      <trkpt lat="-21.13401" lon="55.52587">
        <ele>1943</ele>
        <time>2013-05-05T00:56:00Z</time>
      </trkpt>
      <trkpt lat="-21.13395" lon="55.52594">
        <ele>1945.6</ele>
        <time>2013-05-05T00:56:08Z</time>
      </trkpt>
      <trkpt lat="-21.13411" lon="55.52514">
        <ele>1951</ele>
        <time>2013-05-05T00:57:24Z</time>
      </trkpt>
      <trkpt lat="-21.13414" lon="55.52465">
        <ele>1952.6</ele>
        <time>2013-05-05T00:57:31Z</time>
      </trkpt>
      <trkpt lat="-21.13416" lon="55.52491">
        <ele>1962</ele>
        <time>2013-05-05T00:58:39Z</time>
      </trkpt>
      <trkpt lat="-21.13423" lon="55.52466">
        <ele>1963.5</ele>
        <time>2013-05-05T00:58:46Z</time>
      </trkpt>
      <trkpt lat="-21.13421" lon="55.52442">
        <ele>1965</ele>
        <time>2013-05-05T00:59:27Z</time>
      </trkpt>
      <trkpt lat="-21.13411" lon="55.52447">
        <ele>1966</ele>
        <time>2013-05-05T00:59:57Z</time>
      </trkpt>
      <trkpt lat="-21.13419" lon="55.52459">
        <ele>1968.9</ele>
        <time>2013-05-05T01:00:12Z</time>
      </trkpt>
      <trkpt lat="-21.13422" lon="55.52405">
        <ele>1969</ele>
        <time>2013-05-05T01:00:37Z</time>
      </trkpt>
      <trkpt lat="-21.13427" lon="55.52379">
        <ele>1975</ele>
        <time>2013-05-05T01:01:26Z</time>
      </trkpt>
      <trkpt lat="-21.13422" lon="55.52369">
        <ele>1976.1</ele>
        <time>2013-05-05T01:01:33Z</time>
      </trkpt>
      <trkpt lat="-21.13438" lon="55.52344">
        <ele>1980</ele>
        <time>2013-05-05T01:02:14Z</time>
      </trkpt>
      <trkpt lat="-21.13434" lon="55.52369">
        <ele>1983</ele>
        <time>2013-05-05T01:02:30Z</time>
      </trkpt>
      <trkpt lat="-21.13429" lon="55.52374">
        <ele>1984.6</ele>
        <time>2013-05-05T01:02:37Z</time>
      </trkpt>
      <trkpt lat="-21.13449" lon="55.5232">
        <ele>1987</ele>
        <time>2013-05-05T01:03:02Z</time>
      </trkpt>
      <trkpt lat="-21.13449" lon="55.52295">
        <ele>1991</ele>
        <time>2013-05-05T01:03:35Z</time>
      </trkpt>
      <trkpt lat="-21.13452" lon="55.52289">
        <ele>1992</ele>
        <time>2013-05-05T01:03:42Z</time>
      </trkpt>
      <trkpt lat="-21.13463" lon="55.52255">
        <ele>1996</ele>
        <time>2013-05-05T01:04:28Z</time>
      </trkpt>
      <trkpt lat="-21.13473" lon="55.5225">
        <ele>2002</ele>
        <time>2013-05-05T01:05:16Z</time>
      </trkpt>
      <trkpt lat="-21.13469" lon="55.52248">
        <ele>2003.3</ele>
        <time>2013-05-05T01:05:23Z</time>
      </trkpt>
      <trkpt lat="-21.13481" lon="55.5226">
        <ele>2005</ele>
        <time>2013-05-05T01:05:50Z</time>
      </trkpt>
      <trkpt lat="-21.13486" lon="55.52223">
        <ele>2007</ele>
        <time>2013-05-05T01:06:07Z</time>
      </trkpt>
      <trkpt lat="-21.13493" lon="55.52201">
        <ele>2011</ele>
        <time>2013-05-05T01:06:39Z</time>
      </trkpt>
      <trkpt lat="-21.13489" lon="55.52192">
        <ele>2012.3</ele>
        <time>2013-05-05T01:06:46Z</time>
      </trkpt>
      <trkpt lat="-21.13465" lon="55.52237">
        <ele>2015</ele>
        <time>2013-05-05T01:07:36Z</time>
      </trkpt>
      <trkpt lat="-21.13474" lon="55.5223">
        <ele>2017</ele>
        <time>2013-05-05T01:07:52Z</time>
      </trkpt>
      <trkpt lat="-21.13473" lon="55.52231">
        <ele>2018.3</ele>
        <time>2013-05-05T01:07:53Z</time>
      </trkpt>
      <trkpt lat="-21.13476" lon="55.52206">
        <ele>2021</ele>
        <time>2013-05-05T01:08:28Z</time>
      </trkpt>
      <trkpt lat="-21.13475" lon="55.52193">
        <ele>2021</ele>
        <time>2013-05-05T01:08:40Z</time>
      </trkpt>
      <trkpt lat="-21.13472" lon="55.52184">
        <ele>2022</ele>
        <time>2013-05-05T01:08:52Z</time>
      </trkpt>
      <trkpt lat="-21.13472" lon="55.52174">
        <ele>2021</ele>
        <time>2013-05-05T01:09:04Z</time>
      </trkpt>
      <trkpt lat="-21.13472" lon="55.52172">
        <ele>2021.9</ele>
        <time>2013-05-05T01:09:05Z</time>
      </trkpt>
      <trkpt lat="-21.13469" lon="55.5215">
        <ele>2021</ele>
        <time>2013-05-05T01:09:32Z</time>
      </trkpt>
      <trkpt lat="-21.13466" lon="55.52138">
        <ele>2022</ele>
        <time>2013-05-05T01:09:48Z</time>
      </trkpt>
      <trkpt lat="-21.13455" lon="55.52143">
        <ele>2027</ele>
        <time>2013-05-05T01:10:16Z</time>
      </trkpt>
      <trkpt lat="-21.13454" lon="55.52142">
        <ele>2027.7</ele>
        <time>2013-05-05T01:10:17Z</time>
      </trkpt>
      <trkpt lat="-21.13448" lon="55.52119">
        <ele>2028</ele>
        <time>2013-05-05T01:10:36Z</time>
      </trkpt>
      <trkpt lat="-21.13445" lon="55.52108">
        <ele>2030</ele>
        <time>2013-05-05T01:10:53Z</time>
      </trkpt>
      <trkpt lat="-21.13442" lon="55.52093">
        <ele>2034</ele>
        <time>2013-05-05T01:11:15Z</time>
      </trkpt>
      <trkpt lat="-21.13441" lon="55.52088">
        <ele>2034.6</ele>
        <time>2013-05-05T01:11:19Z</time>
      </trkpt>
      <trkpt lat="-21.1343" lon="55.52086">
        <ele>2036</ele>
        <time>2013-05-05T01:11:54Z</time>
      </trkpt>
      <trkpt lat="-21.13419" lon="55.52093">
        <ele>2033</ele>
        <time>2013-05-05T01:12:14Z</time>
      </trkpt>
      <trkpt lat="-21.13413" lon="55.52084">
        <ele>2024</ele>
        <time>2013-05-05T01:13:01Z</time>
      </trkpt>
      <trkpt lat="-21.13412" lon="55.52084">
        <ele>2024.8</ele>
        <time>2013-05-05T01:13:03Z</time>
      </trkpt>
      <trkpt lat="-21.13418" lon="55.52061">
        <ele>2025</ele>
        <time>2013-05-05T01:13:37Z</time>
      </trkpt>
      <trkpt lat="-21.13417" lon="55.52052">
        <ele>2026</ele>
        <time>2013-05-05T01:13:53Z</time>
      </trkpt>
      <trkpt lat="-21.1342" lon="55.52042">
        <ele>2029</ele>
        <time>2013-05-05T01:14:09Z</time>
      </trkpt>
      <trkpt lat="-21.1342" lon="55.52039">
        <ele>2030.3</ele>
        <time>2013-05-05T01:14:11Z</time>
      </trkpt>
      <trkpt lat="-21.13421" lon="55.52014">
        <ele>2033</ele>
        <time>2013-05-05T01:14:45Z</time>
      </trkpt>
      <trkpt lat="-21.13422" lon="55.52003">
        <ele>2035</ele>
        <time>2013-05-05T01:14:53Z</time>
      </trkpt>
      <trkpt lat="-21.13425" lon="55.5199">
        <ele>2034</ele>
        <time>2013-05-05T01:15:17Z</time>
      </trkpt>
      <trkpt lat="-21.13425" lon="55.51989">
        <ele>2034.5</ele>
        <time>2013-05-05T01:15:19Z</time>
      </trkpt>
      <trkpt lat="-21.13425" lon="55.51966">
        <ele>2036</ele>
        <time>2013-05-05T01:16:08Z</time>
      </trkpt>
      <trkpt lat="-21.13427" lon="55.51956">
        <ele>2036</ele>
        <time>2013-05-05T01:16:20Z</time>
      </trkpt>
      <trkpt lat="-21.13427" lon="55.51955">
        <ele>2036.5</ele>
        <time>2013-05-05T01:16:22Z</time>
      </trkpt>
      <trkpt lat="-21.13424" lon="55.51935">
        <ele>2040</ele>
        <time>2013-05-05T01:16:52Z</time>
      </trkpt>
      <trkpt lat="-21.13421" lon="55.51925">
        <ele>2041</ele>
        <time>2013-05-05T01:17:04Z</time>
      </trkpt>
      <trkpt lat="-21.1342" lon="55.51914">
        <ele>2041</ele>
        <time>2013-05-05T01:17:16Z</time>
      </trkpt>
      <trkpt lat="-21.13419" lon="55.51902">
        <ele>2044</ele>
        <time>2013-05-05T01:17:34Z</time>
      </trkpt>
      <trkpt lat="-21.13419" lon="55.51902">
        <ele>2044</ele>
        <time>2013-05-05T01:17:36Z</time>
      </trkpt>
      <trkpt lat="-21.13402" lon="55.51899">
        <ele>2050</ele>
        <time>2013-05-05T01:18:38Z</time>
      </trkpt>
      <trkpt lat="-21.13402" lon="55.51895">
        <ele>2051.1</ele>
        <time>2013-05-05T01:18:40Z</time>
      </trkpt>
      <trkpt lat="-21.13401" lon="55.51869">
        <ele>2052</ele>
        <time>2013-05-05T01:18:49Z</time>
      </trkpt>
      <trkpt lat="-21.13398" lon="55.51841">
        <ele>2052</ele>
        <time>2013-05-05T01:18:57Z</time>
      </trkpt>
      <trkpt lat="-21.13392" lon="55.51809">
        <ele>2053</ele>
        <time>2013-05-05T01:19:05Z</time>
      </trkpt>
      <trkpt lat="-21.13401" lon="55.51832">
        <ele>2053</ele>
        <time>2013-05-05T01:19:11Z</time>
      </trkpt>
      <trkpt lat="-21.13379" lon="55.5177">
        <ele>2056</ele>
        <time>2013-05-05T01:19:32Z</time>
      </trkpt>
      <trkpt lat="-21.1339" lon="55.51789">
        <ele>2058</ele>
        <time>2013-05-05T01:19:51Z</time>
      </trkpt>
      <trkpt lat="-21.13413" lon="55.51864">
        <ele>2059.7</ele>
        <time>2013-05-05T01:19:59Z</time>
      </trkpt>
      <trkpt lat="-21.13409" lon="55.51845">
        <ele>2060</ele>
        <time>2013-05-05T01:20:21Z</time>
      </trkpt>
      <trkpt lat="-21.13399" lon="55.5184">
        <ele>2068</ele>
        <time>2013-05-05T01:21:24Z</time>
      </trkpt>
      <trkpt lat="-21.13399" lon="55.51839">
        <ele>2068.8</ele>
        <time>2013-05-05T01:21:26Z</time>
      </trkpt>
      <trkpt lat="-21.13401" lon="55.51819">
        <ele>2071</ele>
        <time>2013-05-05T01:21:56Z</time>
      </trkpt>
      <trkpt lat="-21.13404" lon="55.51803">
        <ele>2076</ele>
        <time>2013-05-05T01:22:30Z</time>
      </trkpt>
      <trkpt lat="-21.13404" lon="55.51802">
        <ele>2076.9</ele>
        <time>2013-05-05T01:22:32Z</time>
      </trkpt>
      <trkpt lat="-21.13409" lon="55.51782">
        <ele>2081</ele>
        <time>2013-05-05T01:23:10Z</time>
      </trkpt>
      <trkpt lat="-21.13409" lon="55.5177">
        <ele>2083</ele>
        <time>2013-05-05T01:23:26Z</time>
      </trkpt>
      <trkpt lat="-21.1341" lon="55.51759">
        <ele>2086</ele>
        <time>2013-05-05T01:23:42Z</time>
      </trkpt>
      <trkpt lat="-21.1341" lon="55.51758">
        <ele>2086.6</ele>
        <time>2013-05-05T01:23:44Z</time>
      </trkpt>
      <trkpt lat="-21.13412" lon="55.51739">
        <ele>2089</ele>
        <time>2013-05-05T01:24:14Z</time>
      </trkpt>
      <trkpt lat="-21.13414" lon="55.5173">
        <ele>2091.6</ele>
        <time>2013-05-05T01:24:39Z</time>
      </trkpt>
      <trkpt lat="-21.13417" lon="55.51721">
        <ele>2091.8</ele>
        <time>2013-05-05T01:24:52Z</time>
      </trkpt>
      <trkpt lat="-21.13417" lon="55.5172">
        <ele>2092.3</ele>
        <time>2013-05-05T01:24:53Z</time>
      </trkpt>
      <trkpt lat="-21.13422" lon="55.51704">
        <ele>2094.3</ele>
        <time>2013-05-05T01:25:19Z</time>
      </trkpt>
      <trkpt lat="-21.13425" lon="55.51695">
        <ele>2095.9</ele>
        <time>2013-05-05T01:25:40Z</time>
      </trkpt>
      <trkpt lat="-21.13427" lon="55.51686">
        <ele>2097.8</ele>
        <time>2013-05-05T01:25:53Z</time>
      </trkpt>
      <trkpt lat="-21.13428" lon="55.51686">
        <ele>2097.9</ele>
        <time>2013-05-05T01:25:54Z</time>
      </trkpt>
      <trkpt lat="-21.13433" lon="55.51668">
        <ele>2103.8</ele>
        <time>2013-05-05T01:26:41Z</time>
      </trkpt>
      <trkpt lat="-21.13429" lon="55.51659">
        <ele>2106.2</ele>
        <time>2013-05-05T01:27:01Z</time>
      </trkpt>
      <trkpt lat="-21.13429" lon="55.51659">
        <ele>2106.2</ele>
        <time>2013-05-05T01:27:02Z</time>
      </trkpt>
      <trkpt lat="-21.13423" lon="55.51642">
        <ele>2108</ele>
        <time>2013-05-05T01:27:26Z</time>
      </trkpt>
      <trkpt lat="-21.1342" lon="55.51633">
        <ele>2110.7</ele>
        <time>2013-05-05T01:27:41Z</time>
      </trkpt>
      <trkpt lat="-21.13421" lon="55.51624">
        <ele>2113.1</ele>
        <time>2013-05-05T01:28:00Z</time>
      </trkpt>
      <trkpt lat="-21.13418" lon="55.51616">
        <ele>2116.1</ele>
        <time>2013-05-05T01:28:16Z</time>
      </trkpt>
      <trkpt lat="-21.13418" lon="55.51615">
        <ele>2115.9</ele>
        <time>2013-05-05T01:28:17Z</time>
      </trkpt>
      <trkpt lat="-21.13419" lon="55.51597">
        <ele>2120.6</ele>
        <time>2013-05-05T01:28:56Z</time>
      </trkpt>
      <trkpt lat="-21.1342" lon="55.51588">
        <ele>2121.8</ele>
        <time>2013-05-05T01:29:09Z</time>
      </trkpt>
      <trkpt lat="-21.13419" lon="55.51579">
        <ele>2124</ele>
        <time>2013-05-05T01:29:30Z</time>
      </trkpt>
      <trkpt lat="-21.13419" lon="55.51578">
        <ele>2124.2</ele>
        <time>2013-05-05T01:29:31Z</time>
      </trkpt>
      <trkpt lat="-21.13416" lon="55.51561">
        <ele>2127.4</ele>
        <time>2013-05-05T01:30:13Z</time>
      </trkpt>
      <trkpt lat="-21.13413" lon="55.51552">
        <ele>2128.2</ele>
        <time>2013-05-05T01:30:28Z</time>
      </trkpt>
      <trkpt lat="-21.1341" lon="55.51543">
        <ele>2130.7</ele>
        <time>2013-05-05T01:30:44Z</time>
      </trkpt>
      <trkpt lat="-21.1341" lon="55.51542">
        <ele>2130.9</ele>
        <time>2013-05-05T01:30:45Z</time>
      </trkpt>
      <trkpt lat="-21.13413" lon="55.51524">
        <ele>2132.9</ele>
        <time>2013-05-05T01:31:09Z</time>
      </trkpt>
      <trkpt lat="-21.13414" lon="55.51516">
        <ele>2134</ele>
        <time>2013-05-05T01:31:23Z</time>
      </trkpt>
      <trkpt lat="-21.13415" lon="55.51507">
        <ele>2134.8</ele>
        <time>2013-05-05T01:31:33Z</time>
      </trkpt>
      <trkpt lat="-21.13414" lon="55.51498">
        <ele>2135.4</ele>
        <time>2013-05-05T01:31:45Z</time>
      </trkpt>
      <trkpt lat="-21.13413" lon="55.51497">
        <ele>2135.6</ele>
        <time>2013-05-05T01:31:46Z</time>
      </trkpt>
      <trkpt lat="-21.13401" lon="55.51483">
        <ele>2137</ele>
        <time>2013-05-05T01:32:05Z</time>
      </trkpt>
      <trkpt lat="-21.13394" lon="55.51479">
        <ele>2136.8</ele>
        <time>2013-05-05T01:32:17Z</time>
      </trkpt>
      <trkpt lat="-21.13387" lon="55.51473">
        <ele>2138.4</ele>
        <time>2013-05-05T01:32:28Z</time>
      </trkpt>
      <trkpt lat="-21.1338" lon="55.51467">
        <ele>2137.1</ele>
        <time>2013-05-05T01:32:39Z</time>
      </trkpt>
      <trkpt lat="-21.13373" lon="55.51463">
        <ele>2137.9</ele>
        <time>2013-05-05T01:32:48Z</time>
      </trkpt>
      <trkpt lat="-21.13372" lon="55.51462">
        <ele>2138</ele>
        <time>2013-05-05T01:32:49Z</time>
      </trkpt>
      <trkpt lat="-21.13359" lon="55.51452">
        <ele>2138.4</ele>
        <time>2013-05-05T01:33:08Z</time>
      </trkpt>
      <trkpt lat="-21.13353" lon="55.51446">
        <ele>2138.4</ele>
        <time>2013-05-05T01:33:18Z</time>
      </trkpt>
      <trkpt lat="-21.13346" lon="55.51441">
        <ele>2139</ele>
        <time>2013-05-05T01:33:29Z</time>
      </trkpt>
      <trkpt lat="-21.13339" lon="55.51435">
        <ele>2139.4</ele>
        <time>2013-05-05T01:33:38Z</time>
      </trkpt>
      <trkpt lat="-21.13334" lon="55.51428">
        <ele>2141.6</ele>
        <time>2013-05-05T01:33:47Z</time>
      </trkpt>
      <trkpt lat="-21.13328" lon="55.51421">
        <ele>2142</ele>
        <time>2013-05-05T01:33:56Z</time>
      </trkpt>
      <trkpt lat="-21.13328" lon="55.5142">
        <ele>2141.7</ele>
        <time>2013-05-05T01:33:57Z</time>
      </trkpt>
      <trkpt lat="-21.13316" lon="55.51407">
        <ele>2143.3</ele>
        <time>2013-05-05T01:34:20Z</time>
      </trkpt>
      <trkpt lat="-21.13312" lon="55.514">
        <ele>2144.5</ele>
        <time>2013-05-05T01:34:28Z</time>
      </trkpt>
      <trkpt lat="-21.13306" lon="55.51393">
        <ele>2145.1</ele>
        <time>2013-05-05T01:34:36Z</time>
      </trkpt>
      <trkpt lat="-21.13299" lon="55.51386">
        <ele>2145.9</ele>
        <time>2013-05-05T01:34:46Z</time>
      </trkpt>
      <trkpt lat="-21.13294" lon="55.51378">
        <ele>2146.1</ele>
        <time>2013-05-05T01:34:55Z</time>
      </trkpt>
      <trkpt lat="-21.13287" lon="55.51373">
        <ele>2147</ele>
        <time>2013-05-05T01:35:05Z</time>
      </trkpt>
      <trkpt lat="-21.13286" lon="55.51372">
        <ele>2147</ele>
        <time>2013-05-05T01:35:06Z</time>
      </trkpt>
      <trkpt lat="-21.13276" lon="55.5136">
        <ele>2147.1</ele>
        <time>2013-05-05T01:35:21Z</time>
      </trkpt>
      <trkpt lat="-21.1327" lon="55.51354">
        <ele>2146.9</ele>
        <time>2013-05-05T01:35:30Z</time>
      </trkpt>
      <trkpt lat="-21.13264" lon="55.51348">
        <ele>2148.6</ele>
        <time>2013-05-05T01:35:41Z</time>
      </trkpt>
      <trkpt lat="-21.13259" lon="55.5134">
        <ele>2149.2</ele>
        <time>2013-05-05T01:35:52Z</time>
      </trkpt>
      <trkpt lat="-21.13254" lon="55.51333">
        <ele>2149.6</ele>
        <time>2013-05-05T01:36:07Z</time>
      </trkpt>
      <trkpt lat="-21.13253" lon="55.51332">
        <ele>2149.7</ele>
        <time>2013-05-05T01:36:08Z</time>
      </trkpt>
      <trkpt lat="-21.13244" lon="55.51319">
        <ele>2151.8</ele>
        <time>2013-05-05T01:36:26Z</time>
      </trkpt>
      <trkpt lat="-21.13237" lon="55.51314">
        <ele>2152.3</ele>
        <time>2013-05-05T01:36:36Z</time>
      </trkpt>
      <trkpt lat="-21.13231" lon="55.51308">
        <ele>2153.4</ele>
        <time>2013-05-05T01:36:45Z</time>
      </trkpt>
      <trkpt lat="-21.13227" lon="55.513">
        <ele>2155.3</ele>
        <time>2013-05-05T01:36:56Z</time>
      </trkpt>
      <trkpt lat="-21.13222" lon="55.51294">
        <ele>2155.6</ele>
        <time>2013-05-05T01:37:05Z</time>
      </trkpt>
      <trkpt lat="-21.13217" lon="55.51287">
        <ele>2155.9</ele>
        <time>2013-05-05T01:37:13Z</time>
      </trkpt>
      <trkpt lat="-21.13217" lon="55.51285">
        <ele>2155.9</ele>
        <time>2013-05-05T01:37:14Z</time>
      </trkpt>
      <trkpt lat="-21.13209" lon="55.5127">
        <ele>2156.9</ele>
        <time>2013-05-05T01:37:33Z</time>
      </trkpt>
      <trkpt lat="-21.13204" lon="55.51263">
        <ele>2158.8</ele>
        <time>2013-05-05T01:37:42Z</time>
      </trkpt>
      <trkpt lat="-21.13202" lon="55.51255">
        <ele>2158.5</ele>
        <time>2013-05-05T01:37:50Z</time>
      </trkpt>
      <trkpt lat="-21.13198" lon="55.51247">
        <ele>2159.1</ele>
        <time>2013-05-05T01:37:59Z</time>
      </trkpt>
      <trkpt lat="-21.13194" lon="55.51239">
        <ele>2157.9</ele>
        <time>2013-05-05T01:38:10Z</time>
      </trkpt>
      <trkpt lat="-21.13186" lon="55.51235">
        <ele>2157.7</ele>
        <time>2013-05-05T01:38:19Z</time>
      </trkpt>
      <trkpt lat="-21.13185" lon="55.51234">
        <ele>2157.5</ele>
        <time>2013-05-05T01:38:20Z</time>
      </trkpt>
      <trkpt lat="-21.13169" lon="55.51231">
        <ele>2159.1</ele>
        <time>2013-05-05T01:39:11Z</time>
      </trkpt>
      <trkpt lat="-21.13163" lon="55.51225">
        <ele>2158.7</ele>
        <time>2013-05-05T01:39:19Z</time>
      </trkpt>
      <trkpt lat="-21.13155" lon="55.51222">
        <ele>2158.9</ele>
        <time>2013-05-05T01:39:32Z</time>
      </trkpt>
      <trkpt lat="-21.13154" lon="55.51222">
        <ele>2159.1</ele>
        <time>2013-05-05T01:39:33Z</time>
      </trkpt>
      <trkpt lat="-21.13142" lon="55.51211">
        <ele>2162.7</ele>
        <time>2013-05-05T01:39:58Z</time>
      </trkpt>
      <trkpt lat="-21.13135" lon="55.51205">
        <ele>2162.5</ele>
        <time>2013-05-05T01:40:09Z</time>
      </trkpt>
      <trkpt lat="-21.13131" lon="55.51197">
        <ele>2162.8</ele>
        <time>2013-05-05T01:40:18Z</time>
      </trkpt>
      <trkpt lat="-21.13122" lon="55.51196">
        <ele>2164.8</ele>
        <time>2013-05-05T01:40:30Z</time>
      </trkpt>
      <trkpt lat="-21.13125" lon="55.51187">
        <ele>2165.4</ele>
        <time>2013-05-05T01:40:42Z</time>
      </trkpt>
      <trkpt lat="-21.13126" lon="55.51186">
        <ele>2165.4</ele>
        <time>2013-05-05T01:40:43Z</time>
      </trkpt>
      <trkpt lat="-21.13132" lon="55.51172">
        <ele>2166.8</ele>
        <time>2013-05-05T01:41:01Z</time>
      </trkpt>
      <trkpt lat="-21.13129" lon="55.51164">
        <ele>2167.3</ele>
        <time>2013-05-05T01:41:08Z</time>
      </trkpt>
      <trkpt lat="-21.13122" lon="55.51157">
        <ele>2167.7</ele>
        <time>2013-05-05T01:41:16Z</time>
      </trkpt>
      <trkpt lat="-21.13117" lon="55.51151">
        <ele>2167.1</ele>
        <time>2013-05-05T01:41:24Z</time>
      </trkpt>
      <trkpt lat="-21.13112" lon="55.51142">
        <ele>2167.4</ele>
        <time>2013-05-05T01:41:36Z</time>
      </trkpt>
      <trkpt lat="-21.13104" lon="55.51138">
        <ele>2170</ele>
        <time>2013-05-05T01:41:49Z</time>
      </trkpt>
      <trkpt lat="-21.13104" lon="55.51137">
        <ele>2170.2</ele>
        <time>2013-05-05T01:41:50Z</time>
      </trkpt>
      <trkpt lat="-21.13094" lon="55.51124">
        <ele>2171</ele>
        <time>2013-05-05T01:42:06Z</time>
      </trkpt>
      <trkpt lat="-21.13091" lon="55.51115">
        <ele>2170.9</ele>
        <time>2013-05-05T01:42:16Z</time>
      </trkpt>
      <trkpt lat="-21.13084" lon="55.51109">
        <ele>2168.9</ele>
        <time>2013-05-05T01:42:22Z</time>
      </trkpt>
      <trkpt lat="-21.1308" lon="55.51101">
        <ele>2169.7</ele>
        <time>2013-05-05T01:42:31Z</time>
      </trkpt>
      <trkpt lat="-21.13075" lon="55.51093">
        <ele>2169.3</ele>
        <time>2013-05-05T01:42:44Z</time>
      </trkpt>
      <trkpt lat="-21.13071" lon="55.51085">
        <ele>2167.4</ele>
        <time>2013-05-05T01:42:56Z</time>
      </trkpt>
      <trkpt lat="-21.1307" lon="55.51085">
        <ele>2167.7</ele>
        <time>2013-05-05T01:42:57Z</time>
      </trkpt>
      <trkpt lat="-21.13061" lon="55.51071">
        <ele>2167.6</ele>
        <time>2013-05-05T01:43:24Z</time>
      </trkpt>
      <trkpt lat="-21.13056" lon="55.51064">
        <ele>2167.4</ele>
        <time>2013-05-05T01:43:38Z</time>
      </trkpt>
      <trkpt lat="-21.13053" lon="55.51055">
        <ele>2166.9</ele>
        <time>2013-05-05T01:43:48Z</time>
      </trkpt>
      <trkpt lat="-21.13049" lon="55.51046">
        <ele>2166.1</ele>
        <time>2013-05-05T01:43:59Z</time>
      </trkpt>
      <trkpt lat="-21.13048" lon="55.51046">
        <ele>2166</ele>
        <time>2013-05-05T01:44:00Z</time>
      </trkpt>
      <trkpt lat="-21.13043" lon="55.5103">
        <ele>2164.1</ele>
        <time>2013-05-05T01:44:22Z</time>
      </trkpt>
      <trkpt lat="-21.1304" lon="55.51022">
        <ele>2164.1</ele>
        <time>2013-05-05T01:44:33Z</time>
      </trkpt>
      <trkpt lat="-21.13036" lon="55.51013">
        <ele>2164.6</ele>
        <time>2013-05-05T01:44:46Z</time>
      </trkpt>
      <trkpt lat="-21.13029" lon="55.51007">
        <ele>2161.7</ele>
        <time>2013-05-05T01:44:59Z</time>
      </trkpt>
      <trkpt lat="-21.13021" lon="55.51003">
        <ele>2162.7</ele>
        <time>2013-05-05T01:45:22Z</time>
      </trkpt>
      <trkpt lat="-21.1302" lon="55.51004">
        <ele>2162.5</ele>
        <time>2013-05-05T01:45:23Z</time>
      </trkpt>
      <trkpt lat="-21.13007" lon="55.50992">
        <ele>2164.3</ele>
        <time>2013-05-05T01:45:50Z</time>
      </trkpt>
      <trkpt lat="-21.13001" lon="55.50985">
        <ele>2164.9</ele>
        <time>2013-05-05T01:46:01Z</time>
      </trkpt>
      <trkpt lat="-21.12996" lon="55.50978">
        <ele>2164.2</ele>
        <time>2013-05-05T01:46:11Z</time>
      </trkpt>
      <trkpt lat="-21.12991" lon="55.50971">
        <ele>2166.5</ele>
        <time>2013-05-05T01:46:22Z</time>
      </trkpt>
      <trkpt lat="-21.12986" lon="55.50964">
        <ele>2167.3</ele>
        <time>2013-05-05T01:46:31Z</time>
      </trkpt>
      <trkpt lat="-21.12985" lon="55.50963">
        <ele>2167.4</ele>
        <time>2013-05-05T01:46:32Z</time>
      </trkpt>
      <trkpt lat="-21.12976" lon="55.5095">
        <ele>2168.2</ele>
        <time>2013-05-05T01:46:52Z</time>
      </trkpt>
      <trkpt lat="-21.12969" lon="55.50944">
        <ele>2167.6</ele>
        <time>2013-05-05T01:47:01Z</time>
      </trkpt>
      <trkpt lat="-21.12964" lon="55.50936">
        <ele>2168.8</ele>
        <time>2013-05-05T01:47:11Z</time>
      </trkpt>
      <trkpt lat="-21.12958" lon="55.50931">
        <ele>2169.9</ele>
        <time>2013-05-05T01:47:22Z</time>
      </trkpt>
      <trkpt lat="-21.12952" lon="55.50925">
        <ele>2170.8</ele>
        <time>2013-05-05T01:47:30Z</time>
      </trkpt>
      <trkpt lat="-21.12947" lon="55.50917">
        <ele>2171.8</ele>
        <time>2013-05-05T01:47:38Z</time>
      </trkpt>
      <trkpt lat="-21.12946" lon="55.50916">
        <ele>2171.9</ele>
        <time>2013-05-05T01:47:39Z</time>
      </trkpt>
      <trkpt lat="-21.12938" lon="55.50901">
        <ele>2171.2</ele>
        <time>2013-05-05T01:47:54Z</time>
      </trkpt>
      <trkpt lat="-21.12933" lon="55.50894">
        <ele>2170.5</ele>
        <time>2013-05-05T01:48:02Z</time>
      </trkpt>
      <trkpt lat="-21.12926" lon="55.50888">
        <ele>2170.4</ele>
        <time>2013-05-05T01:48:11Z</time>
      </trkpt>
      <trkpt lat="-21.1292" lon="55.50881">
        <ele>2170.8</ele>
        <time>2013-05-05T01:48:20Z</time>
      </trkpt>
      <trkpt lat="-21.12916" lon="55.50873">
        <ele>2171.2</ele>
        <time>2013-05-05T01:48:28Z</time>
      </trkpt>
      <trkpt lat="-21.12911" lon="55.50865">
        <ele>2172.5</ele>
        <time>2013-05-05T01:48:39Z</time>
      </trkpt>
      <trkpt lat="-21.12907" lon="55.50857">
        <ele>2172.6</ele>
        <time>2013-05-05T01:48:48Z</time>
      </trkpt>
      <trkpt lat="-21.12906" lon="55.50856">
        <ele>2172.4</ele>
        <time>2013-05-05T01:48:49Z</time>
      </trkpt>
      <trkpt lat="-21.12896" lon="55.50844">
        <ele>2174.7</ele>
        <time>2013-05-05T01:49:06Z</time>
      </trkpt>
      <trkpt lat="-21.12892" lon="55.50837">
        <ele>2174.8</ele>
        <time>2013-05-05T01:49:15Z</time>
      </trkpt>
      <trkpt lat="-21.12887" lon="55.5083">
        <ele>2175.2</ele>
        <time>2013-05-05T01:49:24Z</time>
      </trkpt>
      <trkpt lat="-21.1288" lon="55.50824">
        <ele>2176.2</ele>
        <time>2013-05-05T01:49:34Z</time>
      </trkpt>
      <trkpt lat="-21.12874" lon="55.50818">
        <ele>2176.7</ele>
        <time>2013-05-05T01:49:43Z</time>
      </trkpt>
      <trkpt lat="-21.12869" lon="55.5081">
        <ele>2178.2</ele>
        <time>2013-05-05T01:49:55Z</time>
      </trkpt>
      <trkpt lat="-21.12868" lon="55.5081">
        <ele>2178.4</ele>
        <time>2013-05-05T01:49:56Z</time>
      </trkpt>
      <trkpt lat="-21.12858" lon="55.50795">
        <ele>2183</ele>
        <time>2013-05-05T01:50:24Z</time>
      </trkpt>
      <trkpt lat="-21.12855" lon="55.50786">
        <ele>2183.8</ele>
        <time>2013-05-05T01:50:34Z</time>
      </trkpt>
      <trkpt lat="-21.1285" lon="55.50778">
        <ele>2184.6</ele>
        <time>2013-05-05T01:50:52Z</time>
      </trkpt>
      <trkpt lat="-21.12845" lon="55.50771">
        <ele>2183.7</ele>
        <time>2013-05-05T01:51:03Z</time>
      </trkpt>
      <trkpt lat="-21.12844" lon="55.5077">
        <ele>2183.9</ele>
        <time>2013-05-05T01:51:04Z</time>
      </trkpt>
      <trkpt lat="-21.12834" lon="55.50756">
        <ele>2184.2</ele>
        <time>2013-05-05T01:51:24Z</time>
      </trkpt>
      <trkpt lat="-21.12827" lon="55.5075">
        <ele>2184.3</ele>
        <time>2013-05-05T01:51:33Z</time>
      </trkpt>
      <trkpt lat="-21.1282" lon="55.50744">
        <ele>2184.1</ele>
        <time>2013-05-05T01:51:43Z</time>
      </trkpt>
      <trkpt lat="-21.12816" lon="55.50736">
        <ele>2180.9</ele>
        <time>2013-05-05T01:52:01Z</time>
      </trkpt>
      <trkpt lat="-21.12818" lon="55.50727">
        <ele>2178</ele>
        <time>2013-05-05T01:52:18Z</time>
      </trkpt>
      <trkpt lat="-21.12817" lon="55.50726">
        <ele>2177.9</ele>
        <time>2013-05-05T01:52:19Z</time>
      </trkpt>
      <trkpt lat="-21.12806" lon="55.50712">
        <ele>2180.9</ele>
        <time>2013-05-05T01:52:45Z</time>
      </trkpt>
      <trkpt lat="-21.12807" lon="55.50704">
        <ele>2181.8</ele>
        <time>2013-05-05T01:52:56Z</time>
      </trkpt>
      <trkpt lat="-21.12802" lon="55.50697">
        <ele>2182.5</ele>
        <time>2013-05-05T01:53:06Z</time>
      </trkpt>
      <trkpt lat="-21.12797" lon="55.50689">
        <ele>2183.5</ele>
        <time>2013-05-05T01:53:20Z</time>
      </trkpt>
      <trkpt lat="-21.12796" lon="55.50689">
        <ele>2183.7</ele>
        <time>2013-05-05T01:53:21Z</time>
      </trkpt>
      <trkpt lat="-21.12785" lon="55.50677">
        <ele>2186.1</ele>
        <time>2013-05-05T01:53:40Z</time>
      </trkpt>
      <trkpt lat="-21.12779" lon="55.50669">
        <ele>2185.7</ele>
        <time>2013-05-05T01:53:50Z</time>
      </trkpt>
      <trkpt lat="-21.12773" lon="55.50663">
        <ele>2184</ele>
        <time>2013-05-05T01:53:58Z</time>
      </trkpt>
      <trkpt lat="-21.12768" lon="55.50656">
        <ele>2185.8</ele>
        <time>2013-05-05T01:54:07Z</time>
      </trkpt>
      <trkpt lat="-21.12764" lon="55.50648">
        <ele>2186.9</ele>
        <time>2013-05-05T01:54:24Z</time>
      </trkpt>
      <trkpt lat="-21.12763" lon="55.50647">
        <ele>2187</ele>
        <time>2013-05-05T01:54:25Z</time>
      </trkpt>
      <trkpt lat="-21.12754" lon="55.50635">
        <ele>2191.2</ele>
        <time>2013-05-05T01:54:53Z</time>
      </trkpt>
      <trkpt lat="-21.12747" lon="55.50629">
        <ele>2192.9</ele>
        <time>2013-05-05T01:55:07Z</time>
      </trkpt>
      <trkpt lat="-21.12742" lon="55.50621">
        <ele>2194.3</ele>
        <time>2013-05-05T01:55:22Z</time>
      </trkpt>
      <trkpt lat="-21.12743" lon="55.50612">
        <ele>2196.1</ele>
        <time>2013-05-05T01:55:36Z</time>
      </trkpt>
      <trkpt lat="-21.12743" lon="55.50611">
        <ele>2196.5</ele>
        <time>2013-05-05T01:55:37Z</time>
      </trkpt>
      <trkpt lat="-21.12732" lon="55.50598">
        <ele>2202.9</ele>
        <time>2013-05-05T01:56:06Z</time>
      </trkpt>
      <trkpt lat="-21.12724" lon="55.50593">
        <ele>2204.1</ele>
        <time>2013-05-05T01:56:19Z</time>
      </trkpt>
      <trkpt lat="-21.12719" lon="55.50587">
        <ele>2208.8</ele>
        <time>2013-05-05T01:56:36Z</time>
      </trkpt>
      <trkpt lat="-21.1271" lon="55.50584">
        <ele>2208</ele>
        <time>2013-05-05T01:56:46Z</time>
      </trkpt>
      <trkpt lat="-21.12709" lon="55.50584">
        <ele>2208.1</ele>
        <time>2013-05-05T01:56:47Z</time>
      </trkpt>
      <trkpt lat="-21.12693" lon="55.50581">
        <ele>2209.4</ele>
        <time>2013-05-05T01:57:11Z</time>
      </trkpt>
      <trkpt lat="-21.12684" lon="55.5058">
        <ele>2212.1</ele>
        <time>2013-05-05T01:57:23Z</time>
      </trkpt>
      <trkpt lat="-21.12676" lon="55.50579">
        <ele>2213.2</ele>
        <time>2013-05-05T01:57:33Z</time>
      </trkpt>
      <trkpt lat="-21.12668" lon="55.50576">
        <ele>2212.9</ele>
        <time>2013-05-05T01:57:42Z</time>
      </trkpt>
      <trkpt lat="-21.12661" lon="55.5057">
        <ele>2212.4</ele>
        <time>2013-05-05T01:57:52Z</time>
      </trkpt>
      <trkpt lat="-21.1266" lon="55.5057">
        <ele>2212.6</ele>
        <time>2013-05-05T01:57:53Z</time>
      </trkpt>
      <trkpt lat="-21.12647" lon="55.50559">
        <ele>2214.6</ele>
        <time>2013-05-05T01:58:16Z</time>
      </trkpt>
      <trkpt lat="-21.12639" lon="55.50556">
        <ele>2216.3</ele>
        <time>2013-05-05T01:58:28Z</time>
      </trkpt>
      <trkpt lat="-21.12631" lon="55.50553">
        <ele>2218.2</ele>
        <time>2013-05-05T01:58:40Z</time>
      </trkpt>
      <trkpt lat="-21.12623" lon="55.5055">
        <ele>2218.6</ele>
        <time>2013-05-05T01:58:49Z</time>
      </trkpt>
      <trkpt lat="-21.12615" lon="55.50548">
        <ele>2219</ele>
        <time>2013-05-05T01:58:58Z</time>
      </trkpt>
      <trkpt lat="-21.12614" lon="55.50548">
        <ele>2219.2</ele>
        <time>2013-05-05T01:58:59Z</time>
      </trkpt>
      <trkpt lat="-21.12603" lon="55.50535">
        <ele>2222.5</ele>
        <time>2013-05-05T01:59:18Z</time>
      </trkpt>
      <trkpt lat="-21.12598" lon="55.50528">
        <ele>2222.6</ele>
        <time>2013-05-05T01:59:26Z</time>
      </trkpt>
      <trkpt lat="-21.12594" lon="55.50519">
        <ele>2222</ele>
        <time>2013-05-05T01:59:36Z</time>
      </trkpt>
      <trkpt lat="-21.1259" lon="55.50511">
        <ele>2221.4</ele>
        <time>2013-05-05T01:59:44Z</time>
      </trkpt>
      <trkpt lat="-21.12586" lon="55.50503">
        <ele>2220.9</ele>
        <time>2013-05-05T01:59:52Z</time>
      </trkpt>
      <trkpt lat="-21.1258" lon="55.50497">
        <ele>2219.9</ele>
        <time>2013-05-05T02:00:01Z</time>
      </trkpt>
      <trkpt lat="-21.12579" lon="55.50496">
        <ele>2219.5</ele>
        <time>2013-05-05T02:00:02Z</time>
      </trkpt>
      <trkpt lat="-21.12566" lon="55.50487">
        <ele>2219.2</ele>
        <time>2013-05-05T02:00:25Z</time>
      </trkpt>
      <trkpt lat="-21.12557" lon="55.50485">
        <ele>2220.9</ele>
        <time>2013-05-05T02:00:42Z</time>
      </trkpt>
      <trkpt lat="-21.1255" lon="55.5048">
        <ele>2222.8</ele>
        <time>2013-05-05T02:00:54Z</time>
      </trkpt>
      <trkpt lat="-21.12541" lon="55.50477">
        <ele>2222.9</ele>
        <time>2013-05-05T02:01:06Z</time>
      </trkpt>
      <trkpt lat="-21.12541" lon="55.50477">
        <ele>2223.4</ele>
        <time>2013-05-05T02:01:07Z</time>
      </trkpt>
      <trkpt lat="-21.12527" lon="55.50469">
        <ele>2226.1</ele>
        <time>2013-05-05T02:01:28Z</time>
      </trkpt>
      <trkpt lat="-21.12524" lon="55.5046">
        <ele>2225.1</ele>
        <time>2013-05-05T02:01:38Z</time>
      </trkpt>
      <trkpt lat="-21.12517" lon="55.50456">
        <ele>2224.6</ele>
        <time>2013-05-05T02:01:45Z</time>
      </trkpt>
      <trkpt lat="-21.12511" lon="55.5045">
        <ele>2225</ele>
        <time>2013-05-05T02:01:54Z</time>
      </trkpt>
      <trkpt lat="-21.12502" lon="55.50449">
        <ele>2224.2</ele>
        <time>2013-05-05T02:02:08Z</time>
      </trkpt>
      <trkpt lat="-21.12502" lon="55.50449">
        <ele>2224.1</ele>
        <time>2013-05-05T02:02:09Z</time>
      </trkpt>
      <trkpt lat="-21.1249" lon="55.50451">
        <ele>2221.3</ele>
        <time>2013-05-05T02:02:36Z</time>
      </trkpt>
      <trkpt lat="-21.12484" lon="55.50458">
        <ele>2219.9</ele>
        <time>2013-05-05T02:02:48Z</time>
      </trkpt>
      <trkpt lat="-21.12477" lon="55.50462">
        <ele>2219</ele>
        <time>2013-05-05T02:02:58Z</time>
      </trkpt>
      <trkpt lat="-21.12471" lon="55.50469">
        <ele>2218.4</ele>
        <time>2013-05-05T02:03:10Z</time>
      </trkpt>
      <trkpt lat="-21.12471" lon="55.50469">
        <ele>2218.3</ele>
        <time>2013-05-05T02:03:11Z</time>
      </trkpt>
      <trkpt lat="-21.12462" lon="55.50484">
        <ele>2220.7</ele>
        <time>2013-05-05T02:03:31Z</time>
      </trkpt>
      <trkpt lat="-21.12463" lon="55.50493">
        <ele>2220</ele>
        <time>2013-05-05T02:03:41Z</time>
      </trkpt>
      <trkpt lat="-21.12459" lon="55.50502">
        <ele>2220.1</ele>
        <time>2013-05-05T02:03:50Z</time>
      </trkpt>
      <trkpt lat="-21.12451" lon="55.50505">
        <ele>2220.3</ele>
        <time>2013-05-05T02:04:00Z</time>
      </trkpt>
      <trkpt lat="-21.12442" lon="55.50506">
        <ele>2221.4</ele>
        <time>2013-05-05T02:04:11Z</time>
      </trkpt>
      <trkpt lat="-21.12441" lon="55.50506">
        <ele>2221.5</ele>
        <time>2013-05-05T02:04:12Z</time>
      </trkpt>
      <trkpt lat="-21.12424" lon="55.50508">
        <ele>2226.2</ele>
        <time>2013-05-05T02:04:49Z</time>
      </trkpt>
      <trkpt lat="-21.12418" lon="55.50514">
        <ele>2228.2</ele>
        <time>2013-05-05T02:05:05Z</time>
      </trkpt>
      <trkpt lat="-21.12411" lon="55.5052">
        <ele>2228.7</ele>
        <time>2013-05-05T02:05:21Z</time>
      </trkpt>
      <trkpt lat="-21.12411" lon="55.50521">
        <ele>2228.6</ele>
        <time>2013-05-05T02:05:22Z</time>
      </trkpt>
      <trkpt lat="-21.12396" lon="55.50513">
        <ele>2230.2</ele>
        <time>2013-05-05T02:05:52Z</time>
      </trkpt>
      <trkpt lat="-21.1239" lon="55.50507">
        <ele>2232</ele>
        <time>2013-05-05T02:06:06Z</time>
      </trkpt>
      <trkpt lat="-21.12382" lon="55.50504">
        <ele>2233.2</ele>
        <time>2013-05-05T02:06:17Z</time>
      </trkpt>
      <trkpt lat="-21.12374" lon="55.50502">
        <ele>2233.3</ele>
        <time>2013-05-05T02:06:30Z</time>
      </trkpt>
      <trkpt lat="-21.12373" lon="55.50502">
        <ele>2233.6</ele>
        <time>2013-05-05T02:06:31Z</time>
      </trkpt>
      <trkpt lat="-21.12357" lon="55.50499">
        <ele>2236.4</ele>
        <time>2013-05-05T02:06:57Z</time>
      </trkpt>
      <trkpt lat="-21.12349" lon="55.50503">
        <ele>2237.2</ele>
        <time>2013-05-05T02:07:04Z</time>
      </trkpt>
      <trkpt lat="-21.1234" lon="55.50502">
        <ele>2238.6</ele>
        <time>2013-05-05T02:07:12Z</time>
      </trkpt>
      <trkpt lat="-21.12332" lon="55.50503">
        <ele>2239.8</ele>
        <time>2013-05-05T02:07:24Z</time>
      </trkpt>
      <trkpt lat="-21.12323" lon="55.50504">
        <ele>2243.2</ele>
        <time>2013-05-05T02:07:41Z</time>
      </trkpt>
      <trkpt lat="-21.12322" lon="55.50503">
        <ele>2243.2</ele>
        <time>2013-05-05T02:07:42Z</time>
      </trkpt>
      <trkpt lat="-21.12307" lon="55.50508">
        <ele>2250.1</ele>
        <time>2013-05-05T02:08:30Z</time>
      </trkpt>
      <trkpt lat="-21.12299" lon="55.50508">
        <ele>2251.1</ele>
        <time>2013-05-05T02:08:37Z</time>
      </trkpt>
      <trkpt lat="-21.12291" lon="55.50504">
        <ele>2252.9</ele>
        <time>2013-05-05T02:08:52Z</time>
      </trkpt>
      <trkpt lat="-21.1229" lon="55.50504">
        <ele>2252.9</ele>
        <time>2013-05-05T02:08:53Z</time>
      </trkpt>
      <trkpt lat="-21.12281" lon="55.5049">
        <ele>2256.2</ele>
        <time>2013-05-05T02:09:19Z</time>
      </trkpt>
      <trkpt lat="-21.1228" lon="55.50481">
        <ele>2257</ele>
        <time>2013-05-05T02:09:29Z</time>
      </trkpt>
      <trkpt lat="-21.12273" lon="55.50476">
        <ele>2258.5</ele>
        <time>2013-05-05T02:09:39Z</time>
      </trkpt>
      <trkpt lat="-21.12267" lon="55.50469">
        <ele>2258.8</ele>
        <time>2013-05-05T02:09:49Z</time>
      </trkpt>
      <trkpt lat="-21.12261" lon="55.50463">
        <ele>2258.7</ele>
        <time>2013-05-05T02:09:58Z</time>
      </trkpt>
      <trkpt lat="-21.1226" lon="55.50462">
        <ele>2258.8</ele>
        <time>2013-05-05T02:09:59Z</time>
      </trkpt>
      <trkpt lat="-21.12249" lon="55.5045">
        <ele>2260</ele>
        <time>2013-05-05T02:10:16Z</time>
      </trkpt>
      <trkpt lat="-21.12243" lon="55.50444">
        <ele>2259.7</ele>
        <time>2013-05-05T02:10:24Z</time>
      </trkpt>
      <trkpt lat="-21.12236" lon="55.50438">
        <ele>2261.2</ele>
        <time>2013-05-05T02:10:34Z</time>
      </trkpt>
      <trkpt lat="-21.12229" lon="55.50434">
        <ele>2263.6</ele>
        <time>2013-05-05T02:10:51Z</time>
      </trkpt>
      <trkpt lat="-21.12221" lon="55.50438">
        <ele>2263.2</ele>
        <time>2013-05-05T02:11:04Z</time>
      </trkpt>
      <trkpt lat="-21.1222" lon="55.50439">
        <ele>2263</ele>
        <time>2013-05-05T02:11:05Z</time>
      </trkpt>
      <trkpt lat="-21.12205" lon="55.50436">
        <ele>2260.2</ele>
        <time>2013-05-05T02:11:22Z</time>
      </trkpt>
      <trkpt lat="-21.12196" lon="55.50433">
        <ele>2262.7</ele>
        <time>2013-05-05T02:11:36Z</time>
      </trkpt>
      <trkpt lat="-21.12188" lon="55.50429">
        <ele>2264.8</ele>
        <time>2013-05-05T02:11:47Z</time>
      </trkpt>
      <trkpt lat="-21.1218" lon="55.50425">
        <ele>2265.7</ele>
        <time>2013-05-05T02:11:59Z</time>
      </trkpt>
      <trkpt lat="-21.12172" lon="55.50421">
        <ele>2266.6</ele>
        <time>2013-05-05T02:12:07Z</time>
      </trkpt>
      <trkpt lat="-21.12171" lon="55.5042">
        <ele>2266.4</ele>
        <time>2013-05-05T02:12:08Z</time>
      </trkpt>
      <trkpt lat="-21.12156" lon="55.50416">
        <ele>2267.4</ele>
        <time>2013-05-05T02:12:25Z</time>
      </trkpt>
      <trkpt lat="-21.12147" lon="55.50417">
        <ele>2268.9</ele>
        <time>2013-05-05T02:12:39Z</time>
      </trkpt>
      <trkpt lat="-21.12139" lon="55.50412">
        <ele>2268.7</ele>
        <time>2013-05-05T02:12:57Z</time>
      </trkpt>
      <trkpt lat="-21.12133" lon="55.50406">
        <ele>2269.2</ele>
        <time>2013-05-05T02:13:07Z</time>
      </trkpt>
      <trkpt lat="-21.12125" lon="55.50402">
        <ele>2269.6</ele>
        <time>2013-05-05T02:13:16Z</time>
      </trkpt>
      <trkpt lat="-21.12124" lon="55.50402">
        <ele>2269.9</ele>
        <time>2013-05-05T02:13:17Z</time>
      </trkpt>
      <trkpt lat="-21.1211" lon="55.50394">
        <ele>2271.4</ele>
        <time>2013-05-05T02:13:34Z</time>
      </trkpt>
      <trkpt lat="-21.12101" lon="55.50391">
        <ele>2272.5</ele>
        <time>2013-05-05T02:13:44Z</time>
      </trkpt>
      <trkpt lat="-21.12093" lon="55.50388">
        <ele>2272.9</ele>
        <time>2013-05-05T02:13:55Z</time>
      </trkpt>
      <trkpt lat="-21.12085" lon="55.50385">
        <ele>2275.3</ele>
        <time>2013-05-05T02:14:04Z</time>
      </trkpt>
      <trkpt lat="-21.12078" lon="55.50381">
        <ele>2275.9</ele>
        <time>2013-05-05T02:14:13Z</time>
      </trkpt>
      <trkpt lat="-21.12071" lon="55.50377">
        <ele>2277.3</ele>
        <time>2013-05-05T02:14:22Z</time>
      </trkpt>
      <trkpt lat="-21.1207" lon="55.50376">
        <ele>2277.3</ele>
        <time>2013-05-05T02:14:23Z</time>
      </trkpt>
      <trkpt lat="-21.12062" lon="55.50377">
        <ele>2277.1</ele>
        <time>2013-05-05T02:16:36Z</time>
      </trkpt>
      <trkpt lat="-21.12057" lon="55.50368">
        <ele>2275.8</ele>
        <time>2013-05-05T02:20:47Z</time>
      </trkpt>
      <trkpt lat="-21.12041" lon="55.50363">
        <ele>2273.7</ele>
        <time>2013-05-05T02:22:41Z</time>
      </trkpt>
      <trkpt lat="-21.12041" lon="55.50362">
        <ele>2273.5</ele>
        <time>2013-05-05T02:22:42Z</time>
      </trkpt>
      <trkpt lat="-21.12025" lon="55.50356">
        <ele>2269.1</ele>
        <time>2013-05-05T02:23:53Z</time>
      </trkpt>
      <trkpt lat="-21.12025" lon="55.50356">
        <ele>2268.8</ele>
        <time>2013-05-05T02:23:54Z</time>
      </trkpt>
      <trkpt lat="-21.12022" lon="55.50338">
        <ele>2274.3</ele>
        <time>2013-05-05T02:24:52Z</time>
      </trkpt>
      <trkpt lat="-21.12016" lon="55.50332">
        <ele>2277.3</ele>
        <time>2013-05-05T02:25:04Z</time>
      </trkpt>
      <trkpt lat="-21.12015" lon="55.50331">
        <ele>2277.8</ele>
        <time>2013-05-05T02:25:05Z</time>
      </trkpt>
      <trkpt lat="-21.12001" lon="55.50323">
        <ele>2279.9</ele>
        <time>2013-05-05T02:25:22Z</time>
      </trkpt>
      <trkpt lat="-21.11993" lon="55.50319">
        <ele>2278.7</ele>
        <time>2013-05-05T02:25:32Z</time>
      </trkpt>
      <trkpt lat="-21.11985" lon="55.50316">
        <ele>2280</ele>
        <time>2013-05-05T02:25:41Z</time>
      </trkpt>
      <trkpt lat="-21.11976" lon="55.50315">
        <ele>2280.1</ele>
        <time>2013-05-05T02:25:51Z</time>
      </trkpt>
      <trkpt lat="-21.11968" lon="55.50314">
        <ele>2283.4</ele>
        <time>2013-05-05T02:26:06Z</time>
      </trkpt>
      <trkpt lat="-21.11967" lon="55.50313">
        <ele>2283.9</ele>
        <time>2013-05-05T02:26:07Z</time>
      </trkpt>
      <trkpt lat="-21.11953" lon="55.50307">
        <ele>2288.5</ele>
        <time>2013-05-05T02:26:27Z</time>
      </trkpt>
      <trkpt lat="-21.11945" lon="55.50305">
        <ele>2289.5</ele>
        <time>2013-05-05T02:26:37Z</time>
      </trkpt>
      <trkpt lat="-21.11936" lon="55.50302">
        <ele>2289.1</ele>
        <time>2013-05-05T02:26:45Z</time>
      </trkpt>
      <trkpt lat="-21.11928" lon="55.50299">
        <ele>2288.8</ele>
        <time>2013-05-05T02:26:54Z</time>
      </trkpt>
      <trkpt lat="-21.11919" lon="55.50298">
        <ele>2286.8</ele>
        <time>2013-05-05T02:27:05Z</time>
      </trkpt>
      <trkpt lat="-21.11912" lon="55.50294">
        <ele>2288.1</ele>
        <time>2013-05-05T02:27:18Z</time>
      </trkpt>
      <trkpt lat="-21.11911" lon="55.50293">
        <ele>2288.7</ele>
        <time>2013-05-05T02:27:19Z</time>
      </trkpt>
      <trkpt lat="-21.11903" lon="55.50279">
        <ele>2289.4</ele>
        <time>2013-05-05T02:27:40Z</time>
      </trkpt>
      <trkpt lat="-21.11898" lon="55.50272">
        <ele>2291.1</ele>
        <time>2013-05-05T02:27:49Z</time>
      </trkpt>
      <trkpt lat="-21.11894" lon="55.50264">
        <ele>2290.9</ele>
        <time>2013-05-05T02:28:01Z</time>
      </trkpt>
      <trkpt lat="-21.11888" lon="55.50257">
        <ele>2292.3</ele>
        <time>2013-05-05T02:28:18Z</time>
      </trkpt>
      <trkpt lat="-21.11882" lon="55.5025">
        <ele>2293</ele>
        <time>2013-05-05T02:28:35Z</time>
      </trkpt>
      <trkpt lat="-21.11881" lon="55.5025">
        <ele>2293.5</ele>
        <time>2013-05-05T02:28:36Z</time>
      </trkpt>
      <trkpt lat="-21.11867" lon="55.50247">
        <ele>2294.8</ele>
        <time>2013-05-05T02:28:51Z</time>
      </trkpt>
      <trkpt lat="-21.11859" lon="55.50244">
        <ele>2296.6</ele>
        <time>2013-05-05T02:28:59Z</time>
      </trkpt>
      <trkpt lat="-21.11852" lon="55.5024">
        <ele>2297</ele>
        <time>2013-05-05T02:29:07Z</time>
      </trkpt>
      <trkpt lat="-21.11844" lon="55.50235">
        <ele>2298.5</ele>
        <time>2013-05-05T02:29:17Z</time>
      </trkpt>
      <trkpt lat="-21.11836" lon="55.50231">
        <ele>2300.5</ele>
        <time>2013-05-05T02:29:30Z</time>
      </trkpt>
      <trkpt lat="-21.11828" lon="55.50229">
        <ele>2303.9</ele>
        <time>2013-05-05T02:29:42Z</time>
      </trkpt>
      <trkpt lat="-21.11827" lon="55.50229">
        <ele>2303.9</ele>
        <time>2013-05-05T02:29:43Z</time>
      </trkpt>
      <trkpt lat="-21.11811" lon="55.50226">
        <ele>2307.4</ele>
        <time>2013-05-05T02:30:05Z</time>
      </trkpt>
      <trkpt lat="-21.11803" lon="55.50222">
        <ele>2308.9</ele>
        <time>2013-05-05T02:30:21Z</time>
      </trkpt>
      <trkpt lat="-21.11795" lon="55.50217">
        <ele>2311.1</ele>
        <time>2013-05-05T02:30:34Z</time>
      </trkpt>
      <trkpt lat="-21.11787" lon="55.50216">
        <ele>2307.8</ele>
        <time>2013-05-05T02:30:49Z</time>
      </trkpt>
      <trkpt lat="-21.11786" lon="55.50215">
        <ele>2307.8</ele>
        <time>2013-05-05T02:30:50Z</time>
      </trkpt>
      <trkpt lat="-21.11773" lon="55.50205">
        <ele>2309.2</ele>
        <time>2013-05-05T02:31:08Z</time>
      </trkpt>
      <trkpt lat="-21.11768" lon="55.50199">
        <ele>2311</ele>
        <time>2013-05-05T02:31:16Z</time>
      </trkpt>
      <trkpt lat="-21.11763" lon="55.50192">
        <ele>2312.6</ele>
        <time>2013-05-05T02:31:26Z</time>
      </trkpt>
      <trkpt lat="-21.11757" lon="55.50186">
        <ele>2314.9</ele>
        <time>2013-05-05T02:31:33Z</time>
      </trkpt>
      <trkpt lat="-21.11748" lon="55.50186">
        <ele>2315.5</ele>
        <time>2013-05-05T02:31:43Z</time>
      </trkpt>
      <trkpt lat="-21.11743" lon="55.50178">
        <ele>2317.6</ele>
        <time>2013-05-05T02:31:55Z</time>
      </trkpt>
      <trkpt lat="-21.11744" lon="55.50177">
        <ele>2318.4</ele>
        <time>2013-05-05T02:31:56Z</time>
      </trkpt>
      <trkpt lat="-21.11735" lon="55.50161">
        <ele>2323.4</ele>
        <time>2013-05-05T02:32:23Z</time>
      </trkpt>
      <trkpt lat="-21.11729" lon="55.50154">
        <ele>2325.8</ele>
        <time>2013-05-05T02:32:33Z</time>
      </trkpt>
      <trkpt lat="-21.11722" lon="55.50148">
        <ele>2328.5</ele>
        <time>2013-05-05T02:33:13Z</time>
      </trkpt>
      <trkpt lat="-21.11722" lon="55.50148">
        <ele>2328.1</ele>
        <time>2013-05-05T02:33:14Z</time>
      </trkpt>
      <trkpt lat="-21.11706" lon="55.50142">
        <ele>2325.5</ele>
        <time>2013-05-05T02:34:44Z</time>
      </trkpt>
      <trkpt lat="-21.11706" lon="55.5014">
        <ele>2325.3</ele>
        <time>2013-05-05T02:34:45Z</time>
      </trkpt>
      <trkpt lat="-21.11696" lon="55.50126">
        <ele>2325.8</ele>
        <time>2013-05-05T02:35:04Z</time>
      </trkpt>
      <trkpt lat="-21.11688" lon="55.50123">
        <ele>2326.3</ele>
        <time>2013-05-05T02:35:15Z</time>
      </trkpt>
      <trkpt lat="-21.11681" lon="55.50118">
        <ele>2328.4</ele>
        <time>2013-05-05T02:35:42Z</time>
      </trkpt>
      <trkpt lat="-21.11673" lon="55.50114">
        <ele>2330.3</ele>
        <time>2013-05-05T02:35:55Z</time>
      </trkpt>
      <trkpt lat="-21.11673" lon="55.50113">
        <ele>2330.5</ele>
        <time>2013-05-05T02:35:56Z</time>
      </trkpt>
      <trkpt lat="-21.11666" lon="55.50107">
        <ele>2331.9</ele>
        <time>2013-05-05T02:37:34Z</time>
      </trkpt>
      <trkpt lat="-21.11653" lon="55.50096">
        <ele>2334.1</ele>
        <time>2013-05-05T02:37:58Z</time>
      </trkpt>
      <trkpt lat="-21.11645" lon="55.50092">
        <ele>2334.3</ele>
        <time>2013-05-05T02:38:06Z</time>
      </trkpt>
      <trkpt lat="-21.1164" lon="55.50085">
        <ele>2337.1</ele>
        <time>2013-05-05T02:38:19Z</time>
      </trkpt>
      <trkpt lat="-21.11634" lon="55.50078">
        <ele>2338.5</ele>
        <time>2013-05-05T02:38:33Z</time>
      </trkpt>
      <trkpt lat="-21.11626" lon="55.50073">
        <ele>2341.1</ele>
        <time>2013-05-05T02:38:48Z</time>
      </trkpt>
      <trkpt lat="-21.11626" lon="55.50073">
        <ele>2341.5</ele>
        <time>2013-05-05T02:38:49Z</time>
      </trkpt>
      <trkpt lat="-21.11612" lon="55.50063">
        <ele>2346.9</ele>
        <time>2013-05-05T02:39:22Z</time>
      </trkpt>
      <trkpt lat="-21.11603" lon="55.5006">
        <ele>2349.1</ele>
        <time>2013-05-05T02:39:40Z</time>
      </trkpt>
      <trkpt lat="-21.11598" lon="55.50054">
        <ele>2351.2</ele>
        <time>2013-05-05T02:39:51Z</time>
      </trkpt>
      <trkpt lat="-21.11597" lon="55.50054">
        <ele>2351.5</ele>
        <time>2013-05-05T02:39:52Z</time>
      </trkpt>
      <trkpt lat="-21.11583" lon="55.50044">
        <ele>2354</ele>
        <time>2013-05-05T02:41:25Z</time>
      </trkpt>
      <trkpt lat="-21.11583" lon="55.50043">
        <ele>2354.2</ele>
        <time>2013-05-05T02:41:26Z</time>
      </trkpt>
      <trkpt lat="-21.11568" lon="55.50036">
        <ele>2357.8</ele>
        <time>2013-05-05T02:41:53Z</time>
      </trkpt>
      <trkpt lat="-21.1156" lon="55.50032">
        <ele>2360.7</ele>
        <time>2013-05-05T02:42:11Z</time>
      </trkpt>
      <trkpt lat="-21.11555" lon="55.50024">
        <ele>2364.1</ele>
        <time>2013-05-05T02:42:28Z</time>
      </trkpt>
      <trkpt lat="-21.11555" lon="55.50023">
        <ele>2364.4</ele>
        <time>2013-05-05T02:42:29Z</time>
      </trkpt>
      <trkpt lat="-21.11543" lon="55.50012">
        <ele>2367.8</ele>
        <time>2013-05-05T02:42:52Z</time>
      </trkpt>
      <trkpt lat="-21.11537" lon="55.50006">
        <ele>2370.2</ele>
        <time>2013-05-05T02:43:02Z</time>
      </trkpt>
      <trkpt lat="-21.1153" lon="55.49999">
        <ele>2370.6</ele>
        <time>2013-05-05T02:43:11Z</time>
      </trkpt>
      <trkpt lat="-21.11523" lon="55.49994">
        <ele>2371.4</ele>
        <time>2013-05-05T02:43:20Z</time>
      </trkpt>
      <trkpt lat="-21.11517" lon="55.49989">
        <ele>2372.4</ele>
        <time>2013-05-05T02:43:30Z</time>
      </trkpt>
      <trkpt lat="-21.11517" lon="55.49987">
        <ele>2372.3</ele>
        <time>2013-05-05T02:43:31Z</time>
      </trkpt>
      <trkpt lat="-21.11508" lon="55.49974">
        <ele>2374.6</ele>
        <time>2013-05-05T02:43:53Z</time>
      </trkpt>
      <trkpt lat="-21.11502" lon="55.49967">
        <ele>2376</ele>
        <time>2013-05-05T02:44:03Z</time>
      </trkpt>
      <trkpt lat="-21.11496" lon="55.4996">
        <ele>2377.1</ele>
        <time>2013-05-05T02:44:14Z</time>
      </trkpt>
      <trkpt lat="-21.11488" lon="55.49955">
        <ele>2377.8</ele>
        <time>2013-05-05T02:44:25Z</time>
      </trkpt>
      <trkpt lat="-21.11482" lon="55.4995">
        <ele>2380.4</ele>
        <time>2013-05-05T02:44:38Z</time>
      </trkpt>
      <trkpt lat="-21.11481" lon="55.49949">
        <ele>2380.3</ele>
        <time>2013-05-05T02:44:39Z</time>
      </trkpt>
      <trkpt lat="-21.1147" lon="55.49936">
        <ele>2382.1</ele>
        <time>2013-05-05T02:44:59Z</time>
      </trkpt>
      <trkpt lat="-21.11464" lon="55.49929">
        <ele>2384</ele>
        <time>2013-05-05T02:45:12Z</time>
      </trkpt>
      <trkpt lat="-21.11459" lon="55.49921">
        <ele>2384.1</ele>
        <time>2013-05-05T02:45:22Z</time>
      </trkpt>
      <trkpt lat="-21.11455" lon="55.49913">
        <ele>2386</ele>
        <time>2013-05-05T02:45:35Z</time>
      </trkpt>
      <trkpt lat="-21.11449" lon="55.49907">
        <ele>2388.9</ele>
        <time>2013-05-05T02:45:44Z</time>
      </trkpt>
      <trkpt lat="-21.11448" lon="55.49907">
        <ele>2389.1</ele>
        <time>2013-05-05T02:45:45Z</time>
      </trkpt>
      <trkpt lat="-21.11434" lon="55.49899">
        <ele>2391</ele>
        <time>2013-05-05T02:46:06Z</time>
      </trkpt>
      <trkpt lat="-21.11427" lon="55.49893">
        <ele>2389.3</ele>
        <time>2013-05-05T02:46:15Z</time>
      </trkpt>
      <trkpt lat="-21.1142" lon="55.49887">
        <ele>2388.8</ele>
        <time>2013-05-05T02:46:26Z</time>
      </trkpt>
      <trkpt lat="-21.11414" lon="55.49881">
        <ele>2389.8</ele>
        <time>2013-05-05T02:46:39Z</time>
      </trkpt>
      <trkpt lat="-21.11408" lon="55.49874">
        <ele>2392.4</ele>
        <time>2013-05-05T02:46:53Z</time>
      </trkpt>
      <trkpt lat="-21.11407" lon="55.49874">
        <ele>2392.9</ele>
        <time>2013-05-05T02:46:54Z</time>
      </trkpt>
      <trkpt lat="-21.11393" lon="55.49863">
        <ele>2396.3</ele>
        <time>2013-05-05T02:47:22Z</time>
      </trkpt>
      <trkpt lat="-21.11386" lon="55.49859">
        <ele>2398.5</ele>
        <time>2013-05-05T02:47:32Z</time>
      </trkpt>
      <trkpt lat="-21.11379" lon="55.49853">
        <ele>2403.7</ele>
        <time>2013-05-05T02:48:01Z</time>
      </trkpt>
      <trkpt lat="-21.11379" lon="55.49852">
        <ele>2404</ele>
        <time>2013-05-05T02:48:02Z</time>
      </trkpt>
      <trkpt lat="-21.11365" lon="55.49842">
        <ele>2409.7</ele>
        <time>2013-05-05T02:48:47Z</time>
      </trkpt>
      <trkpt lat="-21.11358" lon="55.49837">
        <ele>2413.5</ele>
        <time>2013-05-05T02:49:06Z</time>
      </trkpt>
      <trkpt lat="-21.11358" lon="55.49836">
        <ele>2413.4</ele>
        <time>2013-05-05T02:49:07Z</time>
      </trkpt>
      <trkpt lat="-21.11347" lon="55.49823">
        <ele>2417.4</ele>
        <time>2013-05-05T02:49:43Z</time>
      </trkpt>
      <trkpt lat="-21.11341" lon="55.49816">
        <ele>2420.5</ele>
        <time>2013-05-05T02:50:02Z</time>
      </trkpt>
      <trkpt lat="-21.11333" lon="55.49814">
        <ele>2423</ele>
        <time>2013-05-05T02:50:31Z</time>
      </trkpt>
      <trkpt lat="-21.11332" lon="55.49814">
        <ele>2422.8</ele>
        <time>2013-05-05T02:50:32Z</time>
      </trkpt>
      <trkpt lat="-21.11317" lon="55.49823">
        <ele>2429.8</ele>
        <time>2013-05-05T02:51:08Z</time>
      </trkpt>
      <trkpt lat="-21.1131" lon="55.49828">
        <ele>2432.2</ele>
        <time>2013-05-05T02:51:26Z</time>
      </trkpt>
      <trkpt lat="-21.11302" lon="55.49831">
        <ele>2435.6</ele>
        <time>2013-05-05T02:51:45Z</time>
      </trkpt>
      <trkpt lat="-21.11301" lon="55.4983">
        <ele>2435.8</ele>
        <time>2013-05-05T02:51:46Z</time>
      </trkpt>
      <trkpt lat="-21.11286" lon="55.49834">
        <ele>2448.5</ele>
        <time>2013-05-05T02:53:15Z</time>
      </trkpt>
      <trkpt lat="-21.11286" lon="55.49835">
        <ele>2448.8</ele>
        <time>2013-05-05T02:53:16Z</time>
      </trkpt>
      <trkpt lat="-21.1127" lon="55.49837">
        <ele>2454.9</ele>
        <time>2013-05-05T02:53:54Z</time>
      </trkpt>
      <trkpt lat="-21.11264" lon="55.4983">
        <ele>2460.1</ele>
        <time>2013-05-05T02:54:19Z</time>
      </trkpt>
      <trkpt lat="-21.11263" lon="55.4983">
        <ele>2460.3</ele>
        <time>2013-05-05T02:54:20Z</time>
      </trkpt>
      <trkpt lat="-21.11255" lon="55.49817">
        <ele>2465</ele>
        <time>2013-05-05T02:54:56Z</time>
      </trkpt>
      <trkpt lat="-21.11251" lon="55.49809">
        <ele>2467.5</ele>
        <time>2013-05-05T02:55:17Z</time>
      </trkpt>
      <trkpt lat="-21.11248" lon="55.498">
        <ele>2469.5</ele>
        <time>2013-05-05T02:55:30Z</time>
      </trkpt>
      <trkpt lat="-21.11248" lon="55.498">
        <ele>2469.6</ele>
        <time>2013-05-05T02:55:31Z</time>
      </trkpt>
      <trkpt lat="-21.11238" lon="55.49785">
        <ele>2474.2</ele>
        <time>2013-05-05T02:57:50Z</time>
      </trkpt>
      <trkpt lat="-21.11238" lon="55.49785">
        <ele>2474.1</ele>
        <time>2013-05-05T02:57:51Z</time>
      </trkpt>
      <trkpt lat="-21.11239" lon="55.49768">
        <ele>2476.4</ele>
        <time>2013-05-05T02:58:18Z</time>
      </trkpt>
      <trkpt lat="-21.11239" lon="55.49759">
        <ele>2479.2</ele>
        <time>2013-05-05T02:58:34Z</time>
      </trkpt>
      <trkpt lat="-21.11237" lon="55.4975">
        <ele>2481.2</ele>
        <time>2013-05-05T02:58:48Z</time>
      </trkpt>
      <trkpt lat="-21.11232" lon="55.49742">
        <ele>2481.3</ele>
        <time>2013-05-05T02:59:08Z</time>
      </trkpt>
      <trkpt lat="-21.11231" lon="55.49742">
        <ele>2481.2</ele>
        <time>2013-05-05T02:59:09Z</time>
      </trkpt>
      <trkpt lat="-21.11214" lon="55.49742">
        <ele>2483.4</ele>
        <time>2013-05-05T02:59:39Z</time>
      </trkpt>
      <trkpt lat="-21.11209" lon="55.49735">
        <ele>2486.4</ele>
        <time>2013-05-05T02:59:56Z</time>
      </trkpt>
      <trkpt lat="-21.11205" lon="55.49726">
        <ele>2488</ele>
        <time>2013-05-05T03:00:08Z</time>
      </trkpt>
      <trkpt lat="-21.11197" lon="55.49723">
        <ele>2489.5</ele>
        <time>2013-05-05T03:00:25Z</time>
      </trkpt>
      <trkpt lat="-21.11196" lon="55.49723">
        <ele>2489.4</ele>
        <time>2013-05-05T03:00:26Z</time>
      </trkpt>
      <trkpt lat="-21.11186" lon="55.49713">
        <ele>2488.5</ele>
        <time>2013-05-05T03:01:57Z</time>
      </trkpt>
      <trkpt lat="-21.11186" lon="55.49712">
        <ele>2488.1</ele>
        <time>2013-05-05T03:01:58Z</time>
      </trkpt>
      <trkpt lat="-21.11182" lon="55.49696">
        <ele>2484.3</ele>
        <time>2013-05-05T03:02:57Z</time>
      </trkpt>
      <trkpt lat="-21.11178" lon="55.49688">
        <ele>2482.7</ele>
        <time>2013-05-05T03:03:13Z</time>
      </trkpt>
      <trkpt lat="-21.11177" lon="55.49688">
        <ele>2482.8</ele>
        <time>2013-05-05T03:03:14Z</time>
      </trkpt>
      <trkpt lat="-21.11166" lon="55.49675">
        <ele>2483.6</ele>
        <time>2013-05-05T03:04:02Z</time>
      </trkpt>
      <trkpt lat="-21.1116" lon="55.49669">
        <ele>2482.2</ele>
        <time>2013-05-05T03:04:12Z</time>
      </trkpt>
      <trkpt lat="-21.11154" lon="55.49662">
        <ele>2481.8</ele>
        <time>2013-05-05T03:04:24Z</time>
      </trkpt>
      <trkpt lat="-21.11153" lon="55.49661">
        <ele>2481.8</ele>
        <time>2013-05-05T03:04:25Z</time>
      </trkpt>
      <trkpt lat="-21.11143" lon="55.49648">
        <ele>2482.7</ele>
        <time>2013-05-05T03:04:46Z</time>
      </trkpt>
      <trkpt lat="-21.11138" lon="55.49641">
        <ele>2483</ele>
        <time>2013-05-05T03:04:57Z</time>
      </trkpt>
      <trkpt lat="-21.11138" lon="55.49631">
        <ele>2486</ele>
        <time>2013-05-05T03:05:11Z</time>
      </trkpt>
      <trkpt lat="-21.11136" lon="55.49622">
        <ele>2486.5</ele>
        <time>2013-05-05T03:05:22Z</time>
      </trkpt>
      <trkpt lat="-21.11134" lon="55.49614">
        <ele>2486.8</ele>
        <time>2013-05-05T03:05:31Z</time>
      </trkpt>
      <trkpt lat="-21.11134" lon="55.49612">
        <ele>2486.8</ele>
        <time>2013-05-05T03:05:32Z</time>
      </trkpt>
      <trkpt lat="-21.11129" lon="55.49596">
        <ele>2486.9</ele>
        <time>2013-05-05T03:05:50Z</time>
      </trkpt>
      <trkpt lat="-21.11127" lon="55.49587">
        <ele>2486.3</ele>
        <time>2013-05-05T03:05:59Z</time>
      </trkpt>
      <trkpt lat="-21.11127" lon="55.49578">
        <ele>2486.6</ele>
        <time>2013-05-05T03:06:08Z</time>
      </trkpt>
      <trkpt lat="-21.11125" lon="55.49569">
        <ele>2484.3</ele>
        <time>2013-05-05T03:06:27Z</time>
      </trkpt>
      <trkpt lat="-21.11121" lon="55.4956">
        <ele>2482.3</ele>
        <time>2013-05-05T03:06:39Z</time>
      </trkpt>
      <trkpt lat="-21.11121" lon="55.4956">
        <ele>2481.9</ele>
        <time>2013-05-05T03:06:40Z</time>
      </trkpt>
      <trkpt lat="-21.11115" lon="55.49543">
        <ele>2481</ele>
        <time>2013-05-05T03:07:05Z</time>
      </trkpt>
      <trkpt lat="-21.1111" lon="55.49536">
        <ele>2480.8</ele>
        <time>2013-05-05T03:07:20Z</time>
      </trkpt>
      <trkpt lat="-21.11101" lon="55.49536">
        <ele>2476.5</ele>
        <time>2013-05-05T03:07:37Z</time>
      </trkpt>
      <trkpt lat="-21.11093" lon="55.49534">
        <ele>2471.2</ele>
        <time>2013-05-05T03:08:04Z</time>
      </trkpt>
      <trkpt lat="-21.11092" lon="55.49533">
        <ele>2470.9</ele>
        <time>2013-05-05T03:08:05Z</time>
      </trkpt>
      <trkpt lat="-21.11077" lon="55.4954">
        <ele>2471.7</ele>
        <time>2013-05-05T03:08:23Z</time>
      </trkpt>
      <trkpt lat="-21.1107" lon="55.49545">
        <ele>2474.4</ele>
        <time>2013-05-05T03:08:35Z</time>
      </trkpt>
      <trkpt lat="-21.11062" lon="55.49549">
        <ele>2474.8</ele>
        <time>2013-05-05T03:08:49Z</time>
      </trkpt>
      <trkpt lat="-21.11054" lon="55.49551">
        <ele>2478.3</ele>
        <time>2013-05-05T03:09:14Z</time>
      </trkpt>
      <trkpt lat="-21.11053" lon="55.49552">
        <ele>2478.3</ele>
        <time>2013-05-05T03:09:15Z</time>
      </trkpt>
      <trkpt lat="-21.11038" lon="55.4956">
        <ele>2475.2</ele>
        <time>2013-05-05T03:09:37Z</time>
      </trkpt>
      <trkpt lat="-21.11031" lon="55.49565">
        <ele>2475.5</ele>
        <time>2013-05-05T03:09:47Z</time>
      </trkpt>
      <trkpt lat="-21.11022" lon="55.49568">
        <ele>2475.8</ele>
        <time>2013-05-05T03:09:58Z</time>
      </trkpt>
      <trkpt lat="-21.11015" lon="55.49573">
        <ele>2476.6</ele>
        <time>2013-05-05T03:10:07Z</time>
      </trkpt>
      <trkpt lat="-21.11008" lon="55.49577">
        <ele>2477.5</ele>
        <time>2013-05-05T03:10:18Z</time>
      </trkpt>
      <trkpt lat="-21.11007" lon="55.49578">
        <ele>2477.4</ele>
        <time>2013-05-05T03:10:19Z</time>
      </trkpt>
      <trkpt lat="-21.10996" lon="55.49591">
        <ele>2477.4</ele>
        <time>2013-05-05T03:10:43Z</time>
      </trkpt>
      <trkpt lat="-21.10989" lon="55.49596">
        <ele>2479.3</ele>
        <time>2013-05-05T03:10:55Z</time>
      </trkpt>
      <trkpt lat="-21.10987" lon="55.49604">
        <ele>2478.2</ele>
        <time>2013-05-05T03:11:04Z</time>
      </trkpt>
      <trkpt lat="-21.1098" lon="55.4961">
        <ele>2477.5</ele>
        <time>2013-05-05T03:11:22Z</time>
      </trkpt>
      <trkpt lat="-21.10979" lon="55.4961">
        <ele>2477.5</ele>
        <time>2013-05-05T03:11:23Z</time>
      </trkpt>
      <trkpt lat="-21.10972" lon="55.49605">
        <ele>2480.7</ele>
        <time>2013-05-05T03:16:35Z</time>
      </trkpt>
      <trkpt lat="-21.10962" lon="55.4959">
        <ele>2485.1</ele>
        <time>2013-05-05T03:17:37Z</time>
      </trkpt>
      <trkpt lat="-21.10961" lon="55.4959">
        <ele>2485.3</ele>
        <time>2013-05-05T03:17:38Z</time>
      </trkpt>
      <trkpt lat="-21.10954" lon="55.49573">
        <ele>2488.8</ele>
        <time>2013-05-05T03:18:12Z</time>
      </trkpt>
      <trkpt lat="-21.10954" lon="55.49564">
        <ele>2490.7</ele>
        <time>2013-05-05T03:18:24Z</time>
      </trkpt>
      <trkpt lat="-21.10948" lon="55.49558">
        <ele>2492.3</ele>
        <time>2013-05-05T03:18:37Z</time>
      </trkpt>
      <trkpt lat="-21.10943" lon="55.4955">
        <ele>2495.4</ele>
        <time>2013-05-05T03:18:56Z</time>
      </trkpt>
      <trkpt lat="-21.10943" lon="55.49549">
        <ele>2495.9</ele>
        <time>2013-05-05T03:18:57Z</time>
      </trkpt>
      <trkpt lat="-21.10936" lon="55.49533">
        <ele>2500.9</ele>
        <time>2013-05-05T03:19:38Z</time>
      </trkpt>
      <trkpt lat="-21.10933" lon="55.49524">
        <ele>2503.2</ele>
        <time>2013-05-05T03:19:57Z</time>
      </trkpt>
      <trkpt lat="-21.10932" lon="55.49524">
        <ele>2503.1</ele>
        <time>2013-05-05T03:19:58Z</time>
      </trkpt>
      <trkpt lat="-21.10924" lon="55.49508">
        <ele>2507.3</ele>
        <time>2013-05-05T03:20:29Z</time>
      </trkpt>
      <trkpt lat="-21.10917" lon="55.49503">
        <ele>2509.9</ele>
        <time>2013-05-05T03:20:47Z</time>
      </trkpt>
      <trkpt lat="-21.10915" lon="55.49494">
        <ele>2511.9</ele>
        <time>2013-05-05T03:21:08Z</time>
      </trkpt>
      <trkpt lat="-21.10915" lon="55.49493">
        <ele>2512</ele>
        <time>2013-05-05T03:21:09Z</time>
      </trkpt>
      <trkpt lat="-21.10901" lon="55.49483">
        <ele>2517.1</ele>
        <time>2013-05-05T03:21:41Z</time>
      </trkpt>
      <trkpt lat="-21.10894" lon="55.49478">
        <ele>2518.6</ele>
        <time>2013-05-05T03:21:59Z</time>
      </trkpt>
      <trkpt lat="-21.10887" lon="55.49473">
        <ele>2519.9</ele>
        <time>2013-05-05T03:22:11Z</time>
      </trkpt>
      <trkpt lat="-21.10887" lon="55.49473">
        <ele>2520</ele>
        <time>2013-05-05T03:22:12Z</time>
      </trkpt>
      <trkpt lat="-21.10874" lon="55.49462">
        <ele>2526.8</ele>
        <time>2013-05-05T03:22:56Z</time>
      </trkpt>
      <trkpt lat="-21.10866" lon="55.49459">
        <ele>2528.1</ele>
        <time>2013-05-05T03:23:13Z</time>
      </trkpt>
      <trkpt lat="-21.10865" lon="55.49459">
        <ele>2528.5</ele>
        <time>2013-05-05T03:23:14Z</time>
      </trkpt>
      <trkpt lat="-21.10852" lon="55.49447">
        <ele>2533.8</ele>
        <time>2013-05-05T03:23:57Z</time>
      </trkpt>
      <trkpt lat="-21.10844" lon="55.49443">
        <ele>2536.6</ele>
        <time>2013-05-05T03:24:13Z</time>
      </trkpt>
      <trkpt lat="-21.10836" lon="55.49445">
        <ele>2539</ele>
        <time>2013-05-05T03:24:31Z</time>
      </trkpt>
      <trkpt lat="-21.10836" lon="55.49445">
        <ele>2539.2</ele>
        <time>2013-05-05T03:24:32Z</time>
      </trkpt>
      <trkpt lat="-21.10821" lon="55.49436">
        <ele>2542.8</ele>
        <time>2013-05-05T03:25:00Z</time>
      </trkpt>
      <trkpt lat="-21.10814" lon="55.4943">
        <ele>2545</ele>
        <time>2013-05-05T03:25:15Z</time>
      </trkpt>
      <trkpt lat="-21.10807" lon="55.49424">
        <ele>2547.1</ele>
        <time>2013-05-05T03:25:32Z</time>
      </trkpt>
      <trkpt lat="-21.10807" lon="55.49424">
        <ele>2547.1</ele>
        <time>2013-05-05T03:25:33Z</time>
      </trkpt>
      <trkpt lat="-21.10794" lon="55.49415">
        <ele>2550.9</ele>
        <time>2013-05-05T03:26:04Z</time>
      </trkpt>
      <trkpt lat="-21.10786" lon="55.49411">
        <ele>2551.5</ele>
        <time>2013-05-05T03:26:19Z</time>
      </trkpt>
      <trkpt lat="-21.1078" lon="55.49404">
        <ele>2553.3</ele>
        <time>2013-05-05T03:26:34Z</time>
      </trkpt>
      <trkpt lat="-21.1078" lon="55.49403">
        <ele>2553.6</ele>
        <time>2013-05-05T03:26:35Z</time>
      </trkpt>
      <trkpt lat="-21.10766" lon="55.49394">
        <ele>2558.1</ele>
        <time>2013-05-05T03:27:03Z</time>
      </trkpt>
      <trkpt lat="-21.10759" lon="55.49389">
        <ele>2559</ele>
        <time>2013-05-05T03:27:18Z</time>
      </trkpt>
      <trkpt lat="-21.1075" lon="55.49388">
        <ele>2561.2</ele>
        <time>2013-05-05T03:27:31Z</time>
      </trkpt>
      <trkpt lat="-21.10744" lon="55.49381">
        <ele>2562.2</ele>
        <time>2013-05-05T03:27:45Z</time>
      </trkpt>
      <trkpt lat="-21.10743" lon="55.49381">
        <ele>2562.8</ele>
        <time>2013-05-05T03:27:46Z</time>
      </trkpt>
      <trkpt lat="-21.1073" lon="55.49369">
        <ele>2565.7</ele>
        <time>2013-05-05T03:28:12Z</time>
      </trkpt>
      <trkpt lat="-21.10723" lon="55.49363">
        <ele>2566.9</ele>
        <time>2013-05-05T03:28:36Z</time>
      </trkpt>
      <trkpt lat="-21.1072" lon="55.49355">
        <ele>2571.3</ele>
        <time>2013-05-05T03:28:56Z</time>
      </trkpt>
      <trkpt lat="-21.10719" lon="55.49355">
        <ele>2571.4</ele>
        <time>2013-05-05T03:28:57Z</time>
      </trkpt>
      <trkpt lat="-21.10705" lon="55.49345">
        <ele>2575</ele>
        <time>2013-05-05T03:29:35Z</time>
      </trkpt>
      <trkpt lat="-21.10698" lon="55.49339">
        <ele>2577.3</ele>
        <time>2013-05-05T03:29:53Z</time>
      </trkpt>
      <trkpt lat="-21.10692" lon="55.49333">
        <ele>2580.3</ele>
        <time>2013-05-05T03:30:15Z</time>
      </trkpt>
      <trkpt lat="-21.10691" lon="55.49333">
        <ele>2580.5</ele>
        <time>2013-05-05T03:30:16Z</time>
      </trkpt>
      <trkpt lat="-21.10676" lon="55.49326">
        <ele>2583.5</ele>
        <time>2013-05-05T03:30:51Z</time>
      </trkpt>
      <trkpt lat="-21.10668" lon="55.49325">
        <ele>2585.6</ele>
        <time>2013-05-05T03:31:04Z</time>
      </trkpt>
      <trkpt lat="-21.10661" lon="55.4932">
        <ele>2587.1</ele>
        <time>2013-05-05T03:31:16Z</time>
      </trkpt>
      <trkpt lat="-21.1066" lon="55.4932">
        <ele>2587.2</ele>
        <time>2013-05-05T03:31:17Z</time>
      </trkpt>
      <trkpt lat="-21.10644" lon="55.4932">
        <ele>2591.3</ele>
        <time>2013-05-05T03:31:47Z</time>
      </trkpt>
      <trkpt lat="-21.10635" lon="55.49317">
        <ele>2590.9</ele>
        <time>2013-05-05T03:32:04Z</time>
      </trkpt>
      <trkpt lat="-21.10627" lon="55.49316">
        <ele>2593.5</ele>
        <time>2013-05-05T03:32:24Z</time>
      </trkpt>
      <trkpt lat="-21.10627" lon="55.49315">
        <ele>2593.4</ele>
        <time>2013-05-05T03:32:25Z</time>
      </trkpt>
      <trkpt lat="-21.10612" lon="55.49307">
        <ele>2598.2</ele>
        <time>2013-05-05T03:33:04Z</time>
      </trkpt>
      <trkpt lat="-21.10606" lon="55.493">
        <ele>2599.5</ele>
        <time>2013-05-05T03:33:17Z</time>
      </trkpt>
      <trkpt lat="-21.10599" lon="55.49293">
        <ele>2603.6</ele>
        <time>2013-05-05T03:33:47Z</time>
      </trkpt>
      <trkpt lat="-21.10599" lon="55.49293">
        <ele>2603.8</ele>
        <time>2013-05-05T03:33:48Z</time>
      </trkpt>
      <trkpt lat="-21.10583" lon="55.49291">
        <ele>2606.3</ele>
        <time>2013-05-05T03:34:12Z</time>
      </trkpt>
      <trkpt lat="-21.10575" lon="55.49287">
        <ele>2609</ele>
        <time>2013-05-05T03:34:31Z</time>
      </trkpt>
      <trkpt lat="-21.10567" lon="55.49283">
        <ele>2611.5</ele>
        <time>2013-05-05T03:34:49Z</time>
      </trkpt>
      <trkpt lat="-21.10567" lon="55.49283">
        <ele>2611.4</ele>
        <time>2013-05-05T03:34:50Z</time>
      </trkpt>
      <trkpt lat="-21.10556" lon="55.49268">
        <ele>2619.2</ele>
        <time>2013-05-05T03:35:49Z</time>
      </trkpt>
      <trkpt lat="-21.10548" lon="55.49264">
        <ele>2621.6</ele>
        <time>2013-05-05T03:36:11Z</time>
      </trkpt>
      <trkpt lat="-21.10548" lon="55.49264">
        <ele>2621.5</ele>
        <time>2013-05-05T03:36:12Z</time>
      </trkpt>
      <trkpt lat="-21.10536" lon="55.49251">
        <ele>2629.8</ele>
        <time>2013-05-05T03:37:08Z</time>
      </trkpt>
      <trkpt lat="-21.10528" lon="55.49249">
        <ele>2633.4</ele>
        <time>2013-05-05T03:37:28Z</time>
      </trkpt>
      <trkpt lat="-21.10527" lon="55.49249">
        <ele>2633.9</ele>
        <time>2013-05-05T03:37:29Z</time>
      </trkpt>
      <trkpt lat="-21.10511" lon="55.49247">
        <ele>2638.8</ele>
        <time>2013-05-05T03:38:16Z</time>
      </trkpt>
      <trkpt lat="-21.10502" lon="55.49245">
        <ele>2642.5</ele>
        <time>2013-05-05T03:38:38Z</time>
      </trkpt>
      <trkpt lat="-21.10502" lon="55.49245">
        <ele>2642.4</ele>
        <time>2013-05-05T03:38:39Z</time>
      </trkpt>
      <trkpt lat="-21.10485" lon="55.49242">
        <ele>2646.7</ele>
        <time>2013-05-05T03:39:21Z</time>
      </trkpt>
      <trkpt lat="-21.10476" lon="55.49242">
        <ele>2651.6</ele>
        <time>2013-05-05T03:39:54Z</time>
      </trkpt>
      <trkpt lat="-21.10476" lon="55.49242">
        <ele>2651.7</ele>
        <time>2013-05-05T03:39:55Z</time>
      </trkpt>
      <trkpt lat="-21.10462" lon="55.49231">
        <ele>2657.9</ele>
        <time>2013-05-05T03:40:45Z</time>
      </trkpt>
      <trkpt lat="-21.10453" lon="55.4923">
        <ele>2660.5</ele>
        <time>2013-05-05T03:41:09Z</time>
      </trkpt>
      <trkpt lat="-21.10453" lon="55.4923">
        <ele>2660.9</ele>
        <time>2013-05-05T03:41:10Z</time>
      </trkpt>
      <trkpt lat="-21.10436" lon="55.49229">
        <ele>2668.9</ele>
        <time>2013-05-05T03:42:16Z</time>
      </trkpt>
      <trkpt lat="-21.10436" lon="55.49229">
        <ele>2669.1</ele>
        <time>2013-05-05T03:42:17Z</time>
      </trkpt>
      <trkpt lat="-21.10419" lon="55.49224">
        <ele>2676.1</ele>
        <time>2013-05-05T03:43:13Z</time>
      </trkpt>
      <trkpt lat="-21.10411" lon="55.49226">
        <ele>2679.2</ele>
        <time>2013-05-05T03:43:33Z</time>
      </trkpt>
      <trkpt lat="-21.1041" lon="55.49226">
        <ele>2679.1</ele>
        <time>2013-05-05T03:43:34Z</time>
      </trkpt>
      <trkpt lat="-21.10405" lon="55.4921">
        <ele>2684.5</ele>
        <time>2013-05-05T03:44:16Z</time>
      </trkpt>
      <trkpt lat="-21.104" lon="55.49202">
        <ele>2685.6</ele>
        <time>2013-05-05T03:44:34Z</time>
      </trkpt>
      <trkpt lat="-21.104" lon="55.49201">
        <ele>2685.8</ele>
        <time>2013-05-05T03:44:35Z</time>
      </trkpt>
      <trkpt lat="-21.10384" lon="55.49198">
        <ele>2693.1</ele>
        <time>2013-05-05T03:45:18Z</time>
      </trkpt>
      <trkpt lat="-21.10382" lon="55.49189">
        <ele>2694.7</ele>
        <time>2013-05-05T03:45:39Z</time>
      </trkpt>
      <trkpt lat="-21.10382" lon="55.49188">
        <ele>2694.6</ele>
        <time>2013-05-05T03:45:40Z</time>
      </trkpt>
      <trkpt lat="-21.10376" lon="55.49171">
        <ele>2698</ele>
        <time>2013-05-05T03:46:11Z</time>
      </trkpt>
      <trkpt lat="-21.10373" lon="55.49163">
        <ele>2699.9</ele>
        <time>2013-05-05T03:46:27Z</time>
      </trkpt>
      <trkpt lat="-21.1037" lon="55.49154">
        <ele>2701.5</ele>
        <time>2013-05-05T03:46:46Z</time>
      </trkpt>
      <trkpt lat="-21.1037" lon="55.49153">
        <ele>2701.7</ele>
        <time>2013-05-05T03:46:47Z</time>
      </trkpt>
      <trkpt lat="-21.10357" lon="55.4914">
        <ele>2706.8</ele>
        <time>2013-05-05T03:47:27Z</time>
      </trkpt>
      <trkpt lat="-21.1035" lon="55.49136">
        <ele>2709.1</ele>
        <time>2013-05-05T03:47:42Z</time>
      </trkpt>
      <trkpt lat="-21.10344" lon="55.49129">
        <ele>2711.6</ele>
        <time>2013-05-05T03:48:02Z</time>
      </trkpt>
      <trkpt lat="-21.10343" lon="55.49129">
        <ele>2712.1</ele>
        <time>2013-05-05T03:48:03Z</time>
      </trkpt>
      <trkpt lat="-21.1033" lon="55.49117">
        <ele>2716.6</ele>
        <time>2013-05-05T03:48:50Z</time>
      </trkpt>
      <trkpt lat="-21.10323" lon="55.49112">
        <ele>2718.6</ele>
        <time>2013-05-05T03:49:07Z</time>
      </trkpt>
      <trkpt lat="-21.10323" lon="55.49112">
        <ele>2718.6</ele>
        <time>2013-05-05T03:49:08Z</time>
      </trkpt>
      <trkpt lat="-21.10307" lon="55.49111">
        <ele>2721.5</ele>
        <time>2013-05-05T03:49:32Z</time>
      </trkpt>
      <trkpt lat="-21.10299" lon="55.49108">
        <ele>2725.6</ele>
        <time>2013-05-05T03:50:07Z</time>
      </trkpt>
      <trkpt lat="-21.10292" lon="55.49102">
        <ele>2727.5</ele>
        <time>2013-05-05T03:50:29Z</time>
      </trkpt>
      <trkpt lat="-21.10291" lon="55.49101">
        <ele>2727.6</ele>
        <time>2013-05-05T03:50:30Z</time>
      </trkpt>
      <trkpt lat="-21.10285" lon="55.49086">
        <ele>2732.8</ele>
        <time>2013-05-05T03:51:06Z</time>
      </trkpt>
      <trkpt lat="-21.10277" lon="55.49086">
        <ele>2736</ele>
        <time>2013-05-05T03:51:27Z</time>
      </trkpt>
      <trkpt lat="-21.10269" lon="55.49081">
        <ele>2737.2</ele>
        <time>2013-05-05T03:51:54Z</time>
      </trkpt>
      <trkpt lat="-21.10269" lon="55.4908">
        <ele>2737.5</ele>
        <time>2013-05-05T03:51:55Z</time>
      </trkpt>
      <trkpt lat="-21.10253" lon="55.49075">
        <ele>2741.5</ele>
        <time>2013-05-05T03:52:30Z</time>
      </trkpt>
      <trkpt lat="-21.10244" lon="55.49072">
        <ele>2744.9</ele>
        <time>2013-05-05T03:52:52Z</time>
      </trkpt>
      <trkpt lat="-21.10236" lon="55.49068">
        <ele>2747.1</ele>
        <time>2013-05-05T03:53:13Z</time>
      </trkpt>
      <trkpt lat="-21.10235" lon="55.49068">
        <ele>2747.4</ele>
        <time>2013-05-05T03:53:14Z</time>
      </trkpt>
      <trkpt lat="-21.10223" lon="55.49057">
        <ele>2752.6</ele>
        <time>2013-05-05T03:53:55Z</time>
      </trkpt>
      <trkpt lat="-21.10215" lon="55.49055">
        <ele>2753.5</ele>
        <time>2013-05-05T03:54:11Z</time>
      </trkpt>
      <trkpt lat="-21.10212" lon="55.49046">
        <ele>2755.2</ele>
        <time>2013-05-05T03:54:37Z</time>
      </trkpt>
      <trkpt lat="-21.10212" lon="55.49045">
        <ele>2755.5</ele>
        <time>2013-05-05T03:54:38Z</time>
      </trkpt>
      <trkpt lat="-21.10206" lon="55.49028">
        <ele>2762.3</ele>
        <time>2013-05-05T03:55:30Z</time>
      </trkpt>
      <trkpt lat="-21.10202" lon="55.49019">
        <ele>2764.8</ele>
        <time>2013-05-05T03:55:52Z</time>
      </trkpt>
      <trkpt lat="-21.10201" lon="55.49019">
        <ele>2764.8</ele>
        <time>2013-05-05T03:55:53Z</time>
      </trkpt>
      <trkpt lat="-21.10189" lon="55.49008">
        <ele>2767.7</ele>
        <time>2013-05-05T03:56:25Z</time>
      </trkpt>
      <trkpt lat="-21.10186" lon="55.48999">
        <ele>2769.3</ele>
        <time>2013-05-05T03:56:45Z</time>
      </trkpt>
      <trkpt lat="-21.10183" lon="55.4899">
        <ele>2771.4</ele>
        <time>2013-05-05T03:57:00Z</time>
      </trkpt>
      <trkpt lat="-21.10182" lon="55.4899">
        <ele>2771.9</ele>
        <time>2013-05-05T03:57:01Z</time>
      </trkpt>
      <trkpt lat="-21.10175" lon="55.48974">
        <ele>2774.5</ele>
        <time>2013-05-05T03:57:31Z</time>
      </trkpt>
      <trkpt lat="-21.10171" lon="55.48965">
        <ele>2776.4</ele>
        <time>2013-05-05T03:57:48Z</time>
      </trkpt>
      <trkpt lat="-21.10166" lon="55.48958">
        <ele>2777.7</ele>
        <time>2013-05-05T03:58:05Z</time>
      </trkpt>
      <trkpt lat="-21.10165" lon="55.48958">
        <ele>2777.6</ele>
        <time>2013-05-05T03:58:06Z</time>
      </trkpt>
      <trkpt lat="-21.10154" lon="55.48944">
        <ele>2781.1</ele>
        <time>2013-05-05T03:58:38Z</time>
      </trkpt>
      <trkpt lat="-21.10147" lon="55.48938">
        <ele>2782.9</ele>
        <time>2013-05-05T03:58:53Z</time>
      </trkpt>
      <trkpt lat="-21.10142" lon="55.48931">
        <ele>2784.8</ele>
        <time>2013-05-05T03:59:10Z</time>
      </trkpt>
      <trkpt lat="-21.10141" lon="55.48931">
        <ele>2785.2</ele>
        <time>2013-05-05T03:59:11Z</time>
      </trkpt>
      <trkpt lat="-21.10138" lon="55.48914">
        <ele>2788.4</ele>
        <time>2013-05-05T03:59:52Z</time>
      </trkpt>
      <trkpt lat="-21.10135" lon="55.48905">
        <ele>2789.9</ele>
        <time>2013-05-05T04:00:06Z</time>
      </trkpt>
      <trkpt lat="-21.10132" lon="55.48897">
        <ele>2792.9</ele>
        <time>2013-05-05T04:00:23Z</time>
      </trkpt>
      <trkpt lat="-21.10132" lon="55.48896">
        <ele>2792.9</ele>
        <time>2013-05-05T04:00:24Z</time>
      </trkpt>
      <trkpt lat="-21.10128" lon="55.48879">
        <ele>2795.4</ele>
        <time>2013-05-05T04:00:58Z</time>
      </trkpt>
      <trkpt lat="-21.10124" lon="55.4887">
        <ele>2797.6</ele>
        <time>2013-05-05T04:01:13Z</time>
      </trkpt>
      <trkpt lat="-21.1012" lon="55.48862">
        <ele>2797.3</ele>
        <time>2013-05-05T04:01:31Z</time>
      </trkpt>
      <trkpt lat="-21.1012" lon="55.48861">
        <ele>2797.5</ele>
        <time>2013-05-05T04:01:32Z</time>
      </trkpt>
      <trkpt lat="-21.10122" lon="55.48844">
        <ele>2801.5</ele>
        <time>2013-05-05T04:02:04Z</time>
      </trkpt>
      <trkpt lat="-21.10119" lon="55.48835">
        <ele>2802.9</ele>
        <time>2013-05-05T04:02:20Z</time>
      </trkpt>
      <trkpt lat="-21.10116" lon="55.48826">
        <ele>2805.1</ele>
        <time>2013-05-05T04:02:38Z</time>
      </trkpt>
      <trkpt lat="-21.10116" lon="55.48826">
        <ele>2805.1</ele>
        <time>2013-05-05T04:02:39Z</time>
      </trkpt>
      <trkpt lat="-21.1011" lon="55.48809">
        <ele>2809.4</ele>
        <time>2013-05-05T04:03:19Z</time>
      </trkpt>
      <trkpt lat="-21.1011" lon="55.488">
        <ele>2813</ele>
        <time>2013-05-05T04:03:36Z</time>
      </trkpt>
      <trkpt lat="-21.10109" lon="55.4879">
        <ele>2814.9</ele>
        <time>2013-05-05T04:03:56Z</time>
      </trkpt>
      <trkpt lat="-21.10109" lon="55.48789">
        <ele>2814.8</ele>
        <time>2013-05-05T04:03:57Z</time>
      </trkpt>
      <trkpt lat="-21.10108" lon="55.48772">
        <ele>2818.8</ele>
        <time>2013-05-05T04:04:28Z</time>
      </trkpt>
      <trkpt lat="-21.10104" lon="55.48763">
        <ele>2821.4</ele>
        <time>2013-05-05T04:04:46Z</time>
      </trkpt>
      <trkpt lat="-21.10097" lon="55.48757">
        <ele>2823.6</ele>
        <time>2013-05-05T04:05:09Z</time>
      </trkpt>
      <trkpt lat="-21.10097" lon="55.48758">
        <ele>2823.8</ele>
        <time>2013-05-05T04:05:10Z</time>
      </trkpt>
      <trkpt lat="-21.10082" lon="55.48765">
        <ele>2828.1</ele>
        <time>2013-05-05T04:05:46Z</time>
      </trkpt>
      <trkpt lat="-21.10073" lon="55.48768">
        <ele>2829.6</ele>
        <time>2013-05-05T04:06:03Z</time>
      </trkpt>
      <trkpt lat="-21.10065" lon="55.48767">
        <ele>2831.4</ele>
        <time>2013-05-05T04:06:20Z</time>
      </trkpt>
      <trkpt lat="-21.10064" lon="55.48767">
        <ele>2831.6</ele>
        <time>2013-05-05T04:06:21Z</time>
      </trkpt>
      <trkpt lat="-21.10048" lon="55.48772">
        <ele>2834.3</ele>
        <time>2013-05-05T04:06:47Z</time>
      </trkpt>
      <trkpt lat="-21.10039" lon="55.48771">
        <ele>2835</ele>
        <time>2013-05-05T04:07:01Z</time>
      </trkpt>
      <trkpt lat="-21.10031" lon="55.48772">
        <ele>2835.9</ele>
        <time>2013-05-05T04:07:13Z</time>
      </trkpt>
      <trkpt lat="-21.10023" lon="55.48773">
        <ele>2836.1</ele>
        <time>2013-05-05T04:07:25Z</time>
      </trkpt>
      <trkpt lat="-21.10022" lon="55.48773">
        <ele>2836</ele>
        <time>2013-05-05T04:07:26Z</time>
      </trkpt>
      <trkpt lat="-21.10006" lon="55.48774">
        <ele>2839.2</ele>
        <time>2013-05-05T04:07:53Z</time>
      </trkpt>
      <trkpt lat="-21.09999" lon="55.48779">
        <ele>2838.9</ele>
        <time>2013-05-05T04:08:05Z</time>
      </trkpt>
      <trkpt lat="-21.09992" lon="55.48785">
        <ele>2839.1</ele>
        <time>2013-05-05T04:08:15Z</time>
      </trkpt>
      <trkpt lat="-21.09984" lon="55.48788">
        <ele>2840.1</ele>
        <time>2013-05-05T04:08:30Z</time>
      </trkpt>
      <trkpt lat="-21.09984" lon="55.48788">
        <ele>2839.8</ele>
        <time>2013-05-05T04:08:31Z</time>
      </trkpt>
      <trkpt lat="-21.09966" lon="55.4879">
        <ele>2845.8</ele>
        <time>2013-05-05T04:09:21Z</time>
      </trkpt>
      <trkpt lat="-21.09958" lon="55.48792">
        <ele>2847.9</ele>
        <time>2013-05-05T04:09:39Z</time>
      </trkpt>
      <trkpt lat="-21.09957" lon="55.48792">
        <ele>2847.4</ele>
        <time>2013-05-05T04:09:40Z</time>
      </trkpt>
      <trkpt lat="-21.0994" lon="55.48792">
        <ele>2846.3</ele>
        <time>2013-05-05T04:10:00Z</time>
      </trkpt>
      <trkpt lat="-21.09935" lon="55.48785">
        <ele>2847.9</ele>
        <time>2013-05-05T04:10:13Z</time>
      </trkpt>
      <trkpt lat="-21.09931" lon="55.48776">
        <ele>2848</ele>
        <time>2013-05-05T04:10:26Z</time>
      </trkpt>
      <trkpt lat="-21.09928" lon="55.48768">
        <ele>2846.7</ele>
        <time>2013-05-05T04:10:38Z</time>
      </trkpt>
      <trkpt lat="-21.09922" lon="55.48761">
        <ele>2846.6</ele>
        <time>2013-05-05T04:10:52Z</time>
      </trkpt>
      <trkpt lat="-21.09922" lon="55.4876">
        <ele>2846.4</ele>
        <time>2013-05-05T04:10:53Z</time>
      </trkpt>
      <trkpt lat="-21.09912" lon="55.48747">
        <ele>2845.8</ele>
        <time>2013-05-05T04:11:10Z</time>
      </trkpt>
      <trkpt lat="-21.09907" lon="55.48739">
        <ele>2845.5</ele>
        <time>2013-05-05T04:11:18Z</time>
      </trkpt>
      <trkpt lat="-21.09901" lon="55.48732">
        <ele>2845.2</ele>
        <time>2013-05-05T04:11:26Z</time>
      </trkpt>
      <trkpt lat="-21.09894" lon="55.48727">
        <ele>2844.6</ele>
        <time>2013-05-05T04:11:35Z</time>
      </trkpt>
      <trkpt lat="-21.0989" lon="55.48719">
        <ele>2843.1</ele>
        <time>2013-05-05T04:11:44Z</time>
      </trkpt>
      <trkpt lat="-21.09888" lon="55.4871">
        <ele>2845</ele>
        <time>2013-05-05T04:11:54Z</time>
      </trkpt>
      <trkpt lat="-21.09888" lon="55.48709">
        <ele>2844.5</ele>
        <time>2013-05-05T04:11:55Z</time>
      </trkpt>
      <trkpt lat="-21.09876" lon="55.48699">
        <ele>2844.8</ele>
        <time>2013-05-05T04:12:10Z</time>
      </trkpt>
      <trkpt lat="-21.0987" lon="55.48692">
        <ele>2845.3</ele>
        <time>2013-05-05T04:12:18Z</time>
      </trkpt>
      <trkpt lat="-21.09864" lon="55.48686">
        <ele>2846.6</ele>
        <time>2013-05-05T04:12:26Z</time>
      </trkpt>
      <trkpt lat="-21.09859" lon="55.48679">
        <ele>2846.4</ele>
        <time>2013-05-05T04:12:33Z</time>
      </trkpt>
      <trkpt lat="-21.09856" lon="55.4867">
        <ele>2845.8</ele>
        <time>2013-05-05T04:12:41Z</time>
      </trkpt>
      <trkpt lat="-21.09853" lon="55.48662">
        <ele>2845.7</ele>
        <time>2013-05-05T04:12:49Z</time>
      </trkpt>
      <trkpt lat="-21.09846" lon="55.48657">
        <ele>2845.7</ele>
        <time>2013-05-05T04:12:58Z</time>
      </trkpt>
      <trkpt lat="-21.09846" lon="55.48656">
        <ele>2845.5</ele>
        <time>2013-05-05T04:12:59Z</time>
      </trkpt>
      <trkpt lat="-21.09831" lon="55.48649">
        <ele>2845.4</ele>
        <time>2013-05-05T04:13:26Z</time>
      </trkpt>
      <trkpt lat="-21.09822" lon="55.48648">
        <ele>2848</ele>
        <time>2013-05-05T04:13:40Z</time>
      </trkpt>
      <trkpt lat="-21.09819" lon="55.48639">
        <ele>2851.5</ele>
        <time>2013-05-05T04:13:59Z</time>
      </trkpt>
      <trkpt lat="-21.09811" lon="55.48641">
        <ele>2856.1</ele>
        <time>2013-05-05T04:15:03Z</time>
      </trkpt>
      <trkpt lat="-21.0981" lon="55.48642">
        <ele>2856</ele>
        <time>2013-05-05T04:15:04Z</time>
      </trkpt>
      <trkpt lat="-21.09798" lon="55.48652">
        <ele>2856.3</ele>
        <time>2013-05-05T04:15:20Z</time>
      </trkpt>
      <trkpt lat="-21.0979" lon="55.48656">
        <ele>2857.5</ele>
        <time>2013-05-05T04:15:58Z</time>
      </trkpt>
      <trkpt lat="-21.09784" lon="55.48649">
        <ele>2860.4</ele>
        <time>2013-05-05T04:16:19Z</time>
      </trkpt>
      <trkpt lat="-21.09783" lon="55.48648">
        <ele>2860.3</ele>
        <time>2013-05-05T04:16:20Z</time>
      </trkpt>
      <trkpt lat="-21.0978" lon="55.48631">
        <ele>2866.8</ele>
        <time>2013-05-05T04:17:02Z</time>
      </trkpt>
      <trkpt lat="-21.09778" lon="55.48622">
        <ele>2868.3</ele>
        <time>2013-05-05T04:17:25Z</time>
      </trkpt>
      <trkpt lat="-21.09777" lon="55.48622">
        <ele>2868.3</ele>
        <time>2013-05-05T04:17:26Z</time>
      </trkpt>
      <trkpt lat="-21.09783" lon="55.48604">
        <ele>2871.8</ele>
        <time>2013-05-05T04:17:59Z</time>
      </trkpt>
      <trkpt lat="-21.09785" lon="55.48595">
        <ele>2872.9</ele>
        <time>2013-05-05T04:18:12Z</time>
      </trkpt>
      <trkpt lat="-21.09784" lon="55.48585">
        <ele>2875.5</ele>
        <time>2013-05-05T04:18:34Z</time>
      </trkpt>
      <trkpt lat="-21.09784" lon="55.48585">
        <ele>2875.7</ele>
        <time>2013-05-05T04:18:35Z</time>
      </trkpt>
      <trkpt lat="-21.09784" lon="55.48568">
        <ele>2878.6</ele>
        <time>2013-05-05T04:19:11Z</time>
      </trkpt>
      <trkpt lat="-21.09789" lon="55.4856">
        <ele>2880</ele>
        <time>2013-05-05T04:19:22Z</time>
      </trkpt>
      <trkpt lat="-21.09792" lon="55.48551">
        <ele>2881.1</ele>
        <time>2013-05-05T04:19:36Z</time>
      </trkpt>
      <trkpt lat="-21.09792" lon="55.48551">
        <ele>2881.2</ele>
        <time>2013-05-05T04:19:37Z</time>
      </trkpt>
      <trkpt lat="-21.09782" lon="55.48536">
        <ele>2884.2</ele>
        <time>2013-05-05T04:20:03Z</time>
      </trkpt>
      <trkpt lat="-21.09781" lon="55.48527">
        <ele>2884.8</ele>
        <time>2013-05-05T04:20:16Z</time>
      </trkpt>
      <trkpt lat="-21.09778" lon="55.48518">
        <ele>2886.2</ele>
        <time>2013-05-05T04:20:30Z</time>
      </trkpt>
      <trkpt lat="-21.09771" lon="55.48512">
        <ele>2886.3</ele>
        <time>2013-05-05T04:20:43Z</time>
      </trkpt>
      <trkpt lat="-21.09771" lon="55.48511">
        <ele>2886.4</ele>
        <time>2013-05-05T04:20:44Z</time>
      </trkpt>
      <trkpt lat="-21.09768" lon="55.48494">
        <ele>2889.8</ele>
        <time>2013-05-05T04:21:13Z</time>
      </trkpt>
      <trkpt lat="-21.09769" lon="55.48485">
        <ele>2890.4</ele>
        <time>2013-05-05T04:21:27Z</time>
      </trkpt>
      <trkpt lat="-21.09766" lon="55.48476">
        <ele>2890.4</ele>
        <time>2013-05-05T04:21:39Z</time>
      </trkpt>
      <trkpt lat="-21.09762" lon="55.48468">
        <ele>2892.9</ele>
        <time>2013-05-05T04:21:55Z</time>
      </trkpt>
      <trkpt lat="-21.09762" lon="55.48467">
        <ele>2893.2</ele>
        <time>2013-05-05T04:21:56Z</time>
      </trkpt>
      <trkpt lat="-21.09747" lon="55.48461">
        <ele>2897.1</ele>
        <time>2013-05-05T04:22:31Z</time>
      </trkpt>
      <trkpt lat="-21.0974" lon="55.48455">
        <ele>2899.9</ele>
        <time>2013-05-05T04:22:52Z</time>
      </trkpt>
      <trkpt lat="-21.09731" lon="55.48456">
        <ele>2901.6</ele>
        <time>2013-05-05T04:23:06Z</time>
      </trkpt>
      <trkpt lat="-21.09731" lon="55.48456">
        <ele>2901.6</ele>
        <time>2013-05-05T04:23:07Z</time>
      </trkpt>
      <trkpt lat="-21.09721" lon="55.48442">
        <ele>2907.4</ele>
        <time>2013-05-05T04:23:58Z</time>
      </trkpt>
      <trkpt lat="-21.09722" lon="55.48433">
        <ele>2909.5</ele>
        <time>2013-05-05T04:24:14Z</time>
      </trkpt>
      <trkpt lat="-21.09722" lon="55.48432">
        <ele>2909.6</ele>
        <time>2013-05-05T04:24:15Z</time>
      </trkpt>
      <trkpt lat="-21.09715" lon="55.48416">
        <ele>2913.4</ele>
        <time>2013-05-05T04:24:51Z</time>
      </trkpt>
      <trkpt lat="-21.0971" lon="55.48408">
        <ele>2914.8</ele>
        <time>2013-05-05T04:25:10Z</time>
      </trkpt>
      <trkpt lat="-21.09708" lon="55.48399">
        <ele>2915.3</ele>
        <time>2013-05-05T04:25:28Z</time>
      </trkpt>
      <trkpt lat="-21.09707" lon="55.48399">
        <ele>2915.6</ele>
        <time>2013-05-05T04:25:29Z</time>
      </trkpt>
      <trkpt lat="-21.09697" lon="55.48384">
        <ele>2923.1</ele>
        <time>2013-05-05T04:26:31Z</time>
      </trkpt>
      <trkpt lat="-21.09697" lon="55.48384">
        <ele>2923.2</ele>
        <time>2013-05-05T04:26:32Z</time>
      </trkpt>
      <trkpt lat="-21.09693" lon="55.48367">
        <ele>2924.8</ele>
        <time>2013-05-05T04:27:00Z</time>
      </trkpt>
      <trkpt lat="-21.09693" lon="55.48357">
        <ele>2925.3</ele>
        <time>2013-05-05T04:27:13Z</time>
      </trkpt>
      <trkpt lat="-21.09687" lon="55.48351">
        <ele>2927.8</ele>
        <time>2013-05-05T04:27:30Z</time>
      </trkpt>
      <trkpt lat="-21.09681" lon="55.48343">
        <ele>2930.7</ele>
        <time>2013-05-05T04:27:57Z</time>
      </trkpt>
      <trkpt lat="-21.09681" lon="55.48343">
        <ele>2930.9</ele>
        <time>2013-05-05T04:27:58Z</time>
      </trkpt>
      <trkpt lat="-21.09671" lon="55.4833">
        <ele>2936.3</ele>
        <time>2013-05-05T04:28:49Z</time>
      </trkpt>
      <trkpt lat="-21.0967" lon="55.4832">
        <ele>2937.7</ele>
        <time>2013-05-05T04:29:17Z</time>
      </trkpt>
      <trkpt lat="-21.0967" lon="55.48319">
        <ele>2937.4</ele>
        <time>2013-05-05T04:29:18Z</time>
      </trkpt>
      <trkpt lat="-21.09664" lon="55.48303">
        <ele>2944.2</ele>
        <time>2013-05-05T04:30:04Z</time>
      </trkpt>
      <trkpt lat="-21.09663" lon="55.48293">
        <ele>2945.9</ele>
        <time>2013-05-05T04:30:23Z</time>
      </trkpt>
      <trkpt lat="-21.09663" lon="55.48293">
        <ele>2946</ele>
        <time>2013-05-05T04:30:24Z</time>
      </trkpt>
      <trkpt lat="-21.09664" lon="55.48276">
        <ele>2950.4</ele>
        <time>2013-05-05T04:31:08Z</time>
      </trkpt>
      <trkpt lat="-21.09663" lon="55.48267">
        <ele>2954.1</ele>
        <time>2013-05-05T04:31:31Z</time>
      </trkpt>
      <trkpt lat="-21.09663" lon="55.48266">
        <ele>2953.8</ele>
        <time>2013-05-05T04:31:32Z</time>
      </trkpt>
      <trkpt lat="-21.09659" lon="55.48249">
        <ele>2960.5</ele>
        <time>2013-05-05T04:32:25Z</time>
      </trkpt>
      <trkpt lat="-21.09658" lon="55.4824">
        <ele>2964</ele>
        <time>2013-05-05T04:32:52Z</time>
      </trkpt>
      <trkpt lat="-21.09658" lon="55.48239">
        <ele>2964</ele>
        <time>2013-05-05T04:32:53Z</time>
      </trkpt>
      <trkpt lat="-21.09652" lon="55.48222">
        <ele>2970.3</ele>
        <time>2013-05-05T04:33:57Z</time>
      </trkpt>
      <trkpt lat="-21.09652" lon="55.48222">
        <ele>2970.4</ele>
        <time>2013-05-05T04:33:58Z</time>
      </trkpt>
      <trkpt lat="-21.09649" lon="55.48204">
        <ele>2976.5</ele>
        <time>2013-05-05T04:35:03Z</time>
      </trkpt>
      <trkpt lat="-21.09649" lon="55.48204">
        <ele>2976.6</ele>
        <time>2013-05-05T04:35:04Z</time>
      </trkpt>
      <trkpt lat="-21.0964" lon="55.48191">
        <ele>2983.1</ele>
        <time>2013-05-05T04:36:01Z</time>
      </trkpt>
      <trkpt lat="-21.09635" lon="55.48183">
        <ele>2987</ele>
        <time>2013-05-05T04:36:36Z</time>
      </trkpt>
      <trkpt lat="-21.09635" lon="55.48182">
        <ele>2986.9</ele>
        <time>2013-05-05T04:36:37Z</time>
      </trkpt>
      <trkpt lat="-21.09633" lon="55.48164">
        <ele>2990.9</ele>
        <time>2013-05-05T04:37:17Z</time>
      </trkpt>
      <trkpt lat="-21.09627" lon="55.48158">
        <ele>2994.9</ele>
        <time>2013-05-05T04:37:40Z</time>
      </trkpt>
      <trkpt lat="-21.09626" lon="55.48157">
        <ele>2994.8</ele>
        <time>2013-05-05T04:37:41Z</time>
      </trkpt>
      <trkpt lat="-21.09622" lon="55.4814">
        <ele>3000.7</ele>
        <time>2013-05-05T04:38:25Z</time>
      </trkpt>
      <trkpt lat="-21.0962" lon="55.48131">
        <ele>3002.7</ele>
        <time>2013-05-05T04:38:47Z</time>
      </trkpt>
      <trkpt lat="-21.0962" lon="55.48131">
        <ele>3003</ele>
        <time>2013-05-05T04:38:48Z</time>
      </trkpt>
      <trkpt lat="-21.09612" lon="55.48114">
        <ele>3004.2</ele>
        <time>2013-05-05T04:39:23Z</time>
      </trkpt>
      <trkpt lat="-21.09615" lon="55.48105">
        <ele>3006.3</ele>
        <time>2013-05-05T04:39:38Z</time>
      </trkpt>
      <trkpt lat="-21.09619" lon="55.48097">
        <ele>3007.8</ele>
        <time>2013-05-05T04:40:01Z</time>
      </trkpt>
      <trkpt lat="-21.0962" lon="55.48096">
        <ele>3007.9</ele>
        <time>2013-05-05T04:40:02Z</time>
      </trkpt>
      <trkpt lat="-21.0963" lon="55.48083">
        <ele>3012.1</ele>
        <time>2013-05-05T04:40:39Z</time>
      </trkpt>
      <trkpt lat="-21.09636" lon="55.48076">
        <ele>3013.9</ele>
        <time>2013-05-05T04:40:54Z</time>
      </trkpt>
      <trkpt lat="-21.09641" lon="55.48069">
        <ele>3016.3</ele>
        <time>2013-05-05T04:41:19Z</time>
      </trkpt>
      <trkpt lat="-21.09642" lon="55.48068">
        <ele>3016.5</ele>
        <time>2013-05-05T04:41:20Z</time>
      </trkpt>
      <trkpt lat="-21.09653" lon="55.48055">
        <ele>3022.9</ele>
        <time>2013-05-05T04:41:55Z</time>
      </trkpt>
      <trkpt lat="-21.09659" lon="55.48048">
        <ele>3022.7</ele>
        <time>2013-05-05T04:42:06Z</time>
      </trkpt>
      <trkpt lat="-21.09663" lon="55.4804">
        <ele>3023.9</ele>
        <time>2013-05-05T04:42:15Z</time>
      </trkpt>
      <trkpt lat="-21.09667" lon="55.48032">
        <ele>3025.3</ele>
        <time>2013-05-05T04:42:25Z</time>
      </trkpt>
      <trkpt lat="-21.09667" lon="55.48031">
        <ele>3025.4</ele>
        <time>2013-05-05T04:42:26Z</time>
      </trkpt>
      <trkpt lat="-21.09678" lon="55.48019">
        <ele>3025.7</ele>
        <time>2013-05-05T04:42:44Z</time>
      </trkpt>
      <trkpt lat="-21.09685" lon="55.48014">
        <ele>3025.1</ele>
        <time>2013-05-05T04:42:54Z</time>
      </trkpt>
      <trkpt lat="-21.09693" lon="55.48011">
        <ele>3027.3</ele>
        <time>2013-05-05T04:43:03Z</time>
      </trkpt>
      <trkpt lat="-21.09701" lon="55.48007">
        <ele>3028.5</ele>
        <time>2013-05-05T04:43:13Z</time>
      </trkpt>
      <trkpt lat="-21.09709" lon="55.48004">
        <ele>3028</ele>
        <time>2013-05-05T04:43:22Z</time>
      </trkpt>
      <trkpt lat="-21.09717" lon="55.48002">
        <ele>3029.1</ele>
        <time>2013-05-05T04:43:33Z</time>
      </trkpt>
      <trkpt lat="-21.09718" lon="55.48001">
        <ele>3029.6</ele>
        <time>2013-05-05T04:43:34Z</time>
      </trkpt>
      <trkpt lat="-21.09731" lon="55.47992">
        <ele>3032</ele>
        <time>2013-05-05T04:43:52Z</time>
      </trkpt>
      <trkpt lat="-21.0974" lon="55.47991">
        <ele>3033.4</ele>
        <time>2013-05-05T04:44:03Z</time>
      </trkpt>
      <trkpt lat="-21.09748" lon="55.47989">
        <ele>3036.2</ele>
        <time>2013-05-05T04:44:14Z</time>
      </trkpt>
      <trkpt lat="-21.09757" lon="55.47989">
        <ele>3036.1</ele>
        <time>2013-05-05T04:44:24Z</time>
      </trkpt>
      <trkpt lat="-21.09765" lon="55.4799">
        <ele>3037.1</ele>
        <time>2013-05-05T04:44:34Z</time>
      </trkpt>
      <trkpt lat="-21.09766" lon="55.4799">
        <ele>3037.6</ele>
        <time>2013-05-05T04:44:35Z</time>
      </trkpt>
      <trkpt lat="-21.09781" lon="55.47983">
        <ele>3042</ele>
        <time>2013-05-05T04:44:55Z</time>
      </trkpt>
      <trkpt lat="-21.0979" lon="55.4798">
        <ele>3042.8</ele>
        <time>2013-05-05T04:45:05Z</time>
      </trkpt>
      <trkpt lat="-21.09798" lon="55.47981">
        <ele>3043.2</ele>
        <time>2013-05-05T04:45:17Z</time>
      </trkpt>
      <trkpt lat="-21.09807" lon="55.4798">
        <ele>3045.2</ele>
        <time>2013-05-05T04:45:30Z</time>
      </trkpt>
      <trkpt lat="-21.09816" lon="55.47978">
        <ele>3047.1</ele>
        <time>2013-05-05T04:45:42Z</time>
      </trkpt>
      <trkpt lat="-21.09816" lon="55.47978">
        <ele>3047.2</ele>
        <time>2013-05-05T04:45:43Z</time>
      </trkpt>
      <trkpt lat="-21.09833" lon="55.47978">
        <ele>3051.1</ele>
        <time>2013-05-05T04:46:17Z</time>
      </trkpt>
      <trkpt lat="-21.09836" lon="55.47976">
        <ele>3052.3</ele>
        <time>2013-05-05T04:48:03Z</time>
      </trkpt>
      <trkpt lat="-21.09836" lon="55.47976">
        <ele>3052.3</ele>
        <time>2013-05-05T04:48:03Z</time>
      </trkpt>
      <trkpt lat="-21.09836" lon="55.47976">
        <ele>3052.3</ele>
        <time>2013-05-05T04:48:03Z</time>
      </trkpt>
      <trkpt lat="-21.09836" lon="55.47976">
        <ele>3052.1</ele>
        <time>2013-05-05T04:48:06Z</time>
      </trkpt>
      <trkpt lat="-21.09843" lon="55.4798">
        <ele>3045.3</ele>
        <time>2013-05-05T06:18:24Z</time>
      </trkpt>
      <trkpt lat="-21.09841" lon="55.47979">
        <ele>3045.8</ele>
        <time>2013-05-05T06:18:41Z</time>
      </trkpt>
      <trkpt lat="-21.09841" lon="55.47979">
        <ele>3045.5</ele>
        <time>2013-05-05T06:18:43Z</time>
      </trkpt>
      <trkpt lat="-21.09833" lon="55.47976">
        <ele>3045.5</ele>
        <time>2013-05-05T06:24:42Z</time>
      </trkpt>
      <trkpt lat="-21.09824" lon="55.47976">
        <ele>3043.4</ele>
        <time>2013-05-05T06:24:51Z</time>
      </trkpt>
      <trkpt lat="-21.09816" lon="55.47976">
        <ele>3042.7</ele>
        <time>2013-05-05T06:24:59Z</time>
      </trkpt>
      <trkpt lat="-21.09807" lon="55.47978">
        <ele>3039.6</ele>
        <time>2013-05-05T06:25:07Z</time>
      </trkpt>
      <trkpt lat="-21.09798" lon="55.47976">
        <ele>3040</ele>
        <time>2013-05-05T06:25:13Z</time>
      </trkpt>
      <trkpt lat="-21.09791" lon="55.47977">
        <ele>3039.1</ele>
        <time>2013-05-05T06:25:18Z</time>
      </trkpt>
      <trkpt lat="-21.09783" lon="55.47977">
        <ele>3038.2</ele>
        <time>2013-05-05T06:25:23Z</time>
      </trkpt>
      <trkpt lat="-21.09776" lon="55.4798">
        <ele>3037.4</ele>
        <time>2013-05-05T06:25:28Z</time>
      </trkpt>
      <trkpt lat="-21.09768" lon="55.47983">
        <ele>3035.4</ele>
        <time>2013-05-05T06:25:34Z</time>
      </trkpt>
      <trkpt lat="-21.0976" lon="55.47984">
        <ele>3033.4</ele>
        <time>2013-05-05T06:25:39Z</time>
      </trkpt>
      <trkpt lat="-21.09759" lon="55.47984">
        <ele>3033</ele>
        <time>2013-05-05T06:25:40Z</time>
      </trkpt>
      <trkpt lat="-21.09744" lon="55.47984">
        <ele>3031.5</ele>
        <time>2013-05-05T06:25:51Z</time>
      </trkpt>
      <trkpt lat="-21.09735" lon="55.47986">
        <ele>3030.1</ele>
        <time>2013-05-05T06:26:00Z</time>
      </trkpt>
      <trkpt lat="-21.09726" lon="55.47988">
        <ele>3029</ele>
        <time>2013-05-05T06:26:07Z</time>
      </trkpt>
      <trkpt lat="-21.0972" lon="55.47993">
        <ele>3027.6</ele>
        <time>2013-05-05T06:26:13Z</time>
      </trkpt>
      <trkpt lat="-21.09712" lon="55.47997">
        <ele>3027.1</ele>
        <time>2013-05-05T06:26:19Z</time>
      </trkpt>
      <trkpt lat="-21.09703" lon="55.47999">
        <ele>3025.8</ele>
        <time>2013-05-05T06:26:25Z</time>
      </trkpt>
      <trkpt lat="-21.09697" lon="55.48003">
        <ele>3024.5</ele>
        <time>2013-05-05T06:26:30Z</time>
      </trkpt>
      <trkpt lat="-21.09689" lon="55.48005">
        <ele>3023.8</ele>
        <time>2013-05-05T06:26:35Z</time>
      </trkpt>
      <trkpt lat="-21.09682" lon="55.48007">
        <ele>3022.7</ele>
        <time>2013-05-05T06:26:41Z</time>
      </trkpt>
      <trkpt lat="-21.0968" lon="55.48008">
        <ele>3022.2</ele>
        <time>2013-05-05T06:26:42Z</time>
      </trkpt>
      <trkpt lat="-21.0967" lon="55.48019">
        <ele>3020.4</ele>
        <time>2013-05-05T06:26:53Z</time>
      </trkpt>
      <trkpt lat="-21.09665" lon="55.48026">
        <ele>3019.9</ele>
        <time>2013-05-05T06:26:58Z</time>
      </trkpt>
      <trkpt lat="-21.0966" lon="55.48033">
        <ele>3018.3</ele>
        <time>2013-05-05T06:27:03Z</time>
      </trkpt>
      <trkpt lat="-21.09657" lon="55.4804">
        <ele>3018.8</ele>
        <time>2013-05-05T06:27:09Z</time>
      </trkpt>
      <trkpt lat="-21.09651" lon="55.48046">
        <ele>3018.4</ele>
        <time>2013-05-05T06:27:15Z</time>
      </trkpt>
      <trkpt lat="-21.09646" lon="55.48052">
        <ele>3018.1</ele>
        <time>2013-05-05T06:27:21Z</time>
      </trkpt>
      <trkpt lat="-21.09642" lon="55.4806">
        <ele>3014.4</ele>
        <time>2013-05-05T06:27:32Z</time>
      </trkpt>
      <trkpt lat="-21.09636" lon="55.48067">
        <ele>3012</ele>
        <time>2013-05-05T06:27:43Z</time>
      </trkpt>
      <trkpt lat="-21.09635" lon="55.48068">
        <ele>3011.9</ele>
        <time>2013-05-05T06:27:44Z</time>
      </trkpt>
      <trkpt lat="-21.09626" lon="55.48081">
        <ele>3010.5</ele>
        <time>2013-05-05T06:28:01Z</time>
      </trkpt>
      <trkpt lat="-21.09621" lon="55.48089">
        <ele>3006.4</ele>
        <time>2013-05-05T06:28:11Z</time>
      </trkpt>
      <trkpt lat="-21.09615" lon="55.48096">
        <ele>3004.9</ele>
        <time>2013-05-05T06:28:26Z</time>
      </trkpt>
      <trkpt lat="-21.09613" lon="55.48105">
        <ele>3003.6</ele>
        <time>2013-05-05T06:28:36Z</time>
      </trkpt>
      <trkpt lat="-21.0961" lon="55.48113">
        <ele>3002.8</ele>
        <time>2013-05-05T06:28:46Z</time>
      </trkpt>
      <trkpt lat="-21.09611" lon="55.48114">
        <ele>3002.4</ele>
        <time>2013-05-05T06:28:47Z</time>
      </trkpt>
      <trkpt lat="-21.09614" lon="55.48131">
        <ele>3000.8</ele>
        <time>2013-05-05T06:29:04Z</time>
      </trkpt>
      <trkpt lat="-21.09615" lon="55.4814">
        <ele>2998.5</ele>
        <time>2013-05-05T06:29:18Z</time>
      </trkpt>
      <trkpt lat="-21.09617" lon="55.48149">
        <ele>2996</ele>
        <time>2013-05-05T06:29:28Z</time>
      </trkpt>
      <trkpt lat="-21.0962" lon="55.48157">
        <ele>2994</ele>
        <time>2013-05-05T06:29:35Z</time>
      </trkpt>
      <trkpt lat="-21.09626" lon="55.48163">
        <ele>2990.7</ele>
        <time>2013-05-05T06:29:47Z</time>
      </trkpt>
      <trkpt lat="-21.09626" lon="55.48164">
        <ele>2990.4</ele>
        <time>2013-05-05T06:29:48Z</time>
      </trkpt>
      <trkpt lat="-21.09629" lon="55.48181">
        <ele>2986.2</ele>
        <time>2013-05-05T06:30:09Z</time>
      </trkpt>
      <trkpt lat="-21.0963" lon="55.48191">
        <ele>2983.4</ele>
        <time>2013-05-05T06:30:26Z</time>
      </trkpt>
      <trkpt lat="-21.09631" lon="55.48199">
        <ele>2982.3</ele>
        <time>2013-05-05T06:30:34Z</time>
      </trkpt>
      <trkpt lat="-21.09638" lon="55.48204">
        <ele>2980.3</ele>
        <time>2013-05-05T06:30:49Z</time>
      </trkpt>
      <trkpt lat="-21.09639" lon="55.48204">
        <ele>2979.9</ele>
        <time>2013-05-05T06:30:50Z</time>
      </trkpt>
      <trkpt lat="-21.09644" lon="55.4822">
        <ele>2972.1</ele>
        <time>2013-05-05T06:31:16Z</time>
      </trkpt>
      <trkpt lat="-21.09652" lon="55.48225">
        <ele>2969.4</ele>
        <time>2013-05-05T06:31:35Z</time>
      </trkpt>
      <trkpt lat="-21.09653" lon="55.48233">
        <ele>2967.9</ele>
        <time>2013-05-05T06:31:54Z</time>
      </trkpt>
      <trkpt lat="-21.09653" lon="55.48234">
        <ele>2967.1</ele>
        <time>2013-05-05T06:31:55Z</time>
      </trkpt>
      <trkpt lat="-21.09658" lon="55.48251">
        <ele>2959.8</ele>
        <time>2013-05-05T06:32:23Z</time>
      </trkpt>
      <trkpt lat="-21.09657" lon="55.4826">
        <ele>2957.1</ele>
        <time>2013-05-05T06:32:39Z</time>
      </trkpt>
      <trkpt lat="-21.09658" lon="55.48269">
        <ele>2954</ele>
        <time>2013-05-05T06:32:54Z</time>
      </trkpt>
      <trkpt lat="-21.0966" lon="55.48279">
        <ele>2951.5</ele>
        <time>2013-05-05T06:33:07Z</time>
      </trkpt>
      <trkpt lat="-21.0966" lon="55.48279">
        <ele>2951.4</ele>
        <time>2013-05-05T06:33:08Z</time>
      </trkpt>
      <trkpt lat="-21.09666" lon="55.48287">
        <ele>2952.4</ele>
        <time>2013-05-05T06:35:33Z</time>
      </trkpt>
      <trkpt lat="-21.09665" lon="55.48304">
        <ele>2946.2</ele>
        <time>2013-05-05T06:35:56Z</time>
      </trkpt>
      <trkpt lat="-21.09665" lon="55.48313">
        <ele>2944.3</ele>
        <time>2013-05-05T06:36:09Z</time>
      </trkpt>
      <trkpt lat="-21.09665" lon="55.48322">
        <ele>2942.6</ele>
        <time>2013-05-05T06:36:19Z</time>
      </trkpt>
      <trkpt lat="-21.09668" lon="55.4833">
        <ele>2940.4</ele>
        <time>2013-05-05T06:36:32Z</time>
      </trkpt>
      <trkpt lat="-21.09673" lon="55.48338">
        <ele>2938</ele>
        <time>2013-05-05T06:36:46Z</time>
      </trkpt>
      <trkpt lat="-21.09674" lon="55.48339">
        <ele>2937.5</ele>
        <time>2013-05-05T06:36:47Z</time>
      </trkpt>
      <trkpt lat="-21.09684" lon="55.48352">
        <ele>2933.8</ele>
        <time>2013-05-05T06:37:08Z</time>
      </trkpt>
      <trkpt lat="-21.09689" lon="55.48359">
        <ele>2931.5</ele>
        <time>2013-05-05T06:37:17Z</time>
      </trkpt>
      <trkpt lat="-21.09692" lon="55.48367">
        <ele>2930.7</ele>
        <time>2013-05-05T06:37:25Z</time>
      </trkpt>
      <trkpt lat="-21.09696" lon="55.48374">
        <ele>2930.2</ele>
        <time>2013-05-05T06:37:35Z</time>
      </trkpt>
      <trkpt lat="-21.09697" lon="55.48383">
        <ele>2929.7</ele>
        <time>2013-05-05T06:37:43Z</time>
      </trkpt>
      <trkpt lat="-21.09696" lon="55.48393">
        <ele>2928.1</ele>
        <time>2013-05-05T06:37:56Z</time>
      </trkpt>
      <trkpt lat="-21.09696" lon="55.48393">
        <ele>2927.8</ele>
        <time>2013-05-05T06:37:57Z</time>
      </trkpt>
      <trkpt lat="-21.09706" lon="55.48405">
        <ele>2922.8</ele>
        <time>2013-05-05T06:38:21Z</time>
      </trkpt>
      <trkpt lat="-21.09711" lon="55.48413">
        <ele>2921</ele>
        <time>2013-05-05T06:38:31Z</time>
      </trkpt>
      <trkpt lat="-21.09715" lon="55.4842">
        <ele>2919.5</ele>
        <time>2013-05-05T06:38:43Z</time>
      </trkpt>
      <trkpt lat="-21.09719" lon="55.48429">
        <ele>2917.4</ele>
        <time>2013-05-05T06:38:53Z</time>
      </trkpt>
      <trkpt lat="-21.09723" lon="55.48437">
        <ele>2916.2</ele>
        <time>2013-05-05T06:39:03Z</time>
      </trkpt>
      <trkpt lat="-21.09724" lon="55.48438">
        <ele>2915.8</ele>
        <time>2013-05-05T06:39:04Z</time>
      </trkpt>
      <trkpt lat="-21.09733" lon="55.48451">
        <ele>2912.8</ele>
        <time>2013-05-05T06:39:18Z</time>
      </trkpt>
      <trkpt lat="-21.09742" lon="55.4845">
        <ele>2910.2</ele>
        <time>2013-05-05T06:39:30Z</time>
      </trkpt>
      <trkpt lat="-21.09746" lon="55.48458">
        <ele>2907.5</ele>
        <time>2013-05-05T06:39:43Z</time>
      </trkpt>
      <trkpt lat="-21.09747" lon="55.48467">
        <ele>2906.6</ele>
        <time>2013-05-05T06:39:52Z</time>
      </trkpt>
      <trkpt lat="-21.09755" lon="55.48471">
        <ele>2903.6</ele>
        <time>2013-05-05T06:40:01Z</time>
      </trkpt>
      <trkpt lat="-21.09762" lon="55.48476">
        <ele>2901.8</ele>
        <time>2013-05-05T06:40:22Z</time>
      </trkpt>
      <trkpt lat="-21.09762" lon="55.48478">
        <ele>2901.3</ele>
        <time>2013-05-05T06:40:23Z</time>
      </trkpt>
      <trkpt lat="-21.09765" lon="55.48494">
        <ele>2899.1</ele>
        <time>2013-05-05T06:40:41Z</time>
      </trkpt>
      <trkpt lat="-21.09768" lon="55.48502">
        <ele>2897.9</ele>
        <time>2013-05-05T06:40:49Z</time>
      </trkpt>
      <trkpt lat="-21.09772" lon="55.4851">
        <ele>2896.8</ele>
        <time>2013-05-05T06:41:03Z</time>
      </trkpt>
      <trkpt lat="-21.09775" lon="55.48519">
        <ele>2897</ele>
        <time>2013-05-05T06:41:13Z</time>
      </trkpt>
      <trkpt lat="-21.09777" lon="55.48528">
        <ele>2895.6</ele>
        <time>2013-05-05T06:41:22Z</time>
      </trkpt>
      <trkpt lat="-21.09782" lon="55.48535">
        <ele>2895.1</ele>
        <time>2013-05-05T06:41:30Z</time>
      </trkpt>
      <trkpt lat="-21.09782" lon="55.48536">
        <ele>2895.1</ele>
        <time>2013-05-05T06:41:31Z</time>
      </trkpt>
      <trkpt lat="-21.09787" lon="55.48552">
        <ele>2892.9</ele>
        <time>2013-05-05T06:41:48Z</time>
      </trkpt>
      <trkpt lat="-21.0979" lon="55.48561">
        <ele>2891.1</ele>
        <time>2013-05-05T06:41:57Z</time>
      </trkpt>
      <trkpt lat="-21.09784" lon="55.48568">
        <ele>2890.9</ele>
        <time>2013-05-05T06:42:10Z</time>
      </trkpt>
      <trkpt lat="-21.09779" lon="55.48575">
        <ele>2890</ele>
        <time>2013-05-05T06:42:18Z</time>
      </trkpt>
      <trkpt lat="-21.09777" lon="55.48584">
        <ele>2889.9</ele>
        <time>2013-05-05T06:42:29Z</time>
      </trkpt>
      <trkpt lat="-21.09779" lon="55.48593">
        <ele>2886</ele>
        <time>2013-05-05T06:42:40Z</time>
      </trkpt>
      <trkpt lat="-21.09779" lon="55.48595">
        <ele>2885.6</ele>
        <time>2013-05-05T06:42:41Z</time>
      </trkpt>
      <trkpt lat="-21.09775" lon="55.4861">
        <ele>2883.7</ele>
        <time>2013-05-05T06:42:54Z</time>
      </trkpt>
      <trkpt lat="-21.09771" lon="55.48618">
        <ele>2882.7</ele>
        <time>2013-05-05T06:43:03Z</time>
      </trkpt>
      <trkpt lat="-21.09774" lon="55.48627">
        <ele>2880.5</ele>
        <time>2013-05-05T06:43:12Z</time>
      </trkpt>
      <trkpt lat="-21.09778" lon="55.48636">
        <ele>2878.3</ele>
        <time>2013-05-05T06:43:22Z</time>
      </trkpt>
      <trkpt lat="-21.0978" lon="55.48645">
        <ele>2876.1</ele>
        <time>2013-05-05T06:43:34Z</time>
      </trkpt>
      <trkpt lat="-21.09784" lon="55.48652">
        <ele>2873.8</ele>
        <time>2013-05-05T06:43:44Z</time>
      </trkpt>
      <trkpt lat="-21.09784" lon="55.48653">
        <ele>2873.5</ele>
        <time>2013-05-05T06:43:45Z</time>
      </trkpt>
      <trkpt lat="-21.09796" lon="55.48663">
        <ele>2870.9</ele>
        <time>2013-05-05T06:44:04Z</time>
      </trkpt>
      <trkpt lat="-21.09804" lon="55.48664">
        <ele>2867.7</ele>
        <time>2013-05-05T06:44:15Z</time>
      </trkpt>
      <trkpt lat="-21.09813" lon="55.48663">
        <ele>2865.9</ele>
        <time>2013-05-05T06:44:24Z</time>
      </trkpt>
      <trkpt lat="-21.09821" lon="55.48661">
        <ele>2864.7</ele>
        <time>2013-05-05T06:44:32Z</time>
      </trkpt>
      <trkpt lat="-21.09826" lon="55.48655">
        <ele>2862.7</ele>
        <time>2013-05-05T06:44:39Z</time>
      </trkpt>
      <trkpt lat="-21.09833" lon="55.4865">
        <ele>2860.9</ele>
        <time>2013-05-05T06:44:53Z</time>
      </trkpt>
      <trkpt lat="-21.09834" lon="55.4865">
        <ele>2860.5</ele>
        <time>2013-05-05T06:44:54Z</time>
      </trkpt>
      <trkpt lat="-21.09848" lon="55.48659">
        <ele>2859.6</ele>
        <time>2013-05-05T06:45:15Z</time>
      </trkpt>
      <trkpt lat="-21.09853" lon="55.48666">
        <ele>2860.7</ele>
        <time>2013-05-05T06:45:23Z</time>
      </trkpt>
      <trkpt lat="-21.09853" lon="55.48674">
        <ele>2861.3</ele>
        <time>2013-05-05T06:45:30Z</time>
      </trkpt>
      <trkpt lat="-21.09853" lon="55.48683">
        <ele>2860.6</ele>
        <time>2013-05-05T06:45:37Z</time>
      </trkpt>
      <trkpt lat="-21.09859" lon="55.48689">
        <ele>2862.8</ele>
        <time>2013-05-05T06:45:49Z</time>
      </trkpt>
      <trkpt lat="-21.09865" lon="55.48696">
        <ele>2862.1</ele>
        <time>2013-05-05T06:45:57Z</time>
      </trkpt>
      <trkpt lat="-21.09866" lon="55.48697">
        <ele>2861.9</ele>
        <time>2013-05-05T06:45:58Z</time>
      </trkpt>
      <trkpt lat="-21.09879" lon="55.48707">
        <ele>2859.6</ele>
        <time>2013-05-05T06:46:10Z</time>
      </trkpt>
      <trkpt lat="-21.09885" lon="55.48714">
        <ele>2859.6</ele>
        <time>2013-05-05T06:46:18Z</time>
      </trkpt>
      <trkpt lat="-21.09886" lon="55.48723">
        <ele>2860.2</ele>
        <time>2013-05-05T06:46:27Z</time>
      </trkpt>
      <trkpt lat="-21.09891" lon="55.4873">
        <ele>2859.5</ele>
        <time>2013-05-05T06:46:35Z</time>
      </trkpt>
      <trkpt lat="-21.09898" lon="55.48735">
        <ele>2861.4</ele>
        <time>2013-05-05T06:46:45Z</time>
      </trkpt>
      <trkpt lat="-21.09903" lon="55.48742">
        <ele>2861.7</ele>
        <time>2013-05-05T06:46:54Z</time>
      </trkpt>
      <trkpt lat="-21.09909" lon="55.48749">
        <ele>2861.4</ele>
        <time>2013-05-05T06:47:01Z</time>
      </trkpt>
      <trkpt lat="-21.09909" lon="55.4875">
        <ele>2861.7</ele>
        <time>2013-05-05T06:47:02Z</time>
      </trkpt>
      <trkpt lat="-21.09918" lon="55.48763">
        <ele>2862.3</ele>
        <time>2013-05-05T06:47:17Z</time>
      </trkpt>
      <trkpt lat="-21.09923" lon="55.48769">
        <ele>2863.7</ele>
        <time>2013-05-05T06:47:30Z</time>
      </trkpt>
      <trkpt lat="-21.09927" lon="55.48778">
        <ele>2863.6</ele>
        <time>2013-05-05T06:47:40Z</time>
      </trkpt>
      <trkpt lat="-21.09931" lon="55.48785">
        <ele>2864</ele>
        <time>2013-05-05T06:47:51Z</time>
      </trkpt>
      <trkpt lat="-21.09933" lon="55.48794">
        <ele>2865.4</ele>
        <time>2013-05-05T06:48:02Z</time>
      </trkpt>
      <trkpt lat="-21.09934" lon="55.48794">
        <ele>2865.2</ele>
        <time>2013-05-05T06:48:03Z</time>
      </trkpt>
      <trkpt lat="-21.09949" lon="55.48796">
        <ele>2865.1</ele>
        <time>2013-05-05T06:48:20Z</time>
      </trkpt>
      <trkpt lat="-21.09957" lon="55.48795">
        <ele>2864.4</ele>
        <time>2013-05-05T06:48:27Z</time>
      </trkpt>
      <trkpt lat="-21.09966" lon="55.48794">
        <ele>2863.9</ele>
        <time>2013-05-05T06:48:38Z</time>
      </trkpt>
      <trkpt lat="-21.09974" lon="55.48792">
        <ele>2862.7</ele>
        <time>2013-05-05T06:48:54Z</time>
      </trkpt>
      <trkpt lat="-21.09982" lon="55.48789">
        <ele>2859.3</ele>
        <time>2013-05-05T06:49:05Z</time>
      </trkpt>
      <trkpt lat="-21.09983" lon="55.48789">
        <ele>2859.1</ele>
        <time>2013-05-05T06:49:06Z</time>
      </trkpt>
      <trkpt lat="-21.09998" lon="55.48782">
        <ele>2857.7</ele>
        <time>2013-05-05T06:49:21Z</time>
      </trkpt>
      <trkpt lat="-21.10006" lon="55.48778">
        <ele>2857.8</ele>
        <time>2013-05-05T06:49:28Z</time>
      </trkpt>
      <trkpt lat="-21.10013" lon="55.48775">
        <ele>2858.5</ele>
        <time>2013-05-05T06:49:35Z</time>
      </trkpt>
      <trkpt lat="-21.10022" lon="55.48773">
        <ele>2857.1</ele>
        <time>2013-05-05T06:49:47Z</time>
      </trkpt>
      <trkpt lat="-21.1003" lon="55.48775">
        <ele>2854.7</ele>
        <time>2013-05-05T06:50:00Z</time>
      </trkpt>
      <trkpt lat="-21.10039" lon="55.48774">
        <ele>2853.9</ele>
        <time>2013-05-05T06:50:11Z</time>
      </trkpt>
      <trkpt lat="-21.1004" lon="55.48774">
        <ele>2853.8</ele>
        <time>2013-05-05T06:50:12Z</time>
      </trkpt>
      <trkpt lat="-21.10055" lon="55.48772">
        <ele>2853.2</ele>
        <time>2013-05-05T06:50:30Z</time>
      </trkpt>
      <trkpt lat="-21.10064" lon="55.48773">
        <ele>2851.5</ele>
        <time>2013-05-05T06:50:40Z</time>
      </trkpt>
      <trkpt lat="-21.10072" lon="55.48771">
        <ele>2849.9</ele>
        <time>2013-05-05T06:50:51Z</time>
      </trkpt>
      <trkpt lat="-21.1008" lon="55.48768">
        <ele>2848.4</ele>
        <time>2013-05-05T06:51:02Z</time>
      </trkpt>
      <trkpt lat="-21.10087" lon="55.48763">
        <ele>2849.4</ele>
        <time>2013-05-05T06:51:12Z</time>
      </trkpt>
      <trkpt lat="-21.10088" lon="55.48763">
        <ele>2848.5</ele>
        <time>2013-05-05T06:51:13Z</time>
      </trkpt>
      <trkpt lat="-21.101" lon="55.4877">
        <ele>2843.4</ele>
        <time>2013-05-05T06:51:34Z</time>
      </trkpt>
      <trkpt lat="-21.10109" lon="55.48773">
        <ele>2840.3</ele>
        <time>2013-05-05T06:52:41Z</time>
      </trkpt>
      <trkpt lat="-21.10109" lon="55.48774">
        <ele>2840.4</ele>
        <time>2013-05-05T06:52:42Z</time>
      </trkpt>
      <trkpt lat="-21.10109" lon="55.48792">
        <ele>2837.9</ele>
        <time>2013-05-05T06:53:13Z</time>
      </trkpt>
      <trkpt lat="-21.10108" lon="55.48801">
        <ele>2835.5</ele>
        <time>2013-05-05T06:53:23Z</time>
      </trkpt>
      <trkpt lat="-21.1011" lon="55.4881">
        <ele>2834.7</ele>
        <time>2013-05-05T06:53:33Z</time>
      </trkpt>
      <trkpt lat="-21.10114" lon="55.48819">
        <ele>2832</ele>
        <time>2013-05-05T06:53:43Z</time>
      </trkpt>
      <trkpt lat="-21.10114" lon="55.48819">
        <ele>2831.8</ele>
        <time>2013-05-05T06:53:44Z</time>
      </trkpt>
      <trkpt lat="-21.10119" lon="55.48835">
        <ele>2829.2</ele>
        <time>2013-05-05T06:54:01Z</time>
      </trkpt>
      <trkpt lat="-21.10119" lon="55.48845">
        <ele>2827.3</ele>
        <time>2013-05-05T06:54:11Z</time>
      </trkpt>
      <trkpt lat="-21.10115" lon="55.48852">
        <ele>2825.8</ele>
        <time>2013-05-05T06:54:20Z</time>
      </trkpt>
      <trkpt lat="-21.10115" lon="55.48861">
        <ele>2824.7</ele>
        <time>2013-05-05T06:54:28Z</time>
      </trkpt>
      <trkpt lat="-21.10119" lon="55.48869">
        <ele>2824.8</ele>
        <time>2013-05-05T06:54:35Z</time>
      </trkpt>
      <trkpt lat="-21.10124" lon="55.48877">
        <ele>2823.7</ele>
        <time>2013-05-05T06:54:46Z</time>
      </trkpt>
      <trkpt lat="-21.10124" lon="55.48878">
        <ele>2823.3</ele>
        <time>2013-05-05T06:54:47Z</time>
      </trkpt>
      <trkpt lat="-21.10125" lon="55.48894">
        <ele>2823.3</ele>
        <time>2013-05-05T06:55:00Z</time>
      </trkpt>
      <trkpt lat="-21.1013" lon="55.48903">
        <ele>2821</ele>
        <time>2013-05-05T06:55:10Z</time>
      </trkpt>
      <trkpt lat="-21.10135" lon="55.48909">
        <ele>2819.6</ele>
        <time>2013-05-05T06:55:18Z</time>
      </trkpt>
      <trkpt lat="-21.10135" lon="55.48918">
        <ele>2817.7</ele>
        <time>2013-05-05T06:55:26Z</time>
      </trkpt>
      <trkpt lat="-21.10138" lon="55.48927">
        <ele>2817</ele>
        <time>2013-05-05T06:55:36Z</time>
      </trkpt>
      <trkpt lat="-21.10143" lon="55.48935">
        <ele>2814</ele>
        <time>2013-05-05T06:55:47Z</time>
      </trkpt>
      <trkpt lat="-21.10143" lon="55.48936">
        <ele>2813.8</ele>
        <time>2013-05-05T06:55:48Z</time>
      </trkpt>
      <trkpt lat="-21.10155" lon="55.48948">
        <ele>2813.7</ele>
        <time>2013-05-05T06:56:02Z</time>
      </trkpt>
      <trkpt lat="-21.10161" lon="55.48954">
        <ele>2811.6</ele>
        <time>2013-05-05T06:56:12Z</time>
      </trkpt>
      <trkpt lat="-21.10165" lon="55.48962">
        <ele>2810.6</ele>
        <time>2013-05-05T06:56:22Z</time>
      </trkpt>
      <trkpt lat="-21.10169" lon="55.48969">
        <ele>2808.7</ele>
        <time>2013-05-05T06:56:32Z</time>
      </trkpt>
      <trkpt lat="-21.10172" lon="55.48978">
        <ele>2806.9</ele>
        <time>2013-05-05T06:56:40Z</time>
      </trkpt>
      <trkpt lat="-21.10175" lon="55.48986">
        <ele>2804.6</ele>
        <time>2013-05-05T06:56:49Z</time>
      </trkpt>
      <trkpt lat="-21.10175" lon="55.48987">
        <ele>2804.8</ele>
        <time>2013-05-05T06:56:50Z</time>
      </trkpt>
      <trkpt lat="-21.10184" lon="55.49001">
        <ele>2803.6</ele>
        <time>2013-05-05T06:57:08Z</time>
      </trkpt>
      <trkpt lat="-21.10187" lon="55.49009">
        <ele>2803</ele>
        <time>2013-05-05T06:57:17Z</time>
      </trkpt>
      <trkpt lat="-21.10192" lon="55.49017">
        <ele>2801.3</ele>
        <time>2013-05-05T06:57:27Z</time>
      </trkpt>
      <trkpt lat="-21.102" lon="55.49021">
        <ele>2800.5</ele>
        <time>2013-05-05T06:57:37Z</time>
      </trkpt>
      <trkpt lat="-21.10204" lon="55.49029">
        <ele>2798.3</ele>
        <time>2013-05-05T06:57:49Z</time>
      </trkpt>
      <trkpt lat="-21.10208" lon="55.49037">
        <ele>2795.4</ele>
        <time>2013-05-05T06:58:02Z</time>
      </trkpt>
      <trkpt lat="-21.10209" lon="55.49038">
        <ele>2795.3</ele>
        <time>2013-05-05T06:58:03Z</time>
      </trkpt>
      <trkpt lat="-21.10213" lon="55.49056">
        <ele>2791.6</ele>
        <time>2013-05-05T06:58:21Z</time>
      </trkpt>
      <trkpt lat="-21.10221" lon="55.49058">
        <ele>2790.7</ele>
        <time>2013-05-05T06:58:29Z</time>
      </trkpt>
      <trkpt lat="-21.10227" lon="55.49064">
        <ele>2787.5</ele>
        <time>2013-05-05T06:58:38Z</time>
      </trkpt>
      <trkpt lat="-21.10235" lon="55.49069">
        <ele>2786.3</ele>
        <time>2013-05-05T06:58:50Z</time>
      </trkpt>
      <trkpt lat="-21.10241" lon="55.49076">
        <ele>2783.6</ele>
        <time>2013-05-05T06:59:02Z</time>
      </trkpt>
      <trkpt lat="-21.10249" lon="55.4908">
        <ele>2780.5</ele>
        <time>2013-05-05T06:59:12Z</time>
      </trkpt>
      <trkpt lat="-21.10249" lon="55.4908">
        <ele>2780.4</ele>
        <time>2013-05-05T06:59:13Z</time>
      </trkpt>
      <trkpt lat="-21.10266" lon="55.49082">
        <ele>2777.9</ele>
        <time>2013-05-05T06:59:31Z</time>
      </trkpt>
      <trkpt lat="-21.10274" lon="55.49083">
        <ele>2776.3</ele>
        <time>2013-05-05T06:59:41Z</time>
      </trkpt>
      <trkpt lat="-21.1028" lon="55.49089">
        <ele>2774</ele>
        <time>2013-05-05T06:59:52Z</time>
      </trkpt>
      <trkpt lat="-21.10286" lon="55.49096">
        <ele>2770.5</ele>
        <time>2013-05-05T07:00:06Z</time>
      </trkpt>
      <trkpt lat="-21.10291" lon="55.49104">
        <ele>2769.3</ele>
        <time>2013-05-05T07:00:18Z</time>
      </trkpt>
      <trkpt lat="-21.10291" lon="55.49105">
        <ele>2768.8</ele>
        <time>2013-05-05T07:00:19Z</time>
      </trkpt>
      <trkpt lat="-21.10306" lon="55.49112">
        <ele>2763.2</ele>
        <time>2013-05-05T07:00:42Z</time>
      </trkpt>
      <trkpt lat="-21.10314" lon="55.49116">
        <ele>2759.8</ele>
        <time>2013-05-05T07:00:53Z</time>
      </trkpt>
      <trkpt lat="-21.10322" lon="55.49118">
        <ele>2757.9</ele>
        <time>2013-05-05T07:01:03Z</time>
      </trkpt>
      <trkpt lat="-21.10331" lon="55.49121">
        <ele>2756.8</ele>
        <time>2013-05-05T07:01:12Z</time>
      </trkpt>
      <trkpt lat="-21.10339" lon="55.49125">
        <ele>2755.2</ele>
        <time>2013-05-05T07:01:22Z</time>
      </trkpt>
      <trkpt lat="-21.10339" lon="55.49125">
        <ele>2755</ele>
        <time>2013-05-05T07:01:23Z</time>
      </trkpt>
      <trkpt lat="-21.10351" lon="55.49138">
        <ele>2750.7</ele>
        <time>2013-05-05T07:01:44Z</time>
      </trkpt>
      <trkpt lat="-21.10359" lon="55.4914">
        <ele>2748.2</ele>
        <time>2013-05-05T07:01:53Z</time>
      </trkpt>
      <trkpt lat="-21.10365" lon="55.49147">
        <ele>2746.6</ele>
        <time>2013-05-05T07:02:02Z</time>
      </trkpt>
      <trkpt lat="-21.10371" lon="55.49154">
        <ele>2744.7</ele>
        <time>2013-05-05T07:02:13Z</time>
      </trkpt>
      <trkpt lat="-21.10371" lon="55.49163">
        <ele>2743.3</ele>
        <time>2013-05-05T07:02:22Z</time>
      </trkpt>
      <trkpt lat="-21.10371" lon="55.49172">
        <ele>2741.8</ele>
        <time>2013-05-05T07:02:30Z</time>
      </trkpt>
      <trkpt lat="-21.10371" lon="55.49173">
        <ele>2741.6</ele>
        <time>2013-05-05T07:02:31Z</time>
      </trkpt>
      <trkpt lat="-21.10379" lon="55.49187">
        <ele>2739.2</ele>
        <time>2013-05-05T07:02:47Z</time>
      </trkpt>
      <trkpt lat="-21.1038" lon="55.49197">
        <ele>2737.2</ele>
        <time>2013-05-05T07:02:55Z</time>
      </trkpt>
      <trkpt lat="-21.10388" lon="55.49199">
        <ele>2736.2</ele>
        <time>2013-05-05T07:03:06Z</time>
      </trkpt>
      <trkpt lat="-21.10396" lon="55.492">
        <ele>2734.1</ele>
        <time>2013-05-05T07:03:16Z</time>
      </trkpt>
      <trkpt lat="-21.10402" lon="55.49207">
        <ele>2731.4</ele>
        <time>2013-05-05T07:03:28Z</time>
      </trkpt>
      <trkpt lat="-21.10405" lon="55.49215">
        <ele>2728</ele>
        <time>2013-05-05T07:03:38Z</time>
      </trkpt>
      <trkpt lat="-21.10406" lon="55.49217">
        <ele>2727.9</ele>
        <time>2013-05-05T07:03:39Z</time>
      </trkpt>
      <trkpt lat="-21.10418" lon="55.49222">
        <ele>2724</ele>
        <time>2013-05-05T07:04:02Z</time>
      </trkpt>
      <trkpt lat="-21.10425" lon="55.49226">
        <ele>2721.3</ele>
        <time>2013-05-05T07:04:11Z</time>
      </trkpt>
      <trkpt lat="-21.10434" lon="55.49227">
        <ele>2717.7</ele>
        <time>2013-05-05T07:04:23Z</time>
      </trkpt>
      <trkpt lat="-21.10442" lon="55.49229">
        <ele>2714</ele>
        <time>2013-05-05T07:04:36Z</time>
      </trkpt>
      <trkpt lat="-21.1045" lon="55.49228">
        <ele>2711.9</ele>
        <time>2013-05-05T07:04:46Z</time>
      </trkpt>
      <trkpt lat="-21.10451" lon="55.49228">
        <ele>2711.6</ele>
        <time>2013-05-05T07:04:47Z</time>
      </trkpt>
      <trkpt lat="-21.10467" lon="55.49233">
        <ele>2704.7</ele>
        <time>2013-05-05T07:05:15Z</time>
      </trkpt>
      <trkpt lat="-21.10471" lon="55.49241">
        <ele>2702.3</ele>
        <time>2013-05-05T07:05:25Z</time>
      </trkpt>
      <trkpt lat="-21.10479" lon="55.49245">
        <ele>2699.8</ele>
        <time>2013-05-05T07:05:37Z</time>
      </trkpt>
      <trkpt lat="-21.10487" lon="55.49244">
        <ele>2695.1</ele>
        <time>2013-05-05T07:05:52Z</time>
      </trkpt>
      <trkpt lat="-21.10488" lon="55.49244">
        <ele>2694.8</ele>
        <time>2013-05-05T07:05:53Z</time>
      </trkpt>
      <trkpt lat="-21.10504" lon="55.49244">
        <ele>2691.2</ele>
        <time>2013-05-05T07:06:15Z</time>
      </trkpt>
      <trkpt lat="-21.10513" lon="55.49246">
        <ele>2688.9</ele>
        <time>2013-05-05T07:06:25Z</time>
      </trkpt>
      <trkpt lat="-21.10521" lon="55.49246">
        <ele>2686.1</ele>
        <time>2013-05-05T07:06:39Z</time>
      </trkpt>
      <trkpt lat="-21.1053" lon="55.49246">
        <ele>2685.2</ele>
        <time>2013-05-05T07:06:49Z</time>
      </trkpt>
      <trkpt lat="-21.10536" lon="55.49253">
        <ele>2682</ele>
        <time>2013-05-05T07:07:02Z</time>
      </trkpt>
      <trkpt lat="-21.10536" lon="55.49253">
        <ele>2681.9</ele>
        <time>2013-05-05T07:07:03Z</time>
      </trkpt>
      <trkpt lat="-21.10545" lon="55.49268">
        <ele>2673.8</ele>
        <time>2013-05-05T07:07:27Z</time>
      </trkpt>
      <trkpt lat="-21.10553" lon="55.49269">
        <ele>2671.3</ele>
        <time>2013-05-05T07:07:39Z</time>
      </trkpt>
      <trkpt lat="-21.10558" lon="55.49276">
        <ele>2669.1</ele>
        <time>2013-05-05T07:07:51Z</time>
      </trkpt>
      <trkpt lat="-21.10566" lon="55.4928">
        <ele>2666.1</ele>
        <time>2013-05-05T07:08:03Z</time>
      </trkpt>
      <trkpt lat="-21.10567" lon="55.49281">
        <ele>2665.4</ele>
        <time>2013-05-05T07:08:04Z</time>
      </trkpt>
      <trkpt lat="-21.1058" lon="55.4929">
        <ele>2660.7</ele>
        <time>2013-05-05T07:08:23Z</time>
      </trkpt>
      <trkpt lat="-21.10588" lon="55.49294">
        <ele>2659.8</ele>
        <time>2013-05-05T07:08:31Z</time>
      </trkpt>
      <trkpt lat="-21.10596" lon="55.49292">
        <ele>2657.4</ele>
        <time>2013-05-05T07:08:41Z</time>
      </trkpt>
      <trkpt lat="-21.10604" lon="55.49296">
        <ele>2654.9</ele>
        <time>2013-05-05T07:08:54Z</time>
      </trkpt>
      <trkpt lat="-21.10608" lon="55.49304">
        <ele>2653.1</ele>
        <time>2013-05-05T07:09:04Z</time>
      </trkpt>
      <trkpt lat="-21.10609" lon="55.49305">
        <ele>2652.9</ele>
        <time>2013-05-05T07:09:05Z</time>
      </trkpt>
      <trkpt lat="-21.10622" lon="55.49313">
        <ele>2649.6</ele>
        <time>2013-05-05T07:09:24Z</time>
      </trkpt>
      <trkpt lat="-21.10629" lon="55.49317">
        <ele>2647.1</ele>
        <time>2013-05-05T07:09:36Z</time>
      </trkpt>
      <trkpt lat="-21.10638" lon="55.49319">
        <ele>2644.8</ele>
        <time>2013-05-05T07:09:45Z</time>
      </trkpt>
      <trkpt lat="-21.10645" lon="55.49321">
        <ele>2644.5</ele>
        <time>2013-05-05T07:09:52Z</time>
      </trkpt>
      <trkpt lat="-21.10654" lon="55.49322">
        <ele>2642.5</ele>
        <time>2013-05-05T07:10:02Z</time>
      </trkpt>
      <trkpt lat="-21.10663" lon="55.49321">
        <ele>2641.1</ele>
        <time>2013-05-05T07:10:10Z</time>
      </trkpt>
      <trkpt lat="-21.10664" lon="55.49321">
        <ele>2641.1</ele>
        <time>2013-05-05T07:10:11Z</time>
      </trkpt>
      <trkpt lat="-21.10679" lon="55.49327">
        <ele>2637.5</ele>
        <time>2013-05-05T07:10:30Z</time>
      </trkpt>
      <trkpt lat="-21.10687" lon="55.49329">
        <ele>2635.5</ele>
        <time>2013-05-05T07:10:40Z</time>
      </trkpt>
      <trkpt lat="-21.10693" lon="55.49336">
        <ele>2632.8</ele>
        <time>2013-05-05T07:10:51Z</time>
      </trkpt>
      <trkpt lat="-21.10697" lon="55.49343">
        <ele>2630.3</ele>
        <time>2013-05-05T07:11:02Z</time>
      </trkpt>
      <trkpt lat="-21.10705" lon="55.49348">
        <ele>2627.1</ele>
        <time>2013-05-05T07:11:14Z</time>
      </trkpt>
      <trkpt lat="-21.10706" lon="55.49349">
        <ele>2627.2</ele>
        <time>2013-05-05T07:11:15Z</time>
      </trkpt>
      <trkpt lat="-21.10718" lon="55.49358">
        <ele>2623.2</ele>
        <time>2013-05-05T07:11:36Z</time>
      </trkpt>
      <trkpt lat="-21.10724" lon="55.49365">
        <ele>2619.9</ele>
        <time>2013-05-05T07:11:48Z</time>
      </trkpt>
      <trkpt lat="-21.10729" lon="55.49372">
        <ele>2617.4</ele>
        <time>2013-05-05T07:11:58Z</time>
      </trkpt>
      <trkpt lat="-21.10736" lon="55.49377">
        <ele>2616.5</ele>
        <time>2013-05-05T07:12:07Z</time>
      </trkpt>
      <trkpt lat="-21.10744" lon="55.49381">
        <ele>2615.9</ele>
        <time>2013-05-05T07:12:15Z</time>
      </trkpt>
      <trkpt lat="-21.10744" lon="55.49382">
        <ele>2615.7</ele>
        <time>2013-05-05T07:12:16Z</time>
      </trkpt>
      <trkpt lat="-21.10759" lon="55.49388">
        <ele>2611.1</ele>
        <time>2013-05-05T07:12:32Z</time>
      </trkpt>
      <trkpt lat="-21.10767" lon="55.49393">
        <ele>2610</ele>
        <time>2013-05-05T07:12:40Z</time>
      </trkpt>
      <trkpt lat="-21.10773" lon="55.49399">
        <ele>2607.4</ele>
        <time>2013-05-05T07:12:51Z</time>
      </trkpt>
      <trkpt lat="-21.1078" lon="55.49405">
        <ele>2605.9</ele>
        <time>2013-05-05T07:13:01Z</time>
      </trkpt>
      <trkpt lat="-21.10786" lon="55.49411">
        <ele>2603.9</ele>
        <time>2013-05-05T07:13:11Z</time>
      </trkpt>
      <trkpt lat="-21.10794" lon="55.49415">
        <ele>2602</ele>
        <time>2013-05-05T07:13:20Z</time>
      </trkpt>
      <trkpt lat="-21.10794" lon="55.49416">
        <ele>2601.9</ele>
        <time>2013-05-05T07:13:21Z</time>
      </trkpt>
      <trkpt lat="-21.10807" lon="55.49428">
        <ele>2599.1</ele>
        <time>2013-05-05T07:13:40Z</time>
      </trkpt>
      <trkpt lat="-21.10815" lon="55.4943">
        <ele>2596.8</ele>
        <time>2013-05-05T07:13:49Z</time>
      </trkpt>
      <trkpt lat="-21.10822" lon="55.49436">
        <ele>2594.2</ele>
        <time>2013-05-05T07:13:59Z</time>
      </trkpt>
      <trkpt lat="-21.1083" lon="55.4944">
        <ele>2592.6</ele>
        <time>2013-05-05T07:14:11Z</time>
      </trkpt>
      <trkpt lat="-21.10838" lon="55.49445">
        <ele>2590.3</ele>
        <time>2013-05-05T07:14:20Z</time>
      </trkpt>
      <trkpt lat="-21.10847" lon="55.49444">
        <ele>2587.8</ele>
        <time>2013-05-05T07:14:32Z</time>
      </trkpt>
      <trkpt lat="-21.10848" lon="55.49444">
        <ele>2587.4</ele>
        <time>2013-05-05T07:14:33Z</time>
      </trkpt>
      <trkpt lat="-21.10863" lon="55.49452">
        <ele>2581.5</ele>
        <time>2013-05-05T07:14:57Z</time>
      </trkpt>
      <trkpt lat="-21.1087" lon="55.49458">
        <ele>2578.5</ele>
        <time>2013-05-05T07:15:07Z</time>
      </trkpt>
      <trkpt lat="-21.10878" lon="55.4946">
        <ele>2577.3</ele>
        <time>2013-05-05T07:15:20Z</time>
      </trkpt>
      <trkpt lat="-21.10884" lon="55.49467">
        <ele>2572.6</ele>
        <time>2013-05-05T07:15:38Z</time>
      </trkpt>
      <trkpt lat="-21.10885" lon="55.49467">
        <ele>2572.7</ele>
        <time>2013-05-05T07:15:39Z</time>
      </trkpt>
      <trkpt lat="-21.10897" lon="55.49479">
        <ele>2567.3</ele>
        <time>2013-05-05T07:16:01Z</time>
      </trkpt>
      <trkpt lat="-21.10902" lon="55.49486">
        <ele>2565.2</ele>
        <time>2013-05-05T07:16:11Z</time>
      </trkpt>
      <trkpt lat="-21.10909" lon="55.49491">
        <ele>2562.9</ele>
        <time>2013-05-05T07:16:20Z</time>
      </trkpt>
      <trkpt lat="-21.10914" lon="55.49499">
        <ele>2560.7</ele>
        <time>2013-05-05T07:16:32Z</time>
      </trkpt>
      <trkpt lat="-21.10915" lon="55.49508">
        <ele>2557.2</ele>
        <time>2013-05-05T07:16:44Z</time>
      </trkpt>
      <trkpt lat="-21.10915" lon="55.49509">
        <ele>2557</ele>
        <time>2013-05-05T07:16:45Z</time>
      </trkpt>
      <trkpt lat="-21.10925" lon="55.49522">
        <ele>2553.1</ele>
        <time>2013-05-05T07:17:03Z</time>
      </trkpt>
      <trkpt lat="-21.10932" lon="55.49528">
        <ele>2551.1</ele>
        <time>2013-05-05T07:17:17Z</time>
      </trkpt>
      <trkpt lat="-21.10933" lon="55.49538">
        <ele>2549.3</ele>
        <time>2013-05-05T07:17:30Z</time>
      </trkpt>
      <trkpt lat="-21.10938" lon="55.49545">
        <ele>2547.1</ele>
        <time>2013-05-05T07:17:42Z</time>
      </trkpt>
      <trkpt lat="-21.10942" lon="55.49554">
        <ele>2541.9</ele>
        <time>2013-05-05T07:17:54Z</time>
      </trkpt>
      <trkpt lat="-21.10942" lon="55.49555">
        <ele>2542.3</ele>
        <time>2013-05-05T07:17:55Z</time>
      </trkpt>
      <trkpt lat="-21.10951" lon="55.49569">
        <ele>2538.3</ele>
        <time>2013-05-05T07:18:16Z</time>
      </trkpt>
      <trkpt lat="-21.10952" lon="55.49578">
        <ele>2536.3</ele>
        <time>2013-05-05T07:18:26Z</time>
      </trkpt>
      <trkpt lat="-21.10955" lon="55.49588">
        <ele>2534</ele>
        <time>2013-05-05T07:18:37Z</time>
      </trkpt>
      <trkpt lat="-21.1096" lon="55.49595">
        <ele>2530.8</ele>
        <time>2013-05-05T07:18:49Z</time>
      </trkpt>
      <trkpt lat="-21.10966" lon="55.49602">
        <ele>2528.4</ele>
        <time>2013-05-05T07:18:59Z</time>
      </trkpt>
      <trkpt lat="-21.10966" lon="55.49602">
        <ele>2527.9</ele>
        <time>2013-05-05T07:19:00Z</time>
      </trkpt>
      <trkpt lat="-21.1098" lon="55.49612">
        <ele>2522.5</ele>
        <time>2013-05-05T07:20:08Z</time>
      </trkpt>
      <trkpt lat="-21.1098" lon="55.49612">
        <ele>2522.2</ele>
        <time>2013-05-05T07:20:09Z</time>
      </trkpt>
      <trkpt lat="-21.10989" lon="55.49598">
        <ele>2523</ele>
        <time>2013-05-05T07:20:32Z</time>
      </trkpt>
      <trkpt lat="-21.10997" lon="55.49593">
        <ele>2521.6</ele>
        <time>2013-05-05T07:20:44Z</time>
      </trkpt>
      <trkpt lat="-21.11003" lon="55.49586">
        <ele>2520.6</ele>
        <time>2013-05-05T07:20:53Z</time>
      </trkpt>
      <trkpt lat="-21.11008" lon="55.49578">
        <ele>2520.5</ele>
        <time>2013-05-05T07:21:03Z</time>
      </trkpt>
      <trkpt lat="-21.11015" lon="55.49574">
        <ele>2519.9</ele>
        <time>2013-05-05T07:21:12Z</time>
      </trkpt>
      <trkpt lat="-21.11015" lon="55.49573">
        <ele>2519.9</ele>
        <time>2013-05-05T07:21:13Z</time>
      </trkpt>
      <trkpt lat="-21.1103" lon="55.49566">
        <ele>2516.9</ele>
        <time>2013-05-05T07:21:33Z</time>
      </trkpt>
      <trkpt lat="-21.11038" lon="55.49562">
        <ele>2516.5</ele>
        <time>2013-05-05T07:21:41Z</time>
      </trkpt>
      <trkpt lat="-21.11046" lon="55.49558">
        <ele>2517.1</ele>
        <time>2013-05-05T07:21:52Z</time>
      </trkpt>
      <trkpt lat="-21.11053" lon="55.49554">
        <ele>2518.4</ele>
        <time>2013-05-05T07:22:01Z</time>
      </trkpt>
      <trkpt lat="-21.11061" lon="55.4955">
        <ele>2518.2</ele>
        <time>2013-05-05T07:22:11Z</time>
      </trkpt>
      <trkpt lat="-21.11069" lon="55.49547">
        <ele>2516.8</ele>
        <time>2013-05-05T07:22:26Z</time>
      </trkpt>
      <trkpt lat="-21.1107" lon="55.49547">
        <ele>2516.7</ele>
        <time>2013-05-05T07:22:27Z</time>
      </trkpt>
      <trkpt lat="-21.11082" lon="55.49536">
        <ele>2513.1</ele>
        <time>2013-05-05T07:22:50Z</time>
      </trkpt>
      <trkpt lat="-21.11091" lon="55.49536">
        <ele>2511.8</ele>
        <time>2013-05-05T07:22:59Z</time>
      </trkpt>
      <trkpt lat="-21.11094" lon="55.49544">
        <ele>2513.1</ele>
        <time>2013-05-05T07:23:15Z</time>
      </trkpt>
      <trkpt lat="-21.11099" lon="55.49537">
        <ele>2516.2</ele>
        <time>2013-05-05T07:23:34Z</time>
      </trkpt>
      <trkpt lat="-21.111" lon="55.49537">
        <ele>2516.4</ele>
        <time>2013-05-05T07:23:35Z</time>
      </trkpt>
      <trkpt lat="-21.11114" lon="55.49542">
        <ele>2520</ele>
        <time>2013-05-05T07:24:06Z</time>
      </trkpt>
      <trkpt lat="-21.11114" lon="55.49551">
        <ele>2519.5</ele>
        <time>2013-05-05T07:24:17Z</time>
      </trkpt>
      <trkpt lat="-21.11116" lon="55.49559">
        <ele>2520.2</ele>
        <time>2013-05-05T07:24:25Z</time>
      </trkpt>
      <trkpt lat="-21.11121" lon="55.49567">
        <ele>2521.3</ele>
        <time>2013-05-05T07:24:38Z</time>
      </trkpt>
      <trkpt lat="-21.11121" lon="55.49567">
        <ele>2521.2</ele>
        <time>2013-05-05T07:24:39Z</time>
      </trkpt>
      <trkpt lat="-21.11122" lon="55.49585">
        <ele>2525.6</ele>
        <time>2013-05-05T07:25:15Z</time>
      </trkpt>
      <trkpt lat="-21.11123" lon="55.49594">
        <ele>2525.7</ele>
        <time>2013-05-05T07:25:25Z</time>
      </trkpt>
      <trkpt lat="-21.11126" lon="55.49603">
        <ele>2525.8</ele>
        <time>2013-05-05T07:25:36Z</time>
      </trkpt>
      <trkpt lat="-21.11126" lon="55.49613">
        <ele>2525.4</ele>
        <time>2013-05-05T07:25:44Z</time>
      </trkpt>
      <trkpt lat="-21.11126" lon="55.49614">
        <ele>2524.9</ele>
        <time>2013-05-05T07:25:45Z</time>
      </trkpt>
      <trkpt lat="-21.11132" lon="55.4963">
        <ele>2524.6</ele>
        <time>2013-05-05T07:25:59Z</time>
      </trkpt>
      <trkpt lat="-21.11132" lon="55.49639">
        <ele>2521.7</ele>
        <time>2013-05-05T07:26:12Z</time>
      </trkpt>
      <trkpt lat="-21.11137" lon="55.49646">
        <ele>2520.4</ele>
        <time>2013-05-05T07:26:25Z</time>
      </trkpt>
      <trkpt lat="-21.11142" lon="55.49653">
        <ele>2520.6</ele>
        <time>2013-05-05T07:26:34Z</time>
      </trkpt>
      <trkpt lat="-21.11148" lon="55.4966">
        <ele>2519.5</ele>
        <time>2013-05-05T07:26:43Z</time>
      </trkpt>
      <trkpt lat="-21.11155" lon="55.49665">
        <ele>2518.5</ele>
        <time>2013-05-05T07:26:52Z</time>
      </trkpt>
      <trkpt lat="-21.11156" lon="55.49666">
        <ele>2518.6</ele>
        <time>2013-05-05T07:26:53Z</time>
      </trkpt>
      <trkpt lat="-21.11168" lon="55.49676">
        <ele>2519.9</ele>
        <time>2013-05-05T07:27:11Z</time>
      </trkpt>
      <trkpt lat="-21.11172" lon="55.49683">
        <ele>2520.7</ele>
        <time>2013-05-05T07:27:23Z</time>
      </trkpt>
      <trkpt lat="-21.11177" lon="55.49692">
        <ele>2520.7</ele>
        <time>2013-05-05T07:27:35Z</time>
      </trkpt>
      <trkpt lat="-21.11184" lon="55.49697">
        <ele>2524.9</ele>
        <time>2013-05-05T07:28:05Z</time>
      </trkpt>
      <trkpt lat="-21.11184" lon="55.49698">
        <ele>2524.9</ele>
        <time>2013-05-05T07:28:06Z</time>
      </trkpt>
      <trkpt lat="-21.11184" lon="55.49716">
        <ele>2525.5</ele>
        <time>2013-05-05T07:28:38Z</time>
      </trkpt>
      <trkpt lat="-21.11189" lon="55.49724">
        <ele>2526.2</ele>
        <time>2013-05-05T07:28:48Z</time>
      </trkpt>
      <trkpt lat="-21.11197" lon="55.49726">
        <ele>2525.1</ele>
        <time>2013-05-05T07:29:05Z</time>
      </trkpt>
      <trkpt lat="-21.11203" lon="55.49732">
        <ele>2522.5</ele>
        <time>2013-05-05T07:29:18Z</time>
      </trkpt>
      <trkpt lat="-21.11204" lon="55.49733">
        <ele>2522.5</ele>
        <time>2013-05-05T07:29:19Z</time>
      </trkpt>
      <trkpt lat="-21.11218" lon="55.49742">
        <ele>2517.7</ele>
        <time>2013-05-05T07:29:47Z</time>
      </trkpt>
      <trkpt lat="-21.11227" lon="55.49741">
        <ele>2514.4</ele>
        <time>2013-05-05T07:30:01Z</time>
      </trkpt>
      <trkpt lat="-21.11233" lon="55.49748">
        <ele>2516.2</ele>
        <time>2013-05-05T07:30:20Z</time>
      </trkpt>
      <trkpt lat="-21.11233" lon="55.49749">
        <ele>2516.2</ele>
        <time>2013-05-05T07:30:21Z</time>
      </trkpt>
      <trkpt lat="-21.11235" lon="55.49767">
        <ele>2512.1</ele>
        <time>2013-05-05T07:30:48Z</time>
      </trkpt>
      <trkpt lat="-21.11234" lon="55.49775">
        <ele>2508.2</ele>
        <time>2013-05-05T07:31:03Z</time>
      </trkpt>
      <trkpt lat="-21.11238" lon="55.49783">
        <ele>2507.3</ele>
        <time>2013-05-05T07:31:13Z</time>
      </trkpt>
      <trkpt lat="-21.11241" lon="55.49791">
        <ele>2505.7</ele>
        <time>2013-05-05T07:31:26Z</time>
      </trkpt>
      <trkpt lat="-21.11242" lon="55.49792">
        <ele>2505.2</ele>
        <time>2013-05-05T07:31:27Z</time>
      </trkpt>
      <trkpt lat="-21.11248" lon="55.49808">
        <ele>2502</ele>
        <time>2013-05-05T07:31:47Z</time>
      </trkpt>
      <trkpt lat="-21.11252" lon="55.49816">
        <ele>2498.6</ele>
        <time>2013-05-05T07:31:58Z</time>
      </trkpt>
      <trkpt lat="-21.11254" lon="55.49825">
        <ele>2494.7</ele>
        <time>2013-05-05T07:32:11Z</time>
      </trkpt>
      <trkpt lat="-21.11256" lon="55.49833">
        <ele>2491.3</ele>
        <time>2013-05-05T07:32:32Z</time>
      </trkpt>
      <trkpt lat="-21.11257" lon="55.49834">
        <ele>2491</ele>
        <time>2013-05-05T07:32:33Z</time>
      </trkpt>
      <trkpt lat="-21.11272" lon="55.49842">
        <ele>2485.4</ele>
        <time>2013-05-05T07:33:00Z</time>
      </trkpt>
      <trkpt lat="-21.11279" lon="55.49838">
        <ele>2482.6</ele>
        <time>2013-05-05T07:33:13Z</time>
      </trkpt>
      <trkpt lat="-21.11284" lon="55.4983">
        <ele>2480.9</ele>
        <time>2013-05-05T07:33:24Z</time>
      </trkpt>
      <trkpt lat="-21.11291" lon="55.49834">
        <ele>2474.6</ele>
        <time>2013-05-05T07:33:53Z</time>
      </trkpt>
      <trkpt lat="-21.11292" lon="55.49835">
        <ele>2474.2</ele>
        <time>2013-05-05T07:33:54Z</time>
      </trkpt>
      <trkpt lat="-21.11308" lon="55.49835">
        <ele>2467.2</ele>
        <time>2013-05-05T07:34:24Z</time>
      </trkpt>
      <trkpt lat="-21.11315" lon="55.4983">
        <ele>2464.2</ele>
        <time>2013-05-05T07:34:37Z</time>
      </trkpt>
      <trkpt lat="-21.11321" lon="55.49822">
        <ele>2460.8</ele>
        <time>2013-05-05T07:34:49Z</time>
      </trkpt>
      <trkpt lat="-21.11327" lon="55.49816">
        <ele>2458.8</ele>
        <time>2013-05-05T07:35:00Z</time>
      </trkpt>
      <trkpt lat="-21.11328" lon="55.49816">
        <ele>2458.8</ele>
        <time>2013-05-05T07:35:01Z</time>
      </trkpt>
      <trkpt lat="-21.11343" lon="55.49819">
        <ele>2451.6</ele>
        <time>2013-05-05T07:35:32Z</time>
      </trkpt>
      <trkpt lat="-21.11349" lon="55.49825">
        <ele>2448.5</ele>
        <time>2013-05-05T07:35:47Z</time>
      </trkpt>
      <trkpt lat="-21.11354" lon="55.49833">
        <ele>2444.7</ele>
        <time>2013-05-05T07:36:04Z</time>
      </trkpt>
      <trkpt lat="-21.11354" lon="55.49834">
        <ele>2444.8</ele>
        <time>2013-05-05T07:36:05Z</time>
      </trkpt>
      <trkpt lat="-21.11366" lon="55.49845">
        <ele>2439.2</ele>
        <time>2013-05-05T07:36:35Z</time>
      </trkpt>
      <trkpt lat="-21.11375" lon="55.49847">
        <ele>2436.2</ele>
        <time>2013-05-05T07:36:54Z</time>
      </trkpt>
      <trkpt lat="-21.11381" lon="55.49854">
        <ele>2432.1</ele>
        <time>2013-05-05T07:37:16Z</time>
      </trkpt>
      <trkpt lat="-21.11382" lon="55.49854">
        <ele>2431.8</ele>
        <time>2013-05-05T07:37:17Z</time>
      </trkpt>
      <trkpt lat="-21.11396" lon="55.49864">
        <ele>2426</ele>
        <time>2013-05-05T07:37:54Z</time>
      </trkpt>
      <trkpt lat="-21.114" lon="55.49871">
        <ele>2423.3</ele>
        <time>2013-05-05T07:38:07Z</time>
      </trkpt>
      <trkpt lat="-21.11407" lon="55.49876">
        <ele>2420.1</ele>
        <time>2013-05-05T07:38:20Z</time>
      </trkpt>
      <trkpt lat="-21.11407" lon="55.49876">
        <ele>2420.2</ele>
        <time>2013-05-05T07:38:21Z</time>
      </trkpt>
      <trkpt lat="-21.11419" lon="55.49888">
        <ele>2417.9</ele>
        <time>2013-05-05T07:38:40Z</time>
      </trkpt>
      <trkpt lat="-21.11426" lon="55.49893">
        <ele>2418.6</ele>
        <time>2013-05-05T07:38:47Z</time>
      </trkpt>
      <trkpt lat="-21.11434" lon="55.49898">
        <ele>2418.2</ele>
        <time>2013-05-05T07:38:58Z</time>
      </trkpt>
      <trkpt lat="-21.11441" lon="55.49902">
        <ele>2417.2</ele>
        <time>2013-05-05T07:39:09Z</time>
      </trkpt>
      <trkpt lat="-21.11447" lon="55.49909">
        <ele>2414.7</ele>
        <time>2013-05-05T07:39:18Z</time>
      </trkpt>
      <trkpt lat="-21.11452" lon="55.49916">
        <ele>2412.9</ele>
        <time>2013-05-05T07:39:28Z</time>
      </trkpt>
      <trkpt lat="-21.11453" lon="55.49917">
        <ele>2412.4</ele>
        <time>2013-05-05T07:39:29Z</time>
      </trkpt>
      <trkpt lat="-21.11462" lon="55.4993">
        <ele>2411.9</ele>
        <time>2013-05-05T07:39:43Z</time>
      </trkpt>
      <trkpt lat="-21.11468" lon="55.49937">
        <ele>2410.5</ele>
        <time>2013-05-05T07:39:51Z</time>
      </trkpt>
      <trkpt lat="-21.11473" lon="55.49945">
        <ele>2408.9</ele>
        <time>2013-05-05T07:39:58Z</time>
      </trkpt>
      <trkpt lat="-21.1148" lon="55.49949">
        <ele>2408.6</ele>
        <time>2013-05-05T07:40:06Z</time>
      </trkpt>
      <trkpt lat="-21.11487" lon="55.49956">
        <ele>2406.2</ele>
        <time>2013-05-05T07:40:17Z</time>
      </trkpt>
      <trkpt lat="-21.11493" lon="55.49961">
        <ele>2405.5</ele>
        <time>2013-05-05T07:40:23Z</time>
      </trkpt>
      <trkpt lat="-21.115" lon="55.49966">
        <ele>2404.4</ele>
        <time>2013-05-05T07:40:30Z</time>
      </trkpt>
      <trkpt lat="-21.11501" lon="55.49967">
        <ele>2404.2</ele>
        <time>2013-05-05T07:40:31Z</time>
      </trkpt>
      <trkpt lat="-21.11512" lon="55.49979">
        <ele>2401.6</ele>
        <time>2013-05-05T07:40:49Z</time>
      </trkpt>
      <trkpt lat="-21.11518" lon="55.49985">
        <ele>2399.7</ele>
        <time>2013-05-05T07:40:58Z</time>
      </trkpt>
      <trkpt lat="-21.11524" lon="55.49992">
        <ele>2398.3</ele>
        <time>2013-05-05T07:41:06Z</time>
      </trkpt>
      <trkpt lat="-21.1153" lon="55.49998">
        <ele>2397.8</ele>
        <time>2013-05-05T07:41:13Z</time>
      </trkpt>
      <trkpt lat="-21.11535" lon="55.50005">
        <ele>2397.7</ele>
        <time>2013-05-05T07:41:20Z</time>
      </trkpt>
      <trkpt lat="-21.1154" lon="55.50012">
        <ele>2397.9</ele>
        <time>2013-05-05T07:41:32Z</time>
      </trkpt>
      <trkpt lat="-21.11541" lon="55.50013">
        <ele>2398</ele>
        <time>2013-05-05T07:41:33Z</time>
      </trkpt>
      <trkpt lat="-21.11553" lon="55.50026">
        <ele>2391.7</ele>
        <time>2013-05-05T07:41:58Z</time>
      </trkpt>
      <trkpt lat="-21.1156" lon="55.50031">
        <ele>2389.8</ele>
        <time>2013-05-05T07:42:14Z</time>
      </trkpt>
      <trkpt lat="-21.11568" lon="55.50036">
        <ele>2387.6</ele>
        <time>2013-05-05T07:42:26Z</time>
      </trkpt>
      <trkpt lat="-21.11576" lon="55.50038">
        <ele>2386.6</ele>
        <time>2013-05-05T07:42:39Z</time>
      </trkpt>
      <trkpt lat="-21.11577" lon="55.50038">
        <ele>2386.2</ele>
        <time>2013-05-05T07:42:40Z</time>
      </trkpt>
      <trkpt lat="-21.1159" lon="55.50048">
        <ele>2383.3</ele>
        <time>2013-05-05T07:42:59Z</time>
      </trkpt>
      <trkpt lat="-21.11597" lon="55.50053">
        <ele>2380.9</ele>
        <time>2013-05-05T07:43:08Z</time>
      </trkpt>
      <trkpt lat="-21.11603" lon="55.50059">
        <ele>2378</ele>
        <time>2013-05-05T07:43:24Z</time>
      </trkpt>
      <trkpt lat="-21.11611" lon="55.50063">
        <ele>2376.2</ele>
        <time>2013-05-05T07:43:35Z</time>
      </trkpt>
      <trkpt lat="-21.11618" lon="55.50068">
        <ele>2372</ele>
        <time>2013-05-05T07:43:58Z</time>
      </trkpt>
      <trkpt lat="-21.11619" lon="55.50069">
        <ele>2371.5</ele>
        <time>2013-05-05T07:43:59Z</time>
      </trkpt>
      <trkpt lat="-21.11631" lon="55.50082">
        <ele>2366.7</ele>
        <time>2013-05-05T07:44:26Z</time>
      </trkpt>
      <trkpt lat="-21.11637" lon="55.50087">
        <ele>2364.8</ele>
        <time>2013-05-05T07:44:37Z</time>
      </trkpt>
      <trkpt lat="-21.11643" lon="55.50093">
        <ele>2363.4</ele>
        <time>2013-05-05T07:44:47Z</time>
      </trkpt>
      <trkpt lat="-21.1165" lon="55.50098">
        <ele>2361.1</ele>
        <time>2013-05-05T07:44:57Z</time>
      </trkpt>
      <trkpt lat="-21.11656" lon="55.50103">
        <ele>2360.5</ele>
        <time>2013-05-05T07:45:06Z</time>
      </trkpt>
      <trkpt lat="-21.11658" lon="55.50104">
        <ele>2360.5</ele>
        <time>2013-05-05T07:45:07Z</time>
      </trkpt>
      <trkpt lat="-21.1167" lon="55.50113">
        <ele>2359.1</ele>
        <time>2013-05-05T07:45:21Z</time>
      </trkpt>
      <trkpt lat="-21.11677" lon="55.50119">
        <ele>2358.4</ele>
        <time>2013-05-05T07:45:32Z</time>
      </trkpt>
      <trkpt lat="-21.11685" lon="55.50122">
        <ele>2357.3</ele>
        <time>2013-05-05T07:45:44Z</time>
      </trkpt>
      <trkpt lat="-21.11692" lon="55.50127">
        <ele>2356.4</ele>
        <time>2013-05-05T07:45:54Z</time>
      </trkpt>
      <trkpt lat="-21.11699" lon="55.50132">
        <ele>2356.2</ele>
        <time>2013-05-05T07:46:02Z</time>
      </trkpt>
      <trkpt lat="-21.11704" lon="55.50139">
        <ele>2355.7</ele>
        <time>2013-05-05T07:46:12Z</time>
      </trkpt>
      <trkpt lat="-21.11705" lon="55.5014">
        <ele>2355.8</ele>
        <time>2013-05-05T07:46:13Z</time>
      </trkpt>
      <trkpt lat="-21.11719" lon="55.50146">
        <ele>2356.1</ele>
        <time>2013-05-05T07:46:30Z</time>
      </trkpt>
      <trkpt lat="-21.11727" lon="55.50151">
        <ele>2357.1</ele>
        <time>2013-05-05T07:46:40Z</time>
      </trkpt>
      <trkpt lat="-21.11731" lon="55.5016">
        <ele>2356.7</ele>
        <time>2013-05-05T07:46:53Z</time>
      </trkpt>
      <trkpt lat="-21.11735" lon="55.50168">
        <ele>2355.8</ele>
        <time>2013-05-05T07:47:05Z</time>
      </trkpt>
      <trkpt lat="-21.11741" lon="55.50175">
        <ele>2354.3</ele>
        <time>2013-05-05T07:47:18Z</time>
      </trkpt>
      <trkpt lat="-21.11741" lon="55.50175">
        <ele>2354.2</ele>
        <time>2013-05-05T07:47:19Z</time>
      </trkpt>
      <trkpt lat="-21.11757" lon="55.50183">
        <ele>2349.7</ele>
        <time>2013-05-05T07:47:45Z</time>
      </trkpt>
      <trkpt lat="-21.11761" lon="55.5019">
        <ele>2347.7</ele>
        <time>2013-05-05T07:47:54Z</time>
      </trkpt>
      <trkpt lat="-21.11766" lon="55.50198">
        <ele>2346.4</ele>
        <time>2013-05-05T07:48:01Z</time>
      </trkpt>
      <trkpt lat="-21.11771" lon="55.50206">
        <ele>2345.5</ele>
        <time>2013-05-05T07:48:08Z</time>
      </trkpt>
      <trkpt lat="-21.11777" lon="55.50212">
        <ele>2343.7</ele>
        <time>2013-05-05T07:48:17Z</time>
      </trkpt>
      <trkpt lat="-21.11784" lon="55.50216">
        <ele>2343.3</ele>
        <time>2013-05-05T07:48:24Z</time>
      </trkpt>
      <trkpt lat="-21.11785" lon="55.50217">
        <ele>2343.3</ele>
        <time>2013-05-05T07:48:25Z</time>
      </trkpt>
      <trkpt lat="-21.11799" lon="55.50222">
        <ele>2346.7</ele>
        <time>2013-05-05T07:48:50Z</time>
      </trkpt>
      <trkpt lat="-21.11807" lon="55.50223">
        <ele>2344</ele>
        <time>2013-05-05T07:49:07Z</time>
      </trkpt>
      <trkpt lat="-21.11815" lon="55.50225">
        <ele>2343.6</ele>
        <time>2013-05-05T07:49:14Z</time>
      </trkpt>
      <trkpt lat="-21.11823" lon="55.50226">
        <ele>2341.6</ele>
        <time>2013-05-05T07:49:24Z</time>
      </trkpt>
      <trkpt lat="-21.11832" lon="55.50228">
        <ele>2339</ele>
        <time>2013-05-05T07:49:40Z</time>
      </trkpt>
      <trkpt lat="-21.11832" lon="55.50229">
        <ele>2338.8</ele>
        <time>2013-05-05T07:49:41Z</time>
      </trkpt>
      <trkpt lat="-21.11846" lon="55.50239">
        <ele>2334.4</ele>
        <time>2013-05-05T07:50:05Z</time>
      </trkpt>
      <trkpt lat="-21.11853" lon="55.50244">
        <ele>2333.3</ele>
        <time>2013-05-05T07:50:15Z</time>
      </trkpt>
      <trkpt lat="-21.11861" lon="55.50249">
        <ele>2331.6</ele>
        <time>2013-05-05T07:50:25Z</time>
      </trkpt>
      <trkpt lat="-21.11869" lon="55.5025">
        <ele>2330.2</ele>
        <time>2013-05-05T07:50:35Z</time>
      </trkpt>
      <trkpt lat="-21.11878" lon="55.50252">
        <ele>2328.6</ele>
        <time>2013-05-05T07:50:48Z</time>
      </trkpt>
      <trkpt lat="-21.11878" lon="55.50253">
        <ele>2328.4</ele>
        <time>2013-05-05T07:50:49Z</time>
      </trkpt>
      <trkpt lat="-21.1189" lon="55.50265">
        <ele>2328.6</ele>
        <time>2013-05-05T07:51:13Z</time>
      </trkpt>
      <trkpt lat="-21.11895" lon="55.50272">
        <ele>2328.7</ele>
        <time>2013-05-05T07:51:23Z</time>
      </trkpt>
      <trkpt lat="-21.11901" lon="55.50278">
        <ele>2327.5</ele>
        <time>2013-05-05T07:51:31Z</time>
      </trkpt>
      <trkpt lat="-21.11903" lon="55.50287">
        <ele>2327.4</ele>
        <time>2013-05-05T07:51:40Z</time>
      </trkpt>
      <trkpt lat="-21.11908" lon="55.50294">
        <ele>2325.7</ele>
        <time>2013-05-05T07:51:58Z</time>
      </trkpt>
      <trkpt lat="-21.11909" lon="55.50295">
        <ele>2325.7</ele>
        <time>2013-05-05T07:51:59Z</time>
      </trkpt>
      <trkpt lat="-21.11924" lon="55.50301">
        <ele>2325.4</ele>
        <time>2013-05-05T07:52:18Z</time>
      </trkpt>
      <trkpt lat="-21.11931" lon="55.50303">
        <ele>2325.4</ele>
        <time>2013-05-05T07:52:24Z</time>
      </trkpt>
      <trkpt lat="-21.1194" lon="55.50305">
        <ele>2324.6</ele>
        <time>2013-05-05T07:52:31Z</time>
      </trkpt>
      <trkpt lat="-21.11948" lon="55.50307">
        <ele>2325.9</ele>
        <time>2013-05-05T07:52:43Z</time>
      </trkpt>
      <trkpt lat="-21.11956" lon="55.5031">
        <ele>2324.3</ele>
        <time>2013-05-05T07:52:56Z</time>
      </trkpt>
      <trkpt lat="-21.11963" lon="55.50315">
        <ele>2321.9</ele>
        <time>2013-05-05T07:53:08Z</time>
      </trkpt>
      <trkpt lat="-21.11964" lon="55.50315">
        <ele>2321.6</ele>
        <time>2013-05-05T07:53:09Z</time>
      </trkpt>
      <trkpt lat="-21.1198" lon="55.50317">
        <ele>2316</ele>
        <time>2013-05-05T07:53:38Z</time>
      </trkpt>
      <trkpt lat="-21.11988" lon="55.50318">
        <ele>2315.8</ele>
        <time>2013-05-05T07:53:45Z</time>
      </trkpt>
      <trkpt lat="-21.11995" lon="55.50322">
        <ele>2315.1</ele>
        <time>2013-05-05T07:53:52Z</time>
      </trkpt>
      <trkpt lat="-21.12003" lon="55.50326">
        <ele>2314</ele>
        <time>2013-05-05T07:54:00Z</time>
      </trkpt>
      <trkpt lat="-21.1201" lon="55.5033">
        <ele>2313.5</ele>
        <time>2013-05-05T07:54:09Z</time>
      </trkpt>
      <trkpt lat="-21.12012" lon="55.50331">
        <ele>2313.5</ele>
        <time>2013-05-05T07:54:10Z</time>
      </trkpt>
      <trkpt lat="-21.12021" lon="55.50343">
        <ele>2310.4</ele>
        <time>2013-05-05T07:54:37Z</time>
      </trkpt>
      <trkpt lat="-21.12022" lon="55.50353">
        <ele>2306</ele>
        <time>2013-05-05T07:54:54Z</time>
      </trkpt>
      <trkpt lat="-21.1203" lon="55.50355">
        <ele>2306.6</ele>
        <time>2013-05-05T07:55:07Z</time>
      </trkpt>
      <trkpt lat="-21.12037" lon="55.50361">
        <ele>2309.4</ele>
        <time>2013-05-05T07:55:20Z</time>
      </trkpt>
      <trkpt lat="-21.12038" lon="55.50361">
        <ele>2309.6</ele>
        <time>2013-05-05T07:55:21Z</time>
      </trkpt>
      <trkpt lat="-21.12053" lon="55.50367">
        <ele>2312.4</ele>
        <time>2013-05-05T07:55:46Z</time>
      </trkpt>
      <trkpt lat="-21.12061" lon="55.50372">
        <ele>2312.3</ele>
        <time>2013-05-05T07:55:54Z</time>
      </trkpt>
      <trkpt lat="-21.12068" lon="55.50377">
        <ele>2312.8</ele>
        <time>2013-05-05T07:56:01Z</time>
      </trkpt>
      <trkpt lat="-21.12074" lon="55.50383">
        <ele>2311.6</ele>
        <time>2013-05-05T07:56:08Z</time>
      </trkpt>
      <trkpt lat="-21.12082" lon="55.50387">
        <ele>2310.9</ele>
        <time>2013-05-05T07:56:15Z</time>
      </trkpt>
      <trkpt lat="-21.1209" lon="55.5039">
        <ele>2309.3</ele>
        <time>2013-05-05T07:56:25Z</time>
      </trkpt>
      <trkpt lat="-21.12091" lon="55.50391">
        <ele>2308.8</ele>
        <time>2013-05-05T07:56:26Z</time>
      </trkpt>
      <trkpt lat="-21.12106" lon="55.50396">
        <ele>2307</ele>
        <time>2013-05-05T07:56:40Z</time>
      </trkpt>
      <trkpt lat="-21.12114" lon="55.50399">
        <ele>2305.9</ele>
        <time>2013-05-05T07:56:48Z</time>
      </trkpt>
      <trkpt lat="-21.12122" lon="55.50403">
        <ele>2304.9</ele>
        <time>2013-05-05T07:56:56Z</time>
      </trkpt>
      <trkpt lat="-21.12129" lon="55.50408">
        <ele>2303.5</ele>
        <time>2013-05-05T07:57:03Z</time>
      </trkpt>
      <trkpt lat="-21.12137" lon="55.50413">
        <ele>2304.6</ele>
        <time>2013-05-05T07:57:17Z</time>
      </trkpt>
      <trkpt lat="-21.12145" lon="55.50416">
        <ele>2304.5</ele>
        <time>2013-05-05T07:57:31Z</time>
      </trkpt>
      <trkpt lat="-21.12146" lon="55.50416">
        <ele>2304.4</ele>
        <time>2013-05-05T07:57:32Z</time>
      </trkpt>
      <trkpt lat="-21.1216" lon="55.50419">
        <ele>2301.1</ele>
        <time>2013-05-05T07:57:47Z</time>
      </trkpt>
      <trkpt lat="-21.12168" lon="55.50422">
        <ele>2301.2</ele>
        <time>2013-05-05T07:57:54Z</time>
      </trkpt>
      <trkpt lat="-21.12177" lon="55.50425">
        <ele>2300.3</ele>
        <time>2013-05-05T07:58:01Z</time>
      </trkpt>
      <trkpt lat="-21.12183" lon="55.50431">
        <ele>2299.1</ele>
        <time>2013-05-05T07:58:11Z</time>
      </trkpt>
      <trkpt lat="-21.12191" lon="55.50436">
        <ele>2295.9</ele>
        <time>2013-05-05T07:58:23Z</time>
      </trkpt>
      <trkpt lat="-21.12198" lon="55.5044">
        <ele>2295.3</ele>
        <time>2013-05-05T07:58:32Z</time>
      </trkpt>
      <trkpt lat="-21.12206" lon="55.50442">
        <ele>2293.9</ele>
        <time>2013-05-05T07:58:39Z</time>
      </trkpt>
      <trkpt lat="-21.12208" lon="55.50443">
        <ele>2293.9</ele>
        <time>2013-05-05T07:58:40Z</time>
      </trkpt>
      <trkpt lat="-21.12222" lon="55.50435">
        <ele>2295.4</ele>
        <time>2013-05-05T07:58:56Z</time>
      </trkpt>
      <trkpt lat="-21.1223" lon="55.50437">
        <ele>2295.8</ele>
        <time>2013-05-05T07:59:09Z</time>
      </trkpt>
      <trkpt lat="-21.12237" lon="55.50442">
        <ele>2295.5</ele>
        <time>2013-05-05T07:59:18Z</time>
      </trkpt>
      <trkpt lat="-21.12242" lon="55.50448">
        <ele>2293.7</ele>
        <time>2013-05-05T07:59:26Z</time>
      </trkpt>
      <trkpt lat="-21.12247" lon="55.50455">
        <ele>2292.8</ele>
        <time>2013-05-05T07:59:33Z</time>
      </trkpt>
      <trkpt lat="-21.12255" lon="55.50459">
        <ele>2292.7</ele>
        <time>2013-05-05T07:59:40Z</time>
      </trkpt>
      <trkpt lat="-21.12261" lon="55.50466">
        <ele>2292.9</ele>
        <time>2013-05-05T07:59:47Z</time>
      </trkpt>
      <trkpt lat="-21.12261" lon="55.50467">
        <ele>2292.5</ele>
        <time>2013-05-05T07:59:48Z</time>
      </trkpt>
      <trkpt lat="-21.12273" lon="55.50478">
        <ele>2291.7</ele>
        <time>2013-05-05T08:00:01Z</time>
      </trkpt>
      <trkpt lat="-21.12277" lon="55.50486">
        <ele>2289.7</ele>
        <time>2013-05-05T08:00:10Z</time>
      </trkpt>
      <trkpt lat="-21.12281" lon="55.50494">
        <ele>2288.1</ele>
        <time>2013-05-05T08:00:20Z</time>
      </trkpt>
      <trkpt lat="-21.12289" lon="55.50499">
        <ele>2286.2</ele>
        <time>2013-05-05T08:00:31Z</time>
      </trkpt>
      <trkpt lat="-21.12296" lon="55.50503">
        <ele>2283.8</ele>
        <time>2013-05-05T08:00:39Z</time>
      </trkpt>
      <trkpt lat="-21.12305" lon="55.50504">
        <ele>2282.7</ele>
        <time>2013-05-05T08:00:49Z</time>
      </trkpt>
      <trkpt lat="-21.12306" lon="55.50504">
        <ele>2282.5</ele>
        <time>2013-05-05T08:00:50Z</time>
      </trkpt>
      <trkpt lat="-21.12322" lon="55.50502">
        <ele>2279.2</ele>
        <time>2013-05-05T08:01:10Z</time>
      </trkpt>
      <trkpt lat="-21.1233" lon="55.505">
        <ele>2276.4</ele>
        <time>2013-05-05T08:01:26Z</time>
      </trkpt>
      <trkpt lat="-21.12338" lon="55.50504">
        <ele>2273</ele>
        <time>2013-05-05T08:01:37Z</time>
      </trkpt>
      <trkpt lat="-21.12347" lon="55.50505">
        <ele>2269.9</ele>
        <time>2013-05-05T08:01:50Z</time>
      </trkpt>
      <trkpt lat="-21.12348" lon="55.50505">
        <ele>2269.9</ele>
        <time>2013-05-05T08:01:51Z</time>
      </trkpt>
      <trkpt lat="-21.12364" lon="55.50504">
        <ele>2268.5</ele>
        <time>2013-05-05T08:02:08Z</time>
      </trkpt>
      <trkpt lat="-21.12372" lon="55.50507">
        <ele>2265.3</ele>
        <time>2013-05-05T08:02:18Z</time>
      </trkpt>
      <trkpt lat="-21.12381" lon="55.50506">
        <ele>2264.7</ele>
        <time>2013-05-05T08:02:28Z</time>
      </trkpt>
      <trkpt lat="-21.12388" lon="55.5051">
        <ele>2263.7</ele>
        <time>2013-05-05T08:02:36Z</time>
      </trkpt>
      <trkpt lat="-21.12395" lon="55.50517">
        <ele>2263.1</ele>
        <time>2013-05-05T08:02:48Z</time>
      </trkpt>
      <trkpt lat="-21.12403" lon="55.50521">
        <ele>2260.1</ele>
        <time>2013-05-05T08:03:02Z</time>
      </trkpt>
      <trkpt lat="-21.12404" lon="55.50522">
        <ele>2260.1</ele>
        <time>2013-05-05T08:03:03Z</time>
      </trkpt>
      <trkpt lat="-21.12417" lon="55.50513">
        <ele>2258.7</ele>
        <time>2013-05-05T08:03:27Z</time>
      </trkpt>
      <trkpt lat="-21.12425" lon="55.50509">
        <ele>2256.3</ele>
        <time>2013-05-05T08:03:48Z</time>
      </trkpt>
      <trkpt lat="-21.12433" lon="55.50509">
        <ele>2255</ele>
        <time>2013-05-05T08:03:57Z</time>
      </trkpt>
      <trkpt lat="-21.12442" lon="55.50508">
        <ele>2254.1</ele>
        <time>2013-05-05T08:04:07Z</time>
      </trkpt>
      <trkpt lat="-21.12443" lon="55.50508">
        <ele>2254</ele>
        <time>2013-05-05T08:04:08Z</time>
      </trkpt>
      <trkpt lat="-21.12459" lon="55.50504">
        <ele>2251.5</ele>
        <time>2013-05-05T08:04:29Z</time>
      </trkpt>
      <trkpt lat="-21.12461" lon="55.50496">
        <ele>2250.8</ele>
        <time>2013-05-05T08:04:41Z</time>
      </trkpt>
      <trkpt lat="-21.12462" lon="55.50487">
        <ele>2251.4</ele>
        <time>2013-05-05T08:04:50Z</time>
      </trkpt>
      <trkpt lat="-21.12467" lon="55.5048">
        <ele>2250.7</ele>
        <time>2013-05-05T08:04:58Z</time>
      </trkpt>
      <trkpt lat="-21.12471" lon="55.50472">
        <ele>2249.9</ele>
        <time>2013-05-05T08:05:09Z</time>
      </trkpt>
      <trkpt lat="-21.12471" lon="55.50471">
        <ele>2249.4</ele>
        <time>2013-05-05T08:05:10Z</time>
      </trkpt>
      <trkpt lat="-21.12485" lon="55.5046">
        <ele>2249.4</ele>
        <time>2013-05-05T08:05:28Z</time>
      </trkpt>
      <trkpt lat="-21.12488" lon="55.50452">
        <ele>2251.4</ele>
        <time>2013-05-05T08:05:43Z</time>
      </trkpt>
      <trkpt lat="-21.12496" lon="55.50448">
        <ele>2250.6</ele>
        <time>2013-05-05T08:05:56Z</time>
      </trkpt>
      <trkpt lat="-21.12504" lon="55.50449">
        <ele>2253.1</ele>
        <time>2013-05-05T08:06:10Z</time>
      </trkpt>
      <trkpt lat="-21.12505" lon="55.50449">
        <ele>2252.8</ele>
        <time>2013-05-05T08:06:11Z</time>
      </trkpt>
      <trkpt lat="-21.12519" lon="55.50458">
        <ele>2253</ele>
        <time>2013-05-05T08:06:29Z</time>
      </trkpt>
      <trkpt lat="-21.12522" lon="55.50466">
        <ele>2253.5</ele>
        <time>2013-05-05T08:06:40Z</time>
      </trkpt>
      <trkpt lat="-21.12528" lon="55.50472">
        <ele>2253.6</ele>
        <time>2013-05-05T08:06:48Z</time>
      </trkpt>
      <trkpt lat="-21.12536" lon="55.50477">
        <ele>2252.2</ele>
        <time>2013-05-05T08:06:58Z</time>
      </trkpt>
      <trkpt lat="-21.12544" lon="55.5048">
        <ele>2250.5</ele>
        <time>2013-05-05T08:07:08Z</time>
      </trkpt>
      <trkpt lat="-21.12551" lon="55.50486">
        <ele>2249.6</ele>
        <time>2013-05-05T08:07:19Z</time>
      </trkpt>
      <trkpt lat="-21.12552" lon="55.50486">
        <ele>2249.5</ele>
        <time>2013-05-05T08:07:20Z</time>
      </trkpt>
      <trkpt lat="-21.12569" lon="55.5049">
        <ele>2246</ele>
        <time>2013-05-05T08:07:45Z</time>
      </trkpt>
      <trkpt lat="-21.12576" lon="55.50493">
        <ele>2246.4</ele>
        <time>2013-05-05T08:07:55Z</time>
      </trkpt>
      <trkpt lat="-21.12581" lon="55.505">
        <ele>2246.9</ele>
        <time>2013-05-05T08:08:05Z</time>
      </trkpt>
      <trkpt lat="-21.12585" lon="55.50509">
        <ele>2247.4</ele>
        <time>2013-05-05T08:08:13Z</time>
      </trkpt>
      <trkpt lat="-21.12589" lon="55.50516">
        <ele>2247.3</ele>
        <time>2013-05-05T08:08:20Z</time>
      </trkpt>
      <trkpt lat="-21.1259" lon="55.50517">
        <ele>2247.4</ele>
        <time>2013-05-05T08:08:21Z</time>
      </trkpt>
      <trkpt lat="-21.12597" lon="55.50532">
        <ele>2247.6</ele>
        <time>2013-05-05T08:08:41Z</time>
      </trkpt>
      <trkpt lat="-21.12601" lon="55.5054">
        <ele>2247</ele>
        <time>2013-05-05T08:08:49Z</time>
      </trkpt>
      <trkpt lat="-21.12609" lon="55.50543">
        <ele>2246.1</ele>
        <time>2013-05-05T08:08:57Z</time>
      </trkpt>
      <trkpt lat="-21.12618" lon="55.50545">
        <ele>2245.4</ele>
        <time>2013-05-05T08:09:03Z</time>
      </trkpt>
      <trkpt lat="-21.12626" lon="55.50548">
        <ele>2245</ele>
        <time>2013-05-05T08:09:11Z</time>
      </trkpt>
      <trkpt lat="-21.12631" lon="55.50555">
        <ele>2243.6</ele>
        <time>2013-05-05T08:09:20Z</time>
      </trkpt>
      <trkpt lat="-21.12638" lon="55.50559">
        <ele>2240.9</ele>
        <time>2013-05-05T08:09:29Z</time>
      </trkpt>
      <trkpt lat="-21.12639" lon="55.5056">
        <ele>2240.7</ele>
        <time>2013-05-05T08:09:30Z</time>
      </trkpt>
      <trkpt lat="-21.12652" lon="55.50568">
        <ele>2239.8</ele>
        <time>2013-05-05T08:09:47Z</time>
      </trkpt>
      <trkpt lat="-21.1266" lon="55.50573">
        <ele>2238.1</ele>
        <time>2013-05-05T08:09:55Z</time>
      </trkpt>
      <trkpt lat="-21.12667" lon="55.50576">
        <ele>2237.9</ele>
        <time>2013-05-05T08:10:02Z</time>
      </trkpt>
      <trkpt lat="-21.12675" lon="55.50578">
        <ele>2238.4</ele>
        <time>2013-05-05T08:10:08Z</time>
      </trkpt>
      <trkpt lat="-21.12683" lon="55.50581">
        <ele>2237.2</ele>
        <time>2013-05-05T08:10:18Z</time>
      </trkpt>
      <trkpt lat="-21.12691" lon="55.50583">
        <ele>2235.9</ele>
        <time>2013-05-05T08:10:27Z</time>
      </trkpt>
      <trkpt lat="-21.12699" lon="55.50583">
        <ele>2233.6</ele>
        <time>2013-05-05T08:10:34Z</time>
      </trkpt>
      <trkpt lat="-21.127" lon="55.50583">
        <ele>2233.4</ele>
        <time>2013-05-05T08:10:35Z</time>
      </trkpt>
      <trkpt lat="-21.12715" lon="55.50588">
        <ele>2232.3</ele>
        <time>2013-05-05T08:10:49Z</time>
      </trkpt>
      <trkpt lat="-21.12722" lon="55.50593">
        <ele>2230</ele>
        <time>2013-05-05T08:11:02Z</time>
      </trkpt>
      <trkpt lat="-21.12727" lon="55.50601">
        <ele>2228</ele>
        <time>2013-05-05T08:11:14Z</time>
      </trkpt>
      <trkpt lat="-21.12731" lon="55.50609">
        <ele>2225.3</ele>
        <time>2013-05-05T08:11:29Z</time>
      </trkpt>
      <trkpt lat="-21.12737" lon="55.50616">
        <ele>2222.4</ele>
        <time>2013-05-05T08:11:40Z</time>
      </trkpt>
      <trkpt lat="-21.12738" lon="55.50616">
        <ele>2222.3</ele>
        <time>2013-05-05T08:11:41Z</time>
      </trkpt>
      <trkpt lat="-21.12749" lon="55.5063">
        <ele>2218.6</ele>
        <time>2013-05-05T08:12:07Z</time>
      </trkpt>
      <trkpt lat="-21.12755" lon="55.50636">
        <ele>2216.5</ele>
        <time>2013-05-05T08:12:18Z</time>
      </trkpt>
      <trkpt lat="-21.12761" lon="55.50644">
        <ele>2214.4</ele>
        <time>2013-05-05T08:12:29Z</time>
      </trkpt>
      <trkpt lat="-21.12763" lon="55.50652">
        <ele>2211.7</ele>
        <time>2013-05-05T08:12:41Z</time>
      </trkpt>
      <trkpt lat="-21.12764" lon="55.50653">
        <ele>2211.6</ele>
        <time>2013-05-05T08:12:42Z</time>
      </trkpt>
      <trkpt lat="-21.12772" lon="55.50667">
        <ele>2211.3</ele>
        <time>2013-05-05T08:12:56Z</time>
      </trkpt>
      <trkpt lat="-21.12777" lon="55.50674">
        <ele>2212.1</ele>
        <time>2013-05-05T08:13:03Z</time>
      </trkpt>
      <trkpt lat="-21.12782" lon="55.5068">
        <ele>2212.1</ele>
        <time>2013-05-05T08:13:12Z</time>
      </trkpt>
      <trkpt lat="-21.12788" lon="55.50687">
        <ele>2210.9</ele>
        <time>2013-05-05T08:13:22Z</time>
      </trkpt>
      <trkpt lat="-21.12791" lon="55.50696">
        <ele>2209.1</ele>
        <time>2013-05-05T08:13:30Z</time>
      </trkpt>
      <trkpt lat="-21.12797" lon="55.50703">
        <ele>2209.7</ele>
        <time>2013-05-05T08:13:38Z</time>
      </trkpt>
      <trkpt lat="-21.128" lon="55.50711">
        <ele>2208.5</ele>
        <time>2013-05-05T08:13:46Z</time>
      </trkpt>
      <trkpt lat="-21.12801" lon="55.50712">
        <ele>2208.2</ele>
        <time>2013-05-05T08:13:47Z</time>
      </trkpt>
      <trkpt lat="-21.12812" lon="55.50724">
        <ele>2203.5</ele>
        <time>2013-05-05T08:14:10Z</time>
      </trkpt>
      <trkpt lat="-21.12812" lon="55.50733">
        <ele>2206.8</ele>
        <time>2013-05-05T08:14:33Z</time>
      </trkpt>
      <trkpt lat="-21.12816" lon="55.50742">
        <ele>2209</ele>
        <time>2013-05-05T08:14:46Z</time>
      </trkpt>
      <trkpt lat="-21.12824" lon="55.50746">
        <ele>2210.5</ele>
        <time>2013-05-05T08:14:56Z</time>
      </trkpt>
      <trkpt lat="-21.12824" lon="55.50747">
        <ele>2210.4</ele>
        <time>2013-05-05T08:14:57Z</time>
      </trkpt>
      <trkpt lat="-21.12833" lon="55.5076">
        <ele>2209.6</ele>
        <time>2013-05-05T08:15:12Z</time>
      </trkpt>
      <trkpt lat="-21.12839" lon="55.50766">
        <ele>2209.3</ele>
        <time>2013-05-05T08:15:18Z</time>
      </trkpt>
      <trkpt lat="-21.12844" lon="55.50773">
        <ele>2208.9</ele>
        <time>2013-05-05T08:15:24Z</time>
      </trkpt>
      <trkpt lat="-21.12849" lon="55.5078">
        <ele>2210</ele>
        <time>2013-05-05T08:15:36Z</time>
      </trkpt>
      <trkpt lat="-21.12851" lon="55.50789">
        <ele>2209.6</ele>
        <time>2013-05-05T08:15:45Z</time>
      </trkpt>
      <trkpt lat="-21.12857" lon="55.50796">
        <ele>2207.3</ele>
        <time>2013-05-05T08:15:56Z</time>
      </trkpt>
      <trkpt lat="-21.12862" lon="55.50804">
        <ele>2205.7</ele>
        <time>2013-05-05T08:16:06Z</time>
      </trkpt>
      <trkpt lat="-21.12863" lon="55.50805">
        <ele>2205.6</ele>
        <time>2013-05-05T08:16:07Z</time>
      </trkpt>
      <trkpt lat="-21.12872" lon="55.50818">
        <ele>2202.9</ele>
        <time>2013-05-05T08:16:22Z</time>
      </trkpt>
      <trkpt lat="-21.12878" lon="55.50824">
        <ele>2200.8</ele>
        <time>2013-05-05T08:16:30Z</time>
      </trkpt>
      <trkpt lat="-21.12884" lon="55.50829">
        <ele>2200.8</ele>
        <time>2013-05-05T08:16:36Z</time>
      </trkpt>
      <trkpt lat="-21.1289" lon="55.50837">
        <ele>2199.6</ele>
        <time>2013-05-05T08:16:43Z</time>
      </trkpt>
      <trkpt lat="-21.12894" lon="55.50845">
        <ele>2198.5</ele>
        <time>2013-05-05T08:16:51Z</time>
      </trkpt>
      <trkpt lat="-21.12899" lon="55.50852">
        <ele>2197.9</ele>
        <time>2013-05-05T08:16:58Z</time>
      </trkpt>
      <trkpt lat="-21.12905" lon="55.50859">
        <ele>2197</ele>
        <time>2013-05-05T08:17:07Z</time>
      </trkpt>
      <trkpt lat="-21.12906" lon="55.5086">
        <ele>2196.9</ele>
        <time>2013-05-05T08:17:08Z</time>
      </trkpt>
      <trkpt lat="-21.12915" lon="55.50875">
        <ele>2195.2</ele>
        <time>2013-05-05T08:17:21Z</time>
      </trkpt>
      <trkpt lat="-21.12917" lon="55.50884">
        <ele>2195.2</ele>
        <time>2013-05-05T08:17:27Z</time>
      </trkpt>
      <trkpt lat="-21.12922" lon="55.50891">
        <ele>2194.5</ele>
        <time>2013-05-05T08:17:33Z</time>
      </trkpt>
      <trkpt lat="-21.12925" lon="55.50899">
        <ele>2194.6</ele>
        <time>2013-05-05T08:17:39Z</time>
      </trkpt>
      <trkpt lat="-21.12932" lon="55.50903">
        <ele>2195.2</ele>
        <time>2013-05-05T08:17:45Z</time>
      </trkpt>
      <trkpt lat="-21.12937" lon="55.5091">
        <ele>2195.1</ele>
        <time>2013-05-05T08:17:52Z</time>
      </trkpt>
      <trkpt lat="-21.12945" lon="55.50915">
        <ele>2194.6</ele>
        <time>2013-05-05T08:18:00Z</time>
      </trkpt>
      <trkpt lat="-21.1295" lon="55.50923">
        <ele>2194.2</ele>
        <time>2013-05-05T08:18:07Z</time>
      </trkpt>
      <trkpt lat="-21.12954" lon="55.50931">
        <ele>2194.8</ele>
        <time>2013-05-05T08:18:13Z</time>
      </trkpt>
      <trkpt lat="-21.12955" lon="55.50932">
        <ele>2194.8</ele>
        <time>2013-05-05T08:18:14Z</time>
      </trkpt>
      <trkpt lat="-21.12965" lon="55.50945">
        <ele>2192.2</ele>
        <time>2013-05-05T08:18:30Z</time>
      </trkpt>
      <trkpt lat="-21.12973" lon="55.50949">
        <ele>2191.4</ele>
        <time>2013-05-05T08:18:36Z</time>
      </trkpt>
      <trkpt lat="-21.12977" lon="55.50956">
        <ele>2190.6</ele>
        <time>2013-05-05T08:18:46Z</time>
      </trkpt>
      <trkpt lat="-21.12981" lon="55.50963">
        <ele>2190.4</ele>
        <time>2013-05-05T08:18:55Z</time>
      </trkpt>
      <trkpt lat="-21.12986" lon="55.50971">
        <ele>2190.2</ele>
        <time>2013-05-05T08:19:04Z</time>
      </trkpt>
      <trkpt lat="-21.12992" lon="55.50979">
        <ele>2189.1</ele>
        <time>2013-05-05T08:19:16Z</time>
      </trkpt>
      <trkpt lat="-21.12992" lon="55.50979">
        <ele>2188.9</ele>
        <time>2013-05-05T08:19:17Z</time>
      </trkpt>
      <trkpt lat="-21.13004" lon="55.50991">
        <ele>2187.6</ele>
        <time>2013-05-05T08:19:31Z</time>
      </trkpt>
      <trkpt lat="-21.13009" lon="55.50999">
        <ele>2187.3</ele>
        <time>2013-05-05T08:19:37Z</time>
      </trkpt>
      <trkpt lat="-21.13014" lon="55.51005">
        <ele>2185.9</ele>
        <time>2013-05-05T08:19:43Z</time>
      </trkpt>
      <trkpt lat="-21.13022" lon="55.51004">
        <ele>2185.6</ele>
        <time>2013-05-05T08:19:51Z</time>
      </trkpt>
      <trkpt lat="-21.1303" lon="55.51009">
        <ele>2185.9</ele>
        <time>2013-05-05T08:20:03Z</time>
      </trkpt>
      <trkpt lat="-21.13034" lon="55.51017">
        <ele>2187.4</ele>
        <time>2013-05-05T08:20:20Z</time>
      </trkpt>
      <trkpt lat="-21.13034" lon="55.51018">
        <ele>2187.5</ele>
        <time>2013-05-05T08:20:21Z</time>
      </trkpt>
      <trkpt lat="-21.13042" lon="55.51033">
        <ele>2186</ele>
        <time>2013-05-05T08:20:37Z</time>
      </trkpt>
      <trkpt lat="-21.13045" lon="55.51041">
        <ele>2187.1</ele>
        <time>2013-05-05T08:20:49Z</time>
      </trkpt>
      <trkpt lat="-21.13047" lon="55.5105">
        <ele>2188.8</ele>
        <time>2013-05-05T08:21:01Z</time>
      </trkpt>
      <trkpt lat="-21.1305" lon="55.51059">
        <ele>2189.2</ele>
        <time>2013-05-05T08:21:13Z</time>
      </trkpt>
      <trkpt lat="-21.13053" lon="55.51068">
        <ele>2190.9</ele>
        <time>2013-05-05T08:21:26Z</time>
      </trkpt>
      <trkpt lat="-21.13053" lon="55.51069">
        <ele>2191.2</ele>
        <time>2013-05-05T08:21:27Z</time>
      </trkpt>
      <trkpt lat="-21.13063" lon="55.51081">
        <ele>2191.7</ele>
        <time>2013-05-05T08:21:47Z</time>
      </trkpt>
      <trkpt lat="-21.13069" lon="55.51088">
        <ele>2191.1</ele>
        <time>2013-05-05T08:21:59Z</time>
      </trkpt>
      <trkpt lat="-21.13074" lon="55.51096">
        <ele>2191.2</ele>
        <time>2013-05-05T08:22:12Z</time>
      </trkpt>
      <trkpt lat="-21.13077" lon="55.51105">
        <ele>2192.1</ele>
        <time>2013-05-05T08:22:23Z</time>
      </trkpt>
      <trkpt lat="-21.13084" lon="55.51109">
        <ele>2192.7</ele>
        <time>2013-05-05T08:22:32Z</time>
      </trkpt>
      <trkpt lat="-21.13085" lon="55.5111">
        <ele>2192.7</ele>
        <time>2013-05-05T08:22:33Z</time>
      </trkpt>
      <trkpt lat="-21.13093" lon="55.51126">
        <ele>2194.1</ele>
        <time>2013-05-05T08:22:53Z</time>
      </trkpt>
      <trkpt lat="-21.13096" lon="55.51134">
        <ele>2192.6</ele>
        <time>2013-05-05T08:23:00Z</time>
      </trkpt>
      <trkpt lat="-21.13103" lon="55.51139">
        <ele>2192.9</ele>
        <time>2013-05-05T08:23:08Z</time>
      </trkpt>
      <trkpt lat="-21.1311" lon="55.51144">
        <ele>2191.6</ele>
        <time>2013-05-05T08:23:21Z</time>
      </trkpt>
      <trkpt lat="-21.13114" lon="55.51151">
        <ele>2191</ele>
        <time>2013-05-05T08:23:28Z</time>
      </trkpt>
      <trkpt lat="-21.1312" lon="55.51158">
        <ele>2190.9</ele>
        <time>2013-05-05T08:23:46Z</time>
      </trkpt>
      <trkpt lat="-21.13121" lon="55.51158">
        <ele>2190.9</ele>
        <time>2013-05-05T08:23:47Z</time>
      </trkpt>
      <trkpt lat="-21.13129" lon="55.51163">
        <ele>2190.7</ele>
        <time>2013-05-05T08:25:34Z</time>
      </trkpt>
      <trkpt lat="-21.13134" lon="55.5117">
        <ele>2191.9</ele>
        <time>2013-05-05T08:26:47Z</time>
      </trkpt>
      <trkpt lat="-21.13144" lon="55.51184">
        <ele>2188.8</ele>
        <time>2013-05-05T08:27:05Z</time>
      </trkpt>
      <trkpt lat="-21.13146" lon="55.51193">
        <ele>2187.7</ele>
        <time>2013-05-05T08:27:13Z</time>
      </trkpt>
      <trkpt lat="-21.13146" lon="55.51202">
        <ele>2186.6</ele>
        <time>2013-05-05T08:27:20Z</time>
      </trkpt>
      <trkpt lat="-21.13144" lon="55.5121">
        <ele>2185.8</ele>
        <time>2013-05-05T08:27:29Z</time>
      </trkpt>
      <trkpt lat="-21.13149" lon="55.51217">
        <ele>2184.7</ele>
        <time>2013-05-05T08:27:42Z</time>
      </trkpt>
      <trkpt lat="-21.13157" lon="55.5122">
        <ele>2182.7</ele>
        <time>2013-05-05T08:27:52Z</time>
      </trkpt>
      <trkpt lat="-21.13158" lon="55.5122">
        <ele>2182.7</ele>
        <time>2013-05-05T08:27:53Z</time>
      </trkpt>
      <trkpt lat="-21.13172" lon="55.51231">
        <ele>2181.9</ele>
        <time>2013-05-05T08:28:31Z</time>
      </trkpt>
      <trkpt lat="-21.1318" lon="55.51233">
        <ele>2181.3</ele>
        <time>2013-05-05T08:28:48Z</time>
      </trkpt>
      <trkpt lat="-21.13189" lon="55.51235">
        <ele>2181.2</ele>
        <time>2013-05-05T08:28:58Z</time>
      </trkpt>
      <trkpt lat="-21.1319" lon="55.51235">
        <ele>2181.1</ele>
        <time>2013-05-05T08:28:59Z</time>
      </trkpt>
      <trkpt lat="-21.13197" lon="55.51249">
        <ele>2182.3</ele>
        <time>2013-05-05T08:29:20Z</time>
      </trkpt>
      <trkpt lat="-21.132" lon="55.51258">
        <ele>2182.6</ele>
        <time>2013-05-05T08:29:30Z</time>
      </trkpt>
      <trkpt lat="-21.13203" lon="55.51266">
        <ele>2182.4</ele>
        <time>2013-05-05T08:29:38Z</time>
      </trkpt>
      <trkpt lat="-21.13207" lon="55.51274">
        <ele>2181.1</ele>
        <time>2013-05-05T08:29:46Z</time>
      </trkpt>
      <trkpt lat="-21.13211" lon="55.51283">
        <ele>2180.1</ele>
        <time>2013-05-05T08:29:54Z</time>
      </trkpt>
      <trkpt lat="-21.13215" lon="55.5129">
        <ele>2179.5</ele>
        <time>2013-05-05T08:30:00Z</time>
      </trkpt>
      <trkpt lat="-21.13215" lon="55.51292">
        <ele>2179.3</ele>
        <time>2013-05-05T08:30:01Z</time>
      </trkpt>
      <trkpt lat="-21.13225" lon="55.51305">
        <ele>2179</ele>
        <time>2013-05-05T08:30:18Z</time>
      </trkpt>
      <trkpt lat="-21.13232" lon="55.51312">
        <ele>2177.5</ele>
        <time>2013-05-05T08:30:27Z</time>
      </trkpt>
      <trkpt lat="-21.13238" lon="55.51317">
        <ele>2175.7</ele>
        <time>2013-05-05T08:30:36Z</time>
      </trkpt>
      <trkpt lat="-21.13242" lon="55.51324">
        <ele>2175.5</ele>
        <time>2013-05-05T08:30:45Z</time>
      </trkpt>
      <trkpt lat="-21.13249" lon="55.5133">
        <ele>2175.3</ele>
        <time>2013-05-05T08:30:55Z</time>
      </trkpt>
      <trkpt lat="-21.13254" lon="55.51337">
        <ele>2174.2</ele>
        <time>2013-05-05T08:31:04Z</time>
      </trkpt>
      <trkpt lat="-21.13255" lon="55.51338">
        <ele>2174.3</ele>
        <time>2013-05-05T08:31:05Z</time>
      </trkpt>
      <trkpt lat="-21.13265" lon="55.51352">
        <ele>2171.8</ele>
        <time>2013-05-05T08:31:24Z</time>
      </trkpt>
      <trkpt lat="-21.13271" lon="55.51358">
        <ele>2170.9</ele>
        <time>2013-05-05T08:31:32Z</time>
      </trkpt>
      <trkpt lat="-21.13276" lon="55.51365">
        <ele>2170.7</ele>
        <time>2013-05-05T08:31:39Z</time>
      </trkpt>
      <trkpt lat="-21.13282" lon="55.5137">
        <ele>2171.4</ele>
        <time>2013-05-05T08:31:47Z</time>
      </trkpt>
      <trkpt lat="-21.13289" lon="55.51376">
        <ele>2170.6</ele>
        <time>2013-05-05T08:31:55Z</time>
      </trkpt>
      <trkpt lat="-21.13294" lon="55.51382">
        <ele>2169.8</ele>
        <time>2013-05-05T08:32:02Z</time>
      </trkpt>
      <trkpt lat="-21.133" lon="55.51389">
        <ele>2169.1</ele>
        <time>2013-05-05T08:32:09Z</time>
      </trkpt>
      <trkpt lat="-21.13301" lon="55.5139">
        <ele>2169</ele>
        <time>2013-05-05T08:32:10Z</time>
      </trkpt>
      <trkpt lat="-21.1331" lon="55.51402">
        <ele>2167.7</ele>
        <time>2013-05-05T08:32:23Z</time>
      </trkpt>
      <trkpt lat="-21.13316" lon="55.51409">
        <ele>2167.9</ele>
        <time>2013-05-05T08:32:32Z</time>
      </trkpt>
      <trkpt lat="-21.13321" lon="55.51416">
        <ele>2166.5</ele>
        <time>2013-05-05T08:32:40Z</time>
      </trkpt>
      <trkpt lat="-21.13327" lon="55.51422">
        <ele>2165.8</ele>
        <time>2013-05-05T08:32:48Z</time>
      </trkpt>
      <trkpt lat="-21.13331" lon="55.5143">
        <ele>2164.8</ele>
        <time>2013-05-05T08:32:55Z</time>
      </trkpt>
      <trkpt lat="-21.13338" lon="55.51436">
        <ele>2164.5</ele>
        <time>2013-05-05T08:33:03Z</time>
      </trkpt>
      <trkpt lat="-21.13344" lon="55.51441">
        <ele>2164.1</ele>
        <time>2013-05-05T08:33:10Z</time>
      </trkpt>
      <trkpt lat="-21.13345" lon="55.51442">
        <ele>2164</ele>
        <time>2013-05-05T08:33:11Z</time>
      </trkpt>
      <trkpt lat="-21.13357" lon="55.5145">
        <ele>2162.7</ele>
        <time>2013-05-05T08:33:21Z</time>
      </trkpt>
      <trkpt lat="-21.13364" lon="55.51456">
        <ele>2162.5</ele>
        <time>2013-05-05T08:33:28Z</time>
      </trkpt>
      <trkpt lat="-21.1337" lon="55.51462">
        <ele>2161.5</ele>
        <time>2013-05-05T08:33:36Z</time>
      </trkpt>
      <trkpt lat="-21.13376" lon="55.51468">
        <ele>2160.9</ele>
        <time>2013-05-05T08:33:46Z</time>
      </trkpt>
      <trkpt lat="-21.13383" lon="55.51474">
        <ele>2161.9</ele>
        <time>2013-05-05T08:33:56Z</time>
      </trkpt>
      <trkpt lat="-21.1339" lon="55.51478">
        <ele>2161.8</ele>
        <time>2013-05-05T08:34:03Z</time>
      </trkpt>
      <trkpt lat="-21.13397" lon="55.51484">
        <ele>2162.1</ele>
        <time>2013-05-05T08:34:12Z</time>
      </trkpt>
      <trkpt lat="-21.13398" lon="55.51484">
        <ele>2162.1</ele>
        <time>2013-05-05T08:34:13Z</time>
      </trkpt>
      <trkpt lat="-21.13408" lon="55.51497">
        <ele>2161</ele>
        <time>2013-05-05T08:34:32Z</time>
      </trkpt>
      <trkpt lat="-21.13411" lon="55.51506">
        <ele>2160</ele>
        <time>2013-05-05T08:34:41Z</time>
      </trkpt>
      <trkpt lat="-21.13411" lon="55.51515">
        <ele>2158.6</ele>
        <time>2013-05-05T08:34:48Z</time>
      </trkpt>
      <trkpt lat="-21.13412" lon="55.51524">
        <ele>2156.6</ele>
        <time>2013-05-05T08:35:05Z</time>
      </trkpt>
      <trkpt lat="-21.13408" lon="55.51532">
        <ele>2155.8</ele>
        <time>2013-05-05T08:35:14Z</time>
      </trkpt>
      <trkpt lat="-21.13407" lon="55.51533">
        <ele>2155.5</ele>
        <time>2013-05-05T08:35:15Z</time>
      </trkpt>
      <trkpt lat="-21.1341" lon="55.5155">
        <ele>2153.8</ele>
        <time>2013-05-05T08:35:42Z</time>
      </trkpt>
      <trkpt lat="-21.1341" lon="55.51559">
        <ele>2152.2</ele>
        <time>2013-05-05T08:35:54Z</time>
      </trkpt>
      <trkpt lat="-21.13415" lon="55.51567">
        <ele>2149</ele>
        <time>2013-05-05T08:36:15Z</time>
      </trkpt>
      <trkpt lat="-21.13415" lon="55.51567">
        <ele>2149</ele>
        <time>2013-05-05T08:36:16Z</time>
      </trkpt>
      <trkpt lat="-21.13416" lon="55.51584">
        <ele>2145.5</ele>
        <time>2013-05-05T08:36:43Z</time>
      </trkpt>
      <trkpt lat="-21.13417" lon="55.51594">
        <ele>2144.4</ele>
        <time>2013-05-05T08:36:52Z</time>
      </trkpt>
      <trkpt lat="-21.13415" lon="55.51603">
        <ele>2142.5</ele>
        <time>2013-05-05T08:37:03Z</time>
      </trkpt>
      <trkpt lat="-21.13416" lon="55.51612">
        <ele>2141.1</ele>
        <time>2013-05-05T08:37:14Z</time>
      </trkpt>
      <trkpt lat="-21.13418" lon="55.51621">
        <ele>2138.2</ele>
        <time>2013-05-05T08:37:28Z</time>
      </trkpt>
      <trkpt lat="-21.13418" lon="55.51621">
        <ele>2137.8</ele>
        <time>2013-05-05T08:37:29Z</time>
      </trkpt>
      <trkpt lat="-21.1342" lon="55.51638">
        <ele>2133</ele>
        <time>2013-05-05T08:37:53Z</time>
      </trkpt>
      <trkpt lat="-21.13423" lon="55.51647">
        <ele>2132.1</ele>
        <time>2013-05-05T08:38:02Z</time>
      </trkpt>
      <trkpt lat="-21.13424" lon="55.51656">
        <ele>2130.5</ele>
        <time>2013-05-05T08:38:15Z</time>
      </trkpt>
      <trkpt lat="-21.13428" lon="55.51665">
        <ele>2129.6</ele>
        <time>2013-05-05T08:38:27Z</time>
      </trkpt>
      <trkpt lat="-21.13428" lon="55.51674">
        <ele>2126.2</ele>
        <time>2013-05-05T08:38:48Z</time>
      </trkpt>
      <trkpt lat="-21.13429" lon="55.51675">
        <ele>2126.1</ele>
        <time>2013-05-05T08:38:49Z</time>
      </trkpt>
      <trkpt lat="-21.13425" lon="55.51692">
        <ele>2121.3</ele>
        <time>2013-05-05T08:39:17Z</time>
      </trkpt>
      <trkpt lat="-21.13422" lon="55.517">
        <ele>2120.5</ele>
        <time>2013-05-05T08:39:32Z</time>
      </trkpt>
      <trkpt lat="-21.13418" lon="55.51707">
        <ele>2119.7</ele>
        <time>2013-05-05T08:39:39Z</time>
      </trkpt>
      <trkpt lat="-21.13416" lon="55.51716">
        <ele>2119.8</ele>
        <time>2013-05-05T08:39:48Z</time>
      </trkpt>
      <trkpt lat="-21.13412" lon="55.51723">
        <ele>2118.1</ele>
        <time>2013-05-05T08:39:59Z</time>
      </trkpt>
      <trkpt lat="-21.13412" lon="55.51725">
        <ele>2118.1</ele>
        <time>2013-05-05T08:40:00Z</time>
      </trkpt>
      <trkpt lat="-21.13409" lon="55.51741">
        <ele>2117</ele>
        <time>2013-05-05T08:40:18Z</time>
      </trkpt>
      <trkpt lat="-21.13407" lon="55.5175">
        <ele>2114.6</ele>
        <time>2013-05-05T08:40:27Z</time>
      </trkpt>
      <trkpt lat="-21.13407" lon="55.51759">
        <ele>2112.6</ele>
        <time>2013-05-05T08:40:39Z</time>
      </trkpt>
      <trkpt lat="-21.13407" lon="55.51768">
        <ele>2110.4</ele>
        <time>2013-05-05T08:40:50Z</time>
      </trkpt>
      <trkpt lat="-21.13407" lon="55.51778">
        <ele>2107.7</ele>
        <time>2013-05-05T08:41:03Z</time>
      </trkpt>
      <trkpt lat="-21.13407" lon="55.51778">
        <ele>2107.7</ele>
        <time>2013-05-05T08:41:04Z</time>
      </trkpt>
      <trkpt lat="-21.13406" lon="55.51796">
        <ele>2103.2</ele>
        <time>2013-05-05T08:41:29Z</time>
      </trkpt>
      <trkpt lat="-21.13405" lon="55.51805">
        <ele>2101.5</ele>
        <time>2013-05-05T08:41:43Z</time>
      </trkpt>
      <trkpt lat="-21.13401" lon="55.51814">
        <ele>2099.2</ele>
        <time>2013-05-05T08:41:59Z</time>
      </trkpt>
      <trkpt lat="-21.13397" lon="55.51822">
        <ele>2097.3</ele>
        <time>2013-05-05T08:42:09Z</time>
      </trkpt>
      <trkpt lat="-21.13396" lon="55.51823">
        <ele>2096.8</ele>
        <time>2013-05-05T08:42:10Z</time>
      </trkpt>
      <trkpt lat="-21.134" lon="55.5184">
        <ele>2094.3</ele>
        <time>2013-05-05T08:42:37Z</time>
      </trkpt>
      <trkpt lat="-21.13404" lon="55.51849">
        <ele>2087.7</ele>
        <time>2013-05-05T08:43:10Z</time>
      </trkpt>
      <trkpt lat="-21.13404" lon="55.51849">
        <ele>2087.6</ele>
        <time>2013-05-05T08:43:11Z</time>
      </trkpt>
      <trkpt lat="-21.13401" lon="55.51867">
        <ele>2083.8</ele>
        <time>2013-05-05T08:43:39Z</time>
      </trkpt>
      <trkpt lat="-21.13404" lon="55.51876">
        <ele>2082</ele>
        <time>2013-05-05T08:43:48Z</time>
      </trkpt>
      <trkpt lat="-21.13403" lon="55.51886">
        <ele>2080.3</ele>
        <time>2013-05-05T08:44:00Z</time>
      </trkpt>
      <trkpt lat="-21.13402" lon="55.51895">
        <ele>2079.2</ele>
        <time>2013-05-05T08:44:11Z</time>
      </trkpt>
      <trkpt lat="-21.13402" lon="55.51896">
        <ele>2079.2</ele>
        <time>2013-05-05T08:44:12Z</time>
      </trkpt>
      <trkpt lat="-21.1341" lon="55.51904">
        <ele>2070.4</ele>
        <time>2013-05-05T08:44:59Z</time>
      </trkpt>
      <trkpt lat="-21.13417" lon="55.51909">
        <ele>2069.3</ele>
        <time>2013-05-05T08:45:18Z</time>
      </trkpt>
      <trkpt lat="-21.13417" lon="55.5191">
        <ele>2069.2</ele>
        <time>2013-05-05T08:45:19Z</time>
      </trkpt>
      <trkpt lat="-21.13419" lon="55.51927">
        <ele>2066.3</ele>
        <time>2013-05-05T08:45:42Z</time>
      </trkpt>
      <trkpt lat="-21.1342" lon="55.51935">
        <ele>2065.6</ele>
        <time>2013-05-05T08:45:51Z</time>
      </trkpt>
      <trkpt lat="-21.13421" lon="55.51944">
        <ele>2065</ele>
        <time>2013-05-05T08:46:00Z</time>
      </trkpt>
      <trkpt lat="-21.13421" lon="55.51953">
        <ele>2062.9</ele>
        <time>2013-05-05T08:46:08Z</time>
      </trkpt>
      <trkpt lat="-21.13422" lon="55.51962">
        <ele>2062.3</ele>
        <time>2013-05-05T08:46:20Z</time>
      </trkpt>
      <trkpt lat="-21.13423" lon="55.51963">
        <ele>2061.8</ele>
        <time>2013-05-05T08:46:21Z</time>
      </trkpt>
      <trkpt lat="-21.13423" lon="55.5198">
        <ele>2060.8</ele>
        <time>2013-05-05T08:46:40Z</time>
      </trkpt>
      <trkpt lat="-21.13423" lon="55.51989">
        <ele>2061.1</ele>
        <time>2013-05-05T08:46:49Z</time>
      </trkpt>
      <trkpt lat="-21.1342" lon="55.51998">
        <ele>2061.5</ele>
        <time>2013-05-05T08:46:58Z</time>
      </trkpt>
      <trkpt lat="-21.13419" lon="55.52006">
        <ele>2061.4</ele>
        <time>2013-05-05T08:47:06Z</time>
      </trkpt>
      <trkpt lat="-21.13419" lon="55.52016">
        <ele>2060.9</ele>
        <time>2013-05-05T08:47:16Z</time>
      </trkpt>
      <trkpt lat="-21.13419" lon="55.52024">
        <ele>2058.7</ele>
        <time>2013-05-05T08:47:25Z</time>
      </trkpt>
      <trkpt lat="-21.13418" lon="55.52025">
        <ele>2058.4</ele>
        <time>2013-05-05T08:47:26Z</time>
      </trkpt>
      <trkpt lat="-21.13417" lon="55.52041">
        <ele>2054.2</ele>
        <time>2013-05-05T08:47:48Z</time>
      </trkpt>
      <trkpt lat="-21.13417" lon="55.5205">
        <ele>2053.5</ele>
        <time>2013-05-05T08:47:59Z</time>
      </trkpt>
      <trkpt lat="-21.13418" lon="55.5206">
        <ele>2051.7</ele>
        <time>2013-05-05T08:48:09Z</time>
      </trkpt>
      <trkpt lat="-21.13415" lon="55.52069">
        <ele>2051.2</ele>
        <time>2013-05-05T08:48:19Z</time>
      </trkpt>
      <trkpt lat="-21.13413" lon="55.52078">
        <ele>2051.4</ele>
        <time>2013-05-05T08:48:31Z</time>
      </trkpt>
      <trkpt lat="-21.13413" lon="55.52078">
        <ele>2051.6</ele>
        <time>2013-05-05T08:48:32Z</time>
      </trkpt>
      <trkpt lat="-21.13422" lon="55.52092">
        <ele>2059.5</ele>
        <time>2013-05-05T08:49:14Z</time>
      </trkpt>
      <trkpt lat="-21.1343" lon="55.52088">
        <ele>2063</ele>
        <time>2013-05-05T08:49:31Z</time>
      </trkpt>
      <trkpt lat="-21.13438" lon="55.52084">
        <ele>2063.2</ele>
        <time>2013-05-05T08:49:42Z</time>
      </trkpt>
      <trkpt lat="-21.13439" lon="55.52084">
        <ele>2063.3</ele>
        <time>2013-05-05T08:49:43Z</time>
      </trkpt>
      <trkpt lat="-21.13438" lon="55.52102">
        <ele>2060.1</ele>
        <time>2013-05-05T08:50:07Z</time>
      </trkpt>
      <trkpt lat="-21.13441" lon="55.52111">
        <ele>2057.1</ele>
        <time>2013-05-05T08:50:21Z</time>
      </trkpt>
      <trkpt lat="-21.13442" lon="55.52121">
        <ele>2055.4</ele>
        <time>2013-05-05T08:50:33Z</time>
      </trkpt>
      <trkpt lat="-21.13448" lon="55.52126">
        <ele>2054.4</ele>
        <time>2013-05-05T08:50:41Z</time>
      </trkpt>
      <trkpt lat="-21.13455" lon="55.52132">
        <ele>2054.5</ele>
        <time>2013-05-05T08:50:53Z</time>
      </trkpt>
      <trkpt lat="-21.13455" lon="55.52132">
        <ele>2054.3</ele>
        <time>2013-05-05T08:50:54Z</time>
      </trkpt>
      <trkpt lat="-21.13466" lon="55.52147">
        <ele>2047.9</ele>
        <time>2013-05-05T08:51:23Z</time>
      </trkpt>
      <trkpt lat="-21.13465" lon="55.52156">
        <ele>2047.1</ele>
        <time>2013-05-05T08:51:36Z</time>
      </trkpt>
      <trkpt lat="-21.13465" lon="55.52165">
        <ele>2047.7</ele>
        <time>2013-05-05T08:51:47Z</time>
      </trkpt>
      <trkpt lat="-21.13466" lon="55.52174">
        <ele>2048.4</ele>
        <time>2013-05-05T08:51:59Z</time>
      </trkpt>
      <trkpt lat="-21.13466" lon="55.52175">
        <ele>2048.6</ele>
        <time>2013-05-05T08:52:00Z</time>
      </trkpt>
      <trkpt lat="-21.13473" lon="55.5219">
        <ele>2048</ele>
        <time>2013-05-05T08:52:17Z</time>
      </trkpt>
      <trkpt lat="-21.13475" lon="55.52199">
        <ele>2047.1</ele>
        <time>2013-05-05T08:52:29Z</time>
      </trkpt>
      <trkpt lat="-21.13475" lon="55.52209">
        <ele>2045.4</ele>
        <time>2013-05-05T08:52:39Z</time>
      </trkpt>
      <trkpt lat="-21.13472" lon="55.52218">
        <ele>2045</ele>
        <time>2013-05-05T08:52:50Z</time>
      </trkpt>
      <trkpt lat="-21.13466" lon="55.52225">
        <ele>2043.6</ele>
        <time>2013-05-05T08:53:04Z</time>
      </trkpt>
      <trkpt lat="-21.13466" lon="55.52225">
        <ele>2043.6</ele>
        <time>2013-05-05T08:53:05Z</time>
      </trkpt>
      <trkpt lat="-21.13462" lon="55.52242">
        <ele>2040.7</ele>
        <time>2013-05-05T08:53:28Z</time>
      </trkpt>
      <trkpt lat="-21.13466" lon="55.52251">
        <ele>2038.8</ele>
        <time>2013-05-05T08:53:40Z</time>
      </trkpt>
      <trkpt lat="-21.13469" lon="55.5226">
        <ele>2038.2</ele>
        <time>2013-05-05T08:53:50Z</time>
      </trkpt>
      <trkpt lat="-21.13465" lon="55.52269">
        <ele>2037.3</ele>
        <time>2013-05-05T08:54:01Z</time>
      </trkpt>
      <trkpt lat="-21.13463" lon="55.52278">
        <ele>2035.6</ele>
        <time>2013-05-05T08:54:12Z</time>
      </trkpt>
      <trkpt lat="-21.13464" lon="55.52279">
        <ele>2035.5</ele>
        <time>2013-05-05T08:54:13Z</time>
      </trkpt>
      <trkpt lat="-21.13459" lon="55.52296">
        <ele>2031.1</ele>
        <time>2013-05-05T08:54:38Z</time>
      </trkpt>
      <trkpt lat="-21.13457" lon="55.52305">
        <ele>2029.1</ele>
        <time>2013-05-05T08:54:50Z</time>
      </trkpt>
      <trkpt lat="-21.13451" lon="55.52311">
        <ele>2028.8</ele>
        <time>2013-05-05T08:55:10Z</time>
      </trkpt>
      <trkpt lat="-21.13447" lon="55.5232">
        <ele>2023.1</ele>
        <time>2013-05-05T08:55:37Z</time>
      </trkpt>
      <trkpt lat="-21.13447" lon="55.5232">
        <ele>2023</ele>
        <time>2013-05-05T08:55:38Z</time>
      </trkpt>
      <trkpt lat="-21.13439" lon="55.52336">
        <ele>2018.6</ele>
        <time>2013-05-05T08:56:05Z</time>
      </trkpt>
      <trkpt lat="-21.13437" lon="55.52344">
        <ele>2018.1</ele>
        <time>2013-05-05T08:56:21Z</time>
      </trkpt>
      <trkpt lat="-21.13429" lon="55.52349">
        <ele>2018.6</ele>
        <time>2013-05-05T08:56:28Z</time>
      </trkpt>
      <trkpt lat="-21.13433" lon="55.52357">
        <ele>2016.7</ele>
        <time>2013-05-05T08:56:35Z</time>
      </trkpt>
      <trkpt lat="-21.13434" lon="55.52366">
        <ele>2014.7</ele>
        <time>2013-05-05T08:56:53Z</time>
      </trkpt>
      <trkpt lat="-21.13434" lon="55.52367">
        <ele>2014.6</ele>
        <time>2013-05-05T08:56:54Z</time>
      </trkpt>
      <trkpt lat="-21.13425" lon="55.52382">
        <ele>2010.6</ele>
        <time>2013-05-05T08:57:20Z</time>
      </trkpt>
      <trkpt lat="-21.13422" lon="55.52391">
        <ele>2009.6</ele>
        <time>2013-05-05T08:57:30Z</time>
      </trkpt>
      <trkpt lat="-21.13421" lon="55.524">
        <ele>2006.7</ele>
        <time>2013-05-05T08:57:52Z</time>
      </trkpt>
      <trkpt lat="-21.13417" lon="55.52408">
        <ele>2005.1</ele>
        <time>2013-05-05T08:58:05Z</time>
      </trkpt>
      <trkpt lat="-21.13417" lon="55.52409">
        <ele>2005</ele>
        <time>2013-05-05T08:58:06Z</time>
      </trkpt>
      <trkpt lat="-21.13412" lon="55.52426">
        <ele>2001.7</ele>
        <time>2013-05-05T08:58:31Z</time>
      </trkpt>
      <trkpt lat="-21.13407" lon="55.52434">
        <ele>1999.4</ele>
        <time>2013-05-05T08:58:43Z</time>
      </trkpt>
      <trkpt lat="-21.13405" lon="55.52443">
        <ele>1998.2</ele>
        <time>2013-05-05T08:59:01Z</time>
      </trkpt>
      <trkpt lat="-21.13405" lon="55.52452">
        <ele>1997.4</ele>
        <time>2013-05-05T08:59:11Z</time>
      </trkpt>
      <trkpt lat="-21.13405" lon="55.52453">
        <ele>1997.2</ele>
        <time>2013-05-05T08:59:12Z</time>
      </trkpt>
      <trkpt lat="-21.13401" lon="55.5247">
        <ele>1996.3</ele>
        <time>2013-05-05T08:59:39Z</time>
      </trkpt>
      <trkpt lat="-21.13405" lon="55.52477">
        <ele>1995.5</ele>
        <time>2013-05-05T08:59:49Z</time>
      </trkpt>
      <trkpt lat="-21.13408" lon="55.52486">
        <ele>1994.6</ele>
        <time>2013-05-05T09:00:02Z</time>
      </trkpt>
      <trkpt lat="-21.13411" lon="55.52495">
        <ele>1993.7</ele>
        <time>2013-05-05T09:00:15Z</time>
      </trkpt>
      <trkpt lat="-21.13411" lon="55.52496">
        <ele>1993.5</ele>
        <time>2013-05-05T09:00:16Z</time>
      </trkpt>
      <trkpt lat="-21.13415" lon="55.52513">
        <ele>1989.2</ele>
        <time>2013-05-05T09:00:52Z</time>
      </trkpt>
      <trkpt lat="-21.13414" lon="55.52522">
        <ele>1986.8</ele>
        <time>2013-05-05T09:01:14Z</time>
      </trkpt>
      <trkpt lat="-21.13414" lon="55.52532">
        <ele>1983</ele>
        <time>2013-05-05T09:01:33Z</time>
      </trkpt>
      <trkpt lat="-21.13413" lon="55.52533">
        <ele>1982.8</ele>
        <time>2013-05-05T09:01:34Z</time>
      </trkpt>
      <trkpt lat="-21.13405" lon="55.52548">
        <ele>1978.2</ele>
        <time>2013-05-05T09:02:05Z</time>
      </trkpt>
      <trkpt lat="-21.13407" lon="55.52557">
        <ele>1977.9</ele>
        <time>2013-05-05T09:02:22Z</time>
      </trkpt>
      <trkpt lat="-21.13407" lon="55.52566">
        <ele>1976.4</ele>
        <time>2013-05-05T09:02:30Z</time>
      </trkpt>
      <trkpt lat="-21.13401" lon="55.52573">
        <ele>1975.6</ele>
        <time>2013-05-05T09:02:40Z</time>
      </trkpt>
      <trkpt lat="-21.13402" lon="55.52574">
        <ele>1975.5</ele>
        <time>2013-05-05T09:02:41Z</time>
      </trkpt>
      <trkpt lat="-21.13399" lon="55.52591">
        <ele>1975.3</ele>
        <time>2013-05-05T09:02:58Z</time>
      </trkpt>
      <trkpt lat="-21.13396" lon="55.526">
        <ele>1973.8</ele>
        <time>2013-05-05T09:03:13Z</time>
      </trkpt>
      <trkpt lat="-21.13395" lon="55.52609">
        <ele>1973.3</ele>
        <time>2013-05-05T09:03:23Z</time>
      </trkpt>
      <trkpt lat="-21.13392" lon="55.52618">
        <ele>1971.3</ele>
        <time>2013-05-05T09:03:37Z</time>
      </trkpt>
      <trkpt lat="-21.13391" lon="55.52627">
        <ele>1971.2</ele>
        <time>2013-05-05T09:03:47Z</time>
      </trkpt>
      <trkpt lat="-21.13391" lon="55.52628">
        <ele>1970.9</ele>
        <time>2013-05-05T09:03:48Z</time>
      </trkpt>
      <trkpt lat="-21.13386" lon="55.52645">
        <ele>1968.6</ele>
        <time>2013-05-05T09:04:13Z</time>
      </trkpt>
      <trkpt lat="-21.13386" lon="55.52654">
        <ele>1967.4</ele>
        <time>2013-05-05T09:04:25Z</time>
      </trkpt>
      <trkpt lat="-21.13383" lon="55.52663">
        <ele>1967.2</ele>
        <time>2013-05-05T09:04:35Z</time>
      </trkpt>
      <trkpt lat="-21.13382" lon="55.52672">
        <ele>1965.6</ele>
        <time>2013-05-05T09:04:43Z</time>
      </trkpt>
      <trkpt lat="-21.13379" lon="55.5268">
        <ele>1964.6</ele>
        <time>2013-05-05T09:04:50Z</time>
      </trkpt>
      <trkpt lat="-21.13379" lon="55.52681">
        <ele>1964.4</ele>
        <time>2013-05-05T09:04:51Z</time>
      </trkpt>
      <trkpt lat="-21.13374" lon="55.52697">
        <ele>1960.3</ele>
        <time>2013-05-05T09:05:15Z</time>
      </trkpt>
      <trkpt lat="-21.13369" lon="55.52704">
        <ele>1960.2</ele>
        <time>2013-05-05T09:05:22Z</time>
      </trkpt>
      <trkpt lat="-21.13364" lon="55.52711">
        <ele>1960.8</ele>
        <time>2013-05-05T09:05:31Z</time>
      </trkpt>
      <trkpt lat="-21.13364" lon="55.5272">
        <ele>1961.1</ele>
        <time>2013-05-05T09:05:38Z</time>
      </trkpt>
      <trkpt lat="-21.13366" lon="55.52729">
        <ele>1959.5</ele>
        <time>2013-05-05T09:05:48Z</time>
      </trkpt>
      <trkpt lat="-21.13366" lon="55.52738">
        <ele>1958.6</ele>
        <time>2013-05-05T09:05:55Z</time>
      </trkpt>
      <trkpt lat="-21.13366" lon="55.52739">
        <ele>1958.8</ele>
        <time>2013-05-05T09:05:56Z</time>
      </trkpt>
      <trkpt lat="-21.13367" lon="55.52756">
        <ele>1955.6</ele>
        <time>2013-05-05T09:06:13Z</time>
      </trkpt>
      <trkpt lat="-21.13368" lon="55.52765">
        <ele>1953.9</ele>
        <time>2013-05-05T09:06:29Z</time>
      </trkpt>
      <trkpt lat="-21.13368" lon="55.52774">
        <ele>1953.3</ele>
        <time>2013-05-05T09:06:41Z</time>
      </trkpt>
      <trkpt lat="-21.13369" lon="55.52783">
        <ele>1951</ele>
        <time>2013-05-05T09:06:59Z</time>
      </trkpt>
      <trkpt lat="-21.13369" lon="55.52784">
        <ele>1950.8</ele>
        <time>2013-05-05T09:07:00Z</time>
      </trkpt>
      <trkpt lat="-21.13371" lon="55.52801">
        <ele>1948.9</ele>
        <time>2013-05-05T09:07:26Z</time>
      </trkpt>
      <trkpt lat="-21.1337" lon="55.52809">
        <ele>1947.5</ele>
        <time>2013-05-05T09:07:35Z</time>
      </trkpt>
      <trkpt lat="-21.13371" lon="55.52818">
        <ele>1946.8</ele>
        <time>2013-05-05T09:07:44Z</time>
      </trkpt>
      <trkpt lat="-21.13374" lon="55.52828">
        <ele>1945.6</ele>
        <time>2013-05-05T09:08:27Z</time>
      </trkpt>
      <trkpt lat="-21.13374" lon="55.52828">
        <ele>1945.9</ele>
        <time>2013-05-05T09:08:28Z</time>
      </trkpt>
      <trkpt lat="-21.13379" lon="55.52845">
        <ele>1943.7</ele>
        <time>2013-05-05T09:08:48Z</time>
      </trkpt>
      <trkpt lat="-21.13384" lon="55.52853">
        <ele>1942.2</ele>
        <time>2013-05-05T09:08:59Z</time>
      </trkpt>
      <trkpt lat="-21.13384" lon="55.52862">
        <ele>1939.9</ele>
        <time>2013-05-05T09:09:16Z</time>
      </trkpt>
      <trkpt lat="-21.13384" lon="55.5287">
        <ele>1939.2</ele>
        <time>2013-05-05T09:09:23Z</time>
      </trkpt>
      <trkpt lat="-21.13382" lon="55.5288">
        <ele>1938.4</ele>
        <time>2013-05-05T09:09:31Z</time>
      </trkpt>
      <trkpt lat="-21.13383" lon="55.52881">
        <ele>1938.7</ele>
        <time>2013-05-05T09:09:32Z</time>
      </trkpt>
      <trkpt lat="-21.13394" lon="55.52894">
        <ele>1936.7</ele>
        <time>2013-05-05T09:09:49Z</time>
      </trkpt>
      <trkpt lat="-21.13399" lon="55.52901">
        <ele>1935.3</ele>
        <time>2013-05-05T09:09:57Z</time>
      </trkpt>
      <trkpt lat="-21.13407" lon="55.52904">
        <ele>1933.4</ele>
        <time>2013-05-05T09:10:14Z</time>
      </trkpt>
      <trkpt lat="-21.13414" lon="55.529">
        <ele>1932.4</ele>
        <time>2013-05-05T09:10:27Z</time>
      </trkpt>
      <trkpt lat="-21.13408" lon="55.52913">
        <ele>1932</ele>
        <time>2013-05-05T09:10:52Z</time>
      </trkpt>
      <trkpt lat="-21.13407" lon="55.52915">
        <ele>1932.1</ele>
        <time>2013-05-05T09:10:54Z</time>
      </trkpt>
      <trkpt lat="-21.13408" lon="55.52938">
        <ele>1929</ele>
        <time>2013-05-05T09:11:12Z</time>
      </trkpt>
      <trkpt lat="-21.13413" lon="55.5295">
        <ele>1928</ele>
        <time>2013-05-05T09:11:24Z</time>
      </trkpt>
      <trkpt lat="-21.13414" lon="55.5296">
        <ele>1927</ele>
        <time>2013-05-05T09:11:36Z</time>
      </trkpt>
      <trkpt lat="-21.13415" lon="55.5297">
        <ele>1927</ele>
        <time>2013-05-05T09:11:50Z</time>
      </trkpt>
      <trkpt lat="-21.13434" lon="55.52982">
        <ele>1928</ele>
        <time>2013-05-05T09:12:02Z</time>
      </trkpt>
      <trkpt lat="-21.13451" lon="55.52987">
        <ele>1930.7</ele>
        <time>2013-05-05T09:12:10Z</time>
      </trkpt>
      <trkpt lat="-21.13429" lon="55.53">
        <ele>1930.9</ele>
        <time>2013-05-05T09:12:37Z</time>
      </trkpt>
      <trkpt lat="-21.13435" lon="55.53006">
        <ele>1927.9</ele>
        <time>2013-05-05T09:12:51Z</time>
      </trkpt>
      <trkpt lat="-21.13438" lon="55.53014">
        <ele>1927.6</ele>
        <time>2013-05-05T09:12:59Z</time>
      </trkpt>
      <trkpt lat="-21.13438" lon="55.53026">
        <ele>1927</ele>
        <time>2013-05-05T09:13:04Z</time>
      </trkpt>
      <trkpt lat="-21.13443" lon="55.53046">
        <ele>1926</ele>
        <time>2013-05-05T09:13:12Z</time>
      </trkpt>
      <trkpt lat="-21.13444" lon="55.53049">
        <ele>1926.5</ele>
        <time>2013-05-05T09:13:14Z</time>
      </trkpt>
      <trkpt lat="-21.13454" lon="55.53072">
        <ele>1925</ele>
        <time>2013-05-05T09:13:28Z</time>
      </trkpt>
      <trkpt lat="-21.13457" lon="55.53062">
        <ele>1926.2</ele>
        <time>2013-05-05T09:13:34Z</time>
      </trkpt>
      <trkpt lat="-21.13459" lon="55.53054">
        <ele>1926.2</ele>
        <time>2013-05-05T09:13:37Z</time>
      </trkpt>
      <trkpt lat="-21.13462" lon="55.53042">
        <ele>1926.6</ele>
        <time>2013-05-05T09:13:42Z</time>
      </trkpt>
      <trkpt lat="-21.13469" lon="55.53046">
        <ele>1927.5</ele>
        <time>2013-05-05T09:13:54Z</time>
      </trkpt>
      <trkpt lat="-21.13476" lon="55.5305">
        <ele>1930.9</ele>
        <time>2013-05-05T09:14:09Z</time>
      </trkpt>
      <trkpt lat="-21.13479" lon="55.53057">
        <ele>1931.3</ele>
        <time>2013-05-05T09:14:12Z</time>
      </trkpt>
      <trkpt lat="-21.13482" lon="55.53066">
        <ele>1932.2</ele>
        <time>2013-05-05T09:14:15Z</time>
      </trkpt>
      <trkpt lat="-21.13483" lon="55.53059">
        <ele>1933.5</ele>
        <time>2013-05-05T09:14:24Z</time>
      </trkpt>
      <trkpt lat="-21.13483" lon="55.53056">
        <ele>1933.6</ele>
        <time>2013-05-05T09:14:25Z</time>
      </trkpt>
      <trkpt lat="-21.13488" lon="55.53041">
        <ele>1934</ele>
        <time>2013-05-05T09:14:33Z</time>
      </trkpt>
      <trkpt lat="-21.13486" lon="55.53027">
        <ele>1935</ele>
        <time>2013-05-05T09:14:38Z</time>
      </trkpt>
      <trkpt lat="-21.13494" lon="55.53018">
        <ele>1938</ele>
        <time>2013-05-05T09:14:46Z</time>
      </trkpt>
      <trkpt lat="-21.13484" lon="55.53016">
        <ele>1938</ele>
        <time>2013-05-05T09:14:52Z</time>
      </trkpt>
      <trkpt lat="-21.13484" lon="55.53006">
        <ele>1940.6</ele>
        <time>2013-05-05T09:15:09Z</time>
      </trkpt>
      <trkpt lat="-21.13477" lon="55.52999">
        <ele>1942.1</ele>
        <time>2013-05-05T09:15:15Z</time>
      </trkpt>
      <trkpt lat="-21.13478" lon="55.53009">
        <ele>1945.6</ele>
        <time>2013-05-05T09:15:34Z</time>
      </trkpt>
      <trkpt lat="-21.13476" lon="55.53011">
        <ele>1946.2</ele>
        <time>2013-05-05T09:15:35Z</time>
      </trkpt>
      <trkpt lat="-21.13466" lon="55.53013">
        <ele>1946.6</ele>
        <time>2013-05-05T09:15:38Z</time>
      </trkpt>
      <trkpt lat="-21.13461" lon="55.53013">
        <ele>1946.8</ele>
        <time>2013-05-05T09:15:39Z</time>
      </trkpt>
      <trkpt lat="-21.13446" lon="55.53009">
        <ele>1946</ele>
        <time>2013-05-05T09:15:42Z</time>
      </trkpt>
      <trkpt lat="-21.13453" lon="55.53006">
        <ele>1946.8</ele>
        <time>2013-05-05T09:15:54Z</time>
      </trkpt>
      <trkpt lat="-21.13461" lon="55.53007">
        <ele>1948.7</ele>
        <time>2013-05-05T09:15:58Z</time>
      </trkpt>
      <trkpt lat="-21.13469" lon="55.53008">
        <ele>1949.5</ele>
        <time>2013-05-05T09:16:03Z</time>
      </trkpt>
      <trkpt lat="-21.13477" lon="55.53009">
        <ele>1949.5</ele>
        <time>2013-05-05T09:16:09Z</time>
      </trkpt>
      <trkpt lat="-21.13484" lon="55.53013">
        <ele>1949.8</ele>
        <time>2013-05-05T09:16:16Z</time>
      </trkpt>
      <trkpt lat="-21.13491" lon="55.53017">
        <ele>1949.5</ele>
        <time>2013-05-05T09:16:29Z</time>
      </trkpt>
      <trkpt lat="-21.135" lon="55.5302">
        <ele>1950</ele>
        <time>2013-05-05T09:16:41Z</time>
      </trkpt>
      <trkpt lat="-21.135" lon="55.5302">
        <ele>1950</ele>
        <time>2013-05-05T09:16:42Z</time>
      </trkpt>
      <trkpt lat="-21.13514" lon="55.53028">
        <ele>1950.9</ele>
        <time>2013-05-05T09:17:15Z</time>
      </trkpt>
      <trkpt lat="-21.13521" lon="55.53034">
        <ele>1949.9</ele>
        <time>2013-05-05T09:17:24Z</time>
      </trkpt>
      <trkpt lat="-21.13523" lon="55.53043">
        <ele>1949.9</ele>
        <time>2013-05-05T09:17:34Z</time>
      </trkpt>
      <trkpt lat="-21.13525" lon="55.53052">
        <ele>1949.8</ele>
        <time>2013-05-05T09:17:38Z</time>
      </trkpt>
      <trkpt lat="-21.13539" lon="55.53058">
        <ele>1950.1</ele>
        <time>2013-05-05T09:18:09Z</time>
      </trkpt>
      <trkpt lat="-21.13541" lon="55.53059">
        <ele>1950.1</ele>
        <time>2013-05-05T09:18:10Z</time>
      </trkpt>
      <trkpt lat="-21.13544" lon="55.53077">
        <ele>1949</ele>
        <time>2013-05-05T09:18:33Z</time>
      </trkpt>
      <trkpt lat="-21.13545" lon="55.53088">
        <ele>1951</ele>
        <time>2013-05-05T09:18:45Z</time>
      </trkpt>
      <trkpt lat="-21.13542" lon="55.53097">
        <ele>1951</ele>
        <time>2013-05-05T09:19:01Z</time>
      </trkpt>
      <trkpt lat="-21.13541" lon="55.53108">
        <ele>1949</ele>
        <time>2013-05-05T09:19:13Z</time>
      </trkpt>
      <trkpt lat="-21.13541" lon="55.5311">
        <ele>1949.7</ele>
        <time>2013-05-05T09:19:15Z</time>
      </trkpt>
      <trkpt lat="-21.13547" lon="55.53131">
        <ele>1949</ele>
        <time>2013-05-05T09:19:37Z</time>
      </trkpt>
      <trkpt lat="-21.13545" lon="55.53142">
        <ele>1951</ele>
        <time>2013-05-05T09:19:55Z</time>
      </trkpt>
      <trkpt lat="-21.13551" lon="55.53153">
        <ele>1952</ele>
        <time>2013-05-05T09:20:13Z</time>
      </trkpt>
      <trkpt lat="-21.13552" lon="55.53163">
        <ele>1951</ele>
        <time>2013-05-05T09:20:25Z</time>
      </trkpt>
      <trkpt lat="-21.13553" lon="55.53165">
        <ele>1951.3</ele>
        <time>2013-05-05T09:20:27Z</time>
      </trkpt>
      <trkpt lat="-21.13547" lon="55.53187">
        <ele>1951</ele>
        <time>2013-05-05T09:20:57Z</time>
      </trkpt>
      <trkpt lat="-21.13564" lon="55.53164">
        <ele>1953</ele>
        <time>2013-05-05T09:21:19Z</time>
      </trkpt>
      <trkpt lat="-21.13573" lon="55.53165">
        <ele>1954.6</ele>
        <time>2013-05-05T09:21:24Z</time>
      </trkpt>
      <trkpt lat="-21.13571" lon="55.53175">
        <ele>1955</ele>
        <time>2013-05-05T09:21:28Z</time>
      </trkpt>
      <trkpt lat="-21.1357" lon="55.53177">
        <ele>1955.1</ele>
        <time>2013-05-05T09:21:29Z</time>
      </trkpt>
      <trkpt lat="-21.13564" lon="55.53192">
        <ele>1956.4</ele>
        <time>2013-05-05T09:21:38Z</time>
      </trkpt>
      <trkpt lat="-21.13563" lon="55.532">
        <ele>1957.3</ele>
        <time>2013-05-05T09:21:46Z</time>
      </trkpt>
      <trkpt lat="-21.13558" lon="55.53208">
        <ele>1955.8</ele>
        <time>2013-05-05T09:21:57Z</time>
      </trkpt>
      <trkpt lat="-21.13555" lon="55.53217">
        <ele>1953.7</ele>
        <time>2013-05-05T09:22:11Z</time>
      </trkpt>
      <trkpt lat="-21.13541" lon="55.53223">
        <ele>1953</ele>
        <time>2013-05-05T09:22:24Z</time>
      </trkpt>
      <trkpt lat="-21.1353" lon="55.53223">
        <ele>1954</ele>
        <time>2013-05-05T09:22:31Z</time>
      </trkpt>
      <trkpt lat="-21.13528" lon="55.53223">
        <ele>1955.3</ele>
        <time>2013-05-05T09:22:35Z</time>
      </trkpt>
      <trkpt lat="-21.13541" lon="55.53238">
        <ele>1958.8</ele>
        <time>2013-05-05T09:22:58Z</time>
      </trkpt>
      <trkpt lat="-21.13547" lon="55.53247">
        <ele>1959</ele>
        <time>2013-05-05T09:23:01Z</time>
      </trkpt>
      <trkpt lat="-21.13566" lon="55.53263">
        <ele>1958</ele>
        <time>2013-05-05T09:23:10Z</time>
      </trkpt>
      <trkpt lat="-21.13576" lon="55.53267">
        <ele>1959</ele>
        <time>2013-05-05T09:23:23Z</time>
      </trkpt>
      <trkpt lat="-21.13574" lon="55.53275">
        <ele>1959.7</ele>
        <time>2013-05-05T09:23:31Z</time>
      </trkpt>
      <trkpt lat="-21.13579" lon="55.53282">
        <ele>1957.6</ele>
        <time>2013-05-05T09:23:46Z</time>
      </trkpt>
      <trkpt lat="-21.1358" lon="55.53283">
        <ele>1957.7</ele>
        <time>2013-05-05T09:23:47Z</time>
      </trkpt>
      <trkpt lat="-21.13584" lon="55.53299">
        <ele>1957.3</ele>
        <time>2013-05-05T09:24:21Z</time>
      </trkpt>
      <trkpt lat="-21.1359" lon="55.53306">
        <ele>1959</ele>
        <time>2013-05-05T09:24:32Z</time>
      </trkpt>
      <trkpt lat="-21.13598" lon="55.5331">
        <ele>1959.4</ele>
        <time>2013-05-05T09:24:40Z</time>
      </trkpt>
      <trkpt lat="-21.13607" lon="55.53311">
        <ele>1962.8</ele>
        <time>2013-05-05T09:24:54Z</time>
      </trkpt>
      <trkpt lat="-21.13607" lon="55.53311">
        <ele>1963</ele>
        <time>2013-05-05T09:24:55Z</time>
      </trkpt>
      <trkpt lat="-21.13618" lon="55.53324">
        <ele>1964.2</ele>
        <time>2013-05-05T09:25:27Z</time>
      </trkpt>
      <trkpt lat="-21.13625" lon="55.53327">
        <ele>1965.2</ele>
        <time>2013-05-05T09:25:34Z</time>
      </trkpt>
      <trkpt lat="-21.13626" lon="55.53336">
        <ele>1965.3</ele>
        <time>2013-05-05T09:25:38Z</time>
      </trkpt>
      <trkpt lat="-21.13629" lon="55.53345">
        <ele>1964.7</ele>
        <time>2013-05-05T09:25:46Z</time>
      </trkpt>
      <trkpt lat="-21.13626" lon="55.53354">
        <ele>1966.3</ele>
        <time>2013-05-05T09:26:04Z</time>
      </trkpt>
      <trkpt lat="-21.13626" lon="55.53354">
        <ele>1966.1</ele>
        <time>2013-05-05T09:26:05Z</time>
      </trkpt>
      <trkpt lat="-21.1363" lon="55.53368">
        <ele>1971</ele>
        <time>2013-05-05T09:26:45Z</time>
      </trkpt>
      <trkpt lat="-21.13626" lon="55.53377">
        <ele>1972.4</ele>
        <time>2013-05-05T09:26:51Z</time>
      </trkpt>
      <trkpt lat="-21.13635" lon="55.53377">
        <ele>1978</ele>
        <time>2013-05-05T09:27:36Z</time>
      </trkpt>
      <trkpt lat="-21.13636" lon="55.53378">
        <ele>1977.7</ele>
        <time>2013-05-05T09:27:37Z</time>
      </trkpt>
      <trkpt lat="-21.13642" lon="55.53394">
        <ele>1980.2</ele>
        <time>2013-05-05T09:27:57Z</time>
      </trkpt>
      <trkpt lat="-21.13646" lon="55.53402">
        <ele>1980</ele>
        <time>2013-05-05T09:28:03Z</time>
      </trkpt>
      <trkpt lat="-21.13654" lon="55.53409">
        <ele>1982</ele>
        <time>2013-05-05T09:28:11Z</time>
      </trkpt>
      <trkpt lat="-21.13649" lon="55.53415">
        <ele>1986.2</ele>
        <time>2013-05-05T09:28:41Z</time>
      </trkpt>
      <trkpt lat="-21.13648" lon="55.53416">
        <ele>1986.3</ele>
        <time>2013-05-05T09:28:42Z</time>
      </trkpt>
      <trkpt lat="-21.13666" lon="55.53415">
        <ele>1990.5</ele>
        <time>2013-05-05T09:29:13Z</time>
      </trkpt>
      <trkpt lat="-21.13674" lon="55.53419">
        <ele>1996</ele>
        <time>2013-05-05T09:29:58Z</time>
      </trkpt>
      <trkpt lat="-21.13674" lon="55.53419">
        <ele>1996.1</ele>
        <time>2013-05-05T09:29:59Z</time>
      </trkpt>
      <trkpt lat="-21.13686" lon="55.53432">
        <ele>2002.5</ele>
        <time>2013-05-05T09:30:38Z</time>
      </trkpt>
      <trkpt lat="-21.13693" lon="55.53436">
        <ele>2008.9</ele>
        <time>2013-05-05T09:31:14Z</time>
      </trkpt>
      <trkpt lat="-21.13694" lon="55.53437">
        <ele>2009</ele>
        <time>2013-05-05T09:31:15Z</time>
      </trkpt>
      <trkpt lat="-21.137" lon="55.53453">
        <ele>2011.1</ele>
        <time>2013-05-05T09:31:41Z</time>
      </trkpt>
      <trkpt lat="-21.13697" lon="55.53462">
        <ele>2011</ele>
        <time>2013-05-05T09:31:58Z</time>
      </trkpt>
      <trkpt lat="-21.13695" lon="55.53471">
        <ele>2011.1</ele>
        <time>2013-05-05T09:32:07Z</time>
      </trkpt>
      <trkpt lat="-21.13703" lon="55.53473">
        <ele>2015.2</ele>
        <time>2013-05-05T09:32:25Z</time>
      </trkpt>
      <trkpt lat="-21.13703" lon="55.53474">
        <ele>2015.5</ele>
        <time>2013-05-05T09:32:26Z</time>
      </trkpt>
      <trkpt lat="-21.13715" lon="55.53486">
        <ele>2019.4</ele>
        <time>2013-05-05T09:32:56Z</time>
      </trkpt>
      <trkpt lat="-21.13718" lon="55.53493">
        <ele>2020.2</ele>
        <time>2013-05-05T09:33:03Z</time>
      </trkpt>
      <trkpt lat="-21.13721" lon="55.53502">
        <ele>2020.9</ele>
        <time>2013-05-05T09:33:09Z</time>
      </trkpt>
      <trkpt lat="-21.13725" lon="55.5351">
        <ele>2022.5</ele>
        <time>2013-05-05T09:33:28Z</time>
      </trkpt>
      <trkpt lat="-21.13725" lon="55.53511">
        <ele>2022.9</ele>
        <time>2013-05-05T09:33:29Z</time>
      </trkpt>
      <trkpt lat="-21.13727" lon="55.53529">
        <ele>2024.6</ele>
        <time>2013-05-05T09:33:53Z</time>
      </trkpt>
      <trkpt lat="-21.1373" lon="55.53537">
        <ele>2025</ele>
        <time>2013-05-05T09:34:03Z</time>
      </trkpt>
      <trkpt lat="-21.1373" lon="55.53547">
        <ele>2026.4</ele>
        <time>2013-05-05T09:34:17Z</time>
      </trkpt>
      <trkpt lat="-21.1373" lon="55.53556">
        <ele>2025.8</ele>
        <time>2013-05-05T09:35:57Z</time>
      </trkpt>
      <trkpt lat="-21.1373" lon="55.53556">
        <ele>2026.1</ele>
        <time>2013-05-05T09:35:58Z</time>
      </trkpt>
      <trkpt lat="-21.13733" lon="55.53566">
        <ele>2024.7</ele>
        <time>2013-05-05T09:39:59Z</time>
      </trkpt>
      <trkpt lat="-21.13732" lon="55.53583">
        <ele>2020.6</ele>
        <time>2013-05-05T09:40:27Z</time>
      </trkpt>
      <trkpt lat="-21.13738" lon="55.5359">
        <ele>2019.1</ele>
        <time>2013-05-05T09:40:37Z</time>
      </trkpt>
      <trkpt lat="-21.13744" lon="55.53596">
        <ele>2015.4</ele>
        <time>2013-05-05T09:40:58Z</time>
      </trkpt>
      <trkpt lat="-21.13751" lon="55.536">
        <ele>2013.3</ele>
        <time>2013-05-05T09:41:10Z</time>
      </trkpt>
      <trkpt lat="-21.13752" lon="55.536">
        <ele>2013</ele>
        <time>2013-05-05T09:41:11Z</time>
      </trkpt>
      <trkpt lat="-21.13767" lon="55.53607">
        <ele>2010.5</ele>
        <time>2013-05-05T09:41:35Z</time>
      </trkpt>
      <trkpt lat="-21.13774" lon="55.53609">
        <ele>2009.4</ele>
        <time>2013-05-05T09:41:43Z</time>
      </trkpt>
      <trkpt lat="-21.13781" lon="55.53615">
        <ele>2007.7</ele>
        <time>2013-05-05T09:41:53Z</time>
      </trkpt>
      <trkpt lat="-21.13784" lon="55.53624">
        <ele>2005.5</ele>
        <time>2013-05-05T09:42:04Z</time>
      </trkpt>
      <trkpt lat="-21.13785" lon="55.53633">
        <ele>2005</ele>
        <time>2013-05-05T09:42:14Z</time>
      </trkpt>
      <trkpt lat="-21.13784" lon="55.53634">
        <ele>2005.3</ele>
        <time>2013-05-05T09:42:15Z</time>
      </trkpt>
      <trkpt lat="-21.13781" lon="55.53651">
        <ele>2004.2</ele>
        <time>2013-05-05T09:42:31Z</time>
      </trkpt>
      <trkpt lat="-21.13781" lon="55.5366">
        <ele>2002.9</ele>
        <time>2013-05-05T09:42:40Z</time>
      </trkpt>
      <trkpt lat="-21.13778" lon="55.53668">
        <ele>2004.2</ele>
        <time>2013-05-05T09:42:48Z</time>
      </trkpt>
      <trkpt lat="-21.13774" lon="55.53677">
        <ele>2003.3</ele>
        <time>2013-05-05T09:42:56Z</time>
      </trkpt>
      <trkpt lat="-21.13772" lon="55.53686">
        <ele>2004.2</ele>
        <time>2013-05-05T09:43:07Z</time>
      </trkpt>
      <trkpt lat="-21.1377" lon="55.53695">
        <ele>2002.1</ele>
        <time>2013-05-05T09:43:15Z</time>
      </trkpt>
      <trkpt lat="-21.13766" lon="55.53702">
        <ele>2001.9</ele>
        <time>2013-05-05T09:43:23Z</time>
      </trkpt>
      <trkpt lat="-21.13765" lon="55.53703">
        <ele>2001.9</ele>
        <time>2013-05-05T09:43:24Z</time>
      </trkpt>
      <trkpt lat="-21.13757" lon="55.53717">
        <ele>2000.6</ele>
        <time>2013-05-05T09:43:39Z</time>
      </trkpt>
      <trkpt lat="-21.13751" lon="55.53723">
        <ele>2000.9</ele>
        <time>2013-05-05T09:43:47Z</time>
      </trkpt>
      <trkpt lat="-21.13745" lon="55.53729">
        <ele>2001.2</ele>
        <time>2013-05-05T09:43:56Z</time>
      </trkpt>
      <trkpt lat="-21.1374" lon="55.53735">
        <ele>2001.7</ele>
        <time>2013-05-05T09:44:05Z</time>
      </trkpt>
      <trkpt lat="-21.13732" lon="55.5374">
        <ele>2000.9</ele>
        <time>2013-05-05T09:44:15Z</time>
      </trkpt>
      <trkpt lat="-21.13724" lon="55.53744">
        <ele>2001.1</ele>
        <time>2013-05-05T09:44:26Z</time>
      </trkpt>
      <trkpt lat="-21.13724" lon="55.53744">
        <ele>2000.8</ele>
        <time>2013-05-05T09:44:27Z</time>
      </trkpt>
      <trkpt lat="-21.13716" lon="55.5376">
        <ele>1999.6</ele>
        <time>2013-05-05T09:44:44Z</time>
      </trkpt>
      <trkpt lat="-21.13713" lon="55.53769">
        <ele>1999.5</ele>
        <time>2013-05-05T09:44:53Z</time>
      </trkpt>
      <trkpt lat="-21.1371" lon="55.53778">
        <ele>2000.1</ele>
        <time>2013-05-05T09:45:02Z</time>
      </trkpt>
      <trkpt lat="-21.13708" lon="55.53786">
        <ele>2000.1</ele>
        <time>2013-05-05T09:45:10Z</time>
      </trkpt>
      <trkpt lat="-21.13703" lon="55.53794">
        <ele>2001.5</ele>
        <time>2013-05-05T09:45:27Z</time>
      </trkpt>
      <trkpt lat="-21.13702" lon="55.53795">
        <ele>2001.1</ele>
        <time>2013-05-05T09:45:28Z</time>
      </trkpt>
      <trkpt lat="-21.13708" lon="55.53807">
        <ele>2000.2</ele>
        <time>2013-05-05T09:45:44Z</time>
      </trkpt>
      <trkpt lat="-21.13717" lon="55.53809">
        <ele>2000.4</ele>
        <time>2013-05-05T09:45:52Z</time>
      </trkpt>
      <trkpt lat="-21.13721" lon="55.53816">
        <ele>1999.7</ele>
        <time>2013-05-05T09:46:02Z</time>
      </trkpt>
      <trkpt lat="-21.13726" lon="55.53824">
        <ele>1999.4</ele>
        <time>2013-05-05T09:46:09Z</time>
      </trkpt>
      <trkpt lat="-21.13732" lon="55.5383">
        <ele>1999.8</ele>
        <time>2013-05-05T09:46:17Z</time>
      </trkpt>
      <trkpt lat="-21.13739" lon="55.53833">
        <ele>1999.3</ele>
        <time>2013-05-05T09:46:24Z</time>
      </trkpt>
      <trkpt lat="-21.13746" lon="55.5384">
        <ele>1998.2</ele>
        <time>2013-05-05T09:46:32Z</time>
      </trkpt>
      <trkpt lat="-21.13746" lon="55.53841">
        <ele>1998.4</ele>
        <time>2013-05-05T09:46:33Z</time>
      </trkpt>
      <trkpt lat="-21.13742" lon="55.53849">
        <ele>1996.6</ele>
        <time>2013-05-05T09:46:56Z</time>
      </trkpt>
      <trkpt lat="-21.13736" lon="55.53855">
        <ele>1995.9</ele>
        <time>2013-05-05T09:47:07Z</time>
      </trkpt>
      <trkpt lat="-21.13735" lon="55.53863">
        <ele>1994</ele>
        <time>2013-05-05T09:47:15Z</time>
      </trkpt>
      <trkpt lat="-21.13738" lon="55.53872">
        <ele>1993.8</ele>
        <time>2013-05-05T09:47:23Z</time>
      </trkpt>
      <trkpt lat="-21.13745" lon="55.53878">
        <ele>1993.4</ele>
        <time>2013-05-05T09:47:31Z</time>
      </trkpt>
      <trkpt lat="-21.13752" lon="55.53882">
        <ele>1992.4</ele>
        <time>2013-05-05T09:47:39Z</time>
      </trkpt>
      <trkpt lat="-21.13753" lon="55.53883">
        <ele>1992.1</ele>
        <time>2013-05-05T09:47:40Z</time>
      </trkpt>
      <trkpt lat="-21.13768" lon="55.53888">
        <ele>1990.6</ele>
        <time>2013-05-05T09:47:55Z</time>
      </trkpt>
      <trkpt lat="-21.13775" lon="55.53895">
        <ele>1989.5</ele>
        <time>2013-05-05T09:48:05Z</time>
      </trkpt>
      <trkpt lat="-21.13778" lon="55.53903">
        <ele>1988.5</ele>
        <time>2013-05-05T09:48:16Z</time>
      </trkpt>
      <trkpt lat="-21.13785" lon="55.53909">
        <ele>1986.8</ele>
        <time>2013-05-05T09:48:25Z</time>
      </trkpt>
      <trkpt lat="-21.13792" lon="55.53913">
        <ele>1984.7</ele>
        <time>2013-05-05T09:48:35Z</time>
      </trkpt>
      <trkpt lat="-21.13799" lon="55.53918">
        <ele>1984</ele>
        <time>2013-05-05T09:48:42Z</time>
      </trkpt>
      <trkpt lat="-21.13801" lon="55.53919">
        <ele>1983.8</ele>
        <time>2013-05-05T09:48:43Z</time>
      </trkpt>
      <trkpt lat="-21.13815" lon="55.53924">
        <ele>1984.3</ele>
        <time>2013-05-05T09:48:56Z</time>
      </trkpt>
      <trkpt lat="-21.13822" lon="55.53928">
        <ele>1983.8</ele>
        <time>2013-05-05T09:49:04Z</time>
      </trkpt>
      <trkpt lat="-21.13829" lon="55.53934">
        <ele>1980.8</ele>
        <time>2013-05-05T09:49:18Z</time>
      </trkpt>
      <trkpt lat="-21.13838" lon="55.53935">
        <ele>1979.7</ele>
        <time>2013-05-05T09:49:29Z</time>
      </trkpt>
      <trkpt lat="-21.13845" lon="55.5394">
        <ele>1978.6</ele>
        <time>2013-05-05T09:49:43Z</time>
      </trkpt>
      <trkpt lat="-21.13845" lon="55.53941">
        <ele>1978.2</ele>
        <time>2013-05-05T09:49:44Z</time>
      </trkpt>
      <trkpt lat="-21.1385" lon="55.53958">
        <ele>1976.7</ele>
        <time>2013-05-05T09:51:39Z</time>
      </trkpt>
      <trkpt lat="-21.13851" lon="55.53958">
        <ele>1976.6</ele>
        <time>2013-05-05T09:51:40Z</time>
      </trkpt>
      <trkpt lat="-21.13865" lon="55.53966">
        <ele>1972.8</ele>
        <time>2013-05-05T09:52:18Z</time>
      </trkpt>
      <trkpt lat="-21.13873" lon="55.53969">
        <ele>1972.1</ele>
        <time>2013-05-05T09:52:27Z</time>
      </trkpt>
      <trkpt lat="-21.13881" lon="55.53973">
        <ele>1971.1</ele>
        <time>2013-05-05T09:52:38Z</time>
      </trkpt>
      <trkpt lat="-21.13889" lon="55.53978">
        <ele>1969.3</ele>
        <time>2013-05-05T09:52:51Z</time>
      </trkpt>
      <trkpt lat="-21.13889" lon="55.53979">
        <ele>1969.2</ele>
        <time>2013-05-05T09:52:52Z</time>
      </trkpt>
      <trkpt lat="-21.13902" lon="55.53978">
        <ele>1965.2</ele>
        <time>2013-05-05T09:53:11Z</time>
      </trkpt>
      <trkpt lat="-21.13908" lon="55.53972">
        <ele>1965.3</ele>
        <time>2013-05-05T09:53:19Z</time>
      </trkpt>
      <trkpt lat="-21.13915" lon="55.53967">
        <ele>1963.9</ele>
        <time>2013-05-05T09:53:28Z</time>
      </trkpt>
      <trkpt lat="-21.13923" lon="55.53962">
        <ele>1962.8</ele>
        <time>2013-05-05T09:53:38Z</time>
      </trkpt>
      <trkpt lat="-21.13929" lon="55.53957">
        <ele>1961.5</ele>
        <time>2013-05-05T09:53:48Z</time>
      </trkpt>
      <trkpt lat="-21.13937" lon="55.53953">
        <ele>1960.4</ele>
        <time>2013-05-05T09:53:57Z</time>
      </trkpt>
      <trkpt lat="-21.13938" lon="55.53952">
        <ele>1960.5</ele>
        <time>2013-05-05T09:53:58Z</time>
      </trkpt>
      <trkpt lat="-21.13954" lon="55.53957">
        <ele>1958</ele>
        <time>2013-05-05T09:54:14Z</time>
      </trkpt>
      <trkpt lat="-21.13962" lon="55.5396">
        <ele>1957</ele>
        <time>2013-05-05T09:54:22Z</time>
      </trkpt>
      <trkpt lat="-21.1397" lon="55.53962">
        <ele>1955.1</ele>
        <time>2013-05-05T09:54:33Z</time>
      </trkpt>
      <trkpt lat="-21.13978" lon="55.53968">
        <ele>1953.6</ele>
        <time>2013-05-05T09:54:42Z</time>
      </trkpt>
      <trkpt lat="-21.13984" lon="55.53973">
        <ele>1952.7</ele>
        <time>2013-05-05T09:54:49Z</time>
      </trkpt>
      <trkpt lat="-21.13991" lon="55.53978">
        <ele>1951.7</ele>
        <time>2013-05-05T09:54:56Z</time>
      </trkpt>
      <trkpt lat="-21.13997" lon="55.53985">
        <ele>1950.4</ele>
        <time>2013-05-05T09:55:05Z</time>
      </trkpt>
      <trkpt lat="-21.13998" lon="55.53986">
        <ele>1950.3</ele>
        <time>2013-05-05T09:55:06Z</time>
      </trkpt>
      <trkpt lat="-21.14011" lon="55.53984">
        <ele>1947.1</ele>
        <time>2013-05-05T09:55:29Z</time>
      </trkpt>
      <trkpt lat="-21.14017" lon="55.53977">
        <ele>1947.2</ele>
        <time>2013-05-05T09:55:36Z</time>
      </trkpt>
      <trkpt lat="-21.14017" lon="55.53968">
        <ele>1946</ele>
        <time>2013-05-05T09:55:46Z</time>
      </trkpt>
      <trkpt lat="-21.14014" lon="55.5396">
        <ele>1945.8</ele>
        <time>2013-05-05T09:55:55Z</time>
      </trkpt>
      <trkpt lat="-21.14023" lon="55.53957">
        <ele>1945.2</ele>
        <time>2013-05-05T09:56:13Z</time>
      </trkpt>
      <trkpt lat="-21.14024" lon="55.53957">
        <ele>1945</ele>
        <time>2013-05-05T09:56:14Z</time>
      </trkpt>
      <trkpt lat="-21.14038" lon="55.53963">
        <ele>1942.8</ele>
        <time>2013-05-05T09:56:30Z</time>
      </trkpt>
      <trkpt lat="-21.14046" lon="55.53967">
        <ele>1941.6</ele>
        <time>2013-05-05T09:56:40Z</time>
      </trkpt>
      <trkpt lat="-21.14055" lon="55.53967">
        <ele>1939.8</ele>
        <time>2013-05-05T09:56:53Z</time>
      </trkpt>
      <trkpt lat="-21.14063" lon="55.53968">
        <ele>1938.8</ele>
        <time>2013-05-05T09:57:00Z</time>
      </trkpt>
      <trkpt lat="-21.14071" lon="55.53971">
        <ele>1937.6</ele>
        <time>2013-05-05T09:57:06Z</time>
      </trkpt>
      <trkpt lat="-21.14078" lon="55.53972">
        <ele>1937.6</ele>
        <time>2013-05-05T09:57:13Z</time>
      </trkpt>
      <trkpt lat="-21.14086" lon="55.53975">
        <ele>1938</ele>
        <time>2013-05-05T09:57:21Z</time>
      </trkpt>
      <trkpt lat="-21.14087" lon="55.53976">
        <ele>1937.9</ele>
        <time>2013-05-05T09:57:22Z</time>
      </trkpt>
      <trkpt lat="-21.14099" lon="55.53987">
        <ele>1937.2</ele>
        <time>2013-05-05T09:57:34Z</time>
      </trkpt>
      <trkpt lat="-21.14107" lon="55.53992">
        <ele>1937</ele>
        <time>2013-05-05T09:57:42Z</time>
      </trkpt>
      <trkpt lat="-21.14114" lon="55.53997">
        <ele>1935.9</ele>
        <time>2013-05-05T09:57:49Z</time>
      </trkpt>
      <trkpt lat="-21.14122" lon="55.54">
        <ele>1934.4</ele>
        <time>2013-05-05T09:57:56Z</time>
      </trkpt>
      <trkpt lat="-21.1413" lon="55.54004">
        <ele>1933.7</ele>
        <time>2013-05-05T09:58:03Z</time>
      </trkpt>
      <trkpt lat="-21.14136" lon="55.5401">
        <ele>1931.9</ele>
        <time>2013-05-05T09:58:10Z</time>
      </trkpt>
      <trkpt lat="-21.14144" lon="55.54014">
        <ele>1932.3</ele>
        <time>2013-05-05T09:58:18Z</time>
      </trkpt>
      <trkpt lat="-21.14151" lon="55.5402">
        <ele>1929.8</ele>
        <time>2013-05-05T09:58:27Z</time>
      </trkpt>
      <trkpt lat="-21.14152" lon="55.5402">
        <ele>1929.9</ele>
        <time>2013-05-05T09:58:28Z</time>
      </trkpt>
      <trkpt lat="-21.14166" lon="55.54028">
        <ele>1925.8</ele>
        <time>2013-05-05T09:58:49Z</time>
      </trkpt>
      <trkpt lat="-21.14175" lon="55.54028">
        <ele>1925.8</ele>
        <time>2013-05-05T09:58:58Z</time>
      </trkpt>
      <trkpt lat="-21.14182" lon="55.54031">
        <ele>1923.7</ele>
        <time>2013-05-05T09:59:08Z</time>
      </trkpt>
      <trkpt lat="-21.1419" lon="55.54035">
        <ele>1923.2</ele>
        <time>2013-05-05T09:59:17Z</time>
      </trkpt>
      <trkpt lat="-21.14199" lon="55.54037">
        <ele>1921.8</ele>
        <time>2013-05-05T09:59:26Z</time>
      </trkpt>
      <trkpt lat="-21.14207" lon="55.5404">
        <ele>1919.8</ele>
        <time>2013-05-05T09:59:36Z</time>
      </trkpt>
      <trkpt lat="-21.14208" lon="55.54039">
        <ele>1919.7</ele>
        <time>2013-05-05T09:59:37Z</time>
      </trkpt>
      <trkpt lat="-21.14222" lon="55.54041">
        <ele>1919.3</ele>
        <time>2013-05-05T09:59:52Z</time>
      </trkpt>
      <trkpt lat="-21.14231" lon="55.54042">
        <ele>1918</ele>
        <time>2013-05-05T10:00:02Z</time>
      </trkpt>
      <trkpt lat="-21.14239" lon="55.54039">
        <ele>1916.3</ele>
        <time>2013-05-05T10:00:13Z</time>
      </trkpt>
      <trkpt lat="-21.14246" lon="55.54034">
        <ele>1915.4</ele>
        <time>2013-05-05T10:00:23Z</time>
      </trkpt>
      <trkpt lat="-21.14254" lon="55.5403">
        <ele>1914.7</ele>
        <time>2013-05-05T10:00:33Z</time>
      </trkpt>
      <trkpt lat="-21.14263" lon="55.54031">
        <ele>1913</ele>
        <time>2013-05-05T10:00:43Z</time>
      </trkpt>
      <trkpt lat="-21.14264" lon="55.54031">
        <ele>1912.9</ele>
        <time>2013-05-05T10:00:44Z</time>
      </trkpt>
      <trkpt lat="-21.14279" lon="55.5403">
        <ele>1911</ele>
        <time>2013-05-05T10:01:01Z</time>
      </trkpt>
      <trkpt lat="-21.14288" lon="55.54027">
        <ele>1909.9</ele>
        <time>2013-05-05T10:01:08Z</time>
      </trkpt>
      <trkpt lat="-21.14296" lon="55.54029">
        <ele>1909.3</ele>
        <time>2013-05-05T10:01:15Z</time>
      </trkpt>
      <trkpt lat="-21.14304" lon="55.54031">
        <ele>1909.5</ele>
        <time>2013-05-05T10:01:23Z</time>
      </trkpt>
      <trkpt lat="-21.14312" lon="55.54032">
        <ele>1907.5</ele>
        <time>2013-05-05T10:01:31Z</time>
      </trkpt>
      <trkpt lat="-21.1432" lon="55.54035">
        <ele>1907.1</ele>
        <time>2013-05-05T10:01:38Z</time>
      </trkpt>
      <trkpt lat="-21.14328" lon="55.54036">
        <ele>1907.4</ele>
        <time>2013-05-05T10:01:44Z</time>
      </trkpt>
      <trkpt lat="-21.14329" lon="55.54036">
        <ele>1907.2</ele>
        <time>2013-05-05T10:01:45Z</time>
      </trkpt>
      <trkpt lat="-21.14344" lon="55.54036">
        <ele>1905.6</ele>
        <time>2013-05-05T10:01:57Z</time>
      </trkpt>
      <trkpt lat="-21.14352" lon="55.54039">
        <ele>1905.5</ele>
        <time>2013-05-05T10:02:04Z</time>
      </trkpt>
      <trkpt lat="-21.14359" lon="55.54043">
        <ele>1905.6</ele>
        <time>2013-05-05T10:02:10Z</time>
      </trkpt>
      <trkpt lat="-21.14367" lon="55.54047">
        <ele>1905</ele>
        <time>2013-05-05T10:02:16Z</time>
      </trkpt>
      <trkpt lat="-21.14375" lon="55.5405">
        <ele>1903.9</ele>
        <time>2013-05-05T10:02:23Z</time>
      </trkpt>
      <trkpt lat="-21.14383" lon="55.5405">
        <ele>1902.1</ele>
        <time>2013-05-05T10:02:31Z</time>
      </trkpt>
      <trkpt lat="-21.14392" lon="55.54048">
        <ele>1901.3</ele>
        <time>2013-05-05T10:02:38Z</time>
      </trkpt>
      <trkpt lat="-21.14399" lon="55.54044">
        <ele>1900.1</ele>
        <time>2013-05-05T10:02:44Z</time>
      </trkpt>
      <trkpt lat="-21.14406" lon="55.54039">
        <ele>1898.1</ele>
        <time>2013-05-05T10:02:54Z</time>
      </trkpt>
      <trkpt lat="-21.14407" lon="55.54038">
        <ele>1897.9</ele>
        <time>2013-05-05T10:02:55Z</time>
      </trkpt>
      <trkpt lat="-21.14422" lon="55.54035">
        <ele>1894.6</ele>
        <time>2013-05-05T10:03:12Z</time>
      </trkpt>
      <trkpt lat="-21.14429" lon="55.54037">
        <ele>1894.5</ele>
        <time>2013-05-05T10:03:17Z</time>
      </trkpt>
      <trkpt lat="-21.14437" lon="55.54042">
        <ele>1893.5</ele>
        <time>2013-05-05T10:03:25Z</time>
      </trkpt>
      <trkpt lat="-21.14443" lon="55.54047">
        <ele>1892.1</ele>
        <time>2013-05-05T10:03:33Z</time>
      </trkpt>
      <trkpt lat="-21.14448" lon="55.54054">
        <ele>1889.8</ele>
        <time>2013-05-05T10:03:41Z</time>
      </trkpt>
      <trkpt lat="-21.14455" lon="55.5406">
        <ele>1887.4</ele>
        <time>2013-05-05T10:03:50Z</time>
      </trkpt>
      <trkpt lat="-21.14462" lon="55.54065">
        <ele>1885.3</ele>
        <time>2013-05-05T10:03:58Z</time>
      </trkpt>
      <trkpt lat="-21.14463" lon="55.54065">
        <ele>1885.1</ele>
        <time>2013-05-05T10:03:59Z</time>
      </trkpt>
      <trkpt lat="-21.14476" lon="55.54074">
        <ele>1883.1</ele>
        <time>2013-05-05T10:04:13Z</time>
      </trkpt>
      <trkpt lat="-21.14481" lon="55.54082">
        <ele>1881.4</ele>
        <time>2013-05-05T10:04:22Z</time>
      </trkpt>
      <trkpt lat="-21.14485" lon="55.5409">
        <ele>1881.2</ele>
        <time>2013-05-05T10:04:33Z</time>
      </trkpt>
      <trkpt lat="-21.1449" lon="55.54097">
        <ele>1878.4</ele>
        <time>2013-05-05T10:04:41Z</time>
      </trkpt>
      <trkpt lat="-21.14496" lon="55.54104">
        <ele>1876.9</ele>
        <time>2013-05-05T10:04:49Z</time>
      </trkpt>
      <trkpt lat="-21.14502" lon="55.5411">
        <ele>1875.4</ele>
        <time>2013-05-05T10:04:57Z</time>
      </trkpt>
      <trkpt lat="-21.14509" lon="55.54116">
        <ele>1873.2</ele>
        <time>2013-05-05T10:05:06Z</time>
      </trkpt>
      <trkpt lat="-21.1451" lon="55.54116">
        <ele>1873.1</ele>
        <time>2013-05-05T10:05:07Z</time>
      </trkpt>
      <trkpt lat="-21.14522" lon="55.54127">
        <ele>1869.9</ele>
        <time>2013-05-05T10:05:23Z</time>
      </trkpt>
      <trkpt lat="-21.14529" lon="55.54132">
        <ele>1869.2</ele>
        <time>2013-05-05T10:05:32Z</time>
      </trkpt>
      <trkpt lat="-21.14538" lon="55.54134">
        <ele>1867</ele>
        <time>2013-05-05T10:05:39Z</time>
      </trkpt>
      <trkpt lat="-21.14546" lon="55.54138">
        <ele>1865.6</ele>
        <time>2013-05-05T10:05:47Z</time>
      </trkpt>
      <trkpt lat="-21.14553" lon="55.54141">
        <ele>1865.1</ele>
        <time>2013-05-05T10:05:54Z</time>
      </trkpt>
      <trkpt lat="-21.14562" lon="55.54144">
        <ele>1863.6</ele>
        <time>2013-05-05T10:06:01Z</time>
      </trkpt>
      <trkpt lat="-21.1457" lon="55.54145">
        <ele>1862.8</ele>
        <time>2013-05-05T10:06:07Z</time>
      </trkpt>
      <trkpt lat="-21.14571" lon="55.54146">
        <ele>1862.3</ele>
        <time>2013-05-05T10:06:08Z</time>
      </trkpt>
      <trkpt lat="-21.14583" lon="55.54154">
        <ele>1861.4</ele>
        <time>2013-05-05T10:06:20Z</time>
      </trkpt>
      <trkpt lat="-21.1459" lon="55.54159">
        <ele>1862.3</ele>
        <time>2013-05-05T10:06:28Z</time>
      </trkpt>
      <trkpt lat="-21.14599" lon="55.54162">
        <ele>1861.2</ele>
        <time>2013-05-05T10:06:35Z</time>
      </trkpt>
      <trkpt lat="-21.14607" lon="55.54166">
        <ele>1859.9</ele>
        <time>2013-05-05T10:06:43Z</time>
      </trkpt>
      <trkpt lat="-21.14614" lon="55.54171">
        <ele>1860</ele>
        <time>2013-05-05T10:06:51Z</time>
      </trkpt>
      <trkpt lat="-21.14621" lon="55.54176">
        <ele>1859</ele>
        <time>2013-05-05T10:06:59Z</time>
      </trkpt>
      <trkpt lat="-21.14628" lon="55.54181">
        <ele>1856.6</ele>
        <time>2013-05-05T10:07:10Z</time>
      </trkpt>
      <trkpt lat="-21.14629" lon="55.54182">
        <ele>1856.6</ele>
        <time>2013-05-05T10:07:11Z</time>
      </trkpt>
      <trkpt lat="-21.14642" lon="55.54189">
        <ele>1853.6</ele>
        <time>2013-05-05T10:07:27Z</time>
      </trkpt>
      <trkpt lat="-21.14651" lon="55.54192">
        <ele>1851.7</ele>
        <time>2013-05-05T10:07:34Z</time>
      </trkpt>
      <trkpt lat="-21.14659" lon="55.54196">
        <ele>1851.9</ele>
        <time>2013-05-05T10:07:42Z</time>
      </trkpt>
      <trkpt lat="-21.14667" lon="55.542">
        <ele>1851.1</ele>
        <time>2013-05-05T10:07:49Z</time>
      </trkpt>
      <trkpt lat="-21.14674" lon="55.54204">
        <ele>1848.8</ele>
        <time>2013-05-05T10:07:59Z</time>
      </trkpt>
      <trkpt lat="-21.14683" lon="55.54207">
        <ele>1846.6</ele>
        <time>2013-05-05T10:08:09Z</time>
      </trkpt>
      <trkpt lat="-21.14691" lon="55.54211">
        <ele>1846.1</ele>
        <time>2013-05-05T10:08:17Z</time>
      </trkpt>
      <trkpt lat="-21.14692" lon="55.54212">
        <ele>1845.9</ele>
        <time>2013-05-05T10:08:18Z</time>
      </trkpt>
      <trkpt lat="-21.14705" lon="55.54221">
        <ele>1843.5</ele>
        <time>2013-05-05T10:08:32Z</time>
      </trkpt>
      <trkpt lat="-21.14712" lon="55.54227">
        <ele>1843.4</ele>
        <time>2013-05-05T10:08:40Z</time>
      </trkpt>
      <trkpt lat="-21.14714" lon="55.54236">
        <ele>1842.7</ele>
        <time>2013-05-05T10:08:48Z</time>
      </trkpt>
      <trkpt lat="-21.14717" lon="55.54244">
        <ele>1842.2</ele>
        <time>2013-05-05T10:08:56Z</time>
      </trkpt>
      <trkpt lat="-21.14724" lon="55.54249">
        <ele>1841.9</ele>
        <time>2013-05-05T10:09:04Z</time>
      </trkpt>
      <trkpt lat="-21.14733" lon="55.54252">
        <ele>1841.4</ele>
        <time>2013-05-05T10:09:11Z</time>
      </trkpt>
      <trkpt lat="-21.14741" lon="55.54253">
        <ele>1839.2</ele>
        <time>2013-05-05T10:09:20Z</time>
      </trkpt>
      <trkpt lat="-21.14742" lon="55.54253">
        <ele>1839.2</ele>
        <time>2013-05-05T10:09:21Z</time>
      </trkpt>
      <trkpt lat="-21.14757" lon="55.54258">
        <ele>1835.5</ele>
        <time>2013-05-05T10:09:39Z</time>
      </trkpt>
      <trkpt lat="-21.14762" lon="55.54266">
        <ele>1833.9</ele>
        <time>2013-05-05T10:09:48Z</time>
      </trkpt>
      <trkpt lat="-21.1477" lon="55.54271">
        <ele>1833.3</ele>
        <time>2013-05-05T10:09:57Z</time>
      </trkpt>
      <trkpt lat="-21.14778" lon="55.54275">
        <ele>1831.7</ele>
        <time>2013-05-05T10:10:04Z</time>
      </trkpt>
      <trkpt lat="-21.14784" lon="55.5428">
        <ele>1830.9</ele>
        <time>2013-05-05T10:10:11Z</time>
      </trkpt>
      <trkpt lat="-21.14789" lon="55.54287">
        <ele>1828.7</ele>
        <time>2013-05-05T10:10:20Z</time>
      </trkpt>
      <trkpt lat="-21.14796" lon="55.54293">
        <ele>1828.1</ele>
        <time>2013-05-05T10:10:27Z</time>
      </trkpt>
      <trkpt lat="-21.14797" lon="55.54294">
        <ele>1827.8</ele>
        <time>2013-05-05T10:10:28Z</time>
      </trkpt>
      <trkpt lat="-21.14808" lon="55.54306">
        <ele>1826.3</ele>
        <time>2013-05-05T10:10:40Z</time>
      </trkpt>
      <trkpt lat="-21.14815" lon="55.54312">
        <ele>1824.4</ele>
        <time>2013-05-05T10:10:48Z</time>
      </trkpt>
      <trkpt lat="-21.14821" lon="55.54317">
        <ele>1823.5</ele>
        <time>2013-05-05T10:10:55Z</time>
      </trkpt>
      <trkpt lat="-21.14828" lon="55.54322">
        <ele>1822.3</ele>
        <time>2013-05-05T10:11:01Z</time>
      </trkpt>
      <trkpt lat="-21.14834" lon="55.54327">
        <ele>1821.6</ele>
        <time>2013-05-05T10:11:07Z</time>
      </trkpt>
      <trkpt lat="-21.14842" lon="55.54331">
        <ele>1821.2</ele>
        <time>2013-05-05T10:11:14Z</time>
      </trkpt>
      <trkpt lat="-21.1485" lon="55.54334">
        <ele>1820.1</ele>
        <time>2013-05-05T10:11:23Z</time>
      </trkpt>
      <trkpt lat="-21.14859" lon="55.54334">
        <ele>1818.1</ele>
        <time>2013-05-05T10:11:31Z</time>
      </trkpt>
      <trkpt lat="-21.1486" lon="55.54334">
        <ele>1817.8</ele>
        <time>2013-05-05T10:11:32Z</time>
      </trkpt>
      <trkpt lat="-21.14869" lon="55.54348">
        <ele>1813.8</ele>
        <time>2013-05-05T10:11:54Z</time>
      </trkpt>
      <trkpt lat="-21.14871" lon="55.54357">
        <ele>1811.7</ele>
        <time>2013-05-05T10:12:04Z</time>
      </trkpt>
      <trkpt lat="-21.14878" lon="55.54363">
        <ele>1809.7</ele>
        <time>2013-05-05T10:12:17Z</time>
      </trkpt>
      <trkpt lat="-21.14884" lon="55.54368">
        <ele>1806.7</ele>
        <time>2013-05-05T10:12:26Z</time>
      </trkpt>
      <trkpt lat="-21.14893" lon="55.54371">
        <ele>1805.9</ele>
        <time>2013-05-05T10:12:37Z</time>
      </trkpt>
      <trkpt lat="-21.14893" lon="55.54372">
        <ele>1805.6</ele>
        <time>2013-05-05T10:12:38Z</time>
      </trkpt>
      <trkpt lat="-21.14908" lon="55.5438">
        <ele>1802.4</ele>
        <time>2013-05-05T10:12:54Z</time>
      </trkpt>
      <trkpt lat="-21.14916" lon="55.54383">
        <ele>1801.8</ele>
        <time>2013-05-05T10:13:00Z</time>
      </trkpt>
      <trkpt lat="-21.14922" lon="55.54389">
        <ele>1801.1</ele>
        <time>2013-05-05T10:13:07Z</time>
      </trkpt>
      <trkpt lat="-21.14928" lon="55.54395">
        <ele>1799.2</ele>
        <time>2013-05-05T10:13:16Z</time>
      </trkpt>
      <trkpt lat="-21.14937" lon="55.54395">
        <ele>1798.1</ele>
        <time>2013-05-05T10:13:24Z</time>
      </trkpt>
      <trkpt lat="-21.14945" lon="55.5439">
        <ele>1798.6</ele>
        <time>2013-05-05T10:13:32Z</time>
      </trkpt>
      <trkpt lat="-21.1495" lon="55.54383">
        <ele>1797.5</ele>
        <time>2013-05-05T10:13:40Z</time>
      </trkpt>
      <trkpt lat="-21.14951" lon="55.54382">
        <ele>1797.4</ele>
        <time>2013-05-05T10:13:41Z</time>
      </trkpt>
      <trkpt lat="-21.14965" lon="55.54377">
        <ele>1799.8</ele>
        <time>2013-05-05T10:14:08Z</time>
      </trkpt>
      <trkpt lat="-21.14971" lon="55.54383">
        <ele>1800.7</ele>
        <time>2013-05-05T10:14:21Z</time>
      </trkpt>
      <trkpt lat="-21.14975" lon="55.54391">
        <ele>1798.7</ele>
        <time>2013-05-05T10:14:33Z</time>
      </trkpt>
      <trkpt lat="-21.14974" lon="55.54401">
        <ele>1798.7</ele>
        <time>2013-05-05T10:14:41Z</time>
      </trkpt>
      <trkpt lat="-21.14973" lon="55.54402">
        <ele>1798.6</ele>
        <time>2013-05-05T10:14:42Z</time>
      </trkpt>
      <trkpt lat="-21.14973" lon="55.54417">
        <ele>1796.8</ele>
        <time>2013-05-05T10:14:57Z</time>
      </trkpt>
      <trkpt lat="-21.14976" lon="55.54426">
        <ele>1796.7</ele>
        <time>2013-05-05T10:15:05Z</time>
      </trkpt>
      <trkpt lat="-21.14979" lon="55.54434">
        <ele>1797.1</ele>
        <time>2013-05-05T10:15:12Z</time>
      </trkpt>
      <trkpt lat="-21.14984" lon="55.54442">
        <ele>1795.8</ele>
        <time>2013-05-05T10:15:20Z</time>
      </trkpt>
      <trkpt lat="-21.14988" lon="55.54448">
        <ele>1794.1</ele>
        <time>2013-05-05T10:15:27Z</time>
      </trkpt>
      <trkpt lat="-21.14991" lon="55.54458">
        <ele>1792.5</ele>
        <time>2013-05-05T10:15:36Z</time>
      </trkpt>
      <trkpt lat="-21.14993" lon="55.54466">
        <ele>1791.3</ele>
        <time>2013-05-05T10:15:44Z</time>
      </trkpt>
      <trkpt lat="-21.14994" lon="55.54467">
        <ele>1791</ele>
        <time>2013-05-05T10:15:45Z</time>
      </trkpt>
      <trkpt lat="-21.15006" lon="55.54476">
        <ele>1789.6</ele>
        <time>2013-05-05T10:15:55Z</time>
      </trkpt>
      <trkpt lat="-21.15014" lon="55.54481">
        <ele>1788.6</ele>
        <time>2013-05-05T10:16:02Z</time>
      </trkpt>
      <trkpt lat="-21.15021" lon="55.54485">
        <ele>1788.7</ele>
        <time>2013-05-05T10:16:10Z</time>
      </trkpt>
      <trkpt lat="-21.15029" lon="55.54489">
        <ele>1787.6</ele>
        <time>2013-05-05T10:16:17Z</time>
      </trkpt>
      <trkpt lat="-21.15037" lon="55.54492">
        <ele>1786.8</ele>
        <time>2013-05-05T10:16:24Z</time>
      </trkpt>
      <trkpt lat="-21.15046" lon="55.54495">
        <ele>1786.9</ele>
        <time>2013-05-05T10:16:35Z</time>
      </trkpt>
      <trkpt lat="-21.15053" lon="55.54497">
        <ele>1786.4</ele>
        <time>2013-05-05T10:16:43Z</time>
      </trkpt>
      <trkpt lat="-21.1506" lon="55.54501">
        <ele>1784.8</ele>
        <time>2013-05-05T10:16:49Z</time>
      </trkpt>
      <trkpt lat="-21.15061" lon="55.54501">
        <ele>1784.8</ele>
        <time>2013-05-05T10:16:50Z</time>
      </trkpt>
      <trkpt lat="-21.15076" lon="55.54507">
        <ele>1784.5</ele>
        <time>2013-05-05T10:17:04Z</time>
      </trkpt>
      <trkpt lat="-21.15084" lon="55.5451">
        <ele>1785.4</ele>
        <time>2013-05-05T10:17:13Z</time>
      </trkpt>
      <trkpt lat="-21.15085" lon="55.54519">
        <ele>1785.8</ele>
        <time>2013-05-05T10:17:24Z</time>
      </trkpt>
      <trkpt lat="-21.15086" lon="55.54528">
        <ele>1785.5</ele>
        <time>2013-05-05T10:17:32Z</time>
      </trkpt>
      <trkpt lat="-21.15088" lon="55.54536">
        <ele>1783.7</ele>
        <time>2013-05-05T10:17:41Z</time>
      </trkpt>
      <trkpt lat="-21.15092" lon="55.54543">
        <ele>1784</ele>
        <time>2013-05-05T10:17:47Z</time>
      </trkpt>
      <trkpt lat="-21.15097" lon="55.5455">
        <ele>1783.4</ele>
        <time>2013-05-05T10:17:52Z</time>
      </trkpt>
      <trkpt lat="-21.15098" lon="55.54551">
        <ele>1783.3</ele>
        <time>2013-05-05T10:17:53Z</time>
      </trkpt>
      <trkpt lat="-21.15112" lon="55.54556">
        <ele>1783.1</ele>
        <time>2013-05-05T10:18:07Z</time>
      </trkpt>
      <trkpt lat="-21.15121" lon="55.54556">
        <ele>1782</ele>
        <time>2013-05-05T10:18:18Z</time>
      </trkpt>
      <trkpt lat="-21.15128" lon="55.54562">
        <ele>1777.2</ele>
        <time>2013-05-05T10:18:30Z</time>
      </trkpt>
      <trkpt lat="-21.15133" lon="55.54569">
        <ele>1776.7</ele>
        <time>2013-05-05T10:18:39Z</time>
      </trkpt>
      <trkpt lat="-21.15139" lon="55.54575">
        <ele>1776.1</ele>
        <time>2013-05-05T10:18:48Z</time>
      </trkpt>
      <trkpt lat="-21.15146" lon="55.54581">
        <ele>1775.2</ele>
        <time>2013-05-05T10:18:55Z</time>
      </trkpt>
      <trkpt lat="-21.15146" lon="55.54583">
        <ele>1775.1</ele>
        <time>2013-05-05T10:18:56Z</time>
      </trkpt>
      <trkpt lat="-21.15155" lon="55.54596">
        <ele>1774.8</ele>
        <time>2013-05-05T10:19:08Z</time>
      </trkpt>
      <trkpt lat="-21.15163" lon="55.54601">
        <ele>1774.3</ele>
        <time>2013-05-05T10:19:15Z</time>
      </trkpt>
      <trkpt lat="-21.15168" lon="55.54608">
        <ele>1775.6</ele>
        <time>2013-05-05T10:19:25Z</time>
      </trkpt>
      <trkpt lat="-21.15171" lon="55.54617">
        <ele>1776.9</ele>
        <time>2013-05-05T10:19:34Z</time>
      </trkpt>
      <trkpt lat="-21.15167" lon="55.54625">
        <ele>1775.7</ele>
        <time>2013-05-05T10:19:43Z</time>
      </trkpt>
      <trkpt lat="-21.15163" lon="55.54634">
        <ele>1776.7</ele>
        <time>2013-05-05T10:19:53Z</time>
      </trkpt>
      <trkpt lat="-21.15165" lon="55.54642">
        <ele>1777.5</ele>
        <time>2013-05-05T10:20:00Z</time>
      </trkpt>
      <trkpt lat="-21.15165" lon="55.54643">
        <ele>1777.8</ele>
        <time>2013-05-05T10:20:01Z</time>
      </trkpt>
      <trkpt lat="-21.15169" lon="55.54659">
        <ele>1777.4</ele>
        <time>2013-05-05T10:20:12Z</time>
      </trkpt>
      <trkpt lat="-21.15173" lon="55.54667">
        <ele>1776.6</ele>
        <time>2013-05-05T10:20:19Z</time>
      </trkpt>
      <trkpt lat="-21.15178" lon="55.54675">
        <ele>1775.1</ele>
        <time>2013-05-05T10:20:30Z</time>
      </trkpt>
      <trkpt lat="-21.1518" lon="55.54683">
        <ele>1775.2</ele>
        <time>2013-05-05T10:20:36Z</time>
      </trkpt>
      <trkpt lat="-21.15181" lon="55.54692">
        <ele>1774.8</ele>
        <time>2013-05-05T10:20:44Z</time>
      </trkpt>
      <trkpt lat="-21.15181" lon="55.54701">
        <ele>1774.8</ele>
        <time>2013-05-05T10:20:50Z</time>
      </trkpt>
      <trkpt lat="-21.15183" lon="55.54709">
        <ele>1774.8</ele>
        <time>2013-05-05T10:20:56Z</time>
      </trkpt>
      <trkpt lat="-21.15187" lon="55.54717">
        <ele>1775.8</ele>
        <time>2013-05-05T10:21:02Z</time>
      </trkpt>
      <trkpt lat="-21.15188" lon="55.54718">
        <ele>1775.6</ele>
        <time>2013-05-05T10:21:03Z</time>
      </trkpt>
      <trkpt lat="-21.15197" lon="55.54732">
        <ele>1775.8</ele>
        <time>2013-05-05T10:21:14Z</time>
      </trkpt>
      <trkpt lat="-21.15202" lon="55.5474">
        <ele>1775.4</ele>
        <time>2013-05-05T10:21:20Z</time>
      </trkpt>
      <trkpt lat="-21.15208" lon="55.54745">
        <ele>1775.4</ele>
        <time>2013-05-05T10:21:25Z</time>
      </trkpt>
      <trkpt lat="-21.15214" lon="55.5475">
        <ele>1775.9</ele>
        <time>2013-05-05T10:21:31Z</time>
      </trkpt>
      <trkpt lat="-21.1522" lon="55.54757">
        <ele>1775.3</ele>
        <time>2013-05-05T10:21:38Z</time>
      </trkpt>
      <trkpt lat="-21.15225" lon="55.54764">
        <ele>1776.4</ele>
        <time>2013-05-05T10:21:45Z</time>
      </trkpt>
      <trkpt lat="-21.15229" lon="55.54771">
        <ele>1775.4</ele>
        <time>2013-05-05T10:21:53Z</time>
      </trkpt>
      <trkpt lat="-21.15232" lon="55.5478">
        <ele>1775.4</ele>
        <time>2013-05-05T10:22:00Z</time>
      </trkpt>
      <trkpt lat="-21.15233" lon="55.54789">
        <ele>1774.1</ele>
        <time>2013-05-05T10:22:08Z</time>
      </trkpt>
      <trkpt lat="-21.15232" lon="55.5479">
        <ele>1774.1</ele>
        <time>2013-05-05T10:22:09Z</time>
      </trkpt>
      <trkpt lat="-21.15233" lon="55.54805">
        <ele>1773.7</ele>
        <time>2013-05-05T10:22:22Z</time>
      </trkpt>
      <trkpt lat="-21.15235" lon="55.54814">
        <ele>1773.4</ele>
        <time>2013-05-05T10:22:28Z</time>
      </trkpt>
      <trkpt lat="-21.15238" lon="55.54821">
        <ele>1774</ele>
        <time>2013-05-05T10:22:34Z</time>
      </trkpt>
      <trkpt lat="-21.1524" lon="55.54831">
        <ele>1773.7</ele>
        <time>2013-05-05T10:22:41Z</time>
      </trkpt>
      <trkpt lat="-21.15242" lon="55.5484">
        <ele>1773.6</ele>
        <time>2013-05-05T10:22:48Z</time>
      </trkpt>
      <trkpt lat="-21.15245" lon="55.54849">
        <ele>1774</ele>
        <time>2013-05-05T10:22:56Z</time>
      </trkpt>
      <trkpt lat="-21.15244" lon="55.54858">
        <ele>1773.4</ele>
        <time>2013-05-05T10:23:02Z</time>
      </trkpt>
      <trkpt lat="-21.15243" lon="55.54867">
        <ele>1773.7</ele>
        <time>2013-05-05T10:23:08Z</time>
      </trkpt>
      <trkpt lat="-21.15242" lon="55.54876">
        <ele>1773.6</ele>
        <time>2013-05-05T10:23:15Z</time>
      </trkpt>
      <trkpt lat="-21.15242" lon="55.54877">
        <ele>1773.1</ele>
        <time>2013-05-05T10:23:16Z</time>
      </trkpt>
      <trkpt lat="-21.15242" lon="55.54895">
        <ele>1771.8</ele>
        <time>2013-05-05T10:23:30Z</time>
      </trkpt>
      <trkpt lat="-21.15243" lon="55.54904">
        <ele>1770.9</ele>
        <time>2013-05-05T10:23:37Z</time>
      </trkpt>
      <trkpt lat="-21.15246" lon="55.54912">
        <ele>1770.6</ele>
        <time>2013-05-05T10:23:45Z</time>
      </trkpt>
      <trkpt lat="-21.15251" lon="55.5492">
        <ele>1770</ele>
        <time>2013-05-05T10:23:53Z</time>
      </trkpt>
      <trkpt lat="-21.15257" lon="55.54927">
        <ele>1769.7</ele>
        <time>2013-05-05T10:24:00Z</time>
      </trkpt>
      <trkpt lat="-21.15263" lon="55.54933">
        <ele>1770</ele>
        <time>2013-05-05T10:24:07Z</time>
      </trkpt>
      <trkpt lat="-21.15269" lon="55.5494">
        <ele>1769.4</ele>
        <time>2013-05-05T10:24:13Z</time>
      </trkpt>
      <trkpt lat="-21.15275" lon="55.54946">
        <ele>1769.4</ele>
        <time>2013-05-05T10:24:20Z</time>
      </trkpt>
      <trkpt lat="-21.15276" lon="55.54947">
        <ele>1769.4</ele>
        <time>2013-05-05T10:24:21Z</time>
      </trkpt>
      <trkpt lat="-21.15284" lon="55.54961">
        <ele>1769.1</ele>
        <time>2013-05-05T10:24:35Z</time>
      </trkpt>
      <trkpt lat="-21.15288" lon="55.54968">
        <ele>1769.4</ele>
        <time>2013-05-05T10:24:41Z</time>
      </trkpt>
      <trkpt lat="-21.15294" lon="55.54973">
        <ele>1768.8</ele>
        <time>2013-05-05T10:24:47Z</time>
      </trkpt>
      <trkpt lat="-21.15299" lon="55.5498">
        <ele>1768.7</ele>
        <time>2013-05-05T10:24:55Z</time>
      </trkpt>
      <trkpt lat="-21.15304" lon="55.54987">
        <ele>1768.3</ele>
        <time>2013-05-05T10:25:03Z</time>
      </trkpt>
      <trkpt lat="-21.1531" lon="55.54993">
        <ele>1767.1</ele>
        <time>2013-05-05T10:25:11Z</time>
      </trkpt>
      <trkpt lat="-21.15315" lon="55.54999">
        <ele>1766.9</ele>
        <time>2013-05-05T10:25:17Z</time>
      </trkpt>
      <trkpt lat="-21.15321" lon="55.55004">
        <ele>1767.5</ele>
        <time>2013-05-05T10:25:23Z</time>
      </trkpt>
      <trkpt lat="-21.15322" lon="55.55005">
        <ele>1767.7</ele>
        <time>2013-05-05T10:25:24Z</time>
      </trkpt>
      <trkpt lat="-21.15324" lon="55.5502">
        <ele>1767.6</ele>
        <time>2013-05-05T10:25:36Z</time>
      </trkpt>
      <trkpt lat="-21.15319" lon="55.55027">
        <ele>1767.6</ele>
        <time>2013-05-05T10:25:41Z</time>
      </trkpt>
      <trkpt lat="-21.15319" lon="55.55035">
        <ele>1767.6</ele>
        <time>2013-05-05T10:25:47Z</time>
      </trkpt>
      <trkpt lat="-21.15317" lon="55.55044">
        <ele>1767.3</ele>
        <time>2013-05-05T10:25:52Z</time>
      </trkpt>
      <trkpt lat="-21.15314" lon="55.55053">
        <ele>1767.5</ele>
        <time>2013-05-05T10:26:01Z</time>
      </trkpt>
      <trkpt lat="-21.15311" lon="55.55061">
        <ele>1768.5</ele>
        <time>2013-05-05T10:26:08Z</time>
      </trkpt>
      <trkpt lat="-21.15314" lon="55.55069">
        <ele>1769.5</ele>
        <time>2013-05-05T10:26:17Z</time>
      </trkpt>
      <trkpt lat="-21.15313" lon="55.55079">
        <ele>1769.4</ele>
        <time>2013-05-05T10:26:24Z</time>
      </trkpt>
      <trkpt lat="-21.15313" lon="55.55079">
        <ele>1769.3</ele>
        <time>2013-05-05T10:26:25Z</time>
      </trkpt>
      <trkpt lat="-21.15312" lon="55.55097">
        <ele>1769.6</ele>
        <time>2013-05-05T10:26:43Z</time>
      </trkpt>
      <trkpt lat="-21.15307" lon="55.55104">
        <ele>1768.4</ele>
        <time>2013-05-05T10:26:52Z</time>
      </trkpt>
      <trkpt lat="-21.15308" lon="55.55114">
        <ele>1768.5</ele>
        <time>2013-05-05T10:26:59Z</time>
      </trkpt>
      <trkpt lat="-21.15307" lon="55.55122">
        <ele>1769</ele>
        <time>2013-05-05T10:27:05Z</time>
      </trkpt>
      <trkpt lat="-21.15308" lon="55.55131">
        <ele>1769</ele>
        <time>2013-05-05T10:27:12Z</time>
      </trkpt>
      <trkpt lat="-21.1531" lon="55.5514">
        <ele>1770</ele>
        <time>2013-05-05T10:27:22Z</time>
      </trkpt>
      <trkpt lat="-21.15308" lon="55.55149">
        <ele>1769</ele>
        <time>2013-05-05T10:27:33Z</time>
      </trkpt>
      <trkpt lat="-21.15308" lon="55.5515">
        <ele>1769</ele>
        <time>2013-05-05T10:27:34Z</time>
      </trkpt>
      <trkpt lat="-21.15303" lon="55.55166">
        <ele>1769</ele>
        <time>2013-05-05T10:27:48Z</time>
      </trkpt>
      <trkpt lat="-21.15303" lon="55.55175">
        <ele>1767.6</ele>
        <time>2013-05-05T10:27:55Z</time>
      </trkpt>
      <trkpt lat="-21.15308" lon="55.55183">
        <ele>1768.1</ele>
        <time>2013-05-05T10:28:04Z</time>
      </trkpt>
      <trkpt lat="-21.15312" lon="55.55192">
        <ele>1767.6</ele>
        <time>2013-05-05T10:28:12Z</time>
      </trkpt>
      <trkpt lat="-21.1532" lon="55.55197">
        <ele>1767.7</ele>
        <time>2013-05-05T10:28:19Z</time>
      </trkpt>
      <trkpt lat="-21.15321" lon="55.55206">
        <ele>1766.9</ele>
        <time>2013-05-05T10:28:28Z</time>
      </trkpt>
      <trkpt lat="-21.15318" lon="55.55214">
        <ele>1767</ele>
        <time>2013-05-05T10:28:34Z</time>
      </trkpt>
      <trkpt lat="-21.15318" lon="55.55216">
        <ele>1766.9</ele>
        <time>2013-05-05T10:28:35Z</time>
      </trkpt>
      <trkpt lat="-21.15326" lon="55.55229">
        <ele>1766.8</ele>
        <time>2013-05-05T10:28:49Z</time>
      </trkpt>
      <trkpt lat="-21.15331" lon="55.55236">
        <ele>1766.7</ele>
        <time>2013-05-05T10:28:57Z</time>
      </trkpt>
      <trkpt lat="-21.15331" lon="55.55245">
        <ele>1766.8</ele>
        <time>2013-05-05T10:29:09Z</time>
      </trkpt>
      <trkpt lat="-21.15328" lon="55.55252">
        <ele>1766.5</ele>
        <time>2013-05-05T10:29:13Z</time>
      </trkpt>
      <trkpt lat="-21.15323" lon="55.55259">
        <ele>1766.1</ele>
        <time>2013-05-05T10:29:19Z</time>
      </trkpt>
      <trkpt lat="-21.15322" lon="55.55268">
        <ele>1765.4</ele>
        <time>2013-05-05T10:29:30Z</time>
      </trkpt>
      <trkpt lat="-21.15325" lon="55.55277">
        <ele>1766</ele>
        <time>2013-05-05T10:29:37Z</time>
      </trkpt>
      <trkpt lat="-21.15324" lon="55.55279">
        <ele>1766.4</ele>
        <time>2013-05-05T10:29:38Z</time>
      </trkpt>
      <trkpt lat="-21.15317" lon="55.55294">
        <ele>1766.4</ele>
        <time>2013-05-05T10:29:58Z</time>
      </trkpt>
      <trkpt lat="-21.15314" lon="55.55302">
        <ele>1766.5</ele>
        <time>2013-05-05T10:30:07Z</time>
      </trkpt>
      <trkpt lat="-21.15312" lon="55.55311">
        <ele>1766.2</ele>
        <time>2013-05-05T10:30:14Z</time>
      </trkpt>
      <trkpt lat="-21.15309" lon="55.5532">
        <ele>1766.8</ele>
        <time>2013-05-05T10:30:20Z</time>
      </trkpt>
      <trkpt lat="-21.15308" lon="55.5533">
        <ele>1765.2</ele>
        <time>2013-05-05T10:30:27Z</time>
      </trkpt>
      <trkpt lat="-21.15305" lon="55.55338">
        <ele>1765</ele>
        <time>2013-05-05T10:30:34Z</time>
      </trkpt>
      <trkpt lat="-21.15301" lon="55.55346">
        <ele>1765.2</ele>
        <time>2013-05-05T10:30:40Z</time>
      </trkpt>
      <trkpt lat="-21.153" lon="55.55347">
        <ele>1765.2</ele>
        <time>2013-05-05T10:30:41Z</time>
      </trkpt>
      <trkpt lat="-21.15297" lon="55.55363">
        <ele>1765</ele>
        <time>2013-05-05T10:30:54Z</time>
      </trkpt>
      <trkpt lat="-21.15298" lon="55.55373">
        <ele>1765.1</ele>
        <time>2013-05-05T10:31:02Z</time>
      </trkpt>
      <trkpt lat="-21.15298" lon="55.55382">
        <ele>1764.2</ele>
        <time>2013-05-05T10:31:10Z</time>
      </trkpt>
      <trkpt lat="-21.15302" lon="55.5539">
        <ele>1763.1</ele>
        <time>2013-05-05T10:31:17Z</time>
      </trkpt>
      <trkpt lat="-21.15305" lon="55.55398">
        <ele>1763.1</ele>
        <time>2013-05-05T10:31:25Z</time>
      </trkpt>
      <trkpt lat="-21.15309" lon="55.55406">
        <ele>1763.1</ele>
        <time>2013-05-05T10:31:33Z</time>
      </trkpt>
      <trkpt lat="-21.15308" lon="55.55416">
        <ele>1762.3</ele>
        <time>2013-05-05T10:31:41Z</time>
      </trkpt>
      <trkpt lat="-21.15306" lon="55.55425">
        <ele>1762.2</ele>
        <time>2013-05-05T10:31:50Z</time>
      </trkpt>
      <trkpt lat="-21.15306" lon="55.55426">
        <ele>1761.7</ele>
        <time>2013-05-05T10:31:51Z</time>
      </trkpt>
      <trkpt lat="-21.15299" lon="55.5544">
        <ele>1758.3</ele>
        <time>2013-05-05T10:32:05Z</time>
      </trkpt>
      <trkpt lat="-21.15295" lon="55.55448">
        <ele>1758.6</ele>
        <time>2013-05-05T10:32:14Z</time>
      </trkpt>
      <trkpt lat="-21.15291" lon="55.55457">
        <ele>1758.3</ele>
        <time>2013-05-05T10:32:22Z</time>
      </trkpt>
      <trkpt lat="-21.1529" lon="55.55466">
        <ele>1757.1</ele>
        <time>2013-05-05T10:32:32Z</time>
      </trkpt>
      <trkpt lat="-21.15293" lon="55.55475">
        <ele>1756.6</ele>
        <time>2013-05-05T10:32:40Z</time>
      </trkpt>
      <trkpt lat="-21.15291" lon="55.55484">
        <ele>1755.5</ele>
        <time>2013-05-05T10:32:48Z</time>
      </trkpt>
      <trkpt lat="-21.15288" lon="55.55493">
        <ele>1754.4</ele>
        <time>2013-05-05T10:32:55Z</time>
      </trkpt>
      <trkpt lat="-21.15288" lon="55.55495">
        <ele>1754.1</ele>
        <time>2013-05-05T10:32:56Z</time>
      </trkpt>
      <trkpt lat="-21.15284" lon="55.5551">
        <ele>1753.5</ele>
        <time>2013-05-05T10:33:09Z</time>
      </trkpt>
      <trkpt lat="-21.1528" lon="55.55518">
        <ele>1753.3</ele>
        <time>2013-05-05T10:33:17Z</time>
      </trkpt>
      <trkpt lat="-21.15276" lon="55.55527">
        <ele>1751</ele>
        <time>2013-05-05T10:33:25Z</time>
      </trkpt>
      <trkpt lat="-21.15272" lon="55.55534">
        <ele>1750.1</ele>
        <time>2013-05-05T10:33:34Z</time>
      </trkpt>
      <trkpt lat="-21.15267" lon="55.55541">
        <ele>1748.9</ele>
        <time>2013-05-05T10:33:41Z</time>
      </trkpt>
      <trkpt lat="-21.15264" lon="55.55549">
        <ele>1748.4</ele>
        <time>2013-05-05T10:33:47Z</time>
      </trkpt>
      <trkpt lat="-21.15264" lon="55.55558">
        <ele>1748.6</ele>
        <time>2013-05-05T10:33:55Z</time>
      </trkpt>
      <trkpt lat="-21.15262" lon="55.55568">
        <ele>1747.5</ele>
        <time>2013-05-05T10:34:03Z</time>
      </trkpt>
      <trkpt lat="-21.15262" lon="55.5557">
        <ele>1747.4</ele>
        <time>2013-05-05T10:34:04Z</time>
      </trkpt>
      <trkpt lat="-21.15258" lon="55.55585">
        <ele>1747.1</ele>
        <time>2013-05-05T10:34:19Z</time>
      </trkpt>
      <trkpt lat="-21.15254" lon="55.55593">
        <ele>1745.5</ele>
        <time>2013-05-05T10:34:32Z</time>
      </trkpt>
      <trkpt lat="-21.15255" lon="55.55602">
        <ele>1744.2</ele>
        <time>2013-05-05T10:34:44Z</time>
      </trkpt>
      <trkpt lat="-21.15255" lon="55.55611">
        <ele>1742.8</ele>
        <time>2013-05-05T10:34:51Z</time>
      </trkpt>
      <trkpt lat="-21.15252" lon="55.55618">
        <ele>1742.4</ele>
        <time>2013-05-05T10:34:57Z</time>
      </trkpt>
      <trkpt lat="-21.15247" lon="55.55625">
        <ele>1741.2</ele>
        <time>2013-05-05T10:35:04Z</time>
      </trkpt>
      <trkpt lat="-21.15247" lon="55.55626">
        <ele>1740.8</ele>
        <time>2013-05-05T10:35:05Z</time>
      </trkpt>
      <trkpt lat="-21.15236" lon="55.55639">
        <ele>1738.8</ele>
        <time>2013-05-05T10:35:20Z</time>
      </trkpt>
      <trkpt lat="-21.15234" lon="55.55648">
        <ele>1736.4</ele>
        <time>2013-05-05T10:35:28Z</time>
      </trkpt>
      <trkpt lat="-21.15232" lon="55.55656">
        <ele>1735.7</ele>
        <time>2013-05-05T10:35:35Z</time>
      </trkpt>
      <trkpt lat="-21.15227" lon="55.55663">
        <ele>1734.9</ele>
        <time>2013-05-05T10:35:41Z</time>
      </trkpt>
      <trkpt lat="-21.15222" lon="55.5567">
        <ele>1733.1</ele>
        <time>2013-05-05T10:35:49Z</time>
      </trkpt>
      <trkpt lat="-21.15218" lon="55.55677">
        <ele>1731.9</ele>
        <time>2013-05-05T10:35:58Z</time>
      </trkpt>
      <trkpt lat="-21.15214" lon="55.55685">
        <ele>1732</ele>
        <time>2013-05-05T10:36:04Z</time>
      </trkpt>
      <trkpt lat="-21.15211" lon="55.55692">
        <ele>1732.1</ele>
        <time>2013-05-05T10:36:10Z</time>
      </trkpt>
      <trkpt lat="-21.1521" lon="55.55693">
        <ele>1732.2</ele>
        <time>2013-05-05T10:36:11Z</time>
      </trkpt>
      <trkpt lat="-21.15202" lon="55.55706">
        <ele>1731.2</ele>
        <time>2013-05-05T10:36:22Z</time>
      </trkpt>
      <trkpt lat="-21.15198" lon="55.55714">
        <ele>1730.3</ele>
        <time>2013-05-05T10:36:29Z</time>
      </trkpt>
      <trkpt lat="-21.15192" lon="55.55719">
        <ele>1730.5</ele>
        <time>2013-05-05T10:36:39Z</time>
      </trkpt>
      <trkpt lat="-21.15185" lon="55.55725">
        <ele>1730</ele>
        <time>2013-05-05T10:36:48Z</time>
      </trkpt>
      <trkpt lat="-21.1518" lon="55.55732">
        <ele>1729.6</ele>
        <time>2013-05-05T10:36:56Z</time>
      </trkpt>
      <trkpt lat="-21.15177" lon="55.5574">
        <ele>1729.3</ele>
        <time>2013-05-05T10:37:03Z</time>
      </trkpt>
      <trkpt lat="-21.15174" lon="55.55749">
        <ele>1728.5</ele>
        <time>2013-05-05T10:37:10Z</time>
      </trkpt>
      <trkpt lat="-21.1517" lon="55.55757">
        <ele>1728.4</ele>
        <time>2013-05-05T10:37:17Z</time>
      </trkpt>
      <trkpt lat="-21.1517" lon="55.55758">
        <ele>1728.4</ele>
        <time>2013-05-05T10:37:18Z</time>
      </trkpt>
      <trkpt lat="-21.15162" lon="55.55773">
        <ele>1727.4</ele>
        <time>2013-05-05T10:37:31Z</time>
      </trkpt>
      <trkpt lat="-21.15159" lon="55.55782">
        <ele>1725.4</ele>
        <time>2013-05-05T10:37:39Z</time>
      </trkpt>
      <trkpt lat="-21.15157" lon="55.5579">
        <ele>1725.4</ele>
        <time>2013-05-05T10:37:47Z</time>
      </trkpt>
      <trkpt lat="-21.15153" lon="55.55798">
        <ele>1722.4</ele>
        <time>2013-05-05T10:37:57Z</time>
      </trkpt>
      <trkpt lat="-21.15152" lon="55.55807">
        <ele>1719.6</ele>
        <time>2013-05-05T10:38:08Z</time>
      </trkpt>
      <trkpt lat="-21.15158" lon="55.55814">
        <ele>1716.5</ele>
        <time>2013-05-05T10:38:17Z</time>
      </trkpt>
      <trkpt lat="-21.15166" lon="55.55818">
        <ele>1716.3</ele>
        <time>2013-05-05T10:38:25Z</time>
      </trkpt>
      <trkpt lat="-21.15167" lon="55.55818">
        <ele>1716.3</ele>
        <time>2013-05-05T10:38:26Z</time>
      </trkpt>
      <trkpt lat="-21.15181" lon="55.55823">
        <ele>1714.4</ele>
        <time>2013-05-05T10:38:42Z</time>
      </trkpt>
      <trkpt lat="-21.15189" lon="55.55825">
        <ele>1715.3</ele>
        <time>2013-05-05T10:38:50Z</time>
      </trkpt>
      <trkpt lat="-21.15198" lon="55.55827">
        <ele>1715.4</ele>
        <time>2013-05-05T10:38:59Z</time>
      </trkpt>
      <trkpt lat="-21.15206" lon="55.55828">
        <ele>1715.1</ele>
        <time>2013-05-05T10:39:09Z</time>
      </trkpt>
      <trkpt lat="-21.15214" lon="55.5583">
        <ele>1713.4</ele>
        <time>2013-05-05T10:39:21Z</time>
      </trkpt>
      <trkpt lat="-21.15221" lon="55.55834">
        <ele>1711.1</ele>
        <time>2013-05-05T10:39:30Z</time>
      </trkpt>
      <trkpt lat="-21.15223" lon="55.55835">
        <ele>1711</ele>
        <time>2013-05-05T10:39:31Z</time>
      </trkpt>
      <trkpt lat="-21.15237" lon="55.5584">
        <ele>1710.9</ele>
        <time>2013-05-05T10:39:46Z</time>
      </trkpt>
      <trkpt lat="-21.15246" lon="55.55842">
        <ele>1710.5</ele>
        <time>2013-05-05T10:39:55Z</time>
      </trkpt>
      <trkpt lat="-21.15254" lon="55.55846">
        <ele>1709</ele>
        <time>2013-05-05T10:40:03Z</time>
      </trkpt>
      <trkpt lat="-21.15262" lon="55.5585">
        <ele>1710.1</ele>
        <time>2013-05-05T10:40:11Z</time>
      </trkpt>
      <trkpt lat="-21.1527" lon="55.55851">
        <ele>1709.5</ele>
        <time>2013-05-05T10:40:19Z</time>
      </trkpt>
      <trkpt lat="-21.15278" lon="55.55852">
        <ele>1710</ele>
        <time>2013-05-05T10:40:27Z</time>
      </trkpt>
      <trkpt lat="-21.15286" lon="55.55855">
        <ele>1710.1</ele>
        <time>2013-05-05T10:40:35Z</time>
      </trkpt>
      <trkpt lat="-21.15287" lon="55.55856">
        <ele>1710</ele>
        <time>2013-05-05T10:40:36Z</time>
      </trkpt>
      <trkpt lat="-21.15301" lon="55.55863">
        <ele>1708.2</ele>
        <time>2013-05-05T10:40:51Z</time>
      </trkpt>
      <trkpt lat="-21.15306" lon="55.5587">
        <ele>1707.4</ele>
        <time>2013-05-05T10:40:58Z</time>
      </trkpt>
      <trkpt lat="-21.15313" lon="55.55875">
        <ele>1706.9</ele>
        <time>2013-05-05T10:41:06Z</time>
      </trkpt>
      <trkpt lat="-21.15318" lon="55.55882">
        <ele>1706.6</ele>
        <time>2013-05-05T10:41:13Z</time>
      </trkpt>
      <trkpt lat="-21.15324" lon="55.55888">
        <ele>1705.5</ele>
        <time>2013-05-05T10:41:21Z</time>
      </trkpt>
      <trkpt lat="-21.15328" lon="55.55896">
        <ele>1703.9</ele>
        <time>2013-05-05T10:41:30Z</time>
      </trkpt>
      <trkpt lat="-21.15334" lon="55.55903">
        <ele>1704</ele>
        <time>2013-05-05T10:41:40Z</time>
      </trkpt>
      <trkpt lat="-21.15335" lon="55.55903">
        <ele>1703.9</ele>
        <time>2013-05-05T10:41:41Z</time>
      </trkpt>
      <trkpt lat="-21.15345" lon="55.55915">
        <ele>1702.6</ele>
        <time>2013-05-05T10:42:00Z</time>
      </trkpt>
      <trkpt lat="-21.15346" lon="55.55924">
        <ele>1701.8</ele>
        <time>2013-05-05T10:42:08Z</time>
      </trkpt>
      <trkpt lat="-21.15349" lon="55.55933">
        <ele>1701.4</ele>
        <time>2013-05-05T10:42:16Z</time>
      </trkpt>
      <trkpt lat="-21.15353" lon="55.55941">
        <ele>1700.3</ele>
        <time>2013-05-05T10:42:23Z</time>
      </trkpt>
      <trkpt lat="-21.15356" lon="55.55949">
        <ele>1700.6</ele>
        <time>2013-05-05T10:42:31Z</time>
      </trkpt>
      <trkpt lat="-21.15362" lon="55.55956">
        <ele>1701.1</ele>
        <time>2013-05-05T10:42:39Z</time>
      </trkpt>
      <trkpt lat="-21.15368" lon="55.55963">
        <ele>1700.2</ele>
        <time>2013-05-05T10:42:48Z</time>
      </trkpt>
      <trkpt lat="-21.15369" lon="55.55963">
        <ele>1700</ele>
        <time>2013-05-05T10:42:49Z</time>
      </trkpt>
      <trkpt lat="-21.1538" lon="55.55976">
        <ele>1697.7</ele>
        <time>2013-05-05T10:43:10Z</time>
      </trkpt>
      <trkpt lat="-21.15381" lon="55.55986">
        <ele>1696.6</ele>
        <time>2013-05-05T10:43:20Z</time>
      </trkpt>
      <trkpt lat="-21.15387" lon="55.55991">
        <ele>1696.8</ele>
        <time>2013-05-05T10:43:34Z</time>
      </trkpt>
      <trkpt lat="-21.15394" lon="55.55994">
        <ele>1696.2</ele>
        <time>2013-05-05T10:43:41Z</time>
      </trkpt>
      <trkpt lat="-21.15402" lon="55.55996">
        <ele>1696.3</ele>
        <time>2013-05-05T10:43:48Z</time>
      </trkpt>
      <trkpt lat="-21.15411" lon="55.55997">
        <ele>1695.7</ele>
        <time>2013-05-05T10:43:55Z</time>
      </trkpt>
      <trkpt lat="-21.15412" lon="55.55998">
        <ele>1695.4</ele>
        <time>2013-05-05T10:43:56Z</time>
      </trkpt>
      <trkpt lat="-21.15427" lon="55.56001">
        <ele>1694.9</ele>
        <time>2013-05-05T10:44:09Z</time>
      </trkpt>
      <trkpt lat="-21.15435" lon="55.56002">
        <ele>1694.6</ele>
        <time>2013-05-05T10:44:16Z</time>
      </trkpt>
      <trkpt lat="-21.15443" lon="55.56002">
        <ele>1694.3</ele>
        <time>2013-05-05T10:44:23Z</time>
      </trkpt>
      <trkpt lat="-21.15451" lon="55.56004">
        <ele>1694.2</ele>
        <time>2013-05-05T10:44:30Z</time>
      </trkpt>
      <trkpt lat="-21.15459" lon="55.56005">
        <ele>1694.7</ele>
        <time>2013-05-05T10:44:37Z</time>
      </trkpt>
      <trkpt lat="-21.15467" lon="55.56007">
        <ele>1694.8</ele>
        <time>2013-05-05T10:44:44Z</time>
      </trkpt>
      <trkpt lat="-21.15475" lon="55.56009">
        <ele>1694.4</ele>
        <time>2013-05-05T10:44:51Z</time>
      </trkpt>
      <trkpt lat="-21.15484" lon="55.56011">
        <ele>1694.9</ele>
        <time>2013-05-05T10:45:00Z</time>
      </trkpt>
      <trkpt lat="-21.15485" lon="55.56011">
        <ele>1694.8</ele>
        <time>2013-05-05T10:45:01Z</time>
      </trkpt>
      <trkpt lat="-21.15501" lon="55.56015">
        <ele>1695.7</ele>
        <time>2013-05-05T10:45:21Z</time>
      </trkpt>
      <trkpt lat="-21.155" lon="55.56024">
        <ele>1694.9</ele>
        <time>2013-05-05T10:45:31Z</time>
      </trkpt>
      <trkpt lat="-21.15501" lon="55.56032">
        <ele>1693.7</ele>
        <time>2013-05-05T10:45:39Z</time>
      </trkpt>
      <trkpt lat="-21.15506" lon="55.5604">
        <ele>1692.3</ele>
        <time>2013-05-05T10:45:46Z</time>
      </trkpt>
      <trkpt lat="-21.15512" lon="55.56046">
        <ele>1692.2</ele>
        <time>2013-05-05T10:45:53Z</time>
      </trkpt>
      <trkpt lat="-21.15518" lon="55.56053">
        <ele>1691.7</ele>
        <time>2013-05-05T10:46:00Z</time>
      </trkpt>
      <trkpt lat="-21.15523" lon="55.5606">
        <ele>1691.5</ele>
        <time>2013-05-05T10:46:07Z</time>
      </trkpt>
      <trkpt lat="-21.15524" lon="55.56061">
        <ele>1691.5</ele>
        <time>2013-05-05T10:46:08Z</time>
      </trkpt>
      <trkpt lat="-21.15535" lon="55.56073">
        <ele>1691.9</ele>
        <time>2013-05-05T10:46:22Z</time>
      </trkpt>
      <trkpt lat="-21.15541" lon="55.56078">
        <ele>1689.7</ele>
        <time>2013-05-05T10:46:29Z</time>
      </trkpt>
      <trkpt lat="-21.15547" lon="55.56084">
        <ele>1691.6</ele>
        <time>2013-05-05T10:46:36Z</time>
      </trkpt>
      <trkpt lat="-21.15553" lon="55.5609">
        <ele>1690.9</ele>
        <time>2013-05-05T10:46:43Z</time>
      </trkpt>
      <trkpt lat="-21.1556" lon="55.56096">
        <ele>1691.1</ele>
        <time>2013-05-05T10:46:52Z</time>
      </trkpt>
      <trkpt lat="-21.15563" lon="55.56104">
        <ele>1692.6</ele>
        <time>2013-05-05T10:47:02Z</time>
      </trkpt>
      <trkpt lat="-21.15567" lon="55.56112">
        <ele>1693.3</ele>
        <time>2013-05-05T10:47:10Z</time>
      </trkpt>
      <trkpt lat="-21.15568" lon="55.56113">
        <ele>1693.6</ele>
        <time>2013-05-05T10:47:11Z</time>
      </trkpt>
      <trkpt lat="-21.15576" lon="55.56127">
        <ele>1693</ele>
        <time>2013-05-05T10:47:25Z</time>
      </trkpt>
      <trkpt lat="-21.1558" lon="55.56136">
        <ele>1691.8</ele>
        <time>2013-05-05T10:47:32Z</time>
      </trkpt>
      <trkpt lat="-21.15586" lon="55.56141">
        <ele>1689.9</ele>
        <time>2013-05-05T10:47:42Z</time>
      </trkpt>
      <trkpt lat="-21.15591" lon="55.56149">
        <ele>1688.4</ele>
        <time>2013-05-05T10:47:58Z</time>
      </trkpt>
      <trkpt lat="-21.15593" lon="55.56158">
        <ele>1688.6</ele>
        <time>2013-05-05T10:48:14Z</time>
      </trkpt>
      <trkpt lat="-21.15593" lon="55.56159">
        <ele>1688.6</ele>
        <time>2013-05-05T10:48:15Z</time>
      </trkpt>
      <trkpt lat="-21.15597" lon="55.56175">
        <ele>1685.4</ele>
        <time>2013-05-05T10:48:35Z</time>
      </trkpt>
      <trkpt lat="-21.156" lon="55.56183">
        <ele>1684.4</ele>
        <time>2013-05-05T10:48:42Z</time>
      </trkpt>
      <trkpt lat="-21.15602" lon="55.56192">
        <ele>1684</ele>
        <time>2013-05-05T10:48:49Z</time>
      </trkpt>
      <trkpt lat="-21.15605" lon="55.56201">
        <ele>1683.7</ele>
        <time>2013-05-05T10:48:56Z</time>
      </trkpt>
      <trkpt lat="-21.1561" lon="55.56208">
        <ele>1682.1</ele>
        <time>2013-05-05T10:49:06Z</time>
      </trkpt>
      <trkpt lat="-21.15612" lon="55.56216">
        <ele>1681.6</ele>
        <time>2013-05-05T10:49:12Z</time>
      </trkpt>
      <trkpt lat="-21.15616" lon="55.56224">
        <ele>1681.6</ele>
        <time>2013-05-05T10:49:18Z</time>
      </trkpt>
      <trkpt lat="-21.15617" lon="55.56226">
        <ele>1681.6</ele>
        <time>2013-05-05T10:49:19Z</time>
      </trkpt>
      <trkpt lat="-21.15622" lon="55.5624">
        <ele>1682.2</ele>
        <time>2013-05-05T10:49:30Z</time>
      </trkpt>
      <trkpt lat="-21.15624" lon="55.56249">
        <ele>1681.2</ele>
        <time>2013-05-05T10:49:37Z</time>
      </trkpt>
      <trkpt lat="-21.15629" lon="55.56256">
        <ele>1680.4</ele>
        <time>2013-05-05T10:49:45Z</time>
      </trkpt>
      <trkpt lat="-21.15635" lon="55.56263">
        <ele>1678.9</ele>
        <time>2013-05-05T10:49:51Z</time>
      </trkpt>
      <trkpt lat="-21.15637" lon="55.56271">
        <ele>1678.9</ele>
        <time>2013-05-05T10:49:57Z</time>
      </trkpt>
      <trkpt lat="-21.15642" lon="55.56277">
        <ele>1677.8</ele>
        <time>2013-05-05T10:50:03Z</time>
      </trkpt>
      <trkpt lat="-21.15648" lon="55.56283">
        <ele>1677.4</ele>
        <time>2013-05-05T10:50:09Z</time>
      </trkpt>
      <trkpt lat="-21.15653" lon="55.56289">
        <ele>1676.6</ele>
        <time>2013-05-05T10:50:15Z</time>
      </trkpt>
      <trkpt lat="-21.15658" lon="55.56296">
        <ele>1676.2</ele>
        <time>2013-05-05T10:50:21Z</time>
      </trkpt>
      <trkpt lat="-21.15659" lon="55.56297">
        <ele>1676.3</ele>
        <time>2013-05-05T10:50:22Z</time>
      </trkpt>
      <trkpt lat="-21.15667" lon="55.56311">
        <ele>1673.7</ele>
        <time>2013-05-05T10:50:36Z</time>
      </trkpt>
      <trkpt lat="-21.15672" lon="55.56318">
        <ele>1672.4</ele>
        <time>2013-05-05T10:50:42Z</time>
      </trkpt>
      <trkpt lat="-21.15677" lon="55.56326">
        <ele>1670.5</ele>
        <time>2013-05-05T10:50:49Z</time>
      </trkpt>
      <trkpt lat="-21.1568" lon="55.56334">
        <ele>1670.5</ele>
        <time>2013-05-05T10:50:58Z</time>
      </trkpt>
      <trkpt lat="-21.15684" lon="55.56342">
        <ele>1669</ele>
        <time>2013-05-05T10:51:04Z</time>
      </trkpt>
      <trkpt lat="-21.15688" lon="55.56349">
        <ele>1667.8</ele>
        <time>2013-05-05T10:51:10Z</time>
      </trkpt>
      <trkpt lat="-21.15693" lon="55.56355">
        <ele>1667.1</ele>
        <time>2013-05-05T10:51:16Z</time>
      </trkpt>
      <trkpt lat="-21.157" lon="55.56361">
        <ele>1667.9</ele>
        <time>2013-05-05T10:51:23Z</time>
      </trkpt>
      <trkpt lat="-21.15701" lon="55.56361">
        <ele>1667.7</ele>
        <time>2013-05-05T10:51:24Z</time>
      </trkpt>
      <trkpt lat="-21.15712" lon="55.56374">
        <ele>1665.8</ele>
        <time>2013-05-05T10:51:36Z</time>
      </trkpt>
      <trkpt lat="-21.15718" lon="55.56381">
        <ele>1666.2</ele>
        <time>2013-05-05T10:51:43Z</time>
      </trkpt>
      <trkpt lat="-21.15722" lon="55.56388">
        <ele>1664.9</ele>
        <time>2013-05-05T10:51:49Z</time>
      </trkpt>
      <trkpt lat="-21.15728" lon="55.56394">
        <ele>1664.4</ele>
        <time>2013-05-05T10:51:55Z</time>
      </trkpt>
      <trkpt lat="-21.15734" lon="55.56399">
        <ele>1664.6</ele>
        <time>2013-05-05T10:52:01Z</time>
      </trkpt>
      <trkpt lat="-21.15739" lon="55.56406">
        <ele>1664.3</ele>
        <time>2013-05-05T10:52:10Z</time>
      </trkpt>
      <trkpt lat="-21.15743" lon="55.56413">
        <ele>1664.3</ele>
        <time>2013-05-05T10:52:15Z</time>
      </trkpt>
      <trkpt lat="-21.15744" lon="55.56421">
        <ele>1663.9</ele>
        <time>2013-05-05T10:52:20Z</time>
      </trkpt>
      <trkpt lat="-21.15746" lon="55.5643">
        <ele>1663.9</ele>
        <time>2013-05-05T10:52:27Z</time>
      </trkpt>
      <trkpt lat="-21.15746" lon="55.56431">
        <ele>1663.7</ele>
        <time>2013-05-05T10:52:28Z</time>
      </trkpt>
      <trkpt lat="-21.15749" lon="55.56449">
        <ele>1662.7</ele>
        <time>2013-05-05T10:52:43Z</time>
      </trkpt>
      <trkpt lat="-21.15753" lon="55.56457">
        <ele>1662.6</ele>
        <time>2013-05-05T10:52:49Z</time>
      </trkpt>
      <trkpt lat="-21.15754" lon="55.56466">
        <ele>1662.9</ele>
        <time>2013-05-05T10:52:56Z</time>
      </trkpt>
      <trkpt lat="-21.15756" lon="55.56475">
        <ele>1662.7</ele>
        <time>2013-05-05T10:53:03Z</time>
      </trkpt>
      <trkpt lat="-21.15759" lon="55.56484">
        <ele>1660.9</ele>
        <time>2013-05-05T10:53:10Z</time>
      </trkpt>
      <trkpt lat="-21.15764" lon="55.56492">
        <ele>1660.6</ele>
        <time>2013-05-05T10:53:18Z</time>
      </trkpt>
      <trkpt lat="-21.15769" lon="55.565">
        <ele>1660.1</ele>
        <time>2013-05-05T10:53:25Z</time>
      </trkpt>
      <trkpt lat="-21.15776" lon="55.56505">
        <ele>1661.1</ele>
        <time>2013-05-05T10:53:40Z</time>
      </trkpt>
      <trkpt lat="-21.15777" lon="55.56505">
        <ele>1660.9</ele>
        <time>2013-05-05T10:53:41Z</time>
      </trkpt>
      <trkpt lat="-21.15788" lon="55.56518">
        <ele>1660.7</ele>
        <time>2013-05-05T10:53:56Z</time>
      </trkpt>
      <trkpt lat="-21.15794" lon="55.56524">
        <ele>1659.6</ele>
        <time>2013-05-05T10:54:04Z</time>
      </trkpt>
      <trkpt lat="-21.15802" lon="55.56529">
        <ele>1658.4</ele>
        <time>2013-05-05T10:54:11Z</time>
      </trkpt>
      <trkpt lat="-21.1581" lon="55.56533">
        <ele>1658.2</ele>
        <time>2013-05-05T10:54:18Z</time>
      </trkpt>
      <trkpt lat="-21.15816" lon="55.56538">
        <ele>1658.9</ele>
        <time>2013-05-05T10:54:26Z</time>
      </trkpt>
      <trkpt lat="-21.15821" lon="55.56545">
        <ele>1657.9</ele>
        <time>2013-05-05T10:54:34Z</time>
      </trkpt>
      <trkpt lat="-21.15828" lon="55.56549">
        <ele>1657.7</ele>
        <time>2013-05-05T10:54:41Z</time>
      </trkpt>
      <trkpt lat="-21.15829" lon="55.5655">
        <ele>1657.4</ele>
        <time>2013-05-05T10:54:42Z</time>
      </trkpt>
      <trkpt lat="-21.15844" lon="55.56555">
        <ele>1657.6</ele>
        <time>2013-05-05T10:54:54Z</time>
      </trkpt>
      <trkpt lat="-21.15852" lon="55.56556">
        <ele>1657.7</ele>
        <time>2013-05-05T10:55:00Z</time>
      </trkpt>
      <trkpt lat="-21.1586" lon="55.56558">
        <ele>1657.8</ele>
        <time>2013-05-05T10:55:07Z</time>
      </trkpt>
      <trkpt lat="-21.15867" lon="55.56562">
        <ele>1657.2</ele>
        <time>2013-05-05T10:55:14Z</time>
      </trkpt>
      <trkpt lat="-21.15873" lon="55.56568">
        <ele>1657.6</ele>
        <time>2013-05-05T10:55:22Z</time>
      </trkpt>
      <trkpt lat="-21.15874" lon="55.56577">
        <ele>1657.8</ele>
        <time>2013-05-05T10:55:30Z</time>
      </trkpt>
      <trkpt lat="-21.15877" lon="55.56585">
        <ele>1658</ele>
        <time>2013-05-05T10:55:37Z</time>
      </trkpt>
      <trkpt lat="-21.15882" lon="55.56592">
        <ele>1657.2</ele>
        <time>2013-05-05T10:55:44Z</time>
      </trkpt>
      <trkpt lat="-21.15882" lon="55.56593">
        <ele>1656.7</ele>
        <time>2013-05-05T10:55:45Z</time>
      </trkpt>
      <trkpt lat="-21.15888" lon="55.5661">
        <ele>1656.5</ele>
        <time>2013-05-05T10:55:59Z</time>
      </trkpt>
      <trkpt lat="-21.15896" lon="55.56613">
        <ele>1656.4</ele>
        <time>2013-05-05T10:56:13Z</time>
      </trkpt>
      <trkpt lat="-21.15904" lon="55.56617">
        <ele>1655.2</ele>
        <time>2013-05-05T10:56:21Z</time>
      </trkpt>
      <trkpt lat="-21.15912" lon="55.56619">
        <ele>1654.8</ele>
        <time>2013-05-05T10:56:29Z</time>
      </trkpt>
      <trkpt lat="-21.1592" lon="55.56624">
        <ele>1654.9</ele>
        <time>2013-05-05T10:56:38Z</time>
      </trkpt>
      <trkpt lat="-21.15926" lon="55.56629">
        <ele>1654.3</ele>
        <time>2013-05-05T10:56:45Z</time>
      </trkpt>
      <trkpt lat="-21.15927" lon="55.5663">
        <ele>1654</ele>
        <time>2013-05-05T10:56:46Z</time>
      </trkpt>
      <trkpt lat="-21.15936" lon="55.56643">
        <ele>1652.7</ele>
        <time>2013-05-05T10:57:00Z</time>
      </trkpt>
      <trkpt lat="-21.15944" lon="55.56646">
        <ele>1652.7</ele>
        <time>2013-05-05T10:57:07Z</time>
      </trkpt>
      <trkpt lat="-21.15946" lon="55.56655">
        <ele>1651.9</ele>
        <time>2013-05-05T10:57:19Z</time>
      </trkpt>
      <trkpt lat="-21.1595" lon="55.56663">
        <ele>1652.1</ele>
        <time>2013-05-05T10:57:27Z</time>
      </trkpt>
      <trkpt lat="-21.15953" lon="55.56671">
        <ele>1650.6</ele>
        <time>2013-05-05T10:57:32Z</time>
      </trkpt>
      <trkpt lat="-21.15956" lon="55.56678">
        <ele>1649.8</ele>
        <time>2013-05-05T10:57:38Z</time>
      </trkpt>
      <trkpt lat="-21.15963" lon="55.56682">
        <ele>1649.2</ele>
        <time>2013-05-05T10:57:44Z</time>
      </trkpt>
      <trkpt lat="-21.1597" lon="55.56687">
        <ele>1648.3</ele>
        <time>2013-05-05T10:57:49Z</time>
      </trkpt>
      <trkpt lat="-21.15972" lon="55.56688">
        <ele>1648.3</ele>
        <time>2013-05-05T10:57:50Z</time>
      </trkpt>
      <trkpt lat="-21.15983" lon="55.567">
        <ele>1645.8</ele>
        <time>2013-05-05T10:58:03Z</time>
      </trkpt>
      <trkpt lat="-21.15985" lon="55.56708">
        <ele>1644.8</ele>
        <time>2013-05-05T10:58:11Z</time>
      </trkpt>
      <trkpt lat="-21.1599" lon="55.56715">
        <ele>1644.6</ele>
        <time>2013-05-05T10:58:16Z</time>
      </trkpt>
      <trkpt lat="-21.15996" lon="55.56721">
        <ele>1644.2</ele>
        <time>2013-05-05T10:58:21Z</time>
      </trkpt>
      <trkpt lat="-21.16" lon="55.56728">
        <ele>1643.7</ele>
        <time>2013-05-05T10:58:28Z</time>
      </trkpt>
      <trkpt lat="-21.16005" lon="55.56736">
        <ele>1643.5</ele>
        <time>2013-05-05T10:58:36Z</time>
      </trkpt>
      <trkpt lat="-21.16009" lon="55.56744">
        <ele>1641.8</ele>
        <time>2013-05-05T10:58:55Z</time>
      </trkpt>
      <trkpt lat="-21.1601" lon="55.56744">
        <ele>1641.5</ele>
        <time>2013-05-05T10:58:56Z</time>
      </trkpt>
      <trkpt lat="-21.16016" lon="55.5676">
        <ele>1640.7</ele>
        <time>2013-05-05T10:59:10Z</time>
      </trkpt>
      <trkpt lat="-21.16019" lon="55.56768">
        <ele>1640.6</ele>
        <time>2013-05-05T10:59:17Z</time>
      </trkpt>
      <trkpt lat="-21.1602" lon="55.56775">
        <ele>1640.2</ele>
        <time>2013-05-05T10:59:21Z</time>
      </trkpt>
      <trkpt lat="-21.1602" lon="55.56785">
        <ele>1640.1</ele>
        <time>2013-05-05T10:59:26Z</time>
      </trkpt>
      <trkpt lat="-21.1602" lon="55.56793">
        <ele>1639</ele>
        <time>2013-05-05T10:59:31Z</time>
      </trkpt>
      <trkpt lat="-21.16022" lon="55.56801">
        <ele>1638</ele>
        <time>2013-05-05T10:59:35Z</time>
      </trkpt>
      <trkpt lat="-21.16024" lon="55.5681">
        <ele>1637.6</ele>
        <time>2013-05-05T10:59:41Z</time>
      </trkpt>
      <trkpt lat="-21.16026" lon="55.56817">
        <ele>1636.9</ele>
        <time>2013-05-05T10:59:46Z</time>
      </trkpt>
      <trkpt lat="-21.16029" lon="55.56826">
        <ele>1636.5</ele>
        <time>2013-05-05T10:59:52Z</time>
      </trkpt>
      <trkpt lat="-21.16034" lon="55.56834">
        <ele>1636.1</ele>
        <time>2013-05-05T10:59:58Z</time>
      </trkpt>
      <trkpt lat="-21.16035" lon="55.56835">
        <ele>1636.2</ele>
        <time>2013-05-05T10:59:59Z</time>
      </trkpt>
      <trkpt lat="-21.16044" lon="55.56849">
        <ele>1636.2</ele>
        <time>2013-05-05T11:00:10Z</time>
      </trkpt>
      <trkpt lat="-21.16049" lon="55.56856">
        <ele>1634.9</ele>
        <time>2013-05-05T11:00:17Z</time>
      </trkpt>
      <trkpt lat="-21.16054" lon="55.56864">
        <ele>1635.1</ele>
        <time>2013-05-05T11:00:24Z</time>
      </trkpt>
      <trkpt lat="-21.16057" lon="55.56873">
        <ele>1634.3</ele>
        <time>2013-05-05T11:00:31Z</time>
      </trkpt>
      <trkpt lat="-21.16058" lon="55.56882">
        <ele>1633</ele>
        <time>2013-05-05T11:00:40Z</time>
      </trkpt>
      <trkpt lat="-21.16058" lon="55.56891">
        <ele>1632.5</ele>
        <time>2013-05-05T11:00:48Z</time>
      </trkpt>
      <trkpt lat="-21.16059" lon="55.569">
        <ele>1633.6</ele>
        <time>2013-05-05T11:00:55Z</time>
      </trkpt>
      <trkpt lat="-21.16059" lon="55.56909">
        <ele>1633.2</ele>
        <time>2013-05-05T11:01:02Z</time>
      </trkpt>
      <trkpt lat="-21.1606" lon="55.56911">
        <ele>1633.2</ele>
        <time>2013-05-05T11:01:03Z</time>
      </trkpt>
      <trkpt lat="-21.16065" lon="55.56926">
        <ele>1632.2</ele>
        <time>2013-05-05T11:01:14Z</time>
      </trkpt>
      <trkpt lat="-21.16069" lon="55.56932">
        <ele>1632</ele>
        <time>2013-05-05T11:01:20Z</time>
      </trkpt>
      <trkpt lat="-21.16071" lon="55.5694">
        <ele>1631.9</ele>
        <time>2013-05-05T11:01:26Z</time>
      </trkpt>
      <trkpt lat="-21.16069" lon="55.56949">
        <ele>1630.9</ele>
        <time>2013-05-05T11:01:33Z</time>
      </trkpt>
      <trkpt lat="-21.16069" lon="55.56958">
        <ele>1630.1</ele>
        <time>2013-05-05T11:01:38Z</time>
      </trkpt>
      <trkpt lat="-21.16069" lon="55.56966">
        <ele>1631.3</ele>
        <time>2013-05-05T11:01:44Z</time>
      </trkpt>
      <trkpt lat="-21.16069" lon="55.56975">
        <ele>1630.1</ele>
        <time>2013-05-05T11:01:50Z</time>
      </trkpt>
      <trkpt lat="-21.16069" lon="55.56984">
        <ele>1630.5</ele>
        <time>2013-05-05T11:01:57Z</time>
      </trkpt>
      <trkpt lat="-21.16071" lon="55.56992">
        <ele>1630.4</ele>
        <time>2013-05-05T11:02:03Z</time>
      </trkpt>
      <trkpt lat="-21.16071" lon="55.56994">
        <ele>1630.7</ele>
        <time>2013-05-05T11:02:04Z</time>
      </trkpt>
      <trkpt lat="-21.16074" lon="55.5701">
        <ele>1630</ele>
        <time>2013-05-05T11:02:16Z</time>
      </trkpt>
      <trkpt lat="-21.16078" lon="55.57017">
        <ele>1628.8</ele>
        <time>2013-05-05T11:02:22Z</time>
      </trkpt>
      <trkpt lat="-21.16083" lon="55.57025">
        <ele>1628.2</ele>
        <time>2013-05-05T11:02:29Z</time>
      </trkpt>
      <trkpt lat="-21.16086" lon="55.57033">
        <ele>1627.6</ele>
        <time>2013-05-05T11:02:36Z</time>
      </trkpt>
      <trkpt lat="-21.16091" lon="55.5704">
        <ele>1627.8</ele>
        <time>2013-05-05T11:02:44Z</time>
      </trkpt>
      <trkpt lat="-21.16095" lon="55.57048">
        <ele>1627.1</ele>
        <time>2013-05-05T11:02:50Z</time>
      </trkpt>
      <trkpt lat="-21.161" lon="55.57055">
        <ele>1626.5</ele>
        <time>2013-05-05T11:02:56Z</time>
      </trkpt>
      <trkpt lat="-21.16102" lon="55.57064">
        <ele>1627</ele>
        <time>2013-05-05T11:03:03Z</time>
      </trkpt>
      <trkpt lat="-21.16102" lon="55.57074">
        <ele>1626.4</ele>
        <time>2013-05-05T11:03:11Z</time>
      </trkpt>
      <trkpt lat="-21.16101" lon="55.57075">
        <ele>1626.5</ele>
        <time>2013-05-05T11:03:12Z</time>
      </trkpt>
      <trkpt lat="-21.16102" lon="55.57083">
        <ele>1625.3</ele>
        <time>2013-05-05T11:04:25Z</time>
      </trkpt>
      <trkpt lat="-21.16117" lon="55.57089">
        <ele>1624.7</ele>
        <time>2013-05-05T11:06:40Z</time>
      </trkpt>
      <trkpt lat="-21.16117" lon="55.57089">
        <ele>1624.5</ele>
        <time>2013-05-05T11:06:41Z</time>
      </trkpt>
      <trkpt lat="-21.16117" lon="55.57089">
        <ele>1624.5</ele>
        <time>2013-05-05T11:06:41Z</time>
      </trkpt>
      <trkpt lat="-21.16117" lon="55.57089">
        <ele>1624.6</ele>
        <time>2013-05-05T11:06:48Z</time>
      </trkpt>
    </trkseg>
  </trk>
</gpx>